<?xml version="1.0" encoding="UTF-8" standalone="no" ?>
<gpx xmlns="http://www.topografix.com/GPX/1/1" xmlns:xsi="http://www.w3.org/2001/XMLSchema-instance" xsi:schemaLocation="http://www.topografix.com/GPX/1/1 http://www.topografix.com/GPX/1/1/gpx.xsd" version="1.1" creator="VisuGPX - https://www.visugpx.com">
  <metadata>
    <name>sortie enduro sermaise etampe juillet 2013</name>
    <desc><![CDATA[bonne ballade relativement facile mis a part quelques chutes ]]></desc>
  </metadata>
  <trk>
    <name><![CDATA[2013-07-25-01_13-07-25 214 CHATEAUFORT O]]></name>
    <trkseg>
      <trkpt lat="48.67854" lon="2.17402">
        <ele>162</ele>
        <time>2013-07-25T17:40:18Z</time>
      </trkpt>
      <trkpt lat="48.67855" lon="2.17397">
        <ele>162</ele>
        <time>2013-07-25T17:40:19Z</time>
      </trkpt>
      <trkpt lat="48.67855" lon="2.17397">
        <ele>162</ele>
        <time>2013-07-25T17:40:19Z</time>
      </trkpt>
      <trkpt lat="48.67865" lon="2.17331">
        <ele>161</ele>
        <time>2013-07-25T17:40:32Z</time>
      </trkpt>
      <trkpt lat="48.67866" lon="2.17315">
        <ele>161</ele>
        <time>2013-07-25T17:40:35Z</time>
      </trkpt>
      <trkpt lat="48.67878" lon="2.17222">
        <ele>161</ele>
        <time>2013-07-25T17:40:51Z</time>
      </trkpt>
      <trkpt lat="48.67879" lon="2.17204">
        <ele>161</ele>
        <time>2013-07-25T17:40:54Z</time>
      </trkpt>
      <trkpt lat="48.67878" lon="2.17197">
        <ele>161</ele>
        <time>2013-07-25T17:40:55Z</time>
      </trkpt>
      <trkpt lat="48.67876" lon="2.17191">
        <ele>161</ele>
        <time>2013-07-25T17:40:56Z</time>
      </trkpt>
      <trkpt lat="48.67874" lon="2.17186">
        <ele>161</ele>
        <time>2013-07-25T17:40:57Z</time>
      </trkpt>
      <trkpt lat="48.67867" lon="2.17172">
        <ele>161</ele>
        <time>2013-07-25T17:41:00Z</time>
      </trkpt>
      <trkpt lat="48.67864" lon="2.17164">
        <ele>161</ele>
        <time>2013-07-25T17:41:02Z</time>
      </trkpt>
      <trkpt lat="48.67859" lon="2.17155">
        <ele>161</ele>
        <time>2013-07-25T17:41:04Z</time>
      </trkpt>
      <trkpt lat="48.67855" lon="2.17145">
        <ele>161</ele>
        <time>2013-07-25T17:41:06Z</time>
      </trkpt>
      <trkpt lat="48.67851" lon="2.17133">
        <ele>161</ele>
        <time>2013-07-25T17:41:08Z</time>
      </trkpt>
      <trkpt lat="48.6785" lon="2.17121">
        <ele>161</ele>
        <time>2013-07-25T17:41:09Z</time>
      </trkpt>
      <trkpt lat="48.6785" lon="2.17114">
        <ele>161</ele>
        <time>2013-07-25T17:41:10Z</time>
      </trkpt>
      <trkpt lat="48.67844" lon="2.17048">
        <ele>161</ele>
        <time>2013-07-25T17:41:21Z</time>
      </trkpt>
      <trkpt lat="48.67841" lon="2.17016">
        <ele>160</ele>
        <time>2013-07-25T17:41:27Z</time>
      </trkpt>
      <trkpt lat="48.67839" lon="2.17011">
        <ele>160</ele>
        <time>2013-07-25T17:41:28Z</time>
      </trkpt>
      <trkpt lat="48.67828" lon="2.16984">
        <ele>160</ele>
        <time>2013-07-25T17:41:34Z</time>
      </trkpt>
      <trkpt lat="48.6782" lon="2.1697">
        <ele>160</ele>
        <time>2013-07-25T17:41:37Z</time>
      </trkpt>
      <trkpt lat="48.67817" lon="2.16964">
        <ele>160</ele>
        <time>2013-07-25T17:41:38Z</time>
      </trkpt>
      <trkpt lat="48.67815" lon="2.16957">
        <ele>159</ele>
        <time>2013-07-25T17:41:39Z</time>
      </trkpt>
      <trkpt lat="48.67816" lon="2.16949">
        <ele>159</ele>
        <time>2013-07-25T17:41:40Z</time>
      </trkpt>
      <trkpt lat="48.67835" lon="2.1684">
        <ele>160</ele>
        <time>2013-07-25T17:41:56Z</time>
      </trkpt>
      <trkpt lat="48.67837" lon="2.16828">
        <ele>160</ele>
        <time>2013-07-25T17:41:58Z</time>
      </trkpt>
      <trkpt lat="48.67838" lon="2.16822">
        <ele>161</ele>
        <time>2013-07-25T17:41:59Z</time>
      </trkpt>
      <trkpt lat="48.67842" lon="2.16794">
        <ele>161</ele>
        <time>2013-07-25T17:42:04Z</time>
      </trkpt>
      <trkpt lat="48.67842" lon="2.16789">
        <ele>161</ele>
        <time>2013-07-25T17:42:05Z</time>
      </trkpt>
      <trkpt lat="48.6784" lon="2.16779">
        <ele>161</ele>
        <time>2013-07-25T17:42:07Z</time>
      </trkpt>
      <trkpt lat="48.67838" lon="2.16774">
        <ele>161</ele>
        <time>2013-07-25T17:42:08Z</time>
      </trkpt>
      <trkpt lat="48.67835" lon="2.1677">
        <ele>161</ele>
        <time>2013-07-25T17:42:09Z</time>
      </trkpt>
      <trkpt lat="48.67829" lon="2.16762">
        <ele>161</ele>
        <time>2013-07-25T17:42:11Z</time>
      </trkpt>
      <trkpt lat="48.67825" lon="2.16759">
        <ele>161</ele>
        <time>2013-07-25T17:42:12Z</time>
      </trkpt>
      <trkpt lat="48.6778" lon="2.16737">
        <ele>161</ele>
        <time>2013-07-25T17:42:22Z</time>
      </trkpt>
      <trkpt lat="48.67756" lon="2.16728">
        <ele>161</ele>
        <time>2013-07-25T17:42:27Z</time>
      </trkpt>
      <trkpt lat="48.67736" lon="2.16718">
        <ele>159</ele>
        <time>2013-07-25T17:42:31Z</time>
      </trkpt>
      <trkpt lat="48.67715" lon="2.16701">
        <ele>159</ele>
        <time>2013-07-25T17:42:36Z</time>
      </trkpt>
      <trkpt lat="48.67698" lon="2.16683">
        <ele>158</ele>
        <time>2013-07-25T17:42:40Z</time>
      </trkpt>
      <trkpt lat="48.67694" lon="2.16678">
        <ele>158</ele>
        <time>2013-07-25T17:42:41Z</time>
      </trkpt>
      <trkpt lat="48.67691" lon="2.16671">
        <ele>158</ele>
        <time>2013-07-25T17:42:42Z</time>
      </trkpt>
      <trkpt lat="48.67689" lon="2.16664">
        <ele>157</ele>
        <time>2013-07-25T17:42:43Z</time>
      </trkpt>
      <trkpt lat="48.67688" lon="2.16657">
        <ele>157</ele>
        <time>2013-07-25T17:42:44Z</time>
      </trkpt>
      <trkpt lat="48.67686" lon="2.16592">
        <ele>157</ele>
        <time>2013-07-25T17:42:53Z</time>
      </trkpt>
      <trkpt lat="48.67685" lon="2.16577">
        <ele>157</ele>
        <time>2013-07-25T17:42:55Z</time>
      </trkpt>
      <trkpt lat="48.67683" lon="2.1657">
        <ele>157</ele>
        <time>2013-07-25T17:42:56Z</time>
      </trkpt>
      <trkpt lat="48.67681" lon="2.16563">
        <ele>157</ele>
        <time>2013-07-25T17:42:57Z</time>
      </trkpt>
      <trkpt lat="48.6768" lon="2.16556">
        <ele>158</ele>
        <time>2013-07-25T17:42:58Z</time>
      </trkpt>
      <trkpt lat="48.6768" lon="2.1641">
        <ele>157</ele>
        <time>2013-07-25T17:43:18Z</time>
      </trkpt>
      <trkpt lat="48.67681" lon="2.16403">
        <ele>157</ele>
        <time>2013-07-25T17:43:19Z</time>
      </trkpt>
      <trkpt lat="48.67684" lon="2.16397">
        <ele>158</ele>
        <time>2013-07-25T17:43:20Z</time>
      </trkpt>
      <trkpt lat="48.67692" lon="2.1638">
        <ele>158</ele>
        <time>2013-07-25T17:43:23Z</time>
      </trkpt>
      <trkpt lat="48.67694" lon="2.16374">
        <ele>158</ele>
        <time>2013-07-25T17:43:24Z</time>
      </trkpt>
      <trkpt lat="48.67696" lon="2.16368">
        <ele>158</ele>
        <time>2013-07-25T17:43:25Z</time>
      </trkpt>
      <trkpt lat="48.67696" lon="2.16361">
        <ele>158</ele>
        <time>2013-07-25T17:43:26Z</time>
      </trkpt>
      <trkpt lat="48.67695" lon="2.16354">
        <ele>158</ele>
        <time>2013-07-25T17:43:27Z</time>
      </trkpt>
      <trkpt lat="48.67694" lon="2.16348">
        <ele>158</ele>
        <time>2013-07-25T17:43:28Z</time>
      </trkpt>
      <trkpt lat="48.67691" lon="2.16343">
        <ele>158</ele>
        <time>2013-07-25T17:43:29Z</time>
      </trkpt>
      <trkpt lat="48.67687" lon="2.16339">
        <ele>158</ele>
        <time>2013-07-25T17:43:30Z</time>
      </trkpt>
      <trkpt lat="48.67682" lon="2.16336">
        <ele>158</ele>
        <time>2013-07-25T17:43:31Z</time>
      </trkpt>
      <trkpt lat="48.67665" lon="2.16328">
        <ele>157</ele>
        <time>2013-07-25T17:43:35Z</time>
      </trkpt>
      <trkpt lat="48.67661" lon="2.16325">
        <ele>157</ele>
        <time>2013-07-25T17:43:36Z</time>
      </trkpt>
      <trkpt lat="48.67657" lon="2.16321">
        <ele>157</ele>
        <time>2013-07-25T17:43:37Z</time>
      </trkpt>
      <trkpt lat="48.6765" lon="2.16311">
        <ele>156</ele>
        <time>2013-07-25T17:43:39Z</time>
      </trkpt>
      <trkpt lat="48.67585" lon="2.1618">
        <ele>156</ele>
        <time>2013-07-25T17:44:03Z</time>
      </trkpt>
      <trkpt lat="48.67567" lon="2.16144">
        <ele>155</ele>
        <time>2013-07-25T17:44:10Z</time>
      </trkpt>
      <trkpt lat="48.67565" lon="2.16138">
        <ele>155</ele>
        <time>2013-07-25T17:44:11Z</time>
      </trkpt>
      <trkpt lat="48.67564" lon="2.16131">
        <ele>155</ele>
        <time>2013-07-25T17:44:12Z</time>
      </trkpt>
      <trkpt lat="48.67566" lon="2.16058">
        <ele>155</ele>
        <time>2013-07-25T17:44:23Z</time>
      </trkpt>
      <trkpt lat="48.67567" lon="2.16054">
        <ele>155</ele>
        <time>2013-07-25T17:44:24Z</time>
      </trkpt>
      <trkpt lat="48.6757" lon="2.16052">
        <ele>155</ele>
        <time>2013-07-25T17:44:25Z</time>
      </trkpt>
      <trkpt lat="48.67574" lon="2.16052">
        <ele>155</ele>
        <time>2013-07-25T17:44:26Z</time>
      </trkpt>
      <trkpt lat="48.67578" lon="2.16052">
        <ele>155</ele>
        <time>2013-07-25T17:44:27Z</time>
      </trkpt>
      <trkpt lat="48.67603" lon="2.16059">
        <ele>155</ele>
        <time>2013-07-25T17:44:33Z</time>
      </trkpt>
      <trkpt lat="48.6764" lon="2.1607">
        <ele>155</ele>
        <time>2013-07-25T17:44:43Z</time>
      </trkpt>
      <trkpt lat="48.67643" lon="2.16071">
        <ele>155</ele>
        <time>2013-07-25T17:44:44Z</time>
      </trkpt>
      <trkpt lat="48.67648" lon="2.1607">
        <ele>156</ele>
        <time>2013-07-25T17:44:46Z</time>
      </trkpt>
      <trkpt lat="48.6765" lon="2.16069">
        <ele>156</ele>
        <time>2013-07-25T17:44:47Z</time>
      </trkpt>
      <trkpt lat="48.67651" lon="2.16066">
        <ele>156</ele>
        <time>2013-07-25T17:44:48Z</time>
      </trkpt>
      <trkpt lat="48.6765" lon="2.16063">
        <ele>155</ele>
        <time>2013-07-25T17:44:49Z</time>
      </trkpt>
      <trkpt lat="48.67648" lon="2.16059">
        <ele>155</ele>
        <time>2013-07-25T17:44:50Z</time>
      </trkpt>
      <trkpt lat="48.67634" lon="2.16012">
        <ele>155</ele>
        <time>2013-07-25T17:44:58Z</time>
      </trkpt>
      <trkpt lat="48.67629" lon="2.15984">
        <ele>155</ele>
        <time>2013-07-25T17:45:02Z</time>
      </trkpt>
      <trkpt lat="48.67626" lon="2.15921">
        <ele>154</ele>
        <time>2013-07-25T17:45:10Z</time>
      </trkpt>
      <trkpt lat="48.67628" lon="2.15897">
        <ele>153</ele>
        <time>2013-07-25T17:45:13Z</time>
      </trkpt>
      <trkpt lat="48.67636" lon="2.15857">
        <ele>153</ele>
        <time>2013-07-25T17:45:18Z</time>
      </trkpt>
      <trkpt lat="48.67642" lon="2.15835">
        <ele>153</ele>
        <time>2013-07-25T17:45:21Z</time>
      </trkpt>
      <trkpt lat="48.67644" lon="2.15828">
        <ele>153</ele>
        <time>2013-07-25T17:45:22Z</time>
      </trkpt>
      <trkpt lat="48.67649" lon="2.15815">
        <ele>153</ele>
        <time>2013-07-25T17:45:24Z</time>
      </trkpt>
      <trkpt lat="48.6766" lon="2.1579">
        <ele>153</ele>
        <time>2013-07-25T17:45:28Z</time>
      </trkpt>
      <trkpt lat="48.67667" lon="2.1578">
        <ele>154</ele>
        <time>2013-07-25T17:45:30Z</time>
      </trkpt>
      <trkpt lat="48.67671" lon="2.15776">
        <ele>154</ele>
        <time>2013-07-25T17:45:31Z</time>
      </trkpt>
      <trkpt lat="48.67682" lon="2.15767">
        <ele>154</ele>
        <time>2013-07-25T17:45:34Z</time>
      </trkpt>
      <trkpt lat="48.67711" lon="2.15753">
        <ele>155</ele>
        <time>2013-07-25T17:45:41Z</time>
      </trkpt>
      <trkpt lat="48.67747" lon="2.15719">
        <ele>155</ele>
        <time>2013-07-25T17:45:51Z</time>
      </trkpt>
      <trkpt lat="48.67759" lon="2.1571">
        <ele>157</ele>
        <time>2013-07-25T17:45:54Z</time>
      </trkpt>
      <trkpt lat="48.67763" lon="2.15708">
        <ele>157</ele>
        <time>2013-07-25T17:45:55Z</time>
      </trkpt>
      <trkpt lat="48.67767" lon="2.15706">
        <ele>157</ele>
        <time>2013-07-25T17:45:56Z</time>
      </trkpt>
      <trkpt lat="48.67776" lon="2.15705">
        <ele>157</ele>
        <time>2013-07-25T17:45:58Z</time>
      </trkpt>
      <trkpt lat="48.67785" lon="2.15705">
        <ele>157</ele>
        <time>2013-07-25T17:46:00Z</time>
      </trkpt>
      <trkpt lat="48.67793" lon="2.15706">
        <ele>158</ele>
        <time>2013-07-25T17:46:02Z</time>
      </trkpt>
      <trkpt lat="48.678" lon="2.15708">
        <ele>158</ele>
        <time>2013-07-25T17:46:04Z</time>
      </trkpt>
      <trkpt lat="48.67803" lon="2.15708">
        <ele>158</ele>
        <time>2013-07-25T17:46:05Z</time>
      </trkpt>
      <trkpt lat="48.67806" lon="2.15706">
        <ele>158</ele>
        <time>2013-07-25T17:46:06Z</time>
      </trkpt>
      <trkpt lat="48.67808" lon="2.15703">
        <ele>158</ele>
        <time>2013-07-25T17:46:07Z</time>
      </trkpt>
      <trkpt lat="48.67809" lon="2.157">
        <ele>158</ele>
        <time>2013-07-25T17:46:08Z</time>
      </trkpt>
      <trkpt lat="48.67811" lon="2.15686">
        <ele>158</ele>
        <time>2013-07-25T17:46:11Z</time>
      </trkpt>
      <trkpt lat="48.67814" lon="2.15656">
        <ele>158</ele>
        <time>2013-07-25T17:46:17Z</time>
      </trkpt>
      <trkpt lat="48.67818" lon="2.15633">
        <ele>158</ele>
        <time>2013-07-25T17:46:21Z</time>
      </trkpt>
      <trkpt lat="48.67819" lon="2.15628">
        <ele>158</ele>
        <time>2013-07-25T17:46:22Z</time>
      </trkpt>
      <trkpt lat="48.67822" lon="2.15623">
        <ele>158</ele>
        <time>2013-07-25T17:46:23Z</time>
      </trkpt>
      <trkpt lat="48.67825" lon="2.15621">
        <ele>159</ele>
        <time>2013-07-25T17:46:24Z</time>
      </trkpt>
      <trkpt lat="48.67829" lon="2.15621">
        <ele>159</ele>
        <time>2013-07-25T17:46:25Z</time>
      </trkpt>
      <trkpt lat="48.67836" lon="2.15625">
        <ele>160</ele>
        <time>2013-07-25T17:46:27Z</time>
      </trkpt>
      <trkpt lat="48.67864" lon="2.15633">
        <ele>160</ele>
        <time>2013-07-25T17:46:35Z</time>
      </trkpt>
      <trkpt lat="48.67867" lon="2.15633">
        <ele>161</ele>
        <time>2013-07-25T17:46:36Z</time>
      </trkpt>
      <trkpt lat="48.67884" lon="2.15636">
        <ele>161</ele>
        <time>2013-07-25T17:46:41Z</time>
      </trkpt>
      <trkpt lat="48.67888" lon="2.15636">
        <ele>161</ele>
        <time>2013-07-25T17:46:42Z</time>
      </trkpt>
      <trkpt lat="48.67891" lon="2.15635">
        <ele>161</ele>
        <time>2013-07-25T17:46:43Z</time>
      </trkpt>
      <trkpt lat="48.67897" lon="2.15632">
        <ele>161</ele>
        <time>2013-07-25T17:46:45Z</time>
      </trkpt>
      <trkpt lat="48.67913" lon="2.15632">
        <ele>161</ele>
        <time>2013-07-25T17:46:49Z</time>
      </trkpt>
      <trkpt lat="48.67917" lon="2.15632">
        <ele>161</ele>
        <time>2013-07-25T17:46:50Z</time>
      </trkpt>
      <trkpt lat="48.67921" lon="2.15632">
        <ele>162</ele>
        <time>2013-07-25T17:46:51Z</time>
      </trkpt>
      <trkpt lat="48.67925" lon="2.15633">
        <ele>162</ele>
        <time>2013-07-25T17:46:52Z</time>
      </trkpt>
      <trkpt lat="48.67983" lon="2.15631">
        <ele>162</ele>
        <time>2013-07-25T17:47:07Z</time>
      </trkpt>
      <trkpt lat="48.67987" lon="2.1563">
        <ele>162</ele>
        <time>2013-07-25T17:47:08Z</time>
      </trkpt>
      <trkpt lat="48.67995" lon="2.1563">
        <ele>162</ele>
        <time>2013-07-25T17:47:10Z</time>
      </trkpt>
      <trkpt lat="48.68011" lon="2.15633">
        <ele>161</ele>
        <time>2013-07-25T17:47:14Z</time>
      </trkpt>
      <trkpt lat="48.68021" lon="2.15633">
        <ele>161</ele>
        <time>2013-07-25T17:47:16Z</time>
      </trkpt>
      <trkpt lat="48.68025" lon="2.15632">
        <ele>161</ele>
        <time>2013-07-25T17:47:17Z</time>
      </trkpt>
      <trkpt lat="48.68038" lon="2.15632">
        <ele>161</ele>
        <time>2013-07-25T17:47:20Z</time>
      </trkpt>
      <trkpt lat="48.6805" lon="2.15632">
        <ele>161</ele>
        <time>2013-07-25T17:47:23Z</time>
      </trkpt>
      <trkpt lat="48.68054" lon="2.15631">
        <ele>161</ele>
        <time>2013-07-25T17:47:24Z</time>
      </trkpt>
      <trkpt lat="48.68072" lon="2.1563">
        <ele>161</ele>
        <time>2013-07-25T17:47:28Z</time>
      </trkpt>
      <trkpt lat="48.68106" lon="2.15627">
        <ele>160</ele>
        <time>2013-07-25T17:47:36Z</time>
      </trkpt>
      <trkpt lat="48.6811" lon="2.15627">
        <ele>160</ele>
        <time>2013-07-25T17:47:37Z</time>
      </trkpt>
      <trkpt lat="48.68114" lon="2.15629">
        <ele>160</ele>
        <time>2013-07-25T17:47:38Z</time>
      </trkpt>
      <trkpt lat="48.68118" lon="2.15632">
        <ele>160</ele>
        <time>2013-07-25T17:47:39Z</time>
      </trkpt>
      <trkpt lat="48.68129" lon="2.1565">
        <ele>160</ele>
        <time>2013-07-25T17:47:43Z</time>
      </trkpt>
      <trkpt lat="48.6813" lon="2.15655">
        <ele>160</ele>
        <time>2013-07-25T17:47:44Z</time>
      </trkpt>
      <trkpt lat="48.6813" lon="2.15657">
        <ele>160</ele>
        <time>2013-07-25T17:47:45Z</time>
      </trkpt>
      <trkpt lat="48.6813" lon="2.15658">
        <ele>160</ele>
        <time>2013-07-25T17:47:46Z</time>
      </trkpt>
      <trkpt lat="48.68131" lon="2.15659">
        <ele>160</ele>
        <time>2013-07-25T17:47:47Z</time>
      </trkpt>
      <trkpt lat="48.68133" lon="2.15661">
        <ele>160</ele>
        <time>2013-07-25T17:47:48Z</time>
      </trkpt>
      <trkpt lat="48.68134" lon="2.15664">
        <ele>160</ele>
        <time>2013-07-25T17:47:49Z</time>
      </trkpt>
      <trkpt lat="48.68136" lon="2.15667">
        <ele>159</ele>
        <time>2013-07-25T17:47:50Z</time>
      </trkpt>
      <trkpt lat="48.68144" lon="2.15682">
        <ele>159</ele>
        <time>2013-07-25T17:47:54Z</time>
      </trkpt>
      <trkpt lat="48.68194" lon="2.15795">
        <ele>159</ele>
        <time>2013-07-25T17:48:15Z</time>
      </trkpt>
      <trkpt lat="48.68203" lon="2.1581">
        <ele>159</ele>
        <time>2013-07-25T17:48:18Z</time>
      </trkpt>
      <trkpt lat="48.68206" lon="2.15814">
        <ele>159</ele>
        <time>2013-07-25T17:48:19Z</time>
      </trkpt>
      <trkpt lat="48.68214" lon="2.1582">
        <ele>159</ele>
        <time>2013-07-25T17:48:21Z</time>
      </trkpt>
      <trkpt lat="48.68218" lon="2.15821">
        <ele>159</ele>
        <time>2013-07-25T17:48:22Z</time>
      </trkpt>
      <trkpt lat="48.68222" lon="2.1582">
        <ele>159</ele>
        <time>2013-07-25T17:48:23Z</time>
      </trkpt>
      <trkpt lat="48.68238" lon="2.1581">
        <ele>159</ele>
        <time>2013-07-25T17:48:27Z</time>
      </trkpt>
      <trkpt lat="48.6825" lon="2.15804">
        <ele>159</ele>
        <time>2013-07-25T17:48:30Z</time>
      </trkpt>
      <trkpt lat="48.68254" lon="2.15803">
        <ele>159</ele>
        <time>2013-07-25T17:48:31Z</time>
      </trkpt>
      <trkpt lat="48.68272" lon="2.15802">
        <ele>158</ele>
        <time>2013-07-25T17:48:35Z</time>
      </trkpt>
      <trkpt lat="48.68284" lon="2.15799">
        <ele>158</ele>
        <time>2013-07-25T17:48:38Z</time>
      </trkpt>
      <trkpt lat="48.68289" lon="2.15798">
        <ele>158</ele>
        <time>2013-07-25T17:48:39Z</time>
      </trkpt>
      <trkpt lat="48.68308" lon="2.15786">
        <ele>158</ele>
        <time>2013-07-25T17:48:44Z</time>
      </trkpt>
      <trkpt lat="48.68312" lon="2.15784">
        <ele>158</ele>
        <time>2013-07-25T17:48:45Z</time>
      </trkpt>
      <trkpt lat="48.6832" lon="2.15779">
        <ele>158</ele>
        <time>2013-07-25T17:48:47Z</time>
      </trkpt>
      <trkpt lat="48.68323" lon="2.15776">
        <ele>158</ele>
        <time>2013-07-25T17:48:48Z</time>
      </trkpt>
      <trkpt lat="48.68325" lon="2.1577">
        <ele>158</ele>
        <time>2013-07-25T17:48:49Z</time>
      </trkpt>
      <trkpt lat="48.68326" lon="2.15764">
        <ele>157</ele>
        <time>2013-07-25T17:48:50Z</time>
      </trkpt>
      <trkpt lat="48.68327" lon="2.15758">
        <ele>157</ele>
        <time>2013-07-25T17:48:51Z</time>
      </trkpt>
      <trkpt lat="48.68326" lon="2.15752">
        <ele>157</ele>
        <time>2013-07-25T17:48:52Z</time>
      </trkpt>
      <trkpt lat="48.68319" lon="2.1573">
        <ele>157</ele>
        <time>2013-07-25T17:48:56Z</time>
      </trkpt>
      <trkpt lat="48.68318" lon="2.15725">
        <ele>157</ele>
        <time>2013-07-25T17:48:57Z</time>
      </trkpt>
      <trkpt lat="48.68319" lon="2.15721">
        <ele>157</ele>
        <time>2013-07-25T17:48:58Z</time>
      </trkpt>
      <trkpt lat="48.68321" lon="2.15718">
        <ele>157</ele>
        <time>2013-07-25T17:48:59Z</time>
      </trkpt>
      <trkpt lat="48.68324" lon="2.15715">
        <ele>157</ele>
        <time>2013-07-25T17:49:00Z</time>
      </trkpt>
      <trkpt lat="48.68328" lon="2.15713">
        <ele>157</ele>
        <time>2013-07-25T17:49:01Z</time>
      </trkpt>
      <trkpt lat="48.68332" lon="2.15711">
        <ele>157</ele>
        <time>2013-07-25T17:49:02Z</time>
      </trkpt>
      <trkpt lat="48.68363" lon="2.15692">
        <ele>156</ele>
        <time>2013-07-25T17:49:09Z</time>
      </trkpt>
      <trkpt lat="48.68388" lon="2.15681">
        <ele>155</ele>
        <time>2013-07-25T17:49:14Z</time>
      </trkpt>
      <trkpt lat="48.684" lon="2.15672">
        <ele>154</ele>
        <time>2013-07-25T17:49:17Z</time>
      </trkpt>
      <trkpt lat="48.68409" lon="2.15663">
        <ele>153</ele>
        <time>2013-07-25T17:49:19Z</time>
      </trkpt>
      <trkpt lat="48.68412" lon="2.15657">
        <ele>153</ele>
        <time>2013-07-25T17:49:20Z</time>
      </trkpt>
      <trkpt lat="48.68416" lon="2.15652">
        <ele>153</ele>
        <time>2013-07-25T17:49:21Z</time>
      </trkpt>
      <trkpt lat="48.6842" lon="2.1565">
        <ele>147</ele>
        <time>2013-07-25T17:49:22Z</time>
      </trkpt>
      <trkpt lat="48.68427" lon="2.15649">
        <ele>146</ele>
        <time>2013-07-25T17:49:24Z</time>
      </trkpt>
      <trkpt lat="48.6843" lon="2.15648">
        <ele>146</ele>
        <time>2013-07-25T17:49:25Z</time>
      </trkpt>
      <trkpt lat="48.68432" lon="2.15646">
        <ele>145</ele>
        <time>2013-07-25T17:49:26Z</time>
      </trkpt>
      <trkpt lat="48.68434" lon="2.15644">
        <ele>145</ele>
        <time>2013-07-25T17:49:27Z</time>
      </trkpt>
      <trkpt lat="48.68436" lon="2.15638">
        <ele>144</ele>
        <time>2013-07-25T17:49:28Z</time>
      </trkpt>
      <trkpt lat="48.68437" lon="2.15633">
        <ele>144</ele>
        <time>2013-07-25T17:49:29Z</time>
      </trkpt>
      <trkpt lat="48.68439" lon="2.1563">
        <ele>143</ele>
        <time>2013-07-25T17:49:30Z</time>
      </trkpt>
      <trkpt lat="48.68441" lon="2.1563">
        <ele>143</ele>
        <time>2013-07-25T17:49:31Z</time>
      </trkpt>
      <trkpt lat="48.68447" lon="2.15634">
        <ele>143</ele>
        <time>2013-07-25T17:49:33Z</time>
      </trkpt>
      <trkpt lat="48.6846" lon="2.15647">
        <ele>142</ele>
        <time>2013-07-25T17:49:37Z</time>
      </trkpt>
      <trkpt lat="48.6847" lon="2.15658">
        <ele>141</ele>
        <time>2013-07-25T17:49:40Z</time>
      </trkpt>
      <trkpt lat="48.68484" lon="2.15672">
        <ele>143</ele>
        <time>2013-07-25T17:49:44Z</time>
      </trkpt>
      <trkpt lat="48.68493" lon="2.15682">
        <ele>143</ele>
        <time>2013-07-25T17:49:47Z</time>
      </trkpt>
      <trkpt lat="48.68496" lon="2.15684">
        <ele>143</ele>
        <time>2013-07-25T17:49:48Z</time>
      </trkpt>
      <trkpt lat="48.685" lon="2.15686">
        <ele>140</ele>
        <time>2013-07-25T17:49:49Z</time>
      </trkpt>
      <trkpt lat="48.68505" lon="2.15686">
        <ele>140</ele>
        <time>2013-07-25T17:49:50Z</time>
      </trkpt>
      <trkpt lat="48.68511" lon="2.1569">
        <ele>140</ele>
        <time>2013-07-25T17:49:52Z</time>
      </trkpt>
      <trkpt lat="48.68518" lon="2.15694">
        <ele>141</ele>
        <time>2013-07-25T17:49:54Z</time>
      </trkpt>
      <trkpt lat="48.68545" lon="2.15722">
        <ele>142</ele>
        <time>2013-07-25T17:50:02Z</time>
      </trkpt>
      <trkpt lat="48.68549" lon="2.15729">
        <ele>143</ele>
        <time>2013-07-25T17:50:04Z</time>
      </trkpt>
      <trkpt lat="48.68552" lon="2.15731">
        <ele>143</ele>
        <time>2013-07-25T17:50:06Z</time>
      </trkpt>
      <trkpt lat="48.68553" lon="2.15732">
        <ele>143</ele>
        <time>2013-07-25T17:50:07Z</time>
      </trkpt>
      <trkpt lat="48.68554" lon="2.15731">
        <ele>143</ele>
        <time>2013-07-25T17:50:08Z</time>
      </trkpt>
      <trkpt lat="48.68557" lon="2.15729">
        <ele>142</ele>
        <time>2013-07-25T17:50:10Z</time>
      </trkpt>
      <trkpt lat="48.68563" lon="2.15718">
        <ele>141</ele>
        <time>2013-07-25T17:50:13Z</time>
      </trkpt>
      <trkpt lat="48.68566" lon="2.15712">
        <ele>141</ele>
        <time>2013-07-25T17:50:14Z</time>
      </trkpt>
      <trkpt lat="48.68569" lon="2.15708">
        <ele>140</ele>
        <time>2013-07-25T17:50:15Z</time>
      </trkpt>
      <trkpt lat="48.68573" lon="2.15704">
        <ele>140</ele>
        <time>2013-07-25T17:50:16Z</time>
      </trkpt>
      <trkpt lat="48.68577" lon="2.15703">
        <ele>139</ele>
        <time>2013-07-25T17:50:17Z</time>
      </trkpt>
      <trkpt lat="48.68586" lon="2.15702">
        <ele>133</ele>
        <time>2013-07-25T17:50:19Z</time>
      </trkpt>
      <trkpt lat="48.68591" lon="2.15701">
        <ele>132</ele>
        <time>2013-07-25T17:50:20Z</time>
      </trkpt>
      <trkpt lat="48.68601" lon="2.157">
        <ele>132</ele>
        <time>2013-07-25T17:50:22Z</time>
      </trkpt>
      <trkpt lat="48.68606" lon="2.15699">
        <ele>132</ele>
        <time>2013-07-25T17:50:23Z</time>
      </trkpt>
      <trkpt lat="48.68619" lon="2.15694">
        <ele>131</ele>
        <time>2013-07-25T17:50:26Z</time>
      </trkpt>
      <trkpt lat="48.68622" lon="2.15693">
        <ele>130</ele>
        <time>2013-07-25T17:50:27Z</time>
      </trkpt>
      <trkpt lat="48.68623" lon="2.15694">
        <ele>130</ele>
        <time>2013-07-25T17:50:28Z</time>
      </trkpt>
      <trkpt lat="48.68626" lon="2.15696">
        <ele>130</ele>
        <time>2013-07-25T17:50:29Z</time>
      </trkpt>
      <trkpt lat="48.68633" lon="2.15699">
        <ele>130</ele>
        <time>2013-07-25T17:50:31Z</time>
      </trkpt>
      <trkpt lat="48.68639" lon="2.15704">
        <ele>129</ele>
        <time>2013-07-25T17:50:33Z</time>
      </trkpt>
      <trkpt lat="48.68642" lon="2.15706">
        <ele>129</ele>
        <time>2013-07-25T17:50:34Z</time>
      </trkpt>
      <trkpt lat="48.68646" lon="2.15706">
        <ele>129</ele>
        <time>2013-07-25T17:50:35Z</time>
      </trkpt>
      <trkpt lat="48.6865" lon="2.15704">
        <ele>129</ele>
        <time>2013-07-25T17:50:36Z</time>
      </trkpt>
      <trkpt lat="48.68662" lon="2.15704">
        <ele>128</ele>
        <time>2013-07-25T17:50:38Z</time>
      </trkpt>
      <trkpt lat="48.68669" lon="2.15705">
        <ele>120</ele>
        <time>2013-07-25T17:50:39Z</time>
      </trkpt>
      <trkpt lat="48.68675" lon="2.15707">
        <ele>119</ele>
        <time>2013-07-25T17:50:40Z</time>
      </trkpt>
      <trkpt lat="48.68687" lon="2.15708">
        <ele>119</ele>
        <time>2013-07-25T17:50:42Z</time>
      </trkpt>
      <trkpt lat="48.68692" lon="2.15706">
        <ele>119</ele>
        <time>2013-07-25T17:50:43Z</time>
      </trkpt>
      <trkpt lat="48.68698" lon="2.15702">
        <ele>118</ele>
        <time>2013-07-25T17:50:44Z</time>
      </trkpt>
      <trkpt lat="48.68703" lon="2.15701">
        <ele>118</ele>
        <time>2013-07-25T17:50:45Z</time>
      </trkpt>
      <trkpt lat="48.68709" lon="2.15703">
        <ele>117</ele>
        <time>2013-07-25T17:50:46Z</time>
      </trkpt>
      <trkpt lat="48.68714" lon="2.15706">
        <ele>117</ele>
        <time>2013-07-25T17:50:47Z</time>
      </trkpt>
      <trkpt lat="48.68718" lon="2.15707">
        <ele>117</ele>
        <time>2013-07-25T17:50:48Z</time>
      </trkpt>
      <trkpt lat="48.68723" lon="2.15708">
        <ele>116</ele>
        <time>2013-07-25T17:50:49Z</time>
      </trkpt>
      <trkpt lat="48.68727" lon="2.1571">
        <ele>116</ele>
        <time>2013-07-25T17:50:50Z</time>
      </trkpt>
      <trkpt lat="48.68744" lon="2.15723">
        <ele>116</ele>
        <time>2013-07-25T17:50:54Z</time>
      </trkpt>
      <trkpt lat="48.68749" lon="2.15725">
        <ele>116</ele>
        <time>2013-07-25T17:50:55Z</time>
      </trkpt>
      <trkpt lat="48.68754" lon="2.15726">
        <ele>111</ele>
        <time>2013-07-25T17:50:56Z</time>
      </trkpt>
      <trkpt lat="48.68759" lon="2.15723">
        <ele>111</ele>
        <time>2013-07-25T17:50:57Z</time>
      </trkpt>
      <trkpt lat="48.68763" lon="2.15717">
        <ele>110</ele>
        <time>2013-07-25T17:50:58Z</time>
      </trkpt>
      <trkpt lat="48.68768" lon="2.1571">
        <ele>109</ele>
        <time>2013-07-25T17:50:59Z</time>
      </trkpt>
      <trkpt lat="48.68791" lon="2.15677">
        <ele>107</ele>
        <time>2013-07-25T17:51:03Z</time>
      </trkpt>
      <trkpt lat="48.68879" lon="2.15567">
        <ele>93</ele>
        <time>2013-07-25T17:51:17Z</time>
      </trkpt>
      <trkpt lat="48.68882" lon="2.15562">
        <ele>93</ele>
        <time>2013-07-25T17:51:18Z</time>
      </trkpt>
      <trkpt lat="48.68885" lon="2.1556">
        <ele>93</ele>
        <time>2013-07-25T17:51:19Z</time>
      </trkpt>
      <trkpt lat="48.68887" lon="2.15557">
        <ele>93</ele>
        <time>2013-07-25T17:51:20Z</time>
      </trkpt>
      <trkpt lat="48.68889" lon="2.15554">
        <ele>93</ele>
        <time>2013-07-25T17:51:21Z</time>
      </trkpt>
      <trkpt lat="48.68891" lon="2.15549">
        <ele>93</ele>
        <time>2013-07-25T17:51:23Z</time>
      </trkpt>
      <trkpt lat="48.68892" lon="2.15544">
        <ele>93</ele>
        <time>2013-07-25T17:51:25Z</time>
      </trkpt>
      <trkpt lat="48.68891" lon="2.15541">
        <ele>93</ele>
        <time>2013-07-25T17:51:26Z</time>
      </trkpt>
      <trkpt lat="48.6889" lon="2.15539">
        <ele>93</ele>
        <time>2013-07-25T17:51:27Z</time>
      </trkpt>
      <trkpt lat="48.68889" lon="2.15537">
        <ele>93</ele>
        <time>2013-07-25T17:51:28Z</time>
      </trkpt>
      <trkpt lat="48.68889" lon="2.15533">
        <ele>93</ele>
        <time>2013-07-25T17:51:29Z</time>
      </trkpt>
      <trkpt lat="48.68892" lon="2.15525">
        <ele>92</ele>
        <time>2013-07-25T17:51:31Z</time>
      </trkpt>
      <trkpt lat="48.68895" lon="2.15514">
        <ele>92</ele>
        <time>2013-07-25T17:51:33Z</time>
      </trkpt>
      <trkpt lat="48.68898" lon="2.15508">
        <ele>92</ele>
        <time>2013-07-25T17:51:34Z</time>
      </trkpt>
      <trkpt lat="48.68903" lon="2.15502">
        <ele>91</ele>
        <time>2013-07-25T17:51:35Z</time>
      </trkpt>
      <trkpt lat="48.68907" lon="2.15495">
        <ele>90</ele>
        <time>2013-07-25T17:51:36Z</time>
      </trkpt>
      <trkpt lat="48.68941" lon="2.15412">
        <ele>84</ele>
        <time>2013-07-25T17:51:43Z</time>
      </trkpt>
      <trkpt lat="48.68953" lon="2.15389">
        <ele>84</ele>
        <time>2013-07-25T17:51:45Z</time>
      </trkpt>
      <trkpt lat="48.69002" lon="2.15274">
        <ele>80</ele>
        <time>2013-07-25T17:51:56Z</time>
      </trkpt>
      <trkpt lat="48.69004" lon="2.15272">
        <ele>80</ele>
        <time>2013-07-25T17:51:57Z</time>
      </trkpt>
      <trkpt lat="48.69005" lon="2.15271">
        <ele>80</ele>
        <time>2013-07-25T17:51:58Z</time>
      </trkpt>
      <trkpt lat="48.69008" lon="2.15267">
        <ele>79</ele>
        <time>2013-07-25T17:52:01Z</time>
      </trkpt>
      <trkpt lat="48.69009" lon="2.15265">
        <ele>79</ele>
        <time>2013-07-25T17:52:02Z</time>
      </trkpt>
      <trkpt lat="48.6901" lon="2.15263">
        <ele>79</ele>
        <time>2013-07-25T17:52:03Z</time>
      </trkpt>
      <trkpt lat="48.69012" lon="2.15265">
        <ele>79</ele>
        <time>2013-07-25T17:52:04Z</time>
      </trkpt>
      <trkpt lat="48.69015" lon="2.15265">
        <ele>79</ele>
        <time>2013-07-25T17:52:05Z</time>
      </trkpt>
      <trkpt lat="48.69021" lon="2.15265">
        <ele>80</ele>
        <time>2013-07-25T17:52:07Z</time>
      </trkpt>
      <trkpt lat="48.69039" lon="2.15261">
        <ele>80</ele>
        <time>2013-07-25T17:52:11Z</time>
      </trkpt>
      <trkpt lat="48.69054" lon="2.15254">
        <ele>80</ele>
        <time>2013-07-25T17:52:14Z</time>
      </trkpt>
      <trkpt lat="48.69058" lon="2.15252">
        <ele>80</ele>
        <time>2013-07-25T17:52:15Z</time>
      </trkpt>
      <trkpt lat="48.69061" lon="2.15249">
        <ele>81</ele>
        <time>2013-07-25T17:52:16Z</time>
      </trkpt>
      <trkpt lat="48.69064" lon="2.15249">
        <ele>81</ele>
        <time>2013-07-25T17:52:17Z</time>
      </trkpt>
      <trkpt lat="48.69087" lon="2.15267">
        <ele>80</ele>
        <time>2013-07-25T17:52:24Z</time>
      </trkpt>
      <trkpt lat="48.69095" lon="2.15274">
        <ele>80</ele>
        <time>2013-07-25T17:52:26Z</time>
      </trkpt>
      <trkpt lat="48.69106" lon="2.15291">
        <ele>80</ele>
        <time>2013-07-25T17:52:29Z</time>
      </trkpt>
      <trkpt lat="48.69109" lon="2.15298">
        <ele>80</ele>
        <time>2013-07-25T17:52:30Z</time>
      </trkpt>
      <trkpt lat="48.69123" lon="2.15337">
        <ele>79</ele>
        <time>2013-07-25T17:52:35Z</time>
      </trkpt>
      <trkpt lat="48.69139" lon="2.15368">
        <ele>78</ele>
        <time>2013-07-25T17:52:39Z</time>
      </trkpt>
      <trkpt lat="48.69149" lon="2.15381">
        <ele>78</ele>
        <time>2013-07-25T17:52:41Z</time>
      </trkpt>
      <trkpt lat="48.6916" lon="2.1539">
        <ele>78</ele>
        <time>2013-07-25T17:52:43Z</time>
      </trkpt>
      <trkpt lat="48.69173" lon="2.15397">
        <ele>78</ele>
        <time>2013-07-25T17:52:46Z</time>
      </trkpt>
      <trkpt lat="48.69175" lon="2.154">
        <ele>77</ele>
        <time>2013-07-25T17:52:47Z</time>
      </trkpt>
      <trkpt lat="48.69177" lon="2.15403">
        <ele>77</ele>
        <time>2013-07-25T17:52:48Z</time>
      </trkpt>
      <trkpt lat="48.69177" lon="2.15407">
        <ele>77</ele>
        <time>2013-07-25T17:52:49Z</time>
      </trkpt>
      <trkpt lat="48.69176" lon="2.15412">
        <ele>77</ele>
        <time>2013-07-25T17:52:50Z</time>
      </trkpt>
      <trkpt lat="48.69173" lon="2.15417">
        <ele>76</ele>
        <time>2013-07-25T17:52:51Z</time>
      </trkpt>
      <trkpt lat="48.69169" lon="2.15423">
        <ele>76</ele>
        <time>2013-07-25T17:52:52Z</time>
      </trkpt>
      <trkpt lat="48.69166" lon="2.15429">
        <ele>77</ele>
        <time>2013-07-25T17:52:53Z</time>
      </trkpt>
      <trkpt lat="48.69163" lon="2.15436">
        <ele>77</ele>
        <time>2013-07-25T17:52:54Z</time>
      </trkpt>
      <trkpt lat="48.69161" lon="2.15443">
        <ele>77</ele>
        <time>2013-07-25T17:52:55Z</time>
      </trkpt>
      <trkpt lat="48.69158" lon="2.15449">
        <ele>77</ele>
        <time>2013-07-25T17:52:56Z</time>
      </trkpt>
      <trkpt lat="48.69151" lon="2.15455">
        <ele>77</ele>
        <time>2013-07-25T17:52:58Z</time>
      </trkpt>
      <trkpt lat="48.69139" lon="2.15477">
        <ele>77</ele>
        <time>2013-07-25T17:53:03Z</time>
      </trkpt>
      <trkpt lat="48.69137" lon="2.1548">
        <ele>77</ele>
        <time>2013-07-25T17:53:04Z</time>
      </trkpt>
      <trkpt lat="48.69131" lon="2.15491">
        <ele>78</ele>
        <time>2013-07-25T17:53:07Z</time>
      </trkpt>
      <trkpt lat="48.69129" lon="2.15494">
        <ele>78</ele>
        <time>2013-07-25T17:53:08Z</time>
      </trkpt>
      <trkpt lat="48.69127" lon="2.15496">
        <ele>78</ele>
        <time>2013-07-25T17:53:09Z</time>
      </trkpt>
      <trkpt lat="48.69125" lon="2.15499">
        <ele>78</ele>
        <time>2013-07-25T17:53:10Z</time>
      </trkpt>
      <trkpt lat="48.69124" lon="2.15502">
        <ele>79</ele>
        <time>2013-07-25T17:53:11Z</time>
      </trkpt>
      <trkpt lat="48.69124" lon="2.15505">
        <ele>79</ele>
        <time>2013-07-25T17:53:12Z</time>
      </trkpt>
      <trkpt lat="48.69125" lon="2.15509">
        <ele>79</ele>
        <time>2013-07-25T17:53:14Z</time>
      </trkpt>
      <trkpt lat="48.69127" lon="2.15514">
        <ele>79</ele>
        <time>2013-07-25T17:53:16Z</time>
      </trkpt>
      <trkpt lat="48.69127" lon="2.15517">
        <ele>79</ele>
        <time>2013-07-25T17:53:17Z</time>
      </trkpt>
      <trkpt lat="48.69128" lon="2.15521">
        <ele>79</ele>
        <time>2013-07-25T17:53:18Z</time>
      </trkpt>
      <trkpt lat="48.69129" lon="2.15528">
        <ele>79</ele>
        <time>2013-07-25T17:53:20Z</time>
      </trkpt>
      <trkpt lat="48.69132" lon="2.15536">
        <ele>80</ele>
        <time>2013-07-25T17:53:22Z</time>
      </trkpt>
      <trkpt lat="48.69132" lon="2.15539">
        <ele>80</ele>
        <time>2013-07-25T17:53:23Z</time>
      </trkpt>
      <trkpt lat="48.69135" lon="2.15547">
        <ele>80</ele>
        <time>2013-07-25T17:53:25Z</time>
      </trkpt>
      <trkpt lat="48.69144" lon="2.1557">
        <ele>80</ele>
        <time>2013-07-25T17:53:30Z</time>
      </trkpt>
      <trkpt lat="48.69198" lon="2.15659">
        <ele>79</ele>
        <time>2013-07-25T17:53:48Z</time>
      </trkpt>
      <trkpt lat="48.69201" lon="2.15663">
        <ele>79</ele>
        <time>2013-07-25T17:53:49Z</time>
      </trkpt>
      <trkpt lat="48.69203" lon="2.15667">
        <ele>82</ele>
        <time>2013-07-25T17:53:50Z</time>
      </trkpt>
      <trkpt lat="48.69206" lon="2.1567">
        <ele>82</ele>
        <time>2013-07-25T17:53:51Z</time>
      </trkpt>
      <trkpt lat="48.69208" lon="2.1567">
        <ele>82</ele>
        <time>2013-07-25T17:53:52Z</time>
      </trkpt>
      <trkpt lat="48.69213" lon="2.15667">
        <ele>79</ele>
        <time>2013-07-25T17:53:54Z</time>
      </trkpt>
      <trkpt lat="48.69214" lon="2.15665">
        <ele>78</ele>
        <time>2013-07-25T17:53:55Z</time>
      </trkpt>
      <trkpt lat="48.69216" lon="2.15664">
        <ele>78</ele>
        <time>2013-07-25T17:53:56Z</time>
      </trkpt>
      <trkpt lat="48.69218" lon="2.15666">
        <ele>78</ele>
        <time>2013-07-25T17:53:57Z</time>
      </trkpt>
      <trkpt lat="48.69258" lon="2.15726">
        <ele>78</ele>
        <time>2013-07-25T17:54:12Z</time>
      </trkpt>
      <trkpt lat="48.69264" lon="2.15734">
        <ele>78</ele>
        <time>2013-07-25T17:54:14Z</time>
      </trkpt>
      <trkpt lat="48.69277" lon="2.15756">
        <ele>80</ele>
        <time>2013-07-25T17:54:20Z</time>
      </trkpt>
      <trkpt lat="48.69279" lon="2.15759">
        <ele>80</ele>
        <time>2013-07-25T17:54:22Z</time>
      </trkpt>
      <trkpt lat="48.6928" lon="2.1576">
        <ele>80</ele>
        <time>2013-07-25T17:54:23Z</time>
      </trkpt>
      <trkpt lat="48.69281" lon="2.15761">
        <ele>80</ele>
        <time>2013-07-25T17:54:24Z</time>
      </trkpt>
      <trkpt lat="48.69282" lon="2.15762">
        <ele>80</ele>
        <time>2013-07-25T17:54:26Z</time>
      </trkpt>
      <trkpt lat="48.69283" lon="2.15762">
        <ele>80</ele>
        <time>2013-07-25T17:54:27Z</time>
      </trkpt>
      <trkpt lat="48.69285" lon="2.15764">
        <ele>80</ele>
        <time>2013-07-25T17:54:29Z</time>
      </trkpt>
      <trkpt lat="48.69287" lon="2.15765">
        <ele>80</ele>
        <time>2013-07-25T17:54:30Z</time>
      </trkpt>
      <trkpt lat="48.6929" lon="2.15765">
        <ele>80</ele>
        <time>2013-07-25T17:54:31Z</time>
      </trkpt>
      <trkpt lat="48.69297" lon="2.15763">
        <ele>79</ele>
        <time>2013-07-25T17:54:33Z</time>
      </trkpt>
      <trkpt lat="48.69307" lon="2.15763">
        <ele>79</ele>
        <time>2013-07-25T17:54:35Z</time>
      </trkpt>
      <trkpt lat="48.69312" lon="2.15764">
        <ele>79</ele>
        <time>2013-07-25T17:54:36Z</time>
      </trkpt>
      <trkpt lat="48.69339" lon="2.15782">
        <ele>76</ele>
        <time>2013-07-25T17:54:41Z</time>
      </trkpt>
      <trkpt lat="48.69343" lon="2.15787">
        <ele>77</ele>
        <time>2013-07-25T17:54:42Z</time>
      </trkpt>
      <trkpt lat="48.69354" lon="2.15813">
        <ele>77</ele>
        <time>2013-07-25T17:54:46Z</time>
      </trkpt>
      <trkpt lat="48.69362" lon="2.15836">
        <ele>80</ele>
        <time>2013-07-25T17:54:50Z</time>
      </trkpt>
      <trkpt lat="48.69365" lon="2.15841">
        <ele>80</ele>
        <time>2013-07-25T17:54:51Z</time>
      </trkpt>
      <trkpt lat="48.69368" lon="2.15844">
        <ele>80</ele>
        <time>2013-07-25T17:54:52Z</time>
      </trkpt>
      <trkpt lat="48.69375" lon="2.15844">
        <ele>80</ele>
        <time>2013-07-25T17:54:54Z</time>
      </trkpt>
      <trkpt lat="48.69379" lon="2.15842">
        <ele>79</ele>
        <time>2013-07-25T17:54:55Z</time>
      </trkpt>
      <trkpt lat="48.69389" lon="2.15842">
        <ele>79</ele>
        <time>2013-07-25T17:54:57Z</time>
      </trkpt>
      <trkpt lat="48.69397" lon="2.15853">
        <ele>79</ele>
        <time>2013-07-25T17:55:00Z</time>
      </trkpt>
      <trkpt lat="48.69406" lon="2.1588">
        <ele>80</ele>
        <time>2013-07-25T17:55:04Z</time>
      </trkpt>
      <trkpt lat="48.69409" lon="2.15886">
        <ele>80</ele>
        <time>2013-07-25T17:55:05Z</time>
      </trkpt>
      <trkpt lat="48.69413" lon="2.15889">
        <ele>80</ele>
        <time>2013-07-25T17:55:06Z</time>
      </trkpt>
      <trkpt lat="48.69417" lon="2.1589">
        <ele>77</ele>
        <time>2013-07-25T17:55:07Z</time>
      </trkpt>
      <trkpt lat="48.69421" lon="2.15887">
        <ele>76</ele>
        <time>2013-07-25T17:55:08Z</time>
      </trkpt>
      <trkpt lat="48.69424" lon="2.15883">
        <ele>76</ele>
        <time>2013-07-25T17:55:09Z</time>
      </trkpt>
      <trkpt lat="48.69426" lon="2.15881">
        <ele>76</ele>
        <time>2013-07-25T17:55:10Z</time>
      </trkpt>
      <trkpt lat="48.6943" lon="2.1588">
        <ele>76</ele>
        <time>2013-07-25T17:55:11Z</time>
      </trkpt>
      <trkpt lat="48.69433" lon="2.15882">
        <ele>76</ele>
        <time>2013-07-25T17:55:12Z</time>
      </trkpt>
      <trkpt lat="48.69436" lon="2.15885">
        <ele>76</ele>
        <time>2013-07-25T17:55:13Z</time>
      </trkpt>
      <trkpt lat="48.69443" lon="2.15889">
        <ele>76</ele>
        <time>2013-07-25T17:55:15Z</time>
      </trkpt>
      <trkpt lat="48.69448" lon="2.15893">
        <ele>75</ele>
        <time>2013-07-25T17:55:16Z</time>
      </trkpt>
      <trkpt lat="48.69451" lon="2.15898">
        <ele>75</ele>
        <time>2013-07-25T17:55:17Z</time>
      </trkpt>
      <trkpt lat="48.69479" lon="2.15954">
        <ele>80</ele>
        <time>2013-07-25T17:55:26Z</time>
      </trkpt>
      <trkpt lat="48.69482" lon="2.15958">
        <ele>80</ele>
        <time>2013-07-25T17:55:27Z</time>
      </trkpt>
      <trkpt lat="48.69487" lon="2.1596">
        <ele>80</ele>
        <time>2013-07-25T17:55:28Z</time>
      </trkpt>
      <trkpt lat="48.69492" lon="2.1596">
        <ele>80</ele>
        <time>2013-07-25T17:55:29Z</time>
      </trkpt>
      <trkpt lat="48.69502" lon="2.15962">
        <ele>76</ele>
        <time>2013-07-25T17:55:31Z</time>
      </trkpt>
      <trkpt lat="48.69514" lon="2.15966">
        <ele>76</ele>
        <time>2013-07-25T17:55:33Z</time>
      </trkpt>
      <trkpt lat="48.6952" lon="2.15969">
        <ele>76</ele>
        <time>2013-07-25T17:55:34Z</time>
      </trkpt>
      <trkpt lat="48.69529" lon="2.15982">
        <ele>76</ele>
        <time>2013-07-25T17:55:36Z</time>
      </trkpt>
      <trkpt lat="48.69538" lon="2.15993">
        <ele>76</ele>
        <time>2013-07-25T17:55:38Z</time>
      </trkpt>
      <trkpt lat="48.69543" lon="2.15997">
        <ele>75</ele>
        <time>2013-07-25T17:55:39Z</time>
      </trkpt>
      <trkpt lat="48.69549" lon="2.16">
        <ele>75</ele>
        <time>2013-07-25T17:55:40Z</time>
      </trkpt>
      <trkpt lat="48.69556" lon="2.16">
        <ele>77</ele>
        <time>2013-07-25T17:55:41Z</time>
      </trkpt>
      <trkpt lat="48.69562" lon="2.15999">
        <ele>74</ele>
        <time>2013-07-25T17:55:42Z</time>
      </trkpt>
      <trkpt lat="48.69606" lon="2.15998">
        <ele>69</ele>
        <time>2013-07-25T17:55:48Z</time>
      </trkpt>
      <trkpt lat="48.69644" lon="2.15992">
        <ele>67</ele>
        <time>2013-07-25T17:55:54Z</time>
      </trkpt>
      <trkpt lat="48.69652" lon="2.15992">
        <ele>67</ele>
        <time>2013-07-25T17:55:56Z</time>
      </trkpt>
      <trkpt lat="48.69656" lon="2.1599">
        <ele>67</ele>
        <time>2013-07-25T17:55:57Z</time>
      </trkpt>
      <trkpt lat="48.69661" lon="2.15987">
        <ele>67</ele>
        <time>2013-07-25T17:55:59Z</time>
      </trkpt>
      <trkpt lat="48.69662" lon="2.15985">
        <ele>67</ele>
        <time>2013-07-25T17:56:00Z</time>
      </trkpt>
      <trkpt lat="48.69663" lon="2.15983">
        <ele>67</ele>
        <time>2013-07-25T17:56:01Z</time>
      </trkpt>
      <trkpt lat="48.69664" lon="2.15981">
        <ele>67</ele>
        <time>2013-07-25T17:56:02Z</time>
      </trkpt>
      <trkpt lat="48.69665" lon="2.15977">
        <ele>67</ele>
        <time>2013-07-25T17:56:03Z</time>
      </trkpt>
      <trkpt lat="48.69667" lon="2.15973">
        <ele>67</ele>
        <time>2013-07-25T17:56:04Z</time>
      </trkpt>
      <trkpt lat="48.6967" lon="2.15969">
        <ele>64</ele>
        <time>2013-07-25T17:56:05Z</time>
      </trkpt>
      <trkpt lat="48.69675" lon="2.15957">
        <ele>64</ele>
        <time>2013-07-25T17:56:07Z</time>
      </trkpt>
      <trkpt lat="48.69684" lon="2.15935">
        <ele>64</ele>
        <time>2013-07-25T17:56:10Z</time>
      </trkpt>
      <trkpt lat="48.69692" lon="2.1592">
        <ele>64</ele>
        <time>2013-07-25T17:56:12Z</time>
      </trkpt>
      <trkpt lat="48.69708" lon="2.15903">
        <ele>62</ele>
        <time>2013-07-25T17:56:15Z</time>
      </trkpt>
      <trkpt lat="48.6972" lon="2.15893">
        <ele>62</ele>
        <time>2013-07-25T17:56:17Z</time>
      </trkpt>
      <trkpt lat="48.69733" lon="2.15886">
        <ele>62</ele>
        <time>2013-07-25T17:56:19Z</time>
      </trkpt>
      <trkpt lat="48.69739" lon="2.15881">
        <ele>62</ele>
        <time>2013-07-25T17:56:20Z</time>
      </trkpt>
      <trkpt lat="48.69808" lon="2.15815">
        <ele>61</ele>
        <time>2013-07-25T17:56:32Z</time>
      </trkpt>
      <trkpt lat="48.69814" lon="2.15811">
        <ele>61</ele>
        <time>2013-07-25T17:56:33Z</time>
      </trkpt>
      <trkpt lat="48.69825" lon="2.15804">
        <ele>61</ele>
        <time>2013-07-25T17:56:35Z</time>
      </trkpt>
      <trkpt lat="48.69846" lon="2.15791">
        <ele>61</ele>
        <time>2013-07-25T17:56:39Z</time>
      </trkpt>
      <trkpt lat="48.69857" lon="2.15786">
        <ele>61</ele>
        <time>2013-07-25T17:56:41Z</time>
      </trkpt>
      <trkpt lat="48.69892" lon="2.15777">
        <ele>61</ele>
        <time>2013-07-25T17:56:47Z</time>
      </trkpt>
      <trkpt lat="48.69907" lon="2.15771">
        <ele>61</ele>
        <time>2013-07-25T17:56:50Z</time>
      </trkpt>
      <trkpt lat="48.69915" lon="2.15766">
        <ele>61</ele>
        <time>2013-07-25T17:56:52Z</time>
      </trkpt>
      <trkpt lat="48.69919" lon="2.15765">
        <ele>62</ele>
        <time>2013-07-25T17:56:53Z</time>
      </trkpt>
      <trkpt lat="48.69922" lon="2.15767">
        <ele>62</ele>
        <time>2013-07-25T17:56:54Z</time>
      </trkpt>
      <trkpt lat="48.69928" lon="2.15776">
        <ele>62</ele>
        <time>2013-07-25T17:56:56Z</time>
      </trkpt>
      <trkpt lat="48.69933" lon="2.15788">
        <ele>62</ele>
        <time>2013-07-25T17:56:58Z</time>
      </trkpt>
      <trkpt lat="48.69935" lon="2.15794">
        <ele>62</ele>
        <time>2013-07-25T17:56:59Z</time>
      </trkpt>
      <trkpt lat="48.69936" lon="2.15806">
        <ele>62</ele>
        <time>2013-07-25T17:57:01Z</time>
      </trkpt>
      <trkpt lat="48.69947" lon="2.15842">
        <ele>62</ele>
        <time>2013-07-25T17:57:07Z</time>
      </trkpt>
      <trkpt lat="48.69954" lon="2.15886">
        <ele>61</ele>
        <time>2013-07-25T17:57:13Z</time>
      </trkpt>
      <trkpt lat="48.69998" lon="2.16103">
        <ele>60</ele>
        <time>2013-07-25T17:57:40Z</time>
      </trkpt>
      <trkpt lat="48.70001" lon="2.16134">
        <ele>60</ele>
        <time>2013-07-25T17:57:44Z</time>
      </trkpt>
      <trkpt lat="48.69999" lon="2.16205">
        <ele>60</ele>
        <time>2013-07-25T17:57:53Z</time>
      </trkpt>
      <trkpt lat="48.69976" lon="2.16299">
        <ele>61</ele>
        <time>2013-07-25T17:58:05Z</time>
      </trkpt>
      <trkpt lat="48.69975" lon="2.16307">
        <ele>61</ele>
        <time>2013-07-25T17:58:06Z</time>
      </trkpt>
      <trkpt lat="48.69972" lon="2.16348">
        <ele>61</ele>
        <time>2013-07-25T17:58:11Z</time>
      </trkpt>
      <trkpt lat="48.69974" lon="2.16371">
        <ele>61</ele>
        <time>2013-07-25T17:58:14Z</time>
      </trkpt>
      <trkpt lat="48.69972" lon="2.16395">
        <ele>61</ele>
        <time>2013-07-25T17:58:17Z</time>
      </trkpt>
      <trkpt lat="48.69971" lon="2.16432">
        <ele>61</ele>
        <time>2013-07-25T17:58:22Z</time>
      </trkpt>
      <trkpt lat="48.6997" lon="2.16452">
        <ele>61</ele>
        <time>2013-07-25T17:58:25Z</time>
      </trkpt>
      <trkpt lat="48.6997" lon="2.16458">
        <ele>61</ele>
        <time>2013-07-25T17:58:26Z</time>
      </trkpt>
      <trkpt lat="48.6997" lon="2.16464">
        <ele>61</ele>
        <time>2013-07-25T17:58:27Z</time>
      </trkpt>
      <trkpt lat="48.69972" lon="2.16469">
        <ele>61</ele>
        <time>2013-07-25T17:58:28Z</time>
      </trkpt>
      <trkpt lat="48.69975" lon="2.16472">
        <ele>61</ele>
        <time>2013-07-25T17:58:29Z</time>
      </trkpt>
      <trkpt lat="48.69979" lon="2.16474">
        <ele>61</ele>
        <time>2013-07-25T17:58:30Z</time>
      </trkpt>
      <trkpt lat="48.69988" lon="2.16476">
        <ele>61</ele>
        <time>2013-07-25T17:58:32Z</time>
      </trkpt>
      <trkpt lat="48.70002" lon="2.16483">
        <ele>61</ele>
        <time>2013-07-25T17:58:35Z</time>
      </trkpt>
      <trkpt lat="48.70033" lon="2.16492">
        <ele>61</ele>
        <time>2013-07-25T17:58:41Z</time>
      </trkpt>
      <trkpt lat="48.70057" lon="2.16495">
        <ele>61</ele>
        <time>2013-07-25T17:58:46Z</time>
      </trkpt>
      <trkpt lat="48.70067" lon="2.16497">
        <ele>61</ele>
        <time>2013-07-25T17:58:48Z</time>
      </trkpt>
      <trkpt lat="48.70072" lon="2.16498">
        <ele>61</ele>
        <time>2013-07-25T17:58:49Z</time>
      </trkpt>
      <trkpt lat="48.70081" lon="2.165">
        <ele>61</ele>
        <time>2013-07-25T17:58:51Z</time>
      </trkpt>
      <trkpt lat="48.70086" lon="2.16501">
        <ele>61</ele>
        <time>2013-07-25T17:58:52Z</time>
      </trkpt>
      <trkpt lat="48.7009" lon="2.16501">
        <ele>62</ele>
        <time>2013-07-25T17:58:53Z</time>
      </trkpt>
      <trkpt lat="48.70131" lon="2.16487">
        <ele>64</ele>
        <time>2013-07-25T17:59:02Z</time>
      </trkpt>
      <trkpt lat="48.70134" lon="2.16487">
        <ele>64</ele>
        <time>2013-07-25T17:59:03Z</time>
      </trkpt>
      <trkpt lat="48.70139" lon="2.16485">
        <ele>64</ele>
        <time>2013-07-25T17:59:05Z</time>
      </trkpt>
      <trkpt lat="48.70141" lon="2.16485">
        <ele>64</ele>
        <time>2013-07-25T17:59:06Z</time>
      </trkpt>
      <trkpt lat="48.70146" lon="2.16487">
        <ele>65</ele>
        <time>2013-07-25T17:59:08Z</time>
      </trkpt>
      <trkpt lat="48.70149" lon="2.16487">
        <ele>65</ele>
        <time>2013-07-25T17:59:09Z</time>
      </trkpt>
      <trkpt lat="48.70155" lon="2.16487">
        <ele>65</ele>
        <time>2013-07-25T17:59:11Z</time>
      </trkpt>
      <trkpt lat="48.70157" lon="2.16487">
        <ele>65</ele>
        <time>2013-07-25T17:59:12Z</time>
      </trkpt>
      <trkpt lat="48.7016" lon="2.16488">
        <ele>65</ele>
        <time>2013-07-25T17:59:13Z</time>
      </trkpt>
      <trkpt lat="48.70162" lon="2.16488">
        <ele>65</ele>
        <time>2013-07-25T17:59:14Z</time>
      </trkpt>
      <trkpt lat="48.70184" lon="2.16491">
        <ele>69</ele>
        <time>2013-07-25T17:59:22Z</time>
      </trkpt>
      <trkpt lat="48.70187" lon="2.16491">
        <ele>69</ele>
        <time>2013-07-25T17:59:23Z</time>
      </trkpt>
      <trkpt lat="48.70201" lon="2.16494">
        <ele>70</ele>
        <time>2013-07-25T17:59:28Z</time>
      </trkpt>
      <trkpt lat="48.70217" lon="2.16497">
        <ele>71</ele>
        <time>2013-07-25T17:59:34Z</time>
      </trkpt>
      <trkpt lat="48.70224" lon="2.16497">
        <ele>72</ele>
        <time>2013-07-25T17:59:37Z</time>
      </trkpt>
      <trkpt lat="48.70226" lon="2.16497">
        <ele>72</ele>
        <time>2013-07-25T17:59:38Z</time>
      </trkpt>
      <trkpt lat="48.70229" lon="2.16497">
        <ele>72</ele>
        <time>2013-07-25T17:59:39Z</time>
      </trkpt>
      <trkpt lat="48.70231" lon="2.16497">
        <ele>72</ele>
        <time>2013-07-25T17:59:40Z</time>
      </trkpt>
      <trkpt lat="48.70233" lon="2.16497">
        <ele>73</ele>
        <time>2013-07-25T17:59:41Z</time>
      </trkpt>
      <trkpt lat="48.70235" lon="2.16497">
        <ele>73</ele>
        <time>2013-07-25T17:59:42Z</time>
      </trkpt>
      <trkpt lat="48.70237" lon="2.16497">
        <ele>73</ele>
        <time>2013-07-25T17:59:43Z</time>
      </trkpt>
      <trkpt lat="48.70239" lon="2.16497">
        <ele>74</ele>
        <time>2013-07-25T17:59:44Z</time>
      </trkpt>
      <trkpt lat="48.70242" lon="2.16497">
        <ele>74</ele>
        <time>2013-07-25T17:59:45Z</time>
      </trkpt>
      <trkpt lat="48.70244" lon="2.16498">
        <ele>74</ele>
        <time>2013-07-25T17:59:46Z</time>
      </trkpt>
      <trkpt lat="48.70248" lon="2.16498">
        <ele>75</ele>
        <time>2013-07-25T17:59:48Z</time>
      </trkpt>
      <trkpt lat="48.7025" lon="2.16499">
        <ele>76</ele>
        <time>2013-07-25T17:59:49Z</time>
      </trkpt>
      <trkpt lat="48.70252" lon="2.16499">
        <ele>76</ele>
        <time>2013-07-25T17:59:50Z</time>
      </trkpt>
      <trkpt lat="48.70254" lon="2.16499">
        <ele>76</ele>
        <time>2013-07-25T17:59:51Z</time>
      </trkpt>
      <trkpt lat="48.70269" lon="2.16502">
        <ele>78</ele>
        <time>2013-07-25T17:59:58Z</time>
      </trkpt>
      <trkpt lat="48.70272" lon="2.16502">
        <ele>78</ele>
        <time>2013-07-25T17:59:59Z</time>
      </trkpt>
      <trkpt lat="48.70274" lon="2.16502">
        <ele>78</ele>
        <time>2013-07-25T18:00:00Z</time>
      </trkpt>
      <trkpt lat="48.70278" lon="2.16503">
        <ele>78</ele>
        <time>2013-07-25T18:00:02Z</time>
      </trkpt>
      <trkpt lat="48.7028" lon="2.16503">
        <ele>78</ele>
        <time>2013-07-25T18:00:03Z</time>
      </trkpt>
      <trkpt lat="48.70289" lon="2.16504">
        <ele>79</ele>
        <time>2013-07-25T18:00:07Z</time>
      </trkpt>
      <trkpt lat="48.70303" lon="2.16504">
        <ele>80</ele>
        <time>2013-07-25T18:00:13Z</time>
      </trkpt>
      <trkpt lat="48.7031" lon="2.16502">
        <ele>80</ele>
        <time>2013-07-25T18:00:16Z</time>
      </trkpt>
      <trkpt lat="48.70314" lon="2.16501">
        <ele>80</ele>
        <time>2013-07-25T18:00:18Z</time>
      </trkpt>
      <trkpt lat="48.70316" lon="2.16501">
        <ele>81</ele>
        <time>2013-07-25T18:00:19Z</time>
      </trkpt>
      <trkpt lat="48.70321" lon="2.16502">
        <ele>81</ele>
        <time>2013-07-25T18:00:21Z</time>
      </trkpt>
      <trkpt lat="48.70324" lon="2.16502">
        <ele>81</ele>
        <time>2013-07-25T18:00:22Z</time>
      </trkpt>
      <trkpt lat="48.70326" lon="2.16502">
        <ele>81</ele>
        <time>2013-07-25T18:00:23Z</time>
      </trkpt>
      <trkpt lat="48.70335" lon="2.16503">
        <ele>82</ele>
        <time>2013-07-25T18:00:27Z</time>
      </trkpt>
      <trkpt lat="48.70338" lon="2.16503">
        <ele>83</ele>
        <time>2013-07-25T18:00:28Z</time>
      </trkpt>
      <trkpt lat="48.7034" lon="2.16504">
        <ele>83</ele>
        <time>2013-07-25T18:00:29Z</time>
      </trkpt>
      <trkpt lat="48.70343" lon="2.16505">
        <ele>83</ele>
        <time>2013-07-25T18:00:30Z</time>
      </trkpt>
      <trkpt lat="48.70348" lon="2.16506">
        <ele>84</ele>
        <time>2013-07-25T18:00:32Z</time>
      </trkpt>
      <trkpt lat="48.70351" lon="2.16506">
        <ele>84</ele>
        <time>2013-07-25T18:00:33Z</time>
      </trkpt>
      <trkpt lat="48.70354" lon="2.16506">
        <ele>84</ele>
        <time>2013-07-25T18:00:34Z</time>
      </trkpt>
      <trkpt lat="48.70361" lon="2.16507">
        <ele>85</ele>
        <time>2013-07-25T18:00:36Z</time>
      </trkpt>
      <trkpt lat="48.70382" lon="2.16508">
        <ele>86</ele>
        <time>2013-07-25T18:00:42Z</time>
      </trkpt>
      <trkpt lat="48.70401" lon="2.16505">
        <ele>87</ele>
        <time>2013-07-25T18:00:47Z</time>
      </trkpt>
      <trkpt lat="48.70411" lon="2.16501">
        <ele>87</ele>
        <time>2013-07-25T18:00:50Z</time>
      </trkpt>
      <trkpt lat="48.70414" lon="2.16501">
        <ele>88</ele>
        <time>2013-07-25T18:00:51Z</time>
      </trkpt>
      <trkpt lat="48.70416" lon="2.16503">
        <ele>88</ele>
        <time>2013-07-25T18:00:52Z</time>
      </trkpt>
      <trkpt lat="48.70418" lon="2.16507">
        <ele>89</ele>
        <time>2013-07-25T18:00:53Z</time>
      </trkpt>
      <trkpt lat="48.7042" lon="2.1651">
        <ele>90</ele>
        <time>2013-07-25T18:00:54Z</time>
      </trkpt>
      <trkpt lat="48.70423" lon="2.16517">
        <ele>91</ele>
        <time>2013-07-25T18:00:56Z</time>
      </trkpt>
      <trkpt lat="48.70429" lon="2.1654">
        <ele>92</ele>
        <time>2013-07-25T18:01:01Z</time>
      </trkpt>
      <trkpt lat="48.70431" lon="2.16543">
        <ele>92</ele>
        <time>2013-07-25T18:01:02Z</time>
      </trkpt>
      <trkpt lat="48.70432" lon="2.1655">
        <ele>92</ele>
        <time>2013-07-25T18:01:04Z</time>
      </trkpt>
      <trkpt lat="48.70432" lon="2.16553">
        <ele>92</ele>
        <time>2013-07-25T18:01:05Z</time>
      </trkpt>
      <trkpt lat="48.70432" lon="2.1656">
        <ele>92</ele>
        <time>2013-07-25T18:01:07Z</time>
      </trkpt>
      <trkpt lat="48.70432" lon="2.16564">
        <ele>92</ele>
        <time>2013-07-25T18:01:08Z</time>
      </trkpt>
      <trkpt lat="48.70432" lon="2.16568">
        <ele>92</ele>
        <time>2013-07-25T18:01:09Z</time>
      </trkpt>
      <trkpt lat="48.70433" lon="2.16575">
        <ele>92</ele>
        <time>2013-07-25T18:01:11Z</time>
      </trkpt>
      <trkpt lat="48.70432" lon="2.16579">
        <ele>92</ele>
        <time>2013-07-25T18:01:12Z</time>
      </trkpt>
      <trkpt lat="48.70433" lon="2.16593">
        <ele>92</ele>
        <time>2013-07-25T18:01:16Z</time>
      </trkpt>
      <trkpt lat="48.70434" lon="2.16596">
        <ele>92</ele>
        <time>2013-07-25T18:01:17Z</time>
      </trkpt>
      <trkpt lat="48.70435" lon="2.16597">
        <ele>92</ele>
        <time>2013-07-25T18:01:18Z</time>
      </trkpt>
      <trkpt lat="48.70436" lon="2.16598">
        <ele>92</ele>
        <time>2013-07-25T18:01:19Z</time>
      </trkpt>
      <trkpt lat="48.70437" lon="2.16598">
        <ele>92</ele>
        <time>2013-07-25T18:01:20Z</time>
      </trkpt>
      <trkpt lat="48.70439" lon="2.16598">
        <ele>93</ele>
        <time>2013-07-25T18:01:21Z</time>
      </trkpt>
      <trkpt lat="48.7044" lon="2.16598">
        <ele>93</ele>
        <time>2013-07-25T18:01:22Z</time>
      </trkpt>
      <trkpt lat="48.70442" lon="2.16598">
        <ele>93</ele>
        <time>2013-07-25T18:01:23Z</time>
      </trkpt>
      <trkpt lat="48.70443" lon="2.16597">
        <ele>93</ele>
        <time>2013-07-25T18:01:24Z</time>
      </trkpt>
      <trkpt lat="48.70445" lon="2.16597">
        <ele>93</ele>
        <time>2013-07-25T18:01:25Z</time>
      </trkpt>
      <trkpt lat="48.70446" lon="2.16596">
        <ele>93</ele>
        <time>2013-07-25T18:01:26Z</time>
      </trkpt>
      <trkpt lat="48.70447" lon="2.16595">
        <ele>93</ele>
        <time>2013-07-25T18:01:27Z</time>
      </trkpt>
      <trkpt lat="48.70449" lon="2.16595">
        <ele>94</ele>
        <time>2013-07-25T18:01:28Z</time>
      </trkpt>
      <trkpt lat="48.7045" lon="2.16594">
        <ele>94</ele>
        <time>2013-07-25T18:01:29Z</time>
      </trkpt>
      <trkpt lat="48.70452" lon="2.16594">
        <ele>94</ele>
        <time>2013-07-25T18:01:30Z</time>
      </trkpt>
      <trkpt lat="48.70455" lon="2.16594">
        <ele>94</ele>
        <time>2013-07-25T18:01:32Z</time>
      </trkpt>
      <trkpt lat="48.70455" lon="2.16594">
        <ele>94</ele>
        <time>2013-07-25T18:01:33Z</time>
      </trkpt>
      <trkpt lat="48.70455" lon="2.16594">
        <ele>94</ele>
        <time>2013-07-25T18:01:34Z</time>
      </trkpt>
      <trkpt lat="48.70457" lon="2.16595">
        <ele>94</ele>
        <time>2013-07-25T18:01:36Z</time>
      </trkpt>
      <trkpt lat="48.70458" lon="2.16594">
        <ele>94</ele>
        <time>2013-07-25T18:01:37Z</time>
      </trkpt>
      <trkpt lat="48.70459" lon="2.16595">
        <ele>95</ele>
        <time>2013-07-25T18:01:38Z</time>
      </trkpt>
      <trkpt lat="48.70465" lon="2.16594">
        <ele>95</ele>
        <time>2013-07-25T18:01:42Z</time>
      </trkpt>
      <trkpt lat="48.70466" lon="2.16593">
        <ele>95</ele>
        <time>2013-07-25T18:01:43Z</time>
      </trkpt>
      <trkpt lat="48.70468" lon="2.16592">
        <ele>96</ele>
        <time>2013-07-25T18:01:44Z</time>
      </trkpt>
      <trkpt lat="48.7047" lon="2.16591">
        <ele>96</ele>
        <time>2013-07-25T18:01:45Z</time>
      </trkpt>
      <trkpt lat="48.70474" lon="2.16589">
        <ele>96</ele>
        <time>2013-07-25T18:01:47Z</time>
      </trkpt>
      <trkpt lat="48.70478" lon="2.16585">
        <ele>97</ele>
        <time>2013-07-25T18:01:49Z</time>
      </trkpt>
      <trkpt lat="48.70483" lon="2.16582">
        <ele>97</ele>
        <time>2013-07-25T18:01:51Z</time>
      </trkpt>
      <trkpt lat="48.70486" lon="2.16581">
        <ele>98</ele>
        <time>2013-07-25T18:01:52Z</time>
      </trkpt>
      <trkpt lat="48.70488" lon="2.1658">
        <ele>98</ele>
        <time>2013-07-25T18:01:53Z</time>
      </trkpt>
      <trkpt lat="48.70491" lon="2.1658">
        <ele>99</ele>
        <time>2013-07-25T18:01:54Z</time>
      </trkpt>
      <trkpt lat="48.70492" lon="2.16579">
        <ele>99</ele>
        <time>2013-07-25T18:01:55Z</time>
      </trkpt>
      <trkpt lat="48.70495" lon="2.16575">
        <ele>99</ele>
        <time>2013-07-25T18:01:57Z</time>
      </trkpt>
      <trkpt lat="48.70496" lon="2.16569">
        <ele>98</ele>
        <time>2013-07-25T18:01:59Z</time>
      </trkpt>
      <trkpt lat="48.70496" lon="2.16562">
        <ele>97</ele>
        <time>2013-07-25T18:02:01Z</time>
      </trkpt>
      <trkpt lat="48.70501" lon="2.16523">
        <ele>102</ele>
        <time>2013-07-25T18:02:09Z</time>
      </trkpt>
      <trkpt lat="48.70502" lon="2.16482">
        <ele>100</ele>
        <time>2013-07-25T18:02:16Z</time>
      </trkpt>
      <trkpt lat="48.70509" lon="2.16441">
        <ele>100</ele>
        <time>2013-07-25T18:02:24Z</time>
      </trkpt>
      <trkpt lat="48.7051" lon="2.16436">
        <ele>100</ele>
        <time>2013-07-25T18:02:25Z</time>
      </trkpt>
      <trkpt lat="48.70511" lon="2.16432">
        <ele>99</ele>
        <time>2013-07-25T18:02:26Z</time>
      </trkpt>
      <trkpt lat="48.70514" lon="2.16419">
        <ele>99</ele>
        <time>2013-07-25T18:02:29Z</time>
      </trkpt>
      <trkpt lat="48.70521" lon="2.16394">
        <ele>101</ele>
        <time>2013-07-25T18:02:35Z</time>
      </trkpt>
      <trkpt lat="48.70523" lon="2.16386">
        <ele>102</ele>
        <time>2013-07-25T18:02:37Z</time>
      </trkpt>
      <trkpt lat="48.70526" lon="2.16374">
        <ele>102</ele>
        <time>2013-07-25T18:02:40Z</time>
      </trkpt>
      <trkpt lat="48.7053" lon="2.16363">
        <ele>103</ele>
        <time>2013-07-25T18:02:43Z</time>
      </trkpt>
      <trkpt lat="48.70533" lon="2.1635">
        <ele>103</ele>
        <time>2013-07-25T18:02:46Z</time>
      </trkpt>
      <trkpt lat="48.70533" lon="2.16345">
        <ele>103</ele>
        <time>2013-07-25T18:02:47Z</time>
      </trkpt>
      <trkpt lat="48.70533" lon="2.16334">
        <ele>103</ele>
        <time>2013-07-25T18:02:49Z</time>
      </trkpt>
      <trkpt lat="48.70531" lon="2.16313">
        <ele>105</ele>
        <time>2013-07-25T18:02:53Z</time>
      </trkpt>
      <trkpt lat="48.70527" lon="2.16292">
        <ele>105</ele>
        <time>2013-07-25T18:02:57Z</time>
      </trkpt>
      <trkpt lat="48.70525" lon="2.16277">
        <ele>105</ele>
        <time>2013-07-25T18:03:00Z</time>
      </trkpt>
      <trkpt lat="48.70525" lon="2.16273">
        <ele>105</ele>
        <time>2013-07-25T18:03:01Z</time>
      </trkpt>
      <trkpt lat="48.70525" lon="2.16264">
        <ele>105</ele>
        <time>2013-07-25T18:03:03Z</time>
      </trkpt>
      <trkpt lat="48.70524" lon="2.1626">
        <ele>105</ele>
        <time>2013-07-25T18:03:04Z</time>
      </trkpt>
      <trkpt lat="48.70523" lon="2.16256">
        <ele>104</ele>
        <time>2013-07-25T18:03:05Z</time>
      </trkpt>
      <trkpt lat="48.7052" lon="2.16243">
        <ele>105</ele>
        <time>2013-07-25T18:03:08Z</time>
      </trkpt>
      <trkpt lat="48.70518" lon="2.16237">
        <ele>105</ele>
        <time>2013-07-25T18:03:09Z</time>
      </trkpt>
      <trkpt lat="48.7051" lon="2.16221">
        <ele>106</ele>
        <time>2013-07-25T18:03:12Z</time>
      </trkpt>
      <trkpt lat="48.70502" lon="2.1621">
        <ele>106</ele>
        <time>2013-07-25T18:03:14Z</time>
      </trkpt>
      <trkpt lat="48.70492" lon="2.16192">
        <ele>97</ele>
        <time>2013-07-25T18:03:17Z</time>
      </trkpt>
      <trkpt lat="48.7048" lon="2.16165">
        <ele>99</ele>
        <time>2013-07-25T18:03:21Z</time>
      </trkpt>
      <trkpt lat="48.70471" lon="2.16135">
        <ele>98</ele>
        <time>2013-07-25T18:03:25Z</time>
      </trkpt>
      <trkpt lat="48.70462" lon="2.16065">
        <ele>101</ele>
        <time>2013-07-25T18:03:35Z</time>
      </trkpt>
      <trkpt lat="48.70461" lon="2.1606">
        <ele>101</ele>
        <time>2013-07-25T18:03:36Z</time>
      </trkpt>
      <trkpt lat="48.7046" lon="2.16054">
        <ele>101</ele>
        <time>2013-07-25T18:03:37Z</time>
      </trkpt>
      <trkpt lat="48.70458" lon="2.16043">
        <ele>101</ele>
        <time>2013-07-25T18:03:39Z</time>
      </trkpt>
      <trkpt lat="48.70458" lon="2.16038">
        <ele>101</ele>
        <time>2013-07-25T18:03:40Z</time>
      </trkpt>
      <trkpt lat="48.70456" lon="2.16021">
        <ele>101</ele>
        <time>2013-07-25T18:03:43Z</time>
      </trkpt>
      <trkpt lat="48.70455" lon="2.16015">
        <ele>100</ele>
        <time>2013-07-25T18:03:44Z</time>
      </trkpt>
      <trkpt lat="48.7045" lon="2.15993">
        <ele>101</ele>
        <time>2013-07-25T18:03:48Z</time>
      </trkpt>
      <trkpt lat="48.70448" lon="2.15975">
        <ele>102</ele>
        <time>2013-07-25T18:03:52Z</time>
      </trkpt>
      <trkpt lat="48.70448" lon="2.15971">
        <ele>102</ele>
        <time>2013-07-25T18:03:53Z</time>
      </trkpt>
      <trkpt lat="48.70448" lon="2.15968">
        <ele>102</ele>
        <time>2013-07-25T18:03:54Z</time>
      </trkpt>
      <trkpt lat="48.7045" lon="2.15961">
        <ele>103</ele>
        <time>2013-07-25T18:03:56Z</time>
      </trkpt>
      <trkpt lat="48.70452" lon="2.15959">
        <ele>103</ele>
        <time>2013-07-25T18:03:57Z</time>
      </trkpt>
      <trkpt lat="48.70454" lon="2.15957">
        <ele>103</ele>
        <time>2013-07-25T18:03:58Z</time>
      </trkpt>
      <trkpt lat="48.70458" lon="2.15951">
        <ele>104</ele>
        <time>2013-07-25T18:04:00Z</time>
      </trkpt>
      <trkpt lat="48.70461" lon="2.15944">
        <ele>104</ele>
        <time>2013-07-25T18:04:02Z</time>
      </trkpt>
      <trkpt lat="48.70464" lon="2.15932">
        <ele>105</ele>
        <time>2013-07-25T18:04:05Z</time>
      </trkpt>
      <trkpt lat="48.70467" lon="2.15912">
        <ele>109</ele>
        <time>2013-07-25T18:04:10Z</time>
      </trkpt>
      <trkpt lat="48.70467" lon="2.15909">
        <ele>109</ele>
        <time>2013-07-25T18:04:11Z</time>
      </trkpt>
      <trkpt lat="48.70467" lon="2.15903">
        <ele>109</ele>
        <time>2013-07-25T18:04:13Z</time>
      </trkpt>
      <trkpt lat="48.70467" lon="2.15887">
        <ele>109</ele>
        <time>2013-07-25T18:04:17Z</time>
      </trkpt>
      <trkpt lat="48.70468" lon="2.15874">
        <ele>110</ele>
        <time>2013-07-25T18:04:21Z</time>
      </trkpt>
      <trkpt lat="48.70468" lon="2.1587">
        <ele>110</ele>
        <time>2013-07-25T18:04:22Z</time>
      </trkpt>
      <trkpt lat="48.70469" lon="2.15867">
        <ele>110</ele>
        <time>2013-07-25T18:04:23Z</time>
      </trkpt>
      <trkpt lat="48.70469" lon="2.15864">
        <ele>110</ele>
        <time>2013-07-25T18:04:24Z</time>
      </trkpt>
      <trkpt lat="48.7047" lon="2.15855">
        <ele>111</ele>
        <time>2013-07-25T18:04:27Z</time>
      </trkpt>
      <trkpt lat="48.7047" lon="2.15849">
        <ele>111</ele>
        <time>2013-07-25T18:04:29Z</time>
      </trkpt>
      <trkpt lat="48.7047" lon="2.15847">
        <ele>111</ele>
        <time>2013-07-25T18:04:30Z</time>
      </trkpt>
      <trkpt lat="48.70469" lon="2.1584">
        <ele>111</ele>
        <time>2013-07-25T18:04:32Z</time>
      </trkpt>
      <trkpt lat="48.70469" lon="2.15836">
        <ele>111</ele>
        <time>2013-07-25T18:04:33Z</time>
      </trkpt>
      <trkpt lat="48.70468" lon="2.15833">
        <ele>113</ele>
        <time>2013-07-25T18:04:34Z</time>
      </trkpt>
      <trkpt lat="48.70464" lon="2.15819">
        <ele>113</ele>
        <time>2013-07-25T18:04:38Z</time>
      </trkpt>
      <trkpt lat="48.70464" lon="2.15815">
        <ele>113</ele>
        <time>2013-07-25T18:04:39Z</time>
      </trkpt>
      <trkpt lat="48.70463" lon="2.15812">
        <ele>113</ele>
        <time>2013-07-25T18:04:40Z</time>
      </trkpt>
      <trkpt lat="48.70461" lon="2.15802">
        <ele>113</ele>
        <time>2013-07-25T18:04:43Z</time>
      </trkpt>
      <trkpt lat="48.70461" lon="2.15799">
        <ele>113</ele>
        <time>2013-07-25T18:04:44Z</time>
      </trkpt>
      <trkpt lat="48.7046" lon="2.15796">
        <ele>113</ele>
        <time>2013-07-25T18:04:45Z</time>
      </trkpt>
      <trkpt lat="48.7046" lon="2.15793">
        <ele>113</ele>
        <time>2013-07-25T18:04:46Z</time>
      </trkpt>
      <trkpt lat="48.70459" lon="2.1579">
        <ele>113</ele>
        <time>2013-07-25T18:04:47Z</time>
      </trkpt>
      <trkpt lat="48.70459" lon="2.15787">
        <ele>113</ele>
        <time>2013-07-25T18:04:48Z</time>
      </trkpt>
      <trkpt lat="48.70459" lon="2.15782">
        <ele>113</ele>
        <time>2013-07-25T18:04:50Z</time>
      </trkpt>
      <trkpt lat="48.70461" lon="2.15775">
        <ele>113</ele>
        <time>2013-07-25T18:04:53Z</time>
      </trkpt>
      <trkpt lat="48.70462" lon="2.15773">
        <ele>113</ele>
        <time>2013-07-25T18:04:54Z</time>
      </trkpt>
      <trkpt lat="48.70463" lon="2.15771">
        <ele>114</ele>
        <time>2013-07-25T18:04:55Z</time>
      </trkpt>
      <trkpt lat="48.70464" lon="2.15771">
        <ele>114</ele>
        <time>2013-07-25T18:04:56Z</time>
      </trkpt>
      <trkpt lat="48.70466" lon="2.15769">
        <ele>114</ele>
        <time>2013-07-25T18:04:58Z</time>
      </trkpt>
      <trkpt lat="48.70468" lon="2.15769">
        <ele>114</ele>
        <time>2013-07-25T18:05:00Z</time>
      </trkpt>
      <trkpt lat="48.70469" lon="2.15769">
        <ele>115</ele>
        <time>2013-07-25T18:05:01Z</time>
      </trkpt>
      <trkpt lat="48.7047" lon="2.15769">
        <ele>115</ele>
        <time>2013-07-25T18:05:02Z</time>
      </trkpt>
      <trkpt lat="48.7047" lon="2.15769">
        <ele>115</ele>
        <time>2013-07-25T18:05:03Z</time>
      </trkpt>
      <trkpt lat="48.70471" lon="2.15769">
        <ele>115</ele>
        <time>2013-07-25T18:05:04Z</time>
      </trkpt>
      <trkpt lat="48.70472" lon="2.15769">
        <ele>115</ele>
        <time>2013-07-25T18:05:05Z</time>
      </trkpt>
      <trkpt lat="48.70473" lon="2.15769">
        <ele>115</ele>
        <time>2013-07-25T18:05:06Z</time>
      </trkpt>
      <trkpt lat="48.70474" lon="2.15769">
        <ele>115</ele>
        <time>2013-07-25T18:05:07Z</time>
      </trkpt>
      <trkpt lat="48.70475" lon="2.1577">
        <ele>115</ele>
        <time>2013-07-25T18:05:08Z</time>
      </trkpt>
      <trkpt lat="48.70476" lon="2.15771">
        <ele>116</ele>
        <time>2013-07-25T18:05:09Z</time>
      </trkpt>
      <trkpt lat="48.70479" lon="2.15775">
        <ele>116</ele>
        <time>2013-07-25T18:05:12Z</time>
      </trkpt>
      <trkpt lat="48.70479" lon="2.15777">
        <ele>116</ele>
        <time>2013-07-25T18:05:13Z</time>
      </trkpt>
      <trkpt lat="48.7048" lon="2.15778">
        <ele>115</ele>
        <time>2013-07-25T18:05:14Z</time>
      </trkpt>
      <trkpt lat="48.70481" lon="2.15781">
        <ele>115</ele>
        <time>2013-07-25T18:05:16Z</time>
      </trkpt>
      <trkpt lat="48.70482" lon="2.15782">
        <ele>115</ele>
        <time>2013-07-25T18:05:17Z</time>
      </trkpt>
      <trkpt lat="48.70484" lon="2.15784">
        <ele>115</ele>
        <time>2013-07-25T18:05:18Z</time>
      </trkpt>
      <trkpt lat="48.70486" lon="2.15786">
        <ele>116</ele>
        <time>2013-07-25T18:05:19Z</time>
      </trkpt>
      <trkpt lat="48.70488" lon="2.1579">
        <ele>116</ele>
        <time>2013-07-25T18:05:21Z</time>
      </trkpt>
      <trkpt lat="48.70492" lon="2.15795">
        <ele>116</ele>
        <time>2013-07-25T18:05:24Z</time>
      </trkpt>
      <trkpt lat="48.70493" lon="2.15796">
        <ele>116</ele>
        <time>2013-07-25T18:05:25Z</time>
      </trkpt>
      <trkpt lat="48.70495" lon="2.15799">
        <ele>116</ele>
        <time>2013-07-25T18:05:27Z</time>
      </trkpt>
      <trkpt lat="48.70496" lon="2.15801">
        <ele>116</ele>
        <time>2013-07-25T18:05:28Z</time>
      </trkpt>
      <trkpt lat="48.70502" lon="2.15808">
        <ele>129</ele>
        <time>2013-07-25T18:05:32Z</time>
      </trkpt>
      <trkpt lat="48.70503" lon="2.1581">
        <ele>129</ele>
        <time>2013-07-25T18:05:33Z</time>
      </trkpt>
      <trkpt lat="48.70506" lon="2.15815">
        <ele>128</ele>
        <time>2013-07-25T18:05:35Z</time>
      </trkpt>
      <trkpt lat="48.70507" lon="2.15817">
        <ele>128</ele>
        <time>2013-07-25T18:05:36Z</time>
      </trkpt>
      <trkpt lat="48.70515" lon="2.15838">
        <ele>126</ele>
        <time>2013-07-25T18:05:43Z</time>
      </trkpt>
      <trkpt lat="48.70517" lon="2.15845">
        <ele>127</ele>
        <time>2013-07-25T18:05:45Z</time>
      </trkpt>
      <trkpt lat="48.70518" lon="2.15848">
        <ele>127</ele>
        <time>2013-07-25T18:05:46Z</time>
      </trkpt>
      <trkpt lat="48.70523" lon="2.15873">
        <ele>128</ele>
        <time>2013-07-25T18:05:54Z</time>
      </trkpt>
      <trkpt lat="48.70523" lon="2.15884">
        <ele>128</ele>
        <time>2013-07-25T18:05:58Z</time>
      </trkpt>
      <trkpt lat="48.70523" lon="2.15893">
        <ele>127</ele>
        <time>2013-07-25T18:06:01Z</time>
      </trkpt>
      <trkpt lat="48.70524" lon="2.15895">
        <ele>127</ele>
        <time>2013-07-25T18:06:02Z</time>
      </trkpt>
      <trkpt lat="48.70524" lon="2.15898">
        <ele>127</ele>
        <time>2013-07-25T18:06:03Z</time>
      </trkpt>
      <trkpt lat="48.70526" lon="2.15902">
        <ele>127</ele>
        <time>2013-07-25T18:06:05Z</time>
      </trkpt>
      <trkpt lat="48.70526" lon="2.15904">
        <ele>127</ele>
        <time>2013-07-25T18:06:06Z</time>
      </trkpt>
      <trkpt lat="48.70527" lon="2.15905">
        <ele>127</ele>
        <time>2013-07-25T18:06:08Z</time>
      </trkpt>
      <trkpt lat="48.70527" lon="2.15905">
        <ele>127</ele>
        <time>2013-07-25T18:06:09Z</time>
      </trkpt>
      <trkpt lat="48.70527" lon="2.15906">
        <ele>127</ele>
        <time>2013-07-25T18:06:10Z</time>
      </trkpt>
      <trkpt lat="48.70528" lon="2.15906">
        <ele>127</ele>
        <time>2013-07-25T18:06:11Z</time>
      </trkpt>
      <trkpt lat="48.70528" lon="2.15908">
        <ele>127</ele>
        <time>2013-07-25T18:06:13Z</time>
      </trkpt>
      <trkpt lat="48.70529" lon="2.15909">
        <ele>127</ele>
        <time>2013-07-25T18:06:14Z</time>
      </trkpt>
      <trkpt lat="48.7053" lon="2.15912">
        <ele>128</ele>
        <time>2013-07-25T18:06:16Z</time>
      </trkpt>
      <trkpt lat="48.70532" lon="2.15916">
        <ele>128</ele>
        <time>2013-07-25T18:06:18Z</time>
      </trkpt>
      <trkpt lat="48.70533" lon="2.15918">
        <ele>125</ele>
        <time>2013-07-25T18:06:19Z</time>
      </trkpt>
      <trkpt lat="48.70534" lon="2.1592">
        <ele>125</ele>
        <time>2013-07-25T18:06:20Z</time>
      </trkpt>
      <trkpt lat="48.70535" lon="2.15922">
        <ele>126</ele>
        <time>2013-07-25T18:06:21Z</time>
      </trkpt>
      <trkpt lat="48.70537" lon="2.15927">
        <ele>126</ele>
        <time>2013-07-25T18:06:24Z</time>
      </trkpt>
      <trkpt lat="48.70538" lon="2.15929">
        <ele>126</ele>
        <time>2013-07-25T18:06:25Z</time>
      </trkpt>
      <trkpt lat="48.70539" lon="2.15931">
        <ele>126</ele>
        <time>2013-07-25T18:06:26Z</time>
      </trkpt>
      <trkpt lat="48.7054" lon="2.15933">
        <ele>127</ele>
        <time>2013-07-25T18:06:27Z</time>
      </trkpt>
      <trkpt lat="48.70543" lon="2.15937">
        <ele>127</ele>
        <time>2013-07-25T18:06:30Z</time>
      </trkpt>
      <trkpt lat="48.70544" lon="2.15938">
        <ele>127</ele>
        <time>2013-07-25T18:06:31Z</time>
      </trkpt>
      <trkpt lat="48.70546" lon="2.15942">
        <ele>127</ele>
        <time>2013-07-25T18:06:33Z</time>
      </trkpt>
      <trkpt lat="48.70547" lon="2.15944">
        <ele>128</ele>
        <time>2013-07-25T18:06:34Z</time>
      </trkpt>
      <trkpt lat="48.70548" lon="2.15947">
        <ele>128</ele>
        <time>2013-07-25T18:06:35Z</time>
      </trkpt>
      <trkpt lat="48.70549" lon="2.1595">
        <ele>128</ele>
        <time>2013-07-25T18:06:36Z</time>
      </trkpt>
      <trkpt lat="48.70549" lon="2.15952">
        <ele>128</ele>
        <time>2013-07-25T18:06:37Z</time>
      </trkpt>
      <trkpt lat="48.70551" lon="2.15962">
        <ele>128</ele>
        <time>2013-07-25T18:06:40Z</time>
      </trkpt>
      <trkpt lat="48.70552" lon="2.15968">
        <ele>128</ele>
        <time>2013-07-25T18:06:42Z</time>
      </trkpt>
      <trkpt lat="48.70553" lon="2.15972">
        <ele>128</ele>
        <time>2013-07-25T18:06:43Z</time>
      </trkpt>
      <trkpt lat="48.70554" lon="2.15978">
        <ele>128</ele>
        <time>2013-07-25T18:06:45Z</time>
      </trkpt>
      <trkpt lat="48.70554" lon="2.15982">
        <ele>128</ele>
        <time>2013-07-25T18:06:46Z</time>
      </trkpt>
      <trkpt lat="48.70555" lon="2.15986">
        <ele>128</ele>
        <time>2013-07-25T18:06:47Z</time>
      </trkpt>
      <trkpt lat="48.70558" lon="2.16001">
        <ele>126</ele>
        <time>2013-07-25T18:06:51Z</time>
      </trkpt>
      <trkpt lat="48.70559" lon="2.16008">
        <ele>126</ele>
        <time>2013-07-25T18:06:53Z</time>
      </trkpt>
      <trkpt lat="48.70562" lon="2.16023">
        <ele>125</ele>
        <time>2013-07-25T18:06:57Z</time>
      </trkpt>
      <trkpt lat="48.70563" lon="2.16027">
        <ele>125</ele>
        <time>2013-07-25T18:06:58Z</time>
      </trkpt>
      <trkpt lat="48.70564" lon="2.16032">
        <ele>125</ele>
        <time>2013-07-25T18:06:59Z</time>
      </trkpt>
      <trkpt lat="48.7057" lon="2.16054">
        <ele>124</ele>
        <time>2013-07-25T18:07:05Z</time>
      </trkpt>
      <trkpt lat="48.70571" lon="2.16058">
        <ele>125</ele>
        <time>2013-07-25T18:07:06Z</time>
      </trkpt>
      <trkpt lat="48.70584" lon="2.16081">
        <ele>132</ele>
        <time>2013-07-25T18:07:14Z</time>
      </trkpt>
      <trkpt lat="48.70589" lon="2.16089">
        <ele>132</ele>
        <time>2013-07-25T18:07:17Z</time>
      </trkpt>
      <trkpt lat="48.7059" lon="2.16091">
        <ele>133</ele>
        <time>2013-07-25T18:07:18Z</time>
      </trkpt>
      <trkpt lat="48.70593" lon="2.16097">
        <ele>134</ele>
        <time>2013-07-25T18:07:20Z</time>
      </trkpt>
      <trkpt lat="48.70597" lon="2.16104">
        <ele>135</ele>
        <time>2013-07-25T18:07:22Z</time>
      </trkpt>
      <trkpt lat="48.70605" lon="2.16116">
        <ele>136</ele>
        <time>2013-07-25T18:07:26Z</time>
      </trkpt>
      <trkpt lat="48.70609" lon="2.16122">
        <ele>136</ele>
        <time>2013-07-25T18:07:28Z</time>
      </trkpt>
      <trkpt lat="48.70614" lon="2.16136">
        <ele>136</ele>
        <time>2013-07-25T18:07:32Z</time>
      </trkpt>
      <trkpt lat="48.70615" lon="2.1614">
        <ele>136</ele>
        <time>2013-07-25T18:07:33Z</time>
      </trkpt>
      <trkpt lat="48.70615" lon="2.16144">
        <ele>136</ele>
        <time>2013-07-25T18:07:34Z</time>
      </trkpt>
      <trkpt lat="48.70614" lon="2.16152">
        <ele>135</ele>
        <time>2013-07-25T18:07:36Z</time>
      </trkpt>
      <trkpt lat="48.70612" lon="2.16176">
        <ele>132</ele>
        <time>2013-07-25T18:07:42Z</time>
      </trkpt>
      <trkpt lat="48.70613" lon="2.16185">
        <ele>132</ele>
        <time>2013-07-25T18:07:44Z</time>
      </trkpt>
      <trkpt lat="48.70613" lon="2.16189">
        <ele>132</ele>
        <time>2013-07-25T18:07:45Z</time>
      </trkpt>
      <trkpt lat="48.70614" lon="2.16193">
        <ele>132</ele>
        <time>2013-07-25T18:07:46Z</time>
      </trkpt>
      <trkpt lat="48.70615" lon="2.16196">
        <ele>133</ele>
        <time>2013-07-25T18:07:47Z</time>
      </trkpt>
      <trkpt lat="48.70617" lon="2.16204">
        <ele>133</ele>
        <time>2013-07-25T18:07:49Z</time>
      </trkpt>
      <trkpt lat="48.7062" lon="2.1621">
        <ele>133</ele>
        <time>2013-07-25T18:07:51Z</time>
      </trkpt>
      <trkpt lat="48.70623" lon="2.16216">
        <ele>134</ele>
        <time>2013-07-25T18:07:53Z</time>
      </trkpt>
      <trkpt lat="48.70626" lon="2.16224">
        <ele>134</ele>
        <time>2013-07-25T18:07:55Z</time>
      </trkpt>
      <trkpt lat="48.70633" lon="2.16243">
        <ele>136</ele>
        <time>2013-07-25T18:07:59Z</time>
      </trkpt>
      <trkpt lat="48.70637" lon="2.16253">
        <ele>135</ele>
        <time>2013-07-25T18:08:01Z</time>
      </trkpt>
      <trkpt lat="48.7064" lon="2.16256">
        <ele>135</ele>
        <time>2013-07-25T18:08:02Z</time>
      </trkpt>
      <trkpt lat="48.70645" lon="2.16263">
        <ele>137</ele>
        <time>2013-07-25T18:08:04Z</time>
      </trkpt>
      <trkpt lat="48.70648" lon="2.16265">
        <ele>137</ele>
        <time>2013-07-25T18:08:05Z</time>
      </trkpt>
      <trkpt lat="48.7065" lon="2.16268">
        <ele>137</ele>
        <time>2013-07-25T18:08:06Z</time>
      </trkpt>
      <trkpt lat="48.70652" lon="2.16271">
        <ele>137</ele>
        <time>2013-07-25T18:08:07Z</time>
      </trkpt>
      <trkpt lat="48.70654" lon="2.16274">
        <ele>137</ele>
        <time>2013-07-25T18:08:08Z</time>
      </trkpt>
      <trkpt lat="48.70657" lon="2.16278">
        <ele>137</ele>
        <time>2013-07-25T18:08:09Z</time>
      </trkpt>
      <trkpt lat="48.70659" lon="2.16291">
        <ele>136</ele>
        <time>2013-07-25T18:08:12Z</time>
      </trkpt>
      <trkpt lat="48.70661" lon="2.16312">
        <ele>136</ele>
        <time>2013-07-25T18:08:17Z</time>
      </trkpt>
      <trkpt lat="48.70661" lon="2.16325">
        <ele>139</ele>
        <time>2013-07-25T18:08:20Z</time>
      </trkpt>
      <trkpt lat="48.7066" lon="2.16333">
        <ele>140</ele>
        <time>2013-07-25T18:08:22Z</time>
      </trkpt>
      <trkpt lat="48.7066" lon="2.16342">
        <ele>137</ele>
        <time>2013-07-25T18:08:24Z</time>
      </trkpt>
      <trkpt lat="48.70659" lon="2.16358">
        <ele>133</ele>
        <time>2013-07-25T18:08:28Z</time>
      </trkpt>
      <trkpt lat="48.70659" lon="2.16393">
        <ele>133</ele>
        <time>2013-07-25T18:08:36Z</time>
      </trkpt>
      <trkpt lat="48.70662" lon="2.1641">
        <ele>138</ele>
        <time>2013-07-25T18:08:40Z</time>
      </trkpt>
      <trkpt lat="48.70662" lon="2.16419">
        <ele>139</ele>
        <time>2013-07-25T18:08:42Z</time>
      </trkpt>
      <trkpt lat="48.70662" lon="2.16427">
        <ele>137</ele>
        <time>2013-07-25T18:08:44Z</time>
      </trkpt>
      <trkpt lat="48.70656" lon="2.16464">
        <ele>132</ele>
        <time>2013-07-25T18:08:53Z</time>
      </trkpt>
      <trkpt lat="48.70656" lon="2.16484">
        <ele>135</ele>
        <time>2013-07-25T18:08:58Z</time>
      </trkpt>
      <trkpt lat="48.70656" lon="2.16489">
        <ele>136</ele>
        <time>2013-07-25T18:08:59Z</time>
      </trkpt>
      <trkpt lat="48.70656" lon="2.16497">
        <ele>138</ele>
        <time>2013-07-25T18:09:01Z</time>
      </trkpt>
      <trkpt lat="48.70658" lon="2.16512">
        <ele>138</ele>
        <time>2013-07-25T18:09:04Z</time>
      </trkpt>
      <trkpt lat="48.70661" lon="2.16555">
        <ele>134</ele>
        <time>2013-07-25T18:09:13Z</time>
      </trkpt>
      <trkpt lat="48.70664" lon="2.16573">
        <ele>138</ele>
        <time>2013-07-25T18:09:18Z</time>
      </trkpt>
      <trkpt lat="48.70667" lon="2.1658">
        <ele>141</ele>
        <time>2013-07-25T18:09:20Z</time>
      </trkpt>
      <trkpt lat="48.70668" lon="2.1659">
        <ele>146</ele>
        <time>2013-07-25T18:09:23Z</time>
      </trkpt>
      <trkpt lat="48.70672" lon="2.16602">
        <ele>149</ele>
        <time>2013-07-25T18:09:26Z</time>
      </trkpt>
      <trkpt lat="48.70674" lon="2.16613">
        <ele>150</ele>
        <time>2013-07-25T18:09:29Z</time>
      </trkpt>
      <trkpt lat="48.70675" lon="2.1662">
        <ele>150</ele>
        <time>2013-07-25T18:09:31Z</time>
      </trkpt>
      <trkpt lat="48.70669" lon="2.16663">
        <ele>144</ele>
        <time>2013-07-25T18:09:42Z</time>
      </trkpt>
      <trkpt lat="48.70667" lon="2.1667">
        <ele>144</ele>
        <time>2013-07-25T18:09:44Z</time>
      </trkpt>
      <trkpt lat="48.70664" lon="2.16696">
        <ele>135</ele>
        <time>2013-07-25T18:09:50Z</time>
      </trkpt>
      <trkpt lat="48.70664" lon="2.16703">
        <ele>135</ele>
        <time>2013-07-25T18:09:52Z</time>
      </trkpt>
      <trkpt lat="48.70664" lon="2.16711">
        <ele>135</ele>
        <time>2013-07-25T18:09:54Z</time>
      </trkpt>
      <trkpt lat="48.70664" lon="2.16714">
        <ele>136</ele>
        <time>2013-07-25T18:09:55Z</time>
      </trkpt>
      <trkpt lat="48.70664" lon="2.16718">
        <ele>136</ele>
        <time>2013-07-25T18:09:56Z</time>
      </trkpt>
      <trkpt lat="48.70664" lon="2.16722">
        <ele>137</ele>
        <time>2013-07-25T18:09:57Z</time>
      </trkpt>
      <trkpt lat="48.70666" lon="2.16731">
        <ele>139</ele>
        <time>2013-07-25T18:10:00Z</time>
      </trkpt>
      <trkpt lat="48.70667" lon="2.16734">
        <ele>150</ele>
        <time>2013-07-25T18:10:01Z</time>
      </trkpt>
      <trkpt lat="48.70668" lon="2.16738">
        <ele>150</ele>
        <time>2013-07-25T18:10:03Z</time>
      </trkpt>
      <trkpt lat="48.70669" lon="2.16739">
        <ele>150</ele>
        <time>2013-07-25T18:10:04Z</time>
      </trkpt>
      <trkpt lat="48.70671" lon="2.16739">
        <ele>150</ele>
        <time>2013-07-25T18:10:05Z</time>
      </trkpt>
      <trkpt lat="48.70674" lon="2.16739">
        <ele>150</ele>
        <time>2013-07-25T18:10:07Z</time>
      </trkpt>
      <trkpt lat="48.70675" lon="2.1674">
        <ele>150</ele>
        <time>2013-07-25T18:10:08Z</time>
      </trkpt>
      <trkpt lat="48.70677" lon="2.1674">
        <ele>151</ele>
        <time>2013-07-25T18:10:09Z</time>
      </trkpt>
      <trkpt lat="48.70678" lon="2.1674">
        <ele>151</ele>
        <time>2013-07-25T18:10:10Z</time>
      </trkpt>
      <trkpt lat="48.70684" lon="2.16741">
        <ele>152</ele>
        <time>2013-07-25T18:10:13Z</time>
      </trkpt>
      <trkpt lat="48.70685" lon="2.16741">
        <ele>152</ele>
        <time>2013-07-25T18:10:14Z</time>
      </trkpt>
      <trkpt lat="48.70687" lon="2.16742">
        <ele>152</ele>
        <time>2013-07-25T18:10:15Z</time>
      </trkpt>
      <trkpt lat="48.70688" lon="2.16743">
        <ele>152</ele>
        <time>2013-07-25T18:10:16Z</time>
      </trkpt>
      <trkpt lat="48.7069" lon="2.16743">
        <ele>153</ele>
        <time>2013-07-25T18:10:17Z</time>
      </trkpt>
      <trkpt lat="48.70691" lon="2.16743">
        <ele>153</ele>
        <time>2013-07-25T18:10:18Z</time>
      </trkpt>
      <trkpt lat="48.70693" lon="2.16744">
        <ele>153</ele>
        <time>2013-07-25T18:10:19Z</time>
      </trkpt>
      <trkpt lat="48.70696" lon="2.16746">
        <ele>154</ele>
        <time>2013-07-25T18:10:21Z</time>
      </trkpt>
      <trkpt lat="48.70698" lon="2.1675">
        <ele>155</ele>
        <time>2013-07-25T18:10:23Z</time>
      </trkpt>
      <trkpt lat="48.70699" lon="2.16752">
        <ele>156</ele>
        <time>2013-07-25T18:10:24Z</time>
      </trkpt>
      <trkpt lat="48.70701" lon="2.16752">
        <ele>156</ele>
        <time>2013-07-25T18:10:25Z</time>
      </trkpt>
      <trkpt lat="48.70703" lon="2.16752">
        <ele>156</ele>
        <time>2013-07-25T18:10:26Z</time>
      </trkpt>
      <trkpt lat="48.70705" lon="2.16752">
        <ele>156</ele>
        <time>2013-07-25T18:10:27Z</time>
      </trkpt>
      <trkpt lat="48.70708" lon="2.16749">
        <ele>156</ele>
        <time>2013-07-25T18:10:29Z</time>
      </trkpt>
      <trkpt lat="48.70709" lon="2.16748">
        <ele>156</ele>
        <time>2013-07-25T18:10:30Z</time>
      </trkpt>
      <trkpt lat="48.7071" lon="2.16746">
        <ele>156</ele>
        <time>2013-07-25T18:10:31Z</time>
      </trkpt>
      <trkpt lat="48.70711" lon="2.16743">
        <ele>156</ele>
        <time>2013-07-25T18:10:32Z</time>
      </trkpt>
      <trkpt lat="48.70712" lon="2.16741">
        <ele>156</ele>
        <time>2013-07-25T18:10:33Z</time>
      </trkpt>
      <trkpt lat="48.70713" lon="2.16738">
        <ele>157</ele>
        <time>2013-07-25T18:10:34Z</time>
      </trkpt>
      <trkpt lat="48.70713" lon="2.16735">
        <ele>157</ele>
        <time>2013-07-25T18:10:35Z</time>
      </trkpt>
      <trkpt lat="48.70714" lon="2.16731">
        <ele>157</ele>
        <time>2013-07-25T18:10:36Z</time>
      </trkpt>
      <trkpt lat="48.70716" lon="2.16723">
        <ele>157</ele>
        <time>2013-07-25T18:10:38Z</time>
      </trkpt>
      <trkpt lat="48.70717" lon="2.16715">
        <ele>157</ele>
        <time>2013-07-25T18:10:40Z</time>
      </trkpt>
      <trkpt lat="48.70718" lon="2.16702">
        <ele>157</ele>
        <time>2013-07-25T18:10:43Z</time>
      </trkpt>
      <trkpt lat="48.70718" lon="2.16699">
        <ele>157</ele>
        <time>2013-07-25T18:10:44Z</time>
      </trkpt>
      <trkpt lat="48.70707" lon="2.16649">
        <ele>154</ele>
        <time>2013-07-25T18:10:53Z</time>
      </trkpt>
      <trkpt lat="48.70705" lon="2.16625">
        <ele>154</ele>
        <time>2013-07-25T18:10:56Z</time>
      </trkpt>
      <trkpt lat="48.70701" lon="2.16611">
        <ele>153</ele>
        <time>2013-07-25T18:10:58Z</time>
      </trkpt>
      <trkpt lat="48.70701" lon="2.16604">
        <ele>153</ele>
        <time>2013-07-25T18:10:59Z</time>
      </trkpt>
      <trkpt lat="48.70697" lon="2.16574">
        <ele>152</ele>
        <time>2013-07-25T18:11:03Z</time>
      </trkpt>
      <trkpt lat="48.70698" lon="2.16567">
        <ele>153</ele>
        <time>2013-07-25T18:11:04Z</time>
      </trkpt>
      <trkpt lat="48.70698" lon="2.1656">
        <ele>153</ele>
        <time>2013-07-25T18:11:05Z</time>
      </trkpt>
      <trkpt lat="48.707" lon="2.1654">
        <ele>153</ele>
        <time>2013-07-25T18:11:08Z</time>
      </trkpt>
      <trkpt lat="48.70702" lon="2.16528">
        <ele>153</ele>
        <time>2013-07-25T18:11:10Z</time>
      </trkpt>
      <trkpt lat="48.70706" lon="2.16508">
        <ele>154</ele>
        <time>2013-07-25T18:11:13Z</time>
      </trkpt>
      <trkpt lat="48.70707" lon="2.16501">
        <ele>154</ele>
        <time>2013-07-25T18:11:14Z</time>
      </trkpt>
      <trkpt lat="48.70707" lon="2.16434">
        <ele>152</ele>
        <time>2013-07-25T18:11:24Z</time>
      </trkpt>
      <trkpt lat="48.70707" lon="2.16428">
        <ele>152</ele>
        <time>2013-07-25T18:11:25Z</time>
      </trkpt>
      <trkpt lat="48.70705" lon="2.16304">
        <ele>153</ele>
        <time>2013-07-25T18:11:42Z</time>
      </trkpt>
      <trkpt lat="48.70666" lon="2.16144">
        <ele>144</ele>
        <time>2013-07-25T18:12:03Z</time>
      </trkpt>
      <trkpt lat="48.70643" lon="2.16079">
        <ele>146</ele>
        <time>2013-07-25T18:12:14Z</time>
      </trkpt>
      <trkpt lat="48.70639" lon="2.16062">
        <ele>145</ele>
        <time>2013-07-25T18:12:17Z</time>
      </trkpt>
      <trkpt lat="48.70632" lon="2.16036">
        <ele>145</ele>
        <time>2013-07-25T18:12:22Z</time>
      </trkpt>
      <trkpt lat="48.70616" lon="2.15964">
        <ele>147</ele>
        <time>2013-07-25T18:12:32Z</time>
      </trkpt>
      <trkpt lat="48.70616" lon="2.15959">
        <ele>148</ele>
        <time>2013-07-25T18:12:33Z</time>
      </trkpt>
      <trkpt lat="48.70617" lon="2.15955">
        <ele>148</ele>
        <time>2013-07-25T18:12:34Z</time>
      </trkpt>
      <trkpt lat="48.70619" lon="2.15952">
        <ele>148</ele>
        <time>2013-07-25T18:12:35Z</time>
      </trkpt>
      <trkpt lat="48.70622" lon="2.15951">
        <ele>148</ele>
        <time>2013-07-25T18:12:36Z</time>
      </trkpt>
      <trkpt lat="48.70625" lon="2.1595">
        <ele>149</ele>
        <time>2013-07-25T18:12:37Z</time>
      </trkpt>
      <trkpt lat="48.70627" lon="2.1595">
        <ele>149</ele>
        <time>2013-07-25T18:12:38Z</time>
      </trkpt>
      <trkpt lat="48.70629" lon="2.1595">
        <ele>149</ele>
        <time>2013-07-25T18:12:39Z</time>
      </trkpt>
      <trkpt lat="48.70631" lon="2.15949">
        <ele>149</ele>
        <time>2013-07-25T18:12:41Z</time>
      </trkpt>
      <trkpt lat="48.70633" lon="2.15948">
        <ele>150</ele>
        <time>2013-07-25T18:12:42Z</time>
      </trkpt>
      <trkpt lat="48.70635" lon="2.15947">
        <ele>150</ele>
        <time>2013-07-25T18:12:43Z</time>
      </trkpt>
      <trkpt lat="48.70639" lon="2.15945">
        <ele>151</ele>
        <time>2013-07-25T18:12:45Z</time>
      </trkpt>
      <trkpt lat="48.70643" lon="2.15944">
        <ele>151</ele>
        <time>2013-07-25T18:12:47Z</time>
      </trkpt>
      <trkpt lat="48.70648" lon="2.15942">
        <ele>152</ele>
        <time>2013-07-25T18:12:49Z</time>
      </trkpt>
      <trkpt lat="48.70651" lon="2.1594">
        <ele>152</ele>
        <time>2013-07-25T18:12:50Z</time>
      </trkpt>
      <trkpt lat="48.70653" lon="2.15939">
        <ele>153</ele>
        <time>2013-07-25T18:12:51Z</time>
      </trkpt>
      <trkpt lat="48.70659" lon="2.15937">
        <ele>154</ele>
        <time>2013-07-25T18:12:53Z</time>
      </trkpt>
      <trkpt lat="48.70662" lon="2.15936">
        <ele>154</ele>
        <time>2013-07-25T18:12:54Z</time>
      </trkpt>
      <trkpt lat="48.70664" lon="2.15935">
        <ele>154</ele>
        <time>2013-07-25T18:12:55Z</time>
      </trkpt>
      <trkpt lat="48.70666" lon="2.15932">
        <ele>155</ele>
        <time>2013-07-25T18:12:56Z</time>
      </trkpt>
      <trkpt lat="48.70667" lon="2.15929">
        <ele>160</ele>
        <time>2013-07-25T18:12:57Z</time>
      </trkpt>
      <trkpt lat="48.70667" lon="2.15915">
        <ele>160</ele>
        <time>2013-07-25T18:13:01Z</time>
      </trkpt>
      <trkpt lat="48.70666" lon="2.15912">
        <ele>159</ele>
        <time>2013-07-25T18:13:02Z</time>
      </trkpt>
      <trkpt lat="48.70664" lon="2.159">
        <ele>157</ele>
        <time>2013-07-25T18:13:05Z</time>
      </trkpt>
      <trkpt lat="48.70663" lon="2.1589">
        <ele>156</ele>
        <time>2013-07-25T18:13:07Z</time>
      </trkpt>
      <trkpt lat="48.70662" lon="2.15886">
        <ele>156</ele>
        <time>2013-07-25T18:13:08Z</time>
      </trkpt>
      <trkpt lat="48.7066" lon="2.15872">
        <ele>156</ele>
        <time>2013-07-25T18:13:11Z</time>
      </trkpt>
      <trkpt lat="48.7066" lon="2.15867">
        <ele>156</ele>
        <time>2013-07-25T18:13:12Z</time>
      </trkpt>
      <trkpt lat="48.70658" lon="2.15852">
        <ele>157</ele>
        <time>2013-07-25T18:13:15Z</time>
      </trkpt>
      <trkpt lat="48.70657" lon="2.15847">
        <ele>158</ele>
        <time>2013-07-25T18:13:16Z</time>
      </trkpt>
      <trkpt lat="48.70654" lon="2.15824">
        <ele>159</ele>
        <time>2013-07-25T18:13:20Z</time>
      </trkpt>
      <trkpt lat="48.70648" lon="2.1579">
        <ele>157</ele>
        <time>2013-07-25T18:13:26Z</time>
      </trkpt>
      <trkpt lat="48.70646" lon="2.15768">
        <ele>158</ele>
        <time>2013-07-25T18:13:30Z</time>
      </trkpt>
      <trkpt lat="48.70646" lon="2.15762">
        <ele>158</ele>
        <time>2013-07-25T18:13:31Z</time>
      </trkpt>
      <trkpt lat="48.70646" lon="2.15747">
        <ele>159</ele>
        <time>2013-07-25T18:13:34Z</time>
      </trkpt>
      <trkpt lat="48.70627" lon="2.15654">
        <ele>160</ele>
        <time>2013-07-25T18:13:49Z</time>
      </trkpt>
      <trkpt lat="48.70624" lon="2.15636">
        <ele>160</ele>
        <time>2013-07-25T18:13:52Z</time>
      </trkpt>
      <trkpt lat="48.7062" lon="2.15618">
        <ele>160</ele>
        <time>2013-07-25T18:13:55Z</time>
      </trkpt>
      <trkpt lat="48.7062" lon="2.15612">
        <ele>160</ele>
        <time>2013-07-25T18:13:56Z</time>
      </trkpt>
      <trkpt lat="48.70616" lon="2.15594">
        <ele>160</ele>
        <time>2013-07-25T18:13:59Z</time>
      </trkpt>
      <trkpt lat="48.70602" lon="2.15519">
        <ele>161</ele>
        <time>2013-07-25T18:14:10Z</time>
      </trkpt>
      <trkpt lat="48.70592" lon="2.15481">
        <ele>161</ele>
        <time>2013-07-25T18:14:16Z</time>
      </trkpt>
      <trkpt lat="48.70552" lon="2.15283">
        <ele>162</ele>
        <time>2013-07-25T18:14:45Z</time>
      </trkpt>
      <trkpt lat="48.70548" lon="2.15271">
        <ele>162</ele>
        <time>2013-07-25T18:14:47Z</time>
      </trkpt>
      <trkpt lat="48.70537" lon="2.15225">
        <ele>163</ele>
        <time>2013-07-25T18:14:54Z</time>
      </trkpt>
      <trkpt lat="48.70535" lon="2.15219">
        <ele>163</ele>
        <time>2013-07-25T18:14:55Z</time>
      </trkpt>
      <trkpt lat="48.70525" lon="2.15203">
        <ele>163</ele>
        <time>2013-07-25T18:14:58Z</time>
      </trkpt>
      <trkpt lat="48.70511" lon="2.15176">
        <ele>163</ele>
        <time>2013-07-25T18:15:02Z</time>
      </trkpt>
      <trkpt lat="48.70507" lon="2.15154">
        <ele>166</ele>
        <time>2013-07-25T18:15:05Z</time>
      </trkpt>
      <trkpt lat="48.70506" lon="2.1514">
        <ele>167</ele>
        <time>2013-07-25T18:15:07Z</time>
      </trkpt>
      <trkpt lat="48.70499" lon="2.15098">
        <ele>163</ele>
        <time>2013-07-25T18:15:13Z</time>
      </trkpt>
      <trkpt lat="48.70498" lon="2.15083">
        <ele>168</ele>
        <time>2013-07-25T18:15:15Z</time>
      </trkpt>
      <trkpt lat="48.70497" lon="2.15075">
        <ele>165</ele>
        <time>2013-07-25T18:15:16Z</time>
      </trkpt>
      <trkpt lat="48.70496" lon="2.14997">
        <ele>165</ele>
        <time>2013-07-25T18:15:25Z</time>
      </trkpt>
      <trkpt lat="48.7051" lon="2.14862">
        <ele>166</ele>
        <time>2013-07-25T18:15:41Z</time>
      </trkpt>
      <trkpt lat="48.70512" lon="2.14854">
        <ele>165</ele>
        <time>2013-07-25T18:15:42Z</time>
      </trkpt>
      <trkpt lat="48.70517" lon="2.14841">
        <ele>165</ele>
        <time>2013-07-25T18:15:44Z</time>
      </trkpt>
      <trkpt lat="48.7053" lon="2.14821">
        <ele>165</ele>
        <time>2013-07-25T18:15:48Z</time>
      </trkpt>
      <trkpt lat="48.70534" lon="2.14811">
        <ele>166</ele>
        <time>2013-07-25T18:15:50Z</time>
      </trkpt>
      <trkpt lat="48.70538" lon="2.14805">
        <ele>166</ele>
        <time>2013-07-25T18:15:51Z</time>
      </trkpt>
      <trkpt lat="48.7054" lon="2.14799">
        <ele>166</ele>
        <time>2013-07-25T18:15:52Z</time>
      </trkpt>
      <trkpt lat="48.70542" lon="2.14792">
        <ele>166</ele>
        <time>2013-07-25T18:15:53Z</time>
      </trkpt>
      <trkpt lat="48.70544" lon="2.14785">
        <ele>166</ele>
        <time>2013-07-25T18:15:54Z</time>
      </trkpt>
      <trkpt lat="48.70548" lon="2.14739">
        <ele>165</ele>
        <time>2013-07-25T18:16:00Z</time>
      </trkpt>
      <trkpt lat="48.7055" lon="2.14726">
        <ele>165</ele>
        <time>2013-07-25T18:16:02Z</time>
      </trkpt>
      <trkpt lat="48.70554" lon="2.14705">
        <ele>165</ele>
        <time>2013-07-25T18:16:05Z</time>
      </trkpt>
      <trkpt lat="48.70555" lon="2.14699">
        <ele>165</ele>
        <time>2013-07-25T18:16:06Z</time>
      </trkpt>
      <trkpt lat="48.70557" lon="2.14658">
        <ele>165</ele>
        <time>2013-07-25T18:16:12Z</time>
      </trkpt>
      <trkpt lat="48.70559" lon="2.14651">
        <ele>165</ele>
        <time>2013-07-25T18:16:13Z</time>
      </trkpt>
      <trkpt lat="48.70562" lon="2.1461">
        <ele>164</ele>
        <time>2013-07-25T18:16:18Z</time>
      </trkpt>
      <trkpt lat="48.70568" lon="2.1456">
        <ele>162</ele>
        <time>2013-07-25T18:16:24Z</time>
      </trkpt>
      <trkpt lat="48.70572" lon="2.14538">
        <ele>161</ele>
        <time>2013-07-25T18:16:27Z</time>
      </trkpt>
      <trkpt lat="48.70581" lon="2.14458">
        <ele>160</ele>
        <time>2013-07-25T18:16:37Z</time>
      </trkpt>
      <trkpt lat="48.70585" lon="2.14433">
        <ele>164</ele>
        <time>2013-07-25T18:16:40Z</time>
      </trkpt>
      <trkpt lat="48.70589" lon="2.14416">
        <ele>164</ele>
        <time>2013-07-25T18:16:42Z</time>
      </trkpt>
      <trkpt lat="48.70598" lon="2.14334">
        <ele>163</ele>
        <time>2013-07-25T18:16:52Z</time>
      </trkpt>
      <trkpt lat="48.706" lon="2.14169">
        <ele>160</ele>
        <time>2013-07-25T18:17:12Z</time>
      </trkpt>
      <trkpt lat="48.70601" lon="2.14124">
        <ele>160</ele>
        <time>2013-07-25T18:17:17Z</time>
      </trkpt>
      <trkpt lat="48.70603" lon="2.14097">
        <ele>160</ele>
        <time>2013-07-25T18:17:20Z</time>
      </trkpt>
      <trkpt lat="48.70599" lon="2.13898">
        <ele>161</ele>
        <time>2013-07-25T18:17:40Z</time>
      </trkpt>
      <trkpt lat="48.70599" lon="2.13888">
        <ele>161</ele>
        <time>2013-07-25T18:17:41Z</time>
      </trkpt>
      <trkpt lat="48.70601" lon="2.13873">
        <ele>160</ele>
        <time>2013-07-25T18:17:43Z</time>
      </trkpt>
      <trkpt lat="48.706" lon="2.13868">
        <ele>160</ele>
        <time>2013-07-25T18:17:44Z</time>
      </trkpt>
      <trkpt lat="48.70599" lon="2.13864">
        <ele>160</ele>
        <time>2013-07-25T18:17:45Z</time>
      </trkpt>
      <trkpt lat="48.70599" lon="2.1386">
        <ele>160</ele>
        <time>2013-07-25T18:17:46Z</time>
      </trkpt>
      <trkpt lat="48.70601" lon="2.13857">
        <ele>160</ele>
        <time>2013-07-25T18:17:47Z</time>
      </trkpt>
      <trkpt lat="48.70604" lon="2.13855">
        <ele>160</ele>
        <time>2013-07-25T18:17:48Z</time>
      </trkpt>
      <trkpt lat="48.70606" lon="2.13855">
        <ele>160</ele>
        <time>2013-07-25T18:17:49Z</time>
      </trkpt>
      <trkpt lat="48.70609" lon="2.13855">
        <ele>160</ele>
        <time>2013-07-25T18:17:50Z</time>
      </trkpt>
      <trkpt lat="48.70613" lon="2.13858">
        <ele>160</ele>
        <time>2013-07-25T18:17:52Z</time>
      </trkpt>
      <trkpt lat="48.70615" lon="2.13859">
        <ele>160</ele>
        <time>2013-07-25T18:17:53Z</time>
      </trkpt>
      <trkpt lat="48.70617" lon="2.1386">
        <ele>161</ele>
        <time>2013-07-25T18:17:54Z</time>
      </trkpt>
      <trkpt lat="48.70619" lon="2.13862">
        <ele>161</ele>
        <time>2013-07-25T18:17:55Z</time>
      </trkpt>
      <trkpt lat="48.70623" lon="2.13867">
        <ele>161</ele>
        <time>2013-07-25T18:17:57Z</time>
      </trkpt>
      <trkpt lat="48.70626" lon="2.1387">
        <ele>161</ele>
        <time>2013-07-25T18:17:58Z</time>
      </trkpt>
      <trkpt lat="48.70629" lon="2.1387">
        <ele>161</ele>
        <time>2013-07-25T18:17:59Z</time>
      </trkpt>
      <trkpt lat="48.70633" lon="2.1387">
        <ele>161</ele>
        <time>2013-07-25T18:18:00Z</time>
      </trkpt>
      <trkpt lat="48.70636" lon="2.13871">
        <ele>161</ele>
        <time>2013-07-25T18:18:01Z</time>
      </trkpt>
      <trkpt lat="48.70639" lon="2.13873">
        <ele>161</ele>
        <time>2013-07-25T18:18:02Z</time>
      </trkpt>
      <trkpt lat="48.70645" lon="2.13877">
        <ele>161</ele>
        <time>2013-07-25T18:18:04Z</time>
      </trkpt>
      <trkpt lat="48.70647" lon="2.1388">
        <ele>162</ele>
        <time>2013-07-25T18:18:05Z</time>
      </trkpt>
      <trkpt lat="48.7065" lon="2.13882">
        <ele>162</ele>
        <time>2013-07-25T18:18:06Z</time>
      </trkpt>
      <trkpt lat="48.70652" lon="2.13883">
        <ele>162</ele>
        <time>2013-07-25T18:18:07Z</time>
      </trkpt>
      <trkpt lat="48.70655" lon="2.13883">
        <ele>162</ele>
        <time>2013-07-25T18:18:08Z</time>
      </trkpt>
      <trkpt lat="48.70657" lon="2.13881">
        <ele>162</ele>
        <time>2013-07-25T18:18:09Z</time>
      </trkpt>
      <trkpt lat="48.70658" lon="2.13877">
        <ele>162</ele>
        <time>2013-07-25T18:18:10Z</time>
      </trkpt>
      <trkpt lat="48.70658" lon="2.13874">
        <ele>162</ele>
        <time>2013-07-25T18:18:11Z</time>
      </trkpt>
      <trkpt lat="48.7066" lon="2.1387">
        <ele>162</ele>
        <time>2013-07-25T18:18:12Z</time>
      </trkpt>
      <trkpt lat="48.70662" lon="2.13867">
        <ele>162</ele>
        <time>2013-07-25T18:18:13Z</time>
      </trkpt>
      <trkpt lat="48.70664" lon="2.13863">
        <ele>162</ele>
        <time>2013-07-25T18:18:14Z</time>
      </trkpt>
      <trkpt lat="48.70669" lon="2.13848">
        <ele>163</ele>
        <time>2013-07-25T18:18:17Z</time>
      </trkpt>
      <trkpt lat="48.7067" lon="2.13838">
        <ele>163</ele>
        <time>2013-07-25T18:18:19Z</time>
      </trkpt>
      <trkpt lat="48.70672" lon="2.13834">
        <ele>163</ele>
        <time>2013-07-25T18:18:20Z</time>
      </trkpt>
      <trkpt lat="48.70673" lon="2.13831">
        <ele>163</ele>
        <time>2013-07-25T18:18:21Z</time>
      </trkpt>
      <trkpt lat="48.70679" lon="2.13813">
        <ele>163</ele>
        <time>2013-07-25T18:18:25Z</time>
      </trkpt>
      <trkpt lat="48.70682" lon="2.13803">
        <ele>163</ele>
        <time>2013-07-25T18:18:27Z</time>
      </trkpt>
      <trkpt lat="48.70683" lon="2.13793">
        <ele>163</ele>
        <time>2013-07-25T18:18:29Z</time>
      </trkpt>
      <trkpt lat="48.70689" lon="2.13756">
        <ele>163</ele>
        <time>2013-07-25T18:18:37Z</time>
      </trkpt>
      <trkpt lat="48.70691" lon="2.13752">
        <ele>163</ele>
        <time>2013-07-25T18:18:38Z</time>
      </trkpt>
      <trkpt lat="48.70693" lon="2.13748">
        <ele>164</ele>
        <time>2013-07-25T18:18:39Z</time>
      </trkpt>
      <trkpt lat="48.70694" lon="2.13744">
        <ele>164</ele>
        <time>2013-07-25T18:18:40Z</time>
      </trkpt>
      <trkpt lat="48.70695" lon="2.13739">
        <ele>164</ele>
        <time>2013-07-25T18:18:41Z</time>
      </trkpt>
      <trkpt lat="48.70698" lon="2.1373">
        <ele>164</ele>
        <time>2013-07-25T18:18:43Z</time>
      </trkpt>
      <trkpt lat="48.707" lon="2.13725">
        <ele>164</ele>
        <time>2013-07-25T18:18:44Z</time>
      </trkpt>
      <trkpt lat="48.70702" lon="2.1371">
        <ele>164</ele>
        <time>2013-07-25T18:18:47Z</time>
      </trkpt>
      <trkpt lat="48.70703" lon="2.13706">
        <ele>164</ele>
        <time>2013-07-25T18:18:48Z</time>
      </trkpt>
      <trkpt lat="48.70703" lon="2.13704">
        <ele>164</ele>
        <time>2013-07-25T18:18:49Z</time>
      </trkpt>
      <trkpt lat="48.70705" lon="2.13702">
        <ele>164</ele>
        <time>2013-07-25T18:18:50Z</time>
      </trkpt>
      <trkpt lat="48.70707" lon="2.13699">
        <ele>164</ele>
        <time>2013-07-25T18:18:51Z</time>
      </trkpt>
      <trkpt lat="48.70708" lon="2.13696">
        <ele>164</ele>
        <time>2013-07-25T18:18:52Z</time>
      </trkpt>
      <trkpt lat="48.70709" lon="2.13692">
        <ele>164</ele>
        <time>2013-07-25T18:18:53Z</time>
      </trkpt>
      <trkpt lat="48.70709" lon="2.13688">
        <ele>164</ele>
        <time>2013-07-25T18:18:54Z</time>
      </trkpt>
      <trkpt lat="48.70709" lon="2.13684">
        <ele>164</ele>
        <time>2013-07-25T18:18:55Z</time>
      </trkpt>
      <trkpt lat="48.70706" lon="2.13666">
        <ele>163</ele>
        <time>2013-07-25T18:18:59Z</time>
      </trkpt>
      <trkpt lat="48.70707" lon="2.13662">
        <ele>163</ele>
        <time>2013-07-25T18:19:00Z</time>
      </trkpt>
      <trkpt lat="48.70707" lon="2.13658">
        <ele>163</ele>
        <time>2013-07-25T18:19:01Z</time>
      </trkpt>
      <trkpt lat="48.70708" lon="2.13654">
        <ele>163</ele>
        <time>2013-07-25T18:19:02Z</time>
      </trkpt>
      <trkpt lat="48.70709" lon="2.13652">
        <ele>163</ele>
        <time>2013-07-25T18:19:03Z</time>
      </trkpt>
      <trkpt lat="48.7071" lon="2.13651">
        <ele>163</ele>
        <time>2013-07-25T18:19:04Z</time>
      </trkpt>
      <trkpt lat="48.70713" lon="2.13649">
        <ele>163</ele>
        <time>2013-07-25T18:19:06Z</time>
      </trkpt>
      <trkpt lat="48.70714" lon="2.13647">
        <ele>163</ele>
        <time>2013-07-25T18:19:07Z</time>
      </trkpt>
      <trkpt lat="48.70716" lon="2.13645">
        <ele>163</ele>
        <time>2013-07-25T18:19:08Z</time>
      </trkpt>
      <trkpt lat="48.70717" lon="2.13642">
        <ele>163</ele>
        <time>2013-07-25T18:19:09Z</time>
      </trkpt>
      <trkpt lat="48.7072" lon="2.1364">
        <ele>163</ele>
        <time>2013-07-25T18:19:10Z</time>
      </trkpt>
      <trkpt lat="48.70722" lon="2.13641">
        <ele>163</ele>
        <time>2013-07-25T18:19:11Z</time>
      </trkpt>
      <trkpt lat="48.70724" lon="2.13641">
        <ele>163</ele>
        <time>2013-07-25T18:19:12Z</time>
      </trkpt>
      <trkpt lat="48.70726" lon="2.13639">
        <ele>163</ele>
        <time>2013-07-25T18:19:13Z</time>
      </trkpt>
      <trkpt lat="48.70727" lon="2.13638">
        <ele>163</ele>
        <time>2013-07-25T18:19:14Z</time>
      </trkpt>
      <trkpt lat="48.70728" lon="2.13637">
        <ele>163</ele>
        <time>2013-07-25T18:19:15Z</time>
      </trkpt>
      <trkpt lat="48.70729" lon="2.13637">
        <ele>163</ele>
        <time>2013-07-25T18:19:16Z</time>
      </trkpt>
      <trkpt lat="48.7073" lon="2.13637">
        <ele>163</ele>
        <time>2013-07-25T18:19:17Z</time>
      </trkpt>
      <trkpt lat="48.70731" lon="2.13637">
        <ele>163</ele>
        <time>2013-07-25T18:19:18Z</time>
      </trkpt>
      <trkpt lat="48.70732" lon="2.13636">
        <ele>163</ele>
        <time>2013-07-25T18:19:19Z</time>
      </trkpt>
      <trkpt lat="48.70733" lon="2.13635">
        <ele>163</ele>
        <time>2013-07-25T18:19:20Z</time>
      </trkpt>
      <trkpt lat="48.70736" lon="2.13633">
        <ele>163</ele>
        <time>2013-07-25T18:19:22Z</time>
      </trkpt>
      <trkpt lat="48.70738" lon="2.13632">
        <ele>163</ele>
        <time>2013-07-25T18:19:23Z</time>
      </trkpt>
      <trkpt lat="48.70739" lon="2.13632">
        <ele>163</ele>
        <time>2013-07-25T18:19:24Z</time>
      </trkpt>
      <trkpt lat="48.7074" lon="2.13632">
        <ele>163</ele>
        <time>2013-07-25T18:19:25Z</time>
      </trkpt>
      <trkpt lat="48.70742" lon="2.1363">
        <ele>163</ele>
        <time>2013-07-25T18:19:26Z</time>
      </trkpt>
      <trkpt lat="48.70744" lon="2.13629">
        <ele>163</ele>
        <time>2013-07-25T18:19:27Z</time>
      </trkpt>
      <trkpt lat="48.70747" lon="2.13626">
        <ele>162</ele>
        <time>2013-07-25T18:19:29Z</time>
      </trkpt>
      <trkpt lat="48.70749" lon="2.13625">
        <ele>162</ele>
        <time>2013-07-25T18:19:30Z</time>
      </trkpt>
      <trkpt lat="48.70755" lon="2.13623">
        <ele>164</ele>
        <time>2013-07-25T18:19:33Z</time>
      </trkpt>
      <trkpt lat="48.70758" lon="2.13621">
        <ele>164</ele>
        <time>2013-07-25T18:19:35Z</time>
      </trkpt>
      <trkpt lat="48.70759" lon="2.13621">
        <ele>164</ele>
        <time>2013-07-25T18:19:36Z</time>
      </trkpt>
      <trkpt lat="48.70761" lon="2.13621">
        <ele>164</ele>
        <time>2013-07-25T18:19:38Z</time>
      </trkpt>
      <trkpt lat="48.70762" lon="2.1362">
        <ele>164</ele>
        <time>2013-07-25T18:19:40Z</time>
      </trkpt>
      <trkpt lat="48.70764" lon="2.13619">
        <ele>164</ele>
        <time>2013-07-25T18:19:41Z</time>
      </trkpt>
      <trkpt lat="48.70766" lon="2.13618">
        <ele>164</ele>
        <time>2013-07-25T18:19:42Z</time>
      </trkpt>
      <trkpt lat="48.70773" lon="2.13616">
        <ele>164</ele>
        <time>2013-07-25T18:19:45Z</time>
      </trkpt>
      <trkpt lat="48.70776" lon="2.13616">
        <ele>164</ele>
        <time>2013-07-25T18:19:46Z</time>
      </trkpt>
      <trkpt lat="48.70778" lon="2.13616">
        <ele>164</ele>
        <time>2013-07-25T18:19:47Z</time>
      </trkpt>
      <trkpt lat="48.70781" lon="2.13617">
        <ele>164</ele>
        <time>2013-07-25T18:19:48Z</time>
      </trkpt>
      <trkpt lat="48.70783" lon="2.13618">
        <ele>164</ele>
        <time>2013-07-25T18:19:49Z</time>
      </trkpt>
      <trkpt lat="48.70785" lon="2.1362">
        <ele>164</ele>
        <time>2013-07-25T18:19:50Z</time>
      </trkpt>
      <trkpt lat="48.70791" lon="2.1363">
        <ele>165</ele>
        <time>2013-07-25T18:19:54Z</time>
      </trkpt>
      <trkpt lat="48.70793" lon="2.13632">
        <ele>165</ele>
        <time>2013-07-25T18:19:55Z</time>
      </trkpt>
      <trkpt lat="48.70794" lon="2.13633">
        <ele>165</ele>
        <time>2013-07-25T18:19:56Z</time>
      </trkpt>
      <trkpt lat="48.70796" lon="2.13635">
        <ele>165</ele>
        <time>2013-07-25T18:19:58Z</time>
      </trkpt>
      <trkpt lat="48.70797" lon="2.13636">
        <ele>165</ele>
        <time>2013-07-25T18:19:59Z</time>
      </trkpt>
      <trkpt lat="48.70798" lon="2.13636">
        <ele>165</ele>
        <time>2013-07-25T18:20:00Z</time>
      </trkpt>
      <trkpt lat="48.708" lon="2.13636">
        <ele>165</ele>
        <time>2013-07-25T18:20:02Z</time>
      </trkpt>
      <trkpt lat="48.70801" lon="2.13636">
        <ele>165</ele>
        <time>2013-07-25T18:20:03Z</time>
      </trkpt>
      <trkpt lat="48.70802" lon="2.13636">
        <ele>165</ele>
        <time>2013-07-25T18:20:04Z</time>
      </trkpt>
      <trkpt lat="48.70803" lon="2.13637">
        <ele>165</ele>
        <time>2013-07-25T18:20:05Z</time>
      </trkpt>
      <trkpt lat="48.70803" lon="2.13639">
        <ele>165</ele>
        <time>2013-07-25T18:20:06Z</time>
      </trkpt>
      <trkpt lat="48.70804" lon="2.1364">
        <ele>165</ele>
        <time>2013-07-25T18:20:07Z</time>
      </trkpt>
      <trkpt lat="48.70806" lon="2.13642">
        <ele>165</ele>
        <time>2013-07-25T18:20:08Z</time>
      </trkpt>
      <trkpt lat="48.70808" lon="2.13644">
        <ele>165</ele>
        <time>2013-07-25T18:20:09Z</time>
      </trkpt>
      <trkpt lat="48.70812" lon="2.13652">
        <ele>165</ele>
        <time>2013-07-25T18:20:12Z</time>
      </trkpt>
      <trkpt lat="48.70812" lon="2.13655">
        <ele>166</ele>
        <time>2013-07-25T18:20:13Z</time>
      </trkpt>
      <trkpt lat="48.70812" lon="2.13665">
        <ele>166</ele>
        <time>2013-07-25T18:20:16Z</time>
      </trkpt>
      <trkpt lat="48.70812" lon="2.13669">
        <ele>165</ele>
        <time>2013-07-25T18:20:17Z</time>
      </trkpt>
      <trkpt lat="48.70813" lon="2.13672">
        <ele>165</ele>
        <time>2013-07-25T18:20:18Z</time>
      </trkpt>
      <trkpt lat="48.70816" lon="2.13673">
        <ele>165</ele>
        <time>2013-07-25T18:20:19Z</time>
      </trkpt>
      <trkpt lat="48.70819" lon="2.13673">
        <ele>166</ele>
        <time>2013-07-25T18:20:20Z</time>
      </trkpt>
      <trkpt lat="48.70824" lon="2.1367">
        <ele>166</ele>
        <time>2013-07-25T18:20:22Z</time>
      </trkpt>
      <trkpt lat="48.70827" lon="2.13669">
        <ele>166</ele>
        <time>2013-07-25T18:20:23Z</time>
      </trkpt>
      <trkpt lat="48.7083" lon="2.13667">
        <ele>167</ele>
        <time>2013-07-25T18:20:24Z</time>
      </trkpt>
      <trkpt lat="48.70837" lon="2.13664">
        <ele>167</ele>
        <time>2013-07-25T18:20:26Z</time>
      </trkpt>
      <trkpt lat="48.70843" lon="2.13662">
        <ele>166</ele>
        <time>2013-07-25T18:20:28Z</time>
      </trkpt>
      <trkpt lat="48.70849" lon="2.13662">
        <ele>166</ele>
        <time>2013-07-25T18:20:30Z</time>
      </trkpt>
      <trkpt lat="48.70852" lon="2.13662">
        <ele>165</ele>
        <time>2013-07-25T18:20:31Z</time>
      </trkpt>
      <trkpt lat="48.70858" lon="2.13664">
        <ele>165</ele>
        <time>2013-07-25T18:20:33Z</time>
      </trkpt>
      <trkpt lat="48.70861" lon="2.13664">
        <ele>165</ele>
        <time>2013-07-25T18:20:34Z</time>
      </trkpt>
      <trkpt lat="48.70864" lon="2.13664">
        <ele>165</ele>
        <time>2013-07-25T18:20:35Z</time>
      </trkpt>
      <trkpt lat="48.70867" lon="2.13664">
        <ele>165</ele>
        <time>2013-07-25T18:20:36Z</time>
      </trkpt>
      <trkpt lat="48.70875" lon="2.13664">
        <ele>165</ele>
        <time>2013-07-25T18:20:38Z</time>
      </trkpt>
      <trkpt lat="48.70885" lon="2.13661">
        <ele>164</ele>
        <time>2013-07-25T18:20:41Z</time>
      </trkpt>
      <trkpt lat="48.70903" lon="2.13654">
        <ele>164</ele>
        <time>2013-07-25T18:20:46Z</time>
      </trkpt>
      <trkpt lat="48.7091" lon="2.1365">
        <ele>164</ele>
        <time>2013-07-25T18:20:48Z</time>
      </trkpt>
      <trkpt lat="48.70914" lon="2.13647">
        <ele>164</ele>
        <time>2013-07-25T18:20:49Z</time>
      </trkpt>
      <trkpt lat="48.70915" lon="2.13643">
        <ele>164</ele>
        <time>2013-07-25T18:20:50Z</time>
      </trkpt>
      <trkpt lat="48.70914" lon="2.13639">
        <ele>164</ele>
        <time>2013-07-25T18:20:51Z</time>
      </trkpt>
      <trkpt lat="48.70914" lon="2.13635">
        <ele>164</ele>
        <time>2013-07-25T18:20:52Z</time>
      </trkpt>
      <trkpt lat="48.70909" lon="2.13627">
        <ele>164</ele>
        <time>2013-07-25T18:20:54Z</time>
      </trkpt>
      <trkpt lat="48.70906" lon="2.13623">
        <ele>164</ele>
        <time>2013-07-25T18:20:55Z</time>
      </trkpt>
      <trkpt lat="48.70903" lon="2.13619">
        <ele>164</ele>
        <time>2013-07-25T18:20:56Z</time>
      </trkpt>
      <trkpt lat="48.70901" lon="2.13613">
        <ele>164</ele>
        <time>2013-07-25T18:20:57Z</time>
      </trkpt>
      <trkpt lat="48.70898" lon="2.13601">
        <ele>164</ele>
        <time>2013-07-25T18:20:59Z</time>
      </trkpt>
      <trkpt lat="48.70899" lon="2.1359">
        <ele>164</ele>
        <time>2013-07-25T18:21:01Z</time>
      </trkpt>
      <trkpt lat="48.70901" lon="2.13576">
        <ele>162</ele>
        <time>2013-07-25T18:21:04Z</time>
      </trkpt>
      <trkpt lat="48.70903" lon="2.13557">
        <ele>161</ele>
        <time>2013-07-25T18:21:07Z</time>
      </trkpt>
      <trkpt lat="48.70905" lon="2.13545">
        <ele>160</ele>
        <time>2013-07-25T18:21:09Z</time>
      </trkpt>
      <trkpt lat="48.70907" lon="2.13531">
        <ele>160</ele>
        <time>2013-07-25T18:21:11Z</time>
      </trkpt>
      <trkpt lat="48.70913" lon="2.13486">
        <ele>157</ele>
        <time>2013-07-25T18:21:17Z</time>
      </trkpt>
      <trkpt lat="48.70916" lon="2.13479">
        <ele>157</ele>
        <time>2013-07-25T18:21:18Z</time>
      </trkpt>
      <trkpt lat="48.70919" lon="2.13472">
        <ele>159</ele>
        <time>2013-07-25T18:21:19Z</time>
      </trkpt>
      <trkpt lat="48.70921" lon="2.13465">
        <ele>159</ele>
        <time>2013-07-25T18:21:20Z</time>
      </trkpt>
      <trkpt lat="48.70921" lon="2.13457">
        <ele>159</ele>
        <time>2013-07-25T18:21:21Z</time>
      </trkpt>
      <trkpt lat="48.70921" lon="2.13449">
        <ele>159</ele>
        <time>2013-07-25T18:21:22Z</time>
      </trkpt>
      <trkpt lat="48.70921" lon="2.1344">
        <ele>159</ele>
        <time>2013-07-25T18:21:23Z</time>
      </trkpt>
      <trkpt lat="48.70923" lon="2.13424">
        <ele>158</ele>
        <time>2013-07-25T18:21:25Z</time>
      </trkpt>
      <trkpt lat="48.70933" lon="2.13389">
        <ele>158</ele>
        <time>2013-07-25T18:21:32Z</time>
      </trkpt>
      <trkpt lat="48.70941" lon="2.13365">
        <ele>157</ele>
        <time>2013-07-25T18:21:37Z</time>
      </trkpt>
      <trkpt lat="48.70942" lon="2.13359">
        <ele>157</ele>
        <time>2013-07-25T18:21:38Z</time>
      </trkpt>
      <trkpt lat="48.70943" lon="2.13345">
        <ele>157</ele>
        <time>2013-07-25T18:21:40Z</time>
      </trkpt>
      <trkpt lat="48.70948" lon="2.13309">
        <ele>155</ele>
        <time>2013-07-25T18:21:45Z</time>
      </trkpt>
      <trkpt lat="48.70951" lon="2.13302">
        <ele>155</ele>
        <time>2013-07-25T18:21:46Z</time>
      </trkpt>
      <trkpt lat="48.70952" lon="2.13296">
        <ele>155</ele>
        <time>2013-07-25T18:21:47Z</time>
      </trkpt>
      <trkpt lat="48.70953" lon="2.13289">
        <ele>155</ele>
        <time>2013-07-25T18:21:48Z</time>
      </trkpt>
      <trkpt lat="48.70951" lon="2.13273">
        <ele>155</ele>
        <time>2013-07-25T18:21:50Z</time>
      </trkpt>
      <trkpt lat="48.70947" lon="2.13256">
        <ele>154</ele>
        <time>2013-07-25T18:21:52Z</time>
      </trkpt>
      <trkpt lat="48.70947" lon="2.13247">
        <ele>152</ele>
        <time>2013-07-25T18:21:53Z</time>
      </trkpt>
      <trkpt lat="48.70948" lon="2.13238">
        <ele>153</ele>
        <time>2013-07-25T18:21:54Z</time>
      </trkpt>
      <trkpt lat="48.70951" lon="2.13231">
        <ele>153</ele>
        <time>2013-07-25T18:21:55Z</time>
      </trkpt>
      <trkpt lat="48.70955" lon="2.13226">
        <ele>153</ele>
        <time>2013-07-25T18:21:56Z</time>
      </trkpt>
      <trkpt lat="48.7096" lon="2.13221">
        <ele>153</ele>
        <time>2013-07-25T18:21:57Z</time>
      </trkpt>
      <trkpt lat="48.70965" lon="2.13215">
        <ele>153</ele>
        <time>2013-07-25T18:21:58Z</time>
      </trkpt>
      <trkpt lat="48.70979" lon="2.13187">
        <ele>155</ele>
        <time>2013-07-25T18:22:02Z</time>
      </trkpt>
      <trkpt lat="48.70984" lon="2.13181">
        <ele>156</ele>
        <time>2013-07-25T18:22:03Z</time>
      </trkpt>
      <trkpt lat="48.70988" lon="2.13175">
        <ele>157</ele>
        <time>2013-07-25T18:22:04Z</time>
      </trkpt>
      <trkpt lat="48.71025" lon="2.13122">
        <ele>157</ele>
        <time>2013-07-25T18:22:12Z</time>
      </trkpt>
      <trkpt lat="48.71053" lon="2.13069">
        <ele>153</ele>
        <time>2013-07-25T18:22:20Z</time>
      </trkpt>
      <trkpt lat="48.71061" lon="2.13058">
        <ele>153</ele>
        <time>2013-07-25T18:22:22Z</time>
      </trkpt>
      <trkpt lat="48.71066" lon="2.13054">
        <ele>153</ele>
        <time>2013-07-25T18:22:23Z</time>
      </trkpt>
      <trkpt lat="48.71071" lon="2.13052">
        <ele>153</ele>
        <time>2013-07-25T18:22:24Z</time>
      </trkpt>
      <trkpt lat="48.71076" lon="2.13048">
        <ele>153</ele>
        <time>2013-07-25T18:22:25Z</time>
      </trkpt>
      <trkpt lat="48.71079" lon="2.13042">
        <ele>153</ele>
        <time>2013-07-25T18:22:26Z</time>
      </trkpt>
      <trkpt lat="48.71082" lon="2.13035">
        <ele>153</ele>
        <time>2013-07-25T18:22:27Z</time>
      </trkpt>
      <trkpt lat="48.711" lon="2.13004">
        <ele>157</ele>
        <time>2013-07-25T18:22:32Z</time>
      </trkpt>
      <trkpt lat="48.71104" lon="2.12999">
        <ele>155</ele>
        <time>2013-07-25T18:22:33Z</time>
      </trkpt>
      <trkpt lat="48.71109" lon="2.12994">
        <ele>155</ele>
        <time>2013-07-25T18:22:34Z</time>
      </trkpt>
      <trkpt lat="48.71118" lon="2.12986">
        <ele>155</ele>
        <time>2013-07-25T18:22:36Z</time>
      </trkpt>
      <trkpt lat="48.71121" lon="2.12982">
        <ele>155</ele>
        <time>2013-07-25T18:22:37Z</time>
      </trkpt>
      <trkpt lat="48.71126" lon="2.1297">
        <ele>155</ele>
        <time>2013-07-25T18:22:39Z</time>
      </trkpt>
      <trkpt lat="48.71129" lon="2.12965">
        <ele>155</ele>
        <time>2013-07-25T18:22:40Z</time>
      </trkpt>
      <trkpt lat="48.71133" lon="2.1296">
        <ele>155</ele>
        <time>2013-07-25T18:22:41Z</time>
      </trkpt>
      <trkpt lat="48.71143" lon="2.12948">
        <ele>155</ele>
        <time>2013-07-25T18:22:44Z</time>
      </trkpt>
      <trkpt lat="48.7115" lon="2.12942">
        <ele>156</ele>
        <time>2013-07-25T18:22:46Z</time>
      </trkpt>
      <trkpt lat="48.71154" lon="2.12939">
        <ele>156</ele>
        <time>2013-07-25T18:22:47Z</time>
      </trkpt>
      <trkpt lat="48.71157" lon="2.12935">
        <ele>156</ele>
        <time>2013-07-25T18:22:48Z</time>
      </trkpt>
      <trkpt lat="48.71159" lon="2.1293">
        <ele>157</ele>
        <time>2013-07-25T18:22:49Z</time>
      </trkpt>
      <trkpt lat="48.7116" lon="2.12924">
        <ele>157</ele>
        <time>2013-07-25T18:22:50Z</time>
      </trkpt>
      <trkpt lat="48.7116" lon="2.12917">
        <ele>158</ele>
        <time>2013-07-25T18:22:51Z</time>
      </trkpt>
      <trkpt lat="48.71159" lon="2.12889">
        <ele>150</ele>
        <time>2013-07-25T18:22:55Z</time>
      </trkpt>
      <trkpt lat="48.71159" lon="2.12883">
        <ele>149</ele>
        <time>2013-07-25T18:22:56Z</time>
      </trkpt>
      <trkpt lat="48.71157" lon="2.12871">
        <ele>148</ele>
        <time>2013-07-25T18:22:58Z</time>
      </trkpt>
      <trkpt lat="48.71157" lon="2.12864">
        <ele>148</ele>
        <time>2013-07-25T18:22:59Z</time>
      </trkpt>
      <trkpt lat="48.71159" lon="2.12856">
        <ele>148</ele>
        <time>2013-07-25T18:23:00Z</time>
      </trkpt>
      <trkpt lat="48.71181" lon="2.12806">
        <ele>151</ele>
        <time>2013-07-25T18:23:06Z</time>
      </trkpt>
      <trkpt lat="48.71199" lon="2.12776">
        <ele>150</ele>
        <time>2013-07-25T18:23:10Z</time>
      </trkpt>
      <trkpt lat="48.71203" lon="2.1277">
        <ele>150</ele>
        <time>2013-07-25T18:23:11Z</time>
      </trkpt>
      <trkpt lat="48.71211" lon="2.12763">
        <ele>150</ele>
        <time>2013-07-25T18:23:13Z</time>
      </trkpt>
      <trkpt lat="48.71214" lon="2.12757">
        <ele>150</ele>
        <time>2013-07-25T18:23:15Z</time>
      </trkpt>
      <trkpt lat="48.71215" lon="2.12754">
        <ele>150</ele>
        <time>2013-07-25T18:23:16Z</time>
      </trkpt>
      <trkpt lat="48.71214" lon="2.1275">
        <ele>144</ele>
        <time>2013-07-25T18:23:17Z</time>
      </trkpt>
      <trkpt lat="48.71215" lon="2.12745">
        <ele>144</ele>
        <time>2013-07-25T18:23:18Z</time>
      </trkpt>
      <trkpt lat="48.71216" lon="2.12741">
        <ele>144</ele>
        <time>2013-07-25T18:23:19Z</time>
      </trkpt>
      <trkpt lat="48.71218" lon="2.12739">
        <ele>144</ele>
        <time>2013-07-25T18:23:20Z</time>
      </trkpt>
      <trkpt lat="48.7122" lon="2.12736">
        <ele>144</ele>
        <time>2013-07-25T18:23:21Z</time>
      </trkpt>
      <trkpt lat="48.71221" lon="2.12727">
        <ele>144</ele>
        <time>2013-07-25T18:23:23Z</time>
      </trkpt>
      <trkpt lat="48.71222" lon="2.12723">
        <ele>143</ele>
        <time>2013-07-25T18:23:24Z</time>
      </trkpt>
      <trkpt lat="48.71222" lon="2.12719">
        <ele>143</ele>
        <time>2013-07-25T18:23:25Z</time>
      </trkpt>
      <trkpt lat="48.71223" lon="2.12716">
        <ele>143</ele>
        <time>2013-07-25T18:23:26Z</time>
      </trkpt>
      <trkpt lat="48.71223" lon="2.12712">
        <ele>143</ele>
        <time>2013-07-25T18:23:27Z</time>
      </trkpt>
      <trkpt lat="48.71224" lon="2.12709">
        <ele>143</ele>
        <time>2013-07-25T18:23:28Z</time>
      </trkpt>
      <trkpt lat="48.71225" lon="2.12705">
        <ele>142</ele>
        <time>2013-07-25T18:23:29Z</time>
      </trkpt>
      <trkpt lat="48.71226" lon="2.12695">
        <ele>142</ele>
        <time>2013-07-25T18:23:31Z</time>
      </trkpt>
      <trkpt lat="48.71227" lon="2.12691">
        <ele>142</ele>
        <time>2013-07-25T18:23:32Z</time>
      </trkpt>
      <trkpt lat="48.71227" lon="2.12687">
        <ele>142</ele>
        <time>2013-07-25T18:23:33Z</time>
      </trkpt>
      <trkpt lat="48.71229" lon="2.12681">
        <ele>142</ele>
        <time>2013-07-25T18:23:35Z</time>
      </trkpt>
      <trkpt lat="48.71229" lon="2.12678">
        <ele>142</ele>
        <time>2013-07-25T18:23:36Z</time>
      </trkpt>
      <trkpt lat="48.7123" lon="2.12674">
        <ele>143</ele>
        <time>2013-07-25T18:23:37Z</time>
      </trkpt>
      <trkpt lat="48.71232" lon="2.12669">
        <ele>143</ele>
        <time>2013-07-25T18:23:38Z</time>
      </trkpt>
      <trkpt lat="48.7124" lon="2.12659">
        <ele>140</ele>
        <time>2013-07-25T18:23:41Z</time>
      </trkpt>
      <trkpt lat="48.71241" lon="2.12656">
        <ele>140</ele>
        <time>2013-07-25T18:23:42Z</time>
      </trkpt>
      <trkpt lat="48.71244" lon="2.1265">
        <ele>138</ele>
        <time>2013-07-25T18:23:45Z</time>
      </trkpt>
      <trkpt lat="48.71244" lon="2.12647">
        <ele>138</ele>
        <time>2013-07-25T18:23:46Z</time>
      </trkpt>
      <trkpt lat="48.71244" lon="2.12641">
        <ele>136</ele>
        <time>2013-07-25T18:23:48Z</time>
      </trkpt>
      <trkpt lat="48.71242" lon="2.12632">
        <ele>135</ele>
        <time>2013-07-25T18:23:50Z</time>
      </trkpt>
      <trkpt lat="48.71242" lon="2.12629">
        <ele>134</ele>
        <time>2013-07-25T18:23:51Z</time>
      </trkpt>
      <trkpt lat="48.71243" lon="2.12626">
        <ele>134</ele>
        <time>2013-07-25T18:23:52Z</time>
      </trkpt>
      <trkpt lat="48.71244" lon="2.12624">
        <ele>134</ele>
        <time>2013-07-25T18:23:53Z</time>
      </trkpt>
      <trkpt lat="48.71245" lon="2.12622">
        <ele>134</ele>
        <time>2013-07-25T18:23:54Z</time>
      </trkpt>
      <trkpt lat="48.71246" lon="2.1262">
        <ele>134</ele>
        <time>2013-07-25T18:23:55Z</time>
      </trkpt>
      <trkpt lat="48.71251" lon="2.12608">
        <ele>140</ele>
        <time>2013-07-25T18:23:57Z</time>
      </trkpt>
      <trkpt lat="48.71257" lon="2.12597">
        <ele>138</ele>
        <time>2013-07-25T18:23:59Z</time>
      </trkpt>
      <trkpt lat="48.7126" lon="2.12592">
        <ele>138</ele>
        <time>2013-07-25T18:24:01Z</time>
      </trkpt>
      <trkpt lat="48.71262" lon="2.12589">
        <ele>138</ele>
        <time>2013-07-25T18:24:02Z</time>
      </trkpt>
      <trkpt lat="48.7127" lon="2.12581">
        <ele>132</ele>
        <time>2013-07-25T18:24:06Z</time>
      </trkpt>
      <trkpt lat="48.71272" lon="2.12579">
        <ele>132</ele>
        <time>2013-07-25T18:24:07Z</time>
      </trkpt>
      <trkpt lat="48.71275" lon="2.12577">
        <ele>132</ele>
        <time>2013-07-25T18:24:08Z</time>
      </trkpt>
      <trkpt lat="48.71278" lon="2.12577">
        <ele>132</ele>
        <time>2013-07-25T18:24:09Z</time>
      </trkpt>
      <trkpt lat="48.71282" lon="2.12577">
        <ele>132</ele>
        <time>2013-07-25T18:24:10Z</time>
      </trkpt>
      <trkpt lat="48.71286" lon="2.12578">
        <ele>132</ele>
        <time>2013-07-25T18:24:11Z</time>
      </trkpt>
      <trkpt lat="48.7129" lon="2.12578">
        <ele>132</ele>
        <time>2013-07-25T18:24:12Z</time>
      </trkpt>
      <trkpt lat="48.71295" lon="2.12576">
        <ele>133</ele>
        <time>2013-07-25T18:24:13Z</time>
      </trkpt>
      <trkpt lat="48.71307" lon="2.12573">
        <ele>133</ele>
        <time>2013-07-25T18:24:15Z</time>
      </trkpt>
      <trkpt lat="48.71313" lon="2.12571">
        <ele>134</ele>
        <time>2013-07-25T18:24:16Z</time>
      </trkpt>
      <trkpt lat="48.71317" lon="2.12569">
        <ele>134</ele>
        <time>2013-07-25T18:24:17Z</time>
      </trkpt>
      <trkpt lat="48.7132" lon="2.12565">
        <ele>134</ele>
        <time>2013-07-25T18:24:18Z</time>
      </trkpt>
      <trkpt lat="48.71341" lon="2.12537">
        <ele>127</ele>
        <time>2013-07-25T18:24:23Z</time>
      </trkpt>
      <trkpt lat="48.71353" lon="2.12527">
        <ele>126</ele>
        <time>2013-07-25T18:24:25Z</time>
      </trkpt>
      <trkpt lat="48.71361" lon="2.12517">
        <ele>125</ele>
        <time>2013-07-25T18:24:27Z</time>
      </trkpt>
      <trkpt lat="48.71365" lon="2.12514">
        <ele>124</ele>
        <time>2013-07-25T18:24:28Z</time>
      </trkpt>
      <trkpt lat="48.71369" lon="2.12512">
        <ele>124</ele>
        <time>2013-07-25T18:24:29Z</time>
      </trkpt>
      <trkpt lat="48.71377" lon="2.12506">
        <ele>123</ele>
        <time>2013-07-25T18:24:32Z</time>
      </trkpt>
      <trkpt lat="48.71378" lon="2.12505">
        <ele>122</ele>
        <time>2013-07-25T18:24:33Z</time>
      </trkpt>
      <trkpt lat="48.71384" lon="2.12505">
        <ele>122</ele>
        <time>2013-07-25T18:24:35Z</time>
      </trkpt>
      <trkpt lat="48.71387" lon="2.12503">
        <ele>121</ele>
        <time>2013-07-25T18:24:36Z</time>
      </trkpt>
      <trkpt lat="48.7139" lon="2.12499">
        <ele>114</ele>
        <time>2013-07-25T18:24:37Z</time>
      </trkpt>
      <trkpt lat="48.71392" lon="2.12494">
        <ele>114</ele>
        <time>2013-07-25T18:24:38Z</time>
      </trkpt>
      <trkpt lat="48.71395" lon="2.12476">
        <ele>113</ele>
        <time>2013-07-25T18:24:41Z</time>
      </trkpt>
      <trkpt lat="48.71399" lon="2.12465">
        <ele>112</ele>
        <time>2013-07-25T18:24:43Z</time>
      </trkpt>
      <trkpt lat="48.71402" lon="2.1245">
        <ele>111</ele>
        <time>2013-07-25T18:24:45Z</time>
      </trkpt>
      <trkpt lat="48.71404" lon="2.12446">
        <ele>110</ele>
        <time>2013-07-25T18:24:46Z</time>
      </trkpt>
      <trkpt lat="48.71407" lon="2.12442">
        <ele>110</ele>
        <time>2013-07-25T18:24:47Z</time>
      </trkpt>
      <trkpt lat="48.71415" lon="2.12438">
        <ele>109</ele>
        <time>2013-07-25T18:24:49Z</time>
      </trkpt>
      <trkpt lat="48.71422" lon="2.12432">
        <ele>107</ele>
        <time>2013-07-25T18:24:51Z</time>
      </trkpt>
      <trkpt lat="48.71426" lon="2.12429">
        <ele>107</ele>
        <time>2013-07-25T18:24:52Z</time>
      </trkpt>
      <trkpt lat="48.7143" lon="2.12426">
        <ele>107</ele>
        <time>2013-07-25T18:24:53Z</time>
      </trkpt>
      <trkpt lat="48.71443" lon="2.12414">
        <ele>104</ele>
        <time>2013-07-25T18:24:58Z</time>
      </trkpt>
      <trkpt lat="48.71446" lon="2.12412">
        <ele>104</ele>
        <time>2013-07-25T18:24:59Z</time>
      </trkpt>
      <trkpt lat="48.71459" lon="2.12402">
        <ele>104</ele>
        <time>2013-07-25T18:25:04Z</time>
      </trkpt>
      <trkpt lat="48.71461" lon="2.124">
        <ele>104</ele>
        <time>2013-07-25T18:25:05Z</time>
      </trkpt>
      <trkpt lat="48.71464" lon="2.12398">
        <ele>104</ele>
        <time>2013-07-25T18:25:06Z</time>
      </trkpt>
      <trkpt lat="48.71474" lon="2.12388">
        <ele>104</ele>
        <time>2013-07-25T18:25:10Z</time>
      </trkpt>
      <trkpt lat="48.71482" lon="2.12379">
        <ele>104</ele>
        <time>2013-07-25T18:25:13Z</time>
      </trkpt>
      <trkpt lat="48.71485" lon="2.12377">
        <ele>104</ele>
        <time>2013-07-25T18:25:14Z</time>
      </trkpt>
      <trkpt lat="48.71505" lon="2.12357">
        <ele>107</ele>
        <time>2013-07-25T18:25:20Z</time>
      </trkpt>
      <trkpt lat="48.71513" lon="2.12352">
        <ele>107</ele>
        <time>2013-07-25T18:25:22Z</time>
      </trkpt>
      <trkpt lat="48.71516" lon="2.12348">
        <ele>107</ele>
        <time>2013-07-25T18:25:23Z</time>
      </trkpt>
      <trkpt lat="48.7152" lon="2.12345">
        <ele>107</ele>
        <time>2013-07-25T18:25:24Z</time>
      </trkpt>
      <trkpt lat="48.71524" lon="2.12343">
        <ele>107</ele>
        <time>2013-07-25T18:25:25Z</time>
      </trkpt>
      <trkpt lat="48.7154" lon="2.12337">
        <ele>108</ele>
        <time>2013-07-25T18:25:28Z</time>
      </trkpt>
      <trkpt lat="48.71555" lon="2.12336">
        <ele>108</ele>
        <time>2013-07-25T18:25:30Z</time>
      </trkpt>
      <trkpt lat="48.71565" lon="2.12333">
        <ele>102</ele>
        <time>2013-07-25T18:25:31Z</time>
      </trkpt>
      <trkpt lat="48.71631" lon="2.12308">
        <ele>101</ele>
        <time>2013-07-25T18:25:39Z</time>
      </trkpt>
      <trkpt lat="48.71652" lon="2.12302">
        <ele>102</ele>
        <time>2013-07-25T18:25:42Z</time>
      </trkpt>
      <trkpt lat="48.7166" lon="2.12298">
        <ele>101</ele>
        <time>2013-07-25T18:25:44Z</time>
      </trkpt>
      <trkpt lat="48.71663" lon="2.12297">
        <ele>101</ele>
        <time>2013-07-25T18:25:45Z</time>
      </trkpt>
      <trkpt lat="48.71666" lon="2.12297">
        <ele>101</ele>
        <time>2013-07-25T18:25:46Z</time>
      </trkpt>
      <trkpt lat="48.71698" lon="2.12291">
        <ele>99</ele>
        <time>2013-07-25T18:25:52Z</time>
      </trkpt>
      <trkpt lat="48.71709" lon="2.1229">
        <ele>99</ele>
        <time>2013-07-25T18:25:54Z</time>
      </trkpt>
      <trkpt lat="48.71728" lon="2.12284">
        <ele>98</ele>
        <time>2013-07-25T18:25:58Z</time>
      </trkpt>
      <trkpt lat="48.7176" lon="2.12267">
        <ele>94</ele>
        <time>2013-07-25T18:26:05Z</time>
      </trkpt>
      <trkpt lat="48.71791" lon="2.12247">
        <ele>89</ele>
        <time>2013-07-25T18:26:12Z</time>
      </trkpt>
      <trkpt lat="48.71807" lon="2.12233">
        <ele>89</ele>
        <time>2013-07-25T18:26:16Z</time>
      </trkpt>
      <trkpt lat="48.71811" lon="2.1223">
        <ele>89</ele>
        <time>2013-07-25T18:26:17Z</time>
      </trkpt>
      <trkpt lat="48.71816" lon="2.12228">
        <ele>89</ele>
        <time>2013-07-25T18:26:18Z</time>
      </trkpt>
      <trkpt lat="48.7182" lon="2.12229">
        <ele>89</ele>
        <time>2013-07-25T18:26:19Z</time>
      </trkpt>
      <trkpt lat="48.71824" lon="2.12231">
        <ele>90</ele>
        <time>2013-07-25T18:26:20Z</time>
      </trkpt>
      <trkpt lat="48.71828" lon="2.12234">
        <ele>90</ele>
        <time>2013-07-25T18:26:21Z</time>
      </trkpt>
      <trkpt lat="48.71831" lon="2.12237">
        <ele>90</ele>
        <time>2013-07-25T18:26:22Z</time>
      </trkpt>
      <trkpt lat="48.71839" lon="2.12246">
        <ele>91</ele>
        <time>2013-07-25T18:26:24Z</time>
      </trkpt>
      <trkpt lat="48.71843" lon="2.12249">
        <ele>91</ele>
        <time>2013-07-25T18:26:25Z</time>
      </trkpt>
      <trkpt lat="48.71872" lon="2.12285">
        <ele>96</ele>
        <time>2013-07-25T18:26:35Z</time>
      </trkpt>
      <trkpt lat="48.71884" lon="2.12296">
        <ele>97</ele>
        <time>2013-07-25T18:26:39Z</time>
      </trkpt>
      <trkpt lat="48.71898" lon="2.12304">
        <ele>97</ele>
        <time>2013-07-25T18:26:43Z</time>
      </trkpt>
      <trkpt lat="48.71902" lon="2.12305">
        <ele>97</ele>
        <time>2013-07-25T18:26:44Z</time>
      </trkpt>
      <trkpt lat="48.71905" lon="2.12306">
        <ele>97</ele>
        <time>2013-07-25T18:26:45Z</time>
      </trkpt>
      <trkpt lat="48.71908" lon="2.12307">
        <ele>98</ele>
        <time>2013-07-25T18:26:46Z</time>
      </trkpt>
      <trkpt lat="48.71911" lon="2.12309">
        <ele>98</ele>
        <time>2013-07-25T18:26:47Z</time>
      </trkpt>
      <trkpt lat="48.71916" lon="2.12311">
        <ele>98</ele>
        <time>2013-07-25T18:26:49Z</time>
      </trkpt>
      <trkpt lat="48.71928" lon="2.12317">
        <ele>96</ele>
        <time>2013-07-25T18:26:53Z</time>
      </trkpt>
      <trkpt lat="48.71967" lon="2.12338">
        <ele>100</ele>
        <time>2013-07-25T18:27:05Z</time>
      </trkpt>
      <trkpt lat="48.71977" lon="2.12348">
        <ele>100</ele>
        <time>2013-07-25T18:27:08Z</time>
      </trkpt>
      <trkpt lat="48.71986" lon="2.12359">
        <ele>100</ele>
        <time>2013-07-25T18:27:11Z</time>
      </trkpt>
      <trkpt lat="48.71992" lon="2.12366">
        <ele>101</ele>
        <time>2013-07-25T18:27:13Z</time>
      </trkpt>
      <trkpt lat="48.71995" lon="2.1237">
        <ele>101</ele>
        <time>2013-07-25T18:27:14Z</time>
      </trkpt>
      <trkpt lat="48.71998" lon="2.12375">
        <ele>102</ele>
        <time>2013-07-25T18:27:15Z</time>
      </trkpt>
      <trkpt lat="48.72017" lon="2.12399">
        <ele>102</ele>
        <time>2013-07-25T18:27:22Z</time>
      </trkpt>
      <trkpt lat="48.72022" lon="2.12404">
        <ele>102</ele>
        <time>2013-07-25T18:27:24Z</time>
      </trkpt>
      <trkpt lat="48.7203" lon="2.12408">
        <ele>102</ele>
        <time>2013-07-25T18:27:27Z</time>
      </trkpt>
      <trkpt lat="48.72032" lon="2.12408">
        <ele>102</ele>
        <time>2013-07-25T18:27:28Z</time>
      </trkpt>
      <trkpt lat="48.72034" lon="2.12408">
        <ele>102</ele>
        <time>2013-07-25T18:27:29Z</time>
      </trkpt>
      <trkpt lat="48.72038" lon="2.12406">
        <ele>102</ele>
        <time>2013-07-25T18:27:31Z</time>
      </trkpt>
      <trkpt lat="48.72042" lon="2.12403">
        <ele>101</ele>
        <time>2013-07-25T18:27:33Z</time>
      </trkpt>
      <trkpt lat="48.72051" lon="2.12403">
        <ele>102</ele>
        <time>2013-07-25T18:27:36Z</time>
      </trkpt>
      <trkpt lat="48.72057" lon="2.12402">
        <ele>102</ele>
        <time>2013-07-25T18:27:38Z</time>
      </trkpt>
      <trkpt lat="48.72063" lon="2.12402">
        <ele>102</ele>
        <time>2013-07-25T18:27:41Z</time>
      </trkpt>
      <trkpt lat="48.72064" lon="2.12402">
        <ele>102</ele>
        <time>2013-07-25T18:27:42Z</time>
      </trkpt>
      <trkpt lat="48.72066" lon="2.12402">
        <ele>102</ele>
        <time>2013-07-25T18:27:43Z</time>
      </trkpt>
      <trkpt lat="48.72067" lon="2.12401">
        <ele>102</ele>
        <time>2013-07-25T18:27:44Z</time>
      </trkpt>
      <trkpt lat="48.72075" lon="2.12401">
        <ele>103</ele>
        <time>2013-07-25T18:27:47Z</time>
      </trkpt>
      <trkpt lat="48.72106" lon="2.12407">
        <ele>102</ele>
        <time>2013-07-25T18:27:57Z</time>
      </trkpt>
      <trkpt lat="48.7211" lon="2.12409">
        <ele>102</ele>
        <time>2013-07-25T18:27:59Z</time>
      </trkpt>
      <trkpt lat="48.72112" lon="2.12409">
        <ele>102</ele>
        <time>2013-07-25T18:28:00Z</time>
      </trkpt>
      <trkpt lat="48.72119" lon="2.12412">
        <ele>101</ele>
        <time>2013-07-25T18:28:03Z</time>
      </trkpt>
      <trkpt lat="48.72126" lon="2.12417">
        <ele>101</ele>
        <time>2013-07-25T18:28:06Z</time>
      </trkpt>
      <trkpt lat="48.72129" lon="2.12419">
        <ele>108</ele>
        <time>2013-07-25T18:28:07Z</time>
      </trkpt>
      <trkpt lat="48.72138" lon="2.12426">
        <ele>108</ele>
        <time>2013-07-25T18:28:10Z</time>
      </trkpt>
      <trkpt lat="48.72141" lon="2.12428">
        <ele>108</ele>
        <time>2013-07-25T18:28:11Z</time>
      </trkpt>
      <trkpt lat="48.72144" lon="2.12429">
        <ele>108</ele>
        <time>2013-07-25T18:28:12Z</time>
      </trkpt>
      <trkpt lat="48.72148" lon="2.12429">
        <ele>107</ele>
        <time>2013-07-25T18:28:13Z</time>
      </trkpt>
      <trkpt lat="48.72152" lon="2.12428">
        <ele>107</ele>
        <time>2013-07-25T18:28:14Z</time>
      </trkpt>
      <trkpt lat="48.72164" lon="2.12423">
        <ele>104</ele>
        <time>2013-07-25T18:28:17Z</time>
      </trkpt>
      <trkpt lat="48.72168" lon="2.12421">
        <ele>102</ele>
        <time>2013-07-25T18:28:19Z</time>
      </trkpt>
      <trkpt lat="48.72174" lon="2.12419">
        <ele>103</ele>
        <time>2013-07-25T18:28:21Z</time>
      </trkpt>
      <trkpt lat="48.72178" lon="2.12418">
        <ele>103</ele>
        <time>2013-07-25T18:28:22Z</time>
      </trkpt>
      <trkpt lat="48.72182" lon="2.12418">
        <ele>103</ele>
        <time>2013-07-25T18:28:23Z</time>
      </trkpt>
      <trkpt lat="48.7219" lon="2.1242">
        <ele>103</ele>
        <time>2013-07-25T18:28:25Z</time>
      </trkpt>
      <trkpt lat="48.72193" lon="2.12423">
        <ele>103</ele>
        <time>2013-07-25T18:28:26Z</time>
      </trkpt>
      <trkpt lat="48.72202" lon="2.1243">
        <ele>103</ele>
        <time>2013-07-25T18:28:29Z</time>
      </trkpt>
      <trkpt lat="48.72205" lon="2.12432">
        <ele>103</ele>
        <time>2013-07-25T18:28:30Z</time>
      </trkpt>
      <trkpt lat="48.72207" lon="2.12434">
        <ele>103</ele>
        <time>2013-07-25T18:28:31Z</time>
      </trkpt>
      <trkpt lat="48.7221" lon="2.12437">
        <ele>103</ele>
        <time>2013-07-25T18:28:32Z</time>
      </trkpt>
      <trkpt lat="48.72219" lon="2.12453">
        <ele>104</ele>
        <time>2013-07-25T18:28:37Z</time>
      </trkpt>
      <trkpt lat="48.72223" lon="2.12459">
        <ele>104</ele>
        <time>2013-07-25T18:28:39Z</time>
      </trkpt>
      <trkpt lat="48.72233" lon="2.12468">
        <ele>104</ele>
        <time>2013-07-25T18:28:44Z</time>
      </trkpt>
      <trkpt lat="48.72238" lon="2.12468">
        <ele>104</ele>
        <time>2013-07-25T18:28:46Z</time>
      </trkpt>
      <trkpt lat="48.7224" lon="2.12469">
        <ele>104</ele>
        <time>2013-07-25T18:28:47Z</time>
      </trkpt>
      <trkpt lat="48.72252" lon="2.12477">
        <ele>105</ele>
        <time>2013-07-25T18:28:53Z</time>
      </trkpt>
      <trkpt lat="48.72254" lon="2.12476">
        <ele>105</ele>
        <time>2013-07-25T18:28:54Z</time>
      </trkpt>
      <trkpt lat="48.72259" lon="2.12473">
        <ele>105</ele>
        <time>2013-07-25T18:28:56Z</time>
      </trkpt>
      <trkpt lat="48.72261" lon="2.12471">
        <ele>105</ele>
        <time>2013-07-25T18:28:57Z</time>
      </trkpt>
      <trkpt lat="48.72267" lon="2.12466">
        <ele>106</ele>
        <time>2013-07-25T18:28:59Z</time>
      </trkpt>
      <trkpt lat="48.72277" lon="2.12459">
        <ele>106</ele>
        <time>2013-07-25T18:29:02Z</time>
      </trkpt>
      <trkpt lat="48.72279" lon="2.12456">
        <ele>106</ele>
        <time>2013-07-25T18:29:03Z</time>
      </trkpt>
      <trkpt lat="48.72291" lon="2.12447">
        <ele>106</ele>
        <time>2013-07-25T18:29:07Z</time>
      </trkpt>
      <trkpt lat="48.72294" lon="2.12444">
        <ele>106</ele>
        <time>2013-07-25T18:29:08Z</time>
      </trkpt>
      <trkpt lat="48.72305" lon="2.12433">
        <ele>106</ele>
        <time>2013-07-25T18:29:13Z</time>
      </trkpt>
      <trkpt lat="48.72308" lon="2.1243">
        <ele>106</ele>
        <time>2013-07-25T18:29:14Z</time>
      </trkpt>
      <trkpt lat="48.72311" lon="2.12424">
        <ele>106</ele>
        <time>2013-07-25T18:29:16Z</time>
      </trkpt>
      <trkpt lat="48.72312" lon="2.1242">
        <ele>106</ele>
        <time>2013-07-25T18:29:17Z</time>
      </trkpt>
      <trkpt lat="48.72313" lon="2.12417">
        <ele>106</ele>
        <time>2013-07-25T18:29:18Z</time>
      </trkpt>
      <trkpt lat="48.72313" lon="2.12413">
        <ele>106</ele>
        <time>2013-07-25T18:29:19Z</time>
      </trkpt>
      <trkpt lat="48.72313" lon="2.12407">
        <ele>106</ele>
        <time>2013-07-25T18:29:21Z</time>
      </trkpt>
      <trkpt lat="48.72308" lon="2.12395">
        <ele>105</ele>
        <time>2013-07-25T18:29:24Z</time>
      </trkpt>
      <trkpt lat="48.72303" lon="2.12383">
        <ele>105</ele>
        <time>2013-07-25T18:29:27Z</time>
      </trkpt>
      <trkpt lat="48.723" lon="2.12373">
        <ele>105</ele>
        <time>2013-07-25T18:29:29Z</time>
      </trkpt>
      <trkpt lat="48.72294" lon="2.12359">
        <ele>105</ele>
        <time>2013-07-25T18:29:32Z</time>
      </trkpt>
      <trkpt lat="48.72293" lon="2.12354">
        <ele>105</ele>
        <time>2013-07-25T18:29:33Z</time>
      </trkpt>
      <trkpt lat="48.72277" lon="2.12315">
        <ele>111</ele>
        <time>2013-07-25T18:29:41Z</time>
      </trkpt>
      <trkpt lat="48.72269" lon="2.12302">
        <ele>111</ele>
        <time>2013-07-25T18:29:44Z</time>
      </trkpt>
      <trkpt lat="48.72266" lon="2.12297">
        <ele>112</ele>
        <time>2013-07-25T18:29:45Z</time>
      </trkpt>
      <trkpt lat="48.72261" lon="2.12292">
        <ele>112</ele>
        <time>2013-07-25T18:29:46Z</time>
      </trkpt>
      <trkpt lat="48.72213" lon="2.12253">
        <ele>103</ele>
        <time>2013-07-25T18:29:55Z</time>
      </trkpt>
      <trkpt lat="48.72202" lon="2.12248">
        <ele>112</ele>
        <time>2013-07-25T18:29:57Z</time>
      </trkpt>
      <trkpt lat="48.72196" lon="2.12246">
        <ele>111</ele>
        <time>2013-07-25T18:29:58Z</time>
      </trkpt>
      <trkpt lat="48.72168" lon="2.12241">
        <ele>106</ele>
        <time>2013-07-25T18:30:03Z</time>
      </trkpt>
      <trkpt lat="48.72098" lon="2.12237">
        <ele>103</ele>
        <time>2013-07-25T18:30:17Z</time>
      </trkpt>
      <trkpt lat="48.72095" lon="2.12236">
        <ele>102</ele>
        <time>2013-07-25T18:30:18Z</time>
      </trkpt>
      <trkpt lat="48.72093" lon="2.12234">
        <ele>103</ele>
        <time>2013-07-25T18:30:19Z</time>
      </trkpt>
      <trkpt lat="48.72091" lon="2.12231">
        <ele>103</ele>
        <time>2013-07-25T18:30:20Z</time>
      </trkpt>
      <trkpt lat="48.72089" lon="2.12229">
        <ele>103</ele>
        <time>2013-07-25T18:30:21Z</time>
      </trkpt>
      <trkpt lat="48.72075" lon="2.12217">
        <ele>101</ele>
        <time>2013-07-25T18:30:26Z</time>
      </trkpt>
      <trkpt lat="48.72072" lon="2.12215">
        <ele>101</ele>
        <time>2013-07-25T18:30:27Z</time>
      </trkpt>
      <trkpt lat="48.7207" lon="2.12213">
        <ele>101</ele>
        <time>2013-07-25T18:30:28Z</time>
      </trkpt>
      <trkpt lat="48.72068" lon="2.12211">
        <ele>101</ele>
        <time>2013-07-25T18:30:29Z</time>
      </trkpt>
      <trkpt lat="48.72066" lon="2.1221">
        <ele>102</ele>
        <time>2013-07-25T18:30:30Z</time>
      </trkpt>
      <trkpt lat="48.72065" lon="2.12208">
        <ele>102</ele>
        <time>2013-07-25T18:30:31Z</time>
      </trkpt>
      <trkpt lat="48.72058" lon="2.12197">
        <ele>103</ele>
        <time>2013-07-25T18:30:36Z</time>
      </trkpt>
      <trkpt lat="48.72055" lon="2.12189">
        <ele>103</ele>
        <time>2013-07-25T18:30:39Z</time>
      </trkpt>
      <trkpt lat="48.72055" lon="2.12186">
        <ele>104</ele>
        <time>2013-07-25T18:30:40Z</time>
      </trkpt>
      <trkpt lat="48.72055" lon="2.12184">
        <ele>104</ele>
        <time>2013-07-25T18:30:41Z</time>
      </trkpt>
      <trkpt lat="48.72055" lon="2.12182">
        <ele>104</ele>
        <time>2013-07-25T18:30:42Z</time>
      </trkpt>
      <trkpt lat="48.72054" lon="2.12176">
        <ele>104</ele>
        <time>2013-07-25T18:30:44Z</time>
      </trkpt>
      <trkpt lat="48.72054" lon="2.12168">
        <ele>105</ele>
        <time>2013-07-25T18:30:47Z</time>
      </trkpt>
      <trkpt lat="48.72054" lon="2.12165">
        <ele>110</ele>
        <time>2013-07-25T18:30:48Z</time>
      </trkpt>
      <trkpt lat="48.72053" lon="2.12153">
        <ele>111</ele>
        <time>2013-07-25T18:30:52Z</time>
      </trkpt>
      <trkpt lat="48.72053" lon="2.12145">
        <ele>111</ele>
        <time>2013-07-25T18:30:55Z</time>
      </trkpt>
      <trkpt lat="48.72053" lon="2.12141">
        <ele>111</ele>
        <time>2013-07-25T18:30:56Z</time>
      </trkpt>
      <trkpt lat="48.72054" lon="2.12138">
        <ele>111</ele>
        <time>2013-07-25T18:30:57Z</time>
      </trkpt>
      <trkpt lat="48.72055" lon="2.12125">
        <ele>111</ele>
        <time>2013-07-25T18:31:01Z</time>
      </trkpt>
      <trkpt lat="48.72053" lon="2.1211">
        <ele>112</ele>
        <time>2013-07-25T18:31:05Z</time>
      </trkpt>
      <trkpt lat="48.72053" lon="2.12106">
        <ele>112</ele>
        <time>2013-07-25T18:31:06Z</time>
      </trkpt>
      <trkpt lat="48.72049" lon="2.1208">
        <ele>115</ele>
        <time>2013-07-25T18:31:12Z</time>
      </trkpt>
      <trkpt lat="48.72047" lon="2.12075">
        <ele>114</ele>
        <time>2013-07-25T18:31:13Z</time>
      </trkpt>
      <trkpt lat="48.72046" lon="2.12071">
        <ele>114</ele>
        <time>2013-07-25T18:31:14Z</time>
      </trkpt>
      <trkpt lat="48.72043" lon="2.12062">
        <ele>114</ele>
        <time>2013-07-25T18:31:16Z</time>
      </trkpt>
      <trkpt lat="48.72042" lon="2.12058">
        <ele>114</ele>
        <time>2013-07-25T18:31:17Z</time>
      </trkpt>
      <trkpt lat="48.72033" lon="2.12029">
        <ele>112</ele>
        <time>2013-07-25T18:31:23Z</time>
      </trkpt>
      <trkpt lat="48.72019" lon="2.1198">
        <ele>108</ele>
        <time>2013-07-25T18:31:30Z</time>
      </trkpt>
      <trkpt lat="48.72018" lon="2.11971">
        <ele>108</ele>
        <time>2013-07-25T18:31:31Z</time>
      </trkpt>
      <trkpt lat="48.72018" lon="2.11963">
        <ele>107</ele>
        <time>2013-07-25T18:31:32Z</time>
      </trkpt>
      <trkpt lat="48.7202" lon="2.11947">
        <ele>107</ele>
        <time>2013-07-25T18:31:34Z</time>
      </trkpt>
      <trkpt lat="48.72021" lon="2.11941">
        <ele>106</ele>
        <time>2013-07-25T18:31:35Z</time>
      </trkpt>
      <trkpt lat="48.72025" lon="2.1193">
        <ele>106</ele>
        <time>2013-07-25T18:31:37Z</time>
      </trkpt>
      <trkpt lat="48.72037" lon="2.11909">
        <ele>104</ele>
        <time>2013-07-25T18:31:41Z</time>
      </trkpt>
      <trkpt lat="48.72039" lon="2.11902">
        <ele>105</ele>
        <time>2013-07-25T18:31:42Z</time>
      </trkpt>
      <trkpt lat="48.72049" lon="2.11848">
        <ele>105</ele>
        <time>2013-07-25T18:31:48Z</time>
      </trkpt>
      <trkpt lat="48.72049" lon="2.11838">
        <ele>105</ele>
        <time>2013-07-25T18:31:49Z</time>
      </trkpt>
      <trkpt lat="48.72046" lon="2.11821">
        <ele>102</ele>
        <time>2013-07-25T18:31:51Z</time>
      </trkpt>
      <trkpt lat="48.72045" lon="2.11792">
        <ele>101</ele>
        <time>2013-07-25T18:31:54Z</time>
      </trkpt>
      <trkpt lat="48.72046" lon="2.11782">
        <ele>101</ele>
        <time>2013-07-25T18:31:55Z</time>
      </trkpt>
      <trkpt lat="48.7205" lon="2.11765">
        <ele>101</ele>
        <time>2013-07-25T18:31:57Z</time>
      </trkpt>
      <trkpt lat="48.72053" lon="2.11758">
        <ele>102</ele>
        <time>2013-07-25T18:31:58Z</time>
      </trkpt>
      <trkpt lat="48.72059" lon="2.11748">
        <ele>101</ele>
        <time>2013-07-25T18:32:00Z</time>
      </trkpt>
      <trkpt lat="48.7206" lon="2.11743">
        <ele>101</ele>
        <time>2013-07-25T18:32:01Z</time>
      </trkpt>
      <trkpt lat="48.72059" lon="2.11733">
        <ele>100</ele>
        <time>2013-07-25T18:32:03Z</time>
      </trkpt>
      <trkpt lat="48.7206" lon="2.11704">
        <ele>100</ele>
        <time>2013-07-25T18:32:07Z</time>
      </trkpt>
      <trkpt lat="48.72065" lon="2.11675">
        <ele>100</ele>
        <time>2013-07-25T18:32:12Z</time>
      </trkpt>
      <trkpt lat="48.72079" lon="2.11633">
        <ele>98</ele>
        <time>2013-07-25T18:32:19Z</time>
      </trkpt>
      <trkpt lat="48.72086" lon="2.11619">
        <ele>106</ele>
        <time>2013-07-25T18:32:22Z</time>
      </trkpt>
      <trkpt lat="48.72089" lon="2.11616">
        <ele>105</ele>
        <time>2013-07-25T18:32:23Z</time>
      </trkpt>
      <trkpt lat="48.72092" lon="2.11612">
        <ele>105</ele>
        <time>2013-07-25T18:32:24Z</time>
      </trkpt>
      <trkpt lat="48.72117" lon="2.11569">
        <ele>104</ele>
        <time>2013-07-25T18:32:33Z</time>
      </trkpt>
      <trkpt lat="48.72121" lon="2.11559">
        <ele>104</ele>
        <time>2013-07-25T18:32:35Z</time>
      </trkpt>
      <trkpt lat="48.72122" lon="2.1155">
        <ele>104</ele>
        <time>2013-07-25T18:32:37Z</time>
      </trkpt>
      <trkpt lat="48.72123" lon="2.11533">
        <ele>104</ele>
        <time>2013-07-25T18:32:40Z</time>
      </trkpt>
      <trkpt lat="48.72125" lon="2.11526">
        <ele>104</ele>
        <time>2013-07-25T18:32:41Z</time>
      </trkpt>
      <trkpt lat="48.72134" lon="2.115">
        <ele>102</ele>
        <time>2013-07-25T18:32:45Z</time>
      </trkpt>
      <trkpt lat="48.7214" lon="2.11486">
        <ele>103</ele>
        <time>2013-07-25T18:32:47Z</time>
      </trkpt>
      <trkpt lat="48.72146" lon="2.11474">
        <ele>102</ele>
        <time>2013-07-25T18:32:49Z</time>
      </trkpt>
      <trkpt lat="48.72154" lon="2.11456">
        <ele>102</ele>
        <time>2013-07-25T18:32:52Z</time>
      </trkpt>
      <trkpt lat="48.72168" lon="2.11436">
        <ele>108</ele>
        <time>2013-07-25T18:32:56Z</time>
      </trkpt>
      <trkpt lat="48.72175" lon="2.11427">
        <ele>106</ele>
        <time>2013-07-25T18:32:58Z</time>
      </trkpt>
      <trkpt lat="48.7218" lon="2.11424">
        <ele>107</ele>
        <time>2013-07-25T18:32:59Z</time>
      </trkpt>
      <trkpt lat="48.72183" lon="2.11423">
        <ele>107</ele>
        <time>2013-07-25T18:33:00Z</time>
      </trkpt>
      <trkpt lat="48.72186" lon="2.11421">
        <ele>108</ele>
        <time>2013-07-25T18:33:01Z</time>
      </trkpt>
      <trkpt lat="48.72193" lon="2.11411">
        <ele>104</ele>
        <time>2013-07-25T18:33:04Z</time>
      </trkpt>
      <trkpt lat="48.722" lon="2.11395">
        <ele>104</ele>
        <time>2013-07-25T18:33:07Z</time>
      </trkpt>
      <trkpt lat="48.72212" lon="2.11369">
        <ele>104</ele>
        <time>2013-07-25T18:33:11Z</time>
      </trkpt>
      <trkpt lat="48.72216" lon="2.11362">
        <ele>104</ele>
        <time>2013-07-25T18:33:12Z</time>
      </trkpt>
      <trkpt lat="48.7222" lon="2.11357">
        <ele>104</ele>
        <time>2013-07-25T18:33:13Z</time>
      </trkpt>
      <trkpt lat="48.72225" lon="2.11353">
        <ele>104</ele>
        <time>2013-07-25T18:33:14Z</time>
      </trkpt>
      <trkpt lat="48.72239" lon="2.11339">
        <ele>104</ele>
        <time>2013-07-25T18:33:17Z</time>
      </trkpt>
      <trkpt lat="48.72273" lon="2.11295">
        <ele>106</ele>
        <time>2013-07-25T18:33:24Z</time>
      </trkpt>
      <trkpt lat="48.72284" lon="2.11285">
        <ele>106</ele>
        <time>2013-07-25T18:33:27Z</time>
      </trkpt>
      <trkpt lat="48.72288" lon="2.11281">
        <ele>106</ele>
        <time>2013-07-25T18:33:28Z</time>
      </trkpt>
      <trkpt lat="48.7229" lon="2.11276">
        <ele>106</ele>
        <time>2013-07-25T18:33:29Z</time>
      </trkpt>
      <trkpt lat="48.72292" lon="2.11271">
        <ele>106</ele>
        <time>2013-07-25T18:33:30Z</time>
      </trkpt>
      <trkpt lat="48.72295" lon="2.11262">
        <ele>106</ele>
        <time>2013-07-25T18:33:32Z</time>
      </trkpt>
      <trkpt lat="48.72296" lon="2.11251">
        <ele>106</ele>
        <time>2013-07-25T18:33:34Z</time>
      </trkpt>
      <trkpt lat="48.72309" lon="2.11217">
        <ele>103</ele>
        <time>2013-07-25T18:33:42Z</time>
      </trkpt>
      <trkpt lat="48.72311" lon="2.11214">
        <ele>103</ele>
        <time>2013-07-25T18:33:43Z</time>
      </trkpt>
      <trkpt lat="48.72315" lon="2.11207">
        <ele>104</ele>
        <time>2013-07-25T18:33:45Z</time>
      </trkpt>
      <trkpt lat="48.72318" lon="2.11204">
        <ele>104</ele>
        <time>2013-07-25T18:33:46Z</time>
      </trkpt>
      <trkpt lat="48.72323" lon="2.11198">
        <ele>104</ele>
        <time>2013-07-25T18:33:48Z</time>
      </trkpt>
      <trkpt lat="48.72325" lon="2.11196">
        <ele>104</ele>
        <time>2013-07-25T18:33:49Z</time>
      </trkpt>
      <trkpt lat="48.72327" lon="2.11194">
        <ele>104</ele>
        <time>2013-07-25T18:33:50Z</time>
      </trkpt>
      <trkpt lat="48.72329" lon="2.11193">
        <ele>104</ele>
        <time>2013-07-25T18:33:51Z</time>
      </trkpt>
      <trkpt lat="48.7233" lon="2.11191">
        <ele>104</ele>
        <time>2013-07-25T18:33:52Z</time>
      </trkpt>
      <trkpt lat="48.72332" lon="2.1119">
        <ele>104</ele>
        <time>2013-07-25T18:33:53Z</time>
      </trkpt>
      <trkpt lat="48.72337" lon="2.11188">
        <ele>111</ele>
        <time>2013-07-25T18:33:55Z</time>
      </trkpt>
      <trkpt lat="48.72341" lon="2.11186">
        <ele>111</ele>
        <time>2013-07-25T18:33:57Z</time>
      </trkpt>
      <trkpt lat="48.72346" lon="2.11185">
        <ele>112</ele>
        <time>2013-07-25T18:33:59Z</time>
      </trkpt>
      <trkpt lat="48.72349" lon="2.11184">
        <ele>112</ele>
        <time>2013-07-25T18:34:00Z</time>
      </trkpt>
      <trkpt lat="48.72358" lon="2.11178">
        <ele>112</ele>
        <time>2013-07-25T18:34:04Z</time>
      </trkpt>
      <trkpt lat="48.72361" lon="2.11176">
        <ele>112</ele>
        <time>2013-07-25T18:34:05Z</time>
      </trkpt>
      <trkpt lat="48.72365" lon="2.11175">
        <ele>113</ele>
        <time>2013-07-25T18:34:06Z</time>
      </trkpt>
      <trkpt lat="48.72395" lon="2.11162">
        <ele>112</ele>
        <time>2013-07-25T18:34:15Z</time>
      </trkpt>
      <trkpt lat="48.72402" lon="2.11158">
        <ele>113</ele>
        <time>2013-07-25T18:34:17Z</time>
      </trkpt>
      <trkpt lat="48.72407" lon="2.11153">
        <ele>113</ele>
        <time>2013-07-25T18:34:19Z</time>
      </trkpt>
      <trkpt lat="48.7241" lon="2.11149">
        <ele>113</ele>
        <time>2013-07-25T18:34:20Z</time>
      </trkpt>
      <trkpt lat="48.72416" lon="2.11144">
        <ele>112</ele>
        <time>2013-07-25T18:34:22Z</time>
      </trkpt>
      <trkpt lat="48.72419" lon="2.11142">
        <ele>116</ele>
        <time>2013-07-25T18:34:23Z</time>
      </trkpt>
      <trkpt lat="48.72422" lon="2.11139">
        <ele>116</ele>
        <time>2013-07-25T18:34:24Z</time>
      </trkpt>
      <trkpt lat="48.72424" lon="2.11137">
        <ele>116</ele>
        <time>2013-07-25T18:34:25Z</time>
      </trkpt>
      <trkpt lat="48.72426" lon="2.11134">
        <ele>116</ele>
        <time>2013-07-25T18:34:26Z</time>
      </trkpt>
      <trkpt lat="48.72441" lon="2.11118">
        <ele>116</ele>
        <time>2013-07-25T18:34:33Z</time>
      </trkpt>
      <trkpt lat="48.72454" lon="2.11108">
        <ele>116</ele>
        <time>2013-07-25T18:34:37Z</time>
      </trkpt>
      <trkpt lat="48.72457" lon="2.11105">
        <ele>116</ele>
        <time>2013-07-25T18:34:38Z</time>
      </trkpt>
      <trkpt lat="48.72477" lon="2.11088">
        <ele>116</ele>
        <time>2013-07-25T18:34:43Z</time>
      </trkpt>
      <trkpt lat="48.72481" lon="2.11083">
        <ele>112</ele>
        <time>2013-07-25T18:34:44Z</time>
      </trkpt>
      <trkpt lat="48.72491" lon="2.11075">
        <ele>113</ele>
        <time>2013-07-25T18:34:46Z</time>
      </trkpt>
      <trkpt lat="48.72506" lon="2.11061">
        <ele>115</ele>
        <time>2013-07-25T18:34:49Z</time>
      </trkpt>
      <trkpt lat="48.72523" lon="2.11039">
        <ele>114</ele>
        <time>2013-07-25T18:34:52Z</time>
      </trkpt>
      <trkpt lat="48.72535" lon="2.11029">
        <ele>113</ele>
        <time>2013-07-25T18:34:54Z</time>
      </trkpt>
      <trkpt lat="48.7254" lon="2.11024">
        <ele>113</ele>
        <time>2013-07-25T18:34:55Z</time>
      </trkpt>
      <trkpt lat="48.72558" lon="2.11">
        <ele>113</ele>
        <time>2013-07-25T18:35:00Z</time>
      </trkpt>
      <trkpt lat="48.72565" lon="2.10994">
        <ele>108</ele>
        <time>2013-07-25T18:35:02Z</time>
      </trkpt>
      <trkpt lat="48.72569" lon="2.10991">
        <ele>108</ele>
        <time>2013-07-25T18:35:03Z</time>
      </trkpt>
      <trkpt lat="48.72581" lon="2.10985">
        <ele>109</ele>
        <time>2013-07-25T18:35:06Z</time>
      </trkpt>
      <trkpt lat="48.72586" lon="2.10983">
        <ele>111</ele>
        <time>2013-07-25T18:35:07Z</time>
      </trkpt>
      <trkpt lat="48.7259" lon="2.10979">
        <ele>111</ele>
        <time>2013-07-25T18:35:08Z</time>
      </trkpt>
      <trkpt lat="48.72594" lon="2.10977">
        <ele>110</ele>
        <time>2013-07-25T18:35:09Z</time>
      </trkpt>
      <trkpt lat="48.72597" lon="2.10974">
        <ele>110</ele>
        <time>2013-07-25T18:35:10Z</time>
      </trkpt>
      <trkpt lat="48.72601" lon="2.1097">
        <ele>110</ele>
        <time>2013-07-25T18:35:11Z</time>
      </trkpt>
      <trkpt lat="48.72605" lon="2.10968">
        <ele>110</ele>
        <time>2013-07-25T18:35:12Z</time>
      </trkpt>
      <trkpt lat="48.7262" lon="2.10955">
        <ele>109</ele>
        <time>2013-07-25T18:35:16Z</time>
      </trkpt>
      <trkpt lat="48.72623" lon="2.10951">
        <ele>109</ele>
        <time>2013-07-25T18:35:17Z</time>
      </trkpt>
      <trkpt lat="48.72626" lon="2.10949">
        <ele>109</ele>
        <time>2013-07-25T18:35:18Z</time>
      </trkpt>
      <trkpt lat="48.72629" lon="2.10945">
        <ele>109</ele>
        <time>2013-07-25T18:35:19Z</time>
      </trkpt>
      <trkpt lat="48.72633" lon="2.10942">
        <ele>108</ele>
        <time>2013-07-25T18:35:20Z</time>
      </trkpt>
      <trkpt lat="48.72637" lon="2.10939">
        <ele>108</ele>
        <time>2013-07-25T18:35:21Z</time>
      </trkpt>
      <trkpt lat="48.72664" lon="2.10922">
        <ele>107</ele>
        <time>2013-07-25T18:35:28Z</time>
      </trkpt>
      <trkpt lat="48.72667" lon="2.1092">
        <ele>107</ele>
        <time>2013-07-25T18:35:29Z</time>
      </trkpt>
      <trkpt lat="48.7267" lon="2.10918">
        <ele>107</ele>
        <time>2013-07-25T18:35:30Z</time>
      </trkpt>
      <trkpt lat="48.72677" lon="2.10916">
        <ele>105</ele>
        <time>2013-07-25T18:35:32Z</time>
      </trkpt>
      <trkpt lat="48.72688" lon="2.10912">
        <ele>105</ele>
        <time>2013-07-25T18:35:35Z</time>
      </trkpt>
      <trkpt lat="48.72705" lon="2.10903">
        <ele>104</ele>
        <time>2013-07-25T18:35:40Z</time>
      </trkpt>
      <trkpt lat="48.7271" lon="2.10898">
        <ele>104</ele>
        <time>2013-07-25T18:35:42Z</time>
      </trkpt>
      <trkpt lat="48.72727" lon="2.1089">
        <ele>105</ele>
        <time>2013-07-25T18:35:46Z</time>
      </trkpt>
      <trkpt lat="48.72731" lon="2.10887">
        <ele>105</ele>
        <time>2013-07-25T18:35:47Z</time>
      </trkpt>
      <trkpt lat="48.72734" lon="2.10884">
        <ele>104</ele>
        <time>2013-07-25T18:35:48Z</time>
      </trkpt>
      <trkpt lat="48.72738" lon="2.1088">
        <ele>104</ele>
        <time>2013-07-25T18:35:49Z</time>
      </trkpt>
      <trkpt lat="48.72744" lon="2.10873">
        <ele>104</ele>
        <time>2013-07-25T18:35:51Z</time>
      </trkpt>
      <trkpt lat="48.7275" lon="2.10867">
        <ele>110</ele>
        <time>2013-07-25T18:35:53Z</time>
      </trkpt>
      <trkpt lat="48.72752" lon="2.10863">
        <ele>109</ele>
        <time>2013-07-25T18:35:54Z</time>
      </trkpt>
      <trkpt lat="48.72758" lon="2.10856">
        <ele>109</ele>
        <time>2013-07-25T18:35:56Z</time>
      </trkpt>
      <trkpt lat="48.72764" lon="2.10849">
        <ele>108</ele>
        <time>2013-07-25T18:35:58Z</time>
      </trkpt>
      <trkpt lat="48.72767" lon="2.10846">
        <ele>108</ele>
        <time>2013-07-25T18:35:59Z</time>
      </trkpt>
      <trkpt lat="48.72777" lon="2.10837">
        <ele>109</ele>
        <time>2013-07-25T18:36:02Z</time>
      </trkpt>
      <trkpt lat="48.72784" lon="2.10828">
        <ele>104</ele>
        <time>2013-07-25T18:36:04Z</time>
      </trkpt>
      <trkpt lat="48.72793" lon="2.10814">
        <ele>105</ele>
        <time>2013-07-25T18:36:07Z</time>
      </trkpt>
      <trkpt lat="48.72826" lon="2.10775">
        <ele>105</ele>
        <time>2013-07-25T18:36:16Z</time>
      </trkpt>
      <trkpt lat="48.72831" lon="2.10771">
        <ele>105</ele>
        <time>2013-07-25T18:36:17Z</time>
      </trkpt>
      <trkpt lat="48.72835" lon="2.10767">
        <ele>113</ele>
        <time>2013-07-25T18:36:18Z</time>
      </trkpt>
      <trkpt lat="48.72838" lon="2.10762">
        <ele>112</ele>
        <time>2013-07-25T18:36:19Z</time>
      </trkpt>
      <trkpt lat="48.72867" lon="2.1073">
        <ele>111</ele>
        <time>2013-07-25T18:36:27Z</time>
      </trkpt>
      <trkpt lat="48.72884" lon="2.10704">
        <ele>111</ele>
        <time>2013-07-25T18:36:32Z</time>
      </trkpt>
      <trkpt lat="48.72889" lon="2.10693">
        <ele>111</ele>
        <time>2013-07-25T18:36:34Z</time>
      </trkpt>
      <trkpt lat="48.72891" lon="2.10688">
        <ele>112</ele>
        <time>2013-07-25T18:36:35Z</time>
      </trkpt>
      <trkpt lat="48.72899" lon="2.10675">
        <ele>112</ele>
        <time>2013-07-25T18:36:38Z</time>
      </trkpt>
      <trkpt lat="48.72901" lon="2.1067">
        <ele>113</ele>
        <time>2013-07-25T18:36:39Z</time>
      </trkpt>
      <trkpt lat="48.72903" lon="2.10664">
        <ele>111</ele>
        <time>2013-07-25T18:36:40Z</time>
      </trkpt>
      <trkpt lat="48.72904" lon="2.10659">
        <ele>111</ele>
        <time>2013-07-25T18:36:41Z</time>
      </trkpt>
      <trkpt lat="48.72905" lon="2.10654">
        <ele>110</ele>
        <time>2013-07-25T18:36:42Z</time>
      </trkpt>
      <trkpt lat="48.72906" lon="2.10644">
        <ele>109</ele>
        <time>2013-07-25T18:36:44Z</time>
      </trkpt>
      <trkpt lat="48.72907" lon="2.10639">
        <ele>109</ele>
        <time>2013-07-25T18:36:45Z</time>
      </trkpt>
      <trkpt lat="48.72911" lon="2.10631">
        <ele>109</ele>
        <time>2013-07-25T18:36:47Z</time>
      </trkpt>
      <trkpt lat="48.72914" lon="2.10621">
        <ele>108</ele>
        <time>2013-07-25T18:36:49Z</time>
      </trkpt>
      <trkpt lat="48.72933" lon="2.10579">
        <ele>115</ele>
        <time>2013-07-25T18:36:58Z</time>
      </trkpt>
      <trkpt lat="48.72934" lon="2.10574">
        <ele>115</ele>
        <time>2013-07-25T18:36:59Z</time>
      </trkpt>
      <trkpt lat="48.72939" lon="2.10565">
        <ele>116</ele>
        <time>2013-07-25T18:37:01Z</time>
      </trkpt>
      <trkpt lat="48.72942" lon="2.10557">
        <ele>116</ele>
        <time>2013-07-25T18:37:03Z</time>
      </trkpt>
      <trkpt lat="48.72945" lon="2.10544">
        <ele>117</ele>
        <time>2013-07-25T18:37:06Z</time>
      </trkpt>
      <trkpt lat="48.72946" lon="2.1054">
        <ele>117</ele>
        <time>2013-07-25T18:37:07Z</time>
      </trkpt>
      <trkpt lat="48.72947" lon="2.10536">
        <ele>117</ele>
        <time>2013-07-25T18:37:08Z</time>
      </trkpt>
      <trkpt lat="48.72949" lon="2.10528">
        <ele>117</ele>
        <time>2013-07-25T18:37:10Z</time>
      </trkpt>
      <trkpt lat="48.72955" lon="2.10512">
        <ele>117</ele>
        <time>2013-07-25T18:37:15Z</time>
      </trkpt>
      <trkpt lat="48.72957" lon="2.10509">
        <ele>117</ele>
        <time>2013-07-25T18:37:16Z</time>
      </trkpt>
      <trkpt lat="48.72958" lon="2.10506">
        <ele>118</ele>
        <time>2013-07-25T18:37:17Z</time>
      </trkpt>
      <trkpt lat="48.72964" lon="2.10494">
        <ele>117</ele>
        <time>2013-07-25T18:37:22Z</time>
      </trkpt>
      <trkpt lat="48.72971" lon="2.10475">
        <ele>118</ele>
        <time>2013-07-25T18:37:30Z</time>
      </trkpt>
      <trkpt lat="48.72974" lon="2.10469">
        <ele>118</ele>
        <time>2013-07-25T18:37:33Z</time>
      </trkpt>
      <trkpt lat="48.72975" lon="2.10466">
        <ele>118</ele>
        <time>2013-07-25T18:37:34Z</time>
      </trkpt>
      <trkpt lat="48.72976" lon="2.10463">
        <ele>118</ele>
        <time>2013-07-25T18:37:36Z</time>
      </trkpt>
      <trkpt lat="48.72977" lon="2.10461">
        <ele>118</ele>
        <time>2013-07-25T18:37:37Z</time>
      </trkpt>
      <trkpt lat="48.7298" lon="2.10454">
        <ele>118</ele>
        <time>2013-07-25T18:37:40Z</time>
      </trkpt>
      <trkpt lat="48.72981" lon="2.10452">
        <ele>118</ele>
        <time>2013-07-25T18:37:41Z</time>
      </trkpt>
      <trkpt lat="48.72987" lon="2.10437">
        <ele>119</ele>
        <time>2013-07-25T18:37:48Z</time>
      </trkpt>
      <trkpt lat="48.72988" lon="2.10435">
        <ele>119</ele>
        <time>2013-07-25T18:37:49Z</time>
      </trkpt>
      <trkpt lat="48.72989" lon="2.10433">
        <ele>119</ele>
        <time>2013-07-25T18:37:50Z</time>
      </trkpt>
      <trkpt lat="48.7299" lon="2.10431">
        <ele>120</ele>
        <time>2013-07-25T18:37:51Z</time>
      </trkpt>
      <trkpt lat="48.72991" lon="2.10428">
        <ele>120</ele>
        <time>2013-07-25T18:37:52Z</time>
      </trkpt>
      <trkpt lat="48.72993" lon="2.10427">
        <ele>120</ele>
        <time>2013-07-25T18:37:53Z</time>
      </trkpt>
      <trkpt lat="48.72994" lon="2.10424">
        <ele>121</ele>
        <time>2013-07-25T18:37:54Z</time>
      </trkpt>
      <trkpt lat="48.72995" lon="2.10422">
        <ele>121</ele>
        <time>2013-07-25T18:37:55Z</time>
      </trkpt>
      <trkpt lat="48.72997" lon="2.10419">
        <ele>122</ele>
        <time>2013-07-25T18:37:56Z</time>
      </trkpt>
      <trkpt lat="48.73001" lon="2.10414">
        <ele>124</ele>
        <time>2013-07-25T18:37:59Z</time>
      </trkpt>
      <trkpt lat="48.73006" lon="2.10405">
        <ele>127</ele>
        <time>2013-07-25T18:38:02Z</time>
      </trkpt>
      <trkpt lat="48.73009" lon="2.10398">
        <ele>128</ele>
        <time>2013-07-25T18:38:04Z</time>
      </trkpt>
      <trkpt lat="48.73011" lon="2.10392">
        <ele>129</ele>
        <time>2013-07-25T18:38:06Z</time>
      </trkpt>
      <trkpt lat="48.73013" lon="2.10386">
        <ele>130</ele>
        <time>2013-07-25T18:38:08Z</time>
      </trkpt>
      <trkpt lat="48.73014" lon="2.1038">
        <ele>130</ele>
        <time>2013-07-25T18:38:10Z</time>
      </trkpt>
      <trkpt lat="48.73016" lon="2.10378">
        <ele>130</ele>
        <time>2013-07-25T18:38:11Z</time>
      </trkpt>
      <trkpt lat="48.73018" lon="2.10372">
        <ele>130</ele>
        <time>2013-07-25T18:38:13Z</time>
      </trkpt>
      <trkpt lat="48.7302" lon="2.10366">
        <ele>130</ele>
        <time>2013-07-25T18:38:15Z</time>
      </trkpt>
      <trkpt lat="48.73021" lon="2.10363">
        <ele>130</ele>
        <time>2013-07-25T18:38:16Z</time>
      </trkpt>
      <trkpt lat="48.73022" lon="2.1036">
        <ele>130</ele>
        <time>2013-07-25T18:38:17Z</time>
      </trkpt>
      <trkpt lat="48.73024" lon="2.10352">
        <ele>130</ele>
        <time>2013-07-25T18:38:20Z</time>
      </trkpt>
      <trkpt lat="48.73025" lon="2.1035">
        <ele>130</ele>
        <time>2013-07-25T18:38:21Z</time>
      </trkpt>
      <trkpt lat="48.73026" lon="2.10347">
        <ele>130</ele>
        <time>2013-07-25T18:38:22Z</time>
      </trkpt>
      <trkpt lat="48.73028" lon="2.10342">
        <ele>130</ele>
        <time>2013-07-25T18:38:24Z</time>
      </trkpt>
      <trkpt lat="48.73029" lon="2.1034">
        <ele>130</ele>
        <time>2013-07-25T18:38:25Z</time>
      </trkpt>
      <trkpt lat="48.7303" lon="2.10338">
        <ele>130</ele>
        <time>2013-07-25T18:38:26Z</time>
      </trkpt>
      <trkpt lat="48.7303" lon="2.10335">
        <ele>130</ele>
        <time>2013-07-25T18:38:27Z</time>
      </trkpt>
      <trkpt lat="48.73031" lon="2.10332">
        <ele>129</ele>
        <time>2013-07-25T18:38:28Z</time>
      </trkpt>
      <trkpt lat="48.73032" lon="2.1033">
        <ele>130</ele>
        <time>2013-07-25T18:38:29Z</time>
      </trkpt>
      <trkpt lat="48.73033" lon="2.10327">
        <ele>130</ele>
        <time>2013-07-25T18:38:30Z</time>
      </trkpt>
      <trkpt lat="48.73033" lon="2.10325">
        <ele>130</ele>
        <time>2013-07-25T18:38:31Z</time>
      </trkpt>
      <trkpt lat="48.73034" lon="2.10323">
        <ele>130</ele>
        <time>2013-07-25T18:38:32Z</time>
      </trkpt>
      <trkpt lat="48.73035" lon="2.10317">
        <ele>130</ele>
        <time>2013-07-25T18:38:34Z</time>
      </trkpt>
      <trkpt lat="48.73036" lon="2.10311">
        <ele>130</ele>
        <time>2013-07-25T18:38:36Z</time>
      </trkpt>
      <trkpt lat="48.73037" lon="2.10309">
        <ele>131</ele>
        <time>2013-07-25T18:38:37Z</time>
      </trkpt>
      <trkpt lat="48.73039" lon="2.10303">
        <ele>131</ele>
        <time>2013-07-25T18:38:39Z</time>
      </trkpt>
      <trkpt lat="48.73041" lon="2.10295">
        <ele>131</ele>
        <time>2013-07-25T18:38:42Z</time>
      </trkpt>
      <trkpt lat="48.73042" lon="2.10292">
        <ele>131</ele>
        <time>2013-07-25T18:38:43Z</time>
      </trkpt>
      <trkpt lat="48.73043" lon="2.1029">
        <ele>131</ele>
        <time>2013-07-25T18:38:44Z</time>
      </trkpt>
      <trkpt lat="48.73045" lon="2.10281">
        <ele>131</ele>
        <time>2013-07-25T18:38:48Z</time>
      </trkpt>
      <trkpt lat="48.73047" lon="2.10274">
        <ele>131</ele>
        <time>2013-07-25T18:38:52Z</time>
      </trkpt>
      <trkpt lat="48.73047" lon="2.10273">
        <ele>131</ele>
        <time>2013-07-25T18:38:53Z</time>
      </trkpt>
      <trkpt lat="48.73047" lon="2.10271">
        <ele>132</ele>
        <time>2013-07-25T18:38:54Z</time>
      </trkpt>
      <trkpt lat="48.73048" lon="2.1027">
        <ele>132</ele>
        <time>2013-07-25T18:38:55Z</time>
      </trkpt>
      <trkpt lat="48.73049" lon="2.10268">
        <ele>132</ele>
        <time>2013-07-25T18:38:56Z</time>
      </trkpt>
      <trkpt lat="48.73051" lon="2.10263">
        <ele>132</ele>
        <time>2013-07-25T18:38:59Z</time>
      </trkpt>
      <trkpt lat="48.73052" lon="2.10261">
        <ele>132</ele>
        <time>2013-07-25T18:39:00Z</time>
      </trkpt>
      <trkpt lat="48.73053" lon="2.1026">
        <ele>133</ele>
        <time>2013-07-25T18:39:01Z</time>
      </trkpt>
      <trkpt lat="48.73053" lon="2.10258">
        <ele>133</ele>
        <time>2013-07-25T18:39:02Z</time>
      </trkpt>
      <trkpt lat="48.73054" lon="2.10257">
        <ele>133</ele>
        <time>2013-07-25T18:39:03Z</time>
      </trkpt>
      <trkpt lat="48.73054" lon="2.10256">
        <ele>133</ele>
        <time>2013-07-25T18:39:04Z</time>
      </trkpt>
      <trkpt lat="48.73055" lon="2.10255">
        <ele>133</ele>
        <time>2013-07-25T18:39:05Z</time>
      </trkpt>
      <trkpt lat="48.73056" lon="2.10254">
        <ele>133</ele>
        <time>2013-07-25T18:39:06Z</time>
      </trkpt>
      <trkpt lat="48.73057" lon="2.10253">
        <ele>133</ele>
        <time>2013-07-25T18:39:07Z</time>
      </trkpt>
      <trkpt lat="48.73058" lon="2.10252">
        <ele>134</ele>
        <time>2013-07-25T18:39:08Z</time>
      </trkpt>
      <trkpt lat="48.7306" lon="2.10248">
        <ele>132</ele>
        <time>2013-07-25T18:39:11Z</time>
      </trkpt>
      <trkpt lat="48.73062" lon="2.10246">
        <ele>132</ele>
        <time>2013-07-25T18:39:13Z</time>
      </trkpt>
      <trkpt lat="48.73063" lon="2.10245">
        <ele>132</ele>
        <time>2013-07-25T18:39:14Z</time>
      </trkpt>
      <trkpt lat="48.73064" lon="2.10244">
        <ele>132</ele>
        <time>2013-07-25T18:39:15Z</time>
      </trkpt>
      <trkpt lat="48.73065" lon="2.10243">
        <ele>132</ele>
        <time>2013-07-25T18:39:16Z</time>
      </trkpt>
      <trkpt lat="48.73066" lon="2.10242">
        <ele>133</ele>
        <time>2013-07-25T18:39:17Z</time>
      </trkpt>
      <trkpt lat="48.73067" lon="2.10241">
        <ele>133</ele>
        <time>2013-07-25T18:39:18Z</time>
      </trkpt>
      <trkpt lat="48.73068" lon="2.1024">
        <ele>133</ele>
        <time>2013-07-25T18:39:19Z</time>
      </trkpt>
      <trkpt lat="48.73069" lon="2.10239">
        <ele>133</ele>
        <time>2013-07-25T18:39:20Z</time>
      </trkpt>
      <trkpt lat="48.7307" lon="2.10238">
        <ele>133</ele>
        <time>2013-07-25T18:39:21Z</time>
      </trkpt>
      <trkpt lat="48.73072" lon="2.10236">
        <ele>133</ele>
        <time>2013-07-25T18:39:23Z</time>
      </trkpt>
      <trkpt lat="48.73074" lon="2.10234">
        <ele>133</ele>
        <time>2013-07-25T18:39:26Z</time>
      </trkpt>
      <trkpt lat="48.73075" lon="2.10233">
        <ele>133</ele>
        <time>2013-07-25T18:39:27Z</time>
      </trkpt>
      <trkpt lat="48.73077" lon="2.10232">
        <ele>133</ele>
        <time>2013-07-25T18:39:29Z</time>
      </trkpt>
      <trkpt lat="48.73078" lon="2.1023">
        <ele>133</ele>
        <time>2013-07-25T18:39:31Z</time>
      </trkpt>
      <trkpt lat="48.73079" lon="2.10229">
        <ele>132</ele>
        <time>2013-07-25T18:39:32Z</time>
      </trkpt>
      <trkpt lat="48.73081" lon="2.10228">
        <ele>132</ele>
        <time>2013-07-25T18:39:34Z</time>
      </trkpt>
      <trkpt lat="48.73083" lon="2.10227">
        <ele>132</ele>
        <time>2013-07-25T18:39:36Z</time>
      </trkpt>
      <trkpt lat="48.73085" lon="2.10226">
        <ele>141</ele>
        <time>2013-07-25T18:39:37Z</time>
      </trkpt>
      <trkpt lat="48.73086" lon="2.10226">
        <ele>141</ele>
        <time>2013-07-25T18:39:38Z</time>
      </trkpt>
      <trkpt lat="48.73087" lon="2.10225">
        <ele>141</ele>
        <time>2013-07-25T18:39:39Z</time>
      </trkpt>
      <trkpt lat="48.73089" lon="2.10224">
        <ele>141</ele>
        <time>2013-07-25T18:39:41Z</time>
      </trkpt>
      <trkpt lat="48.7309" lon="2.10224">
        <ele>141</ele>
        <time>2013-07-25T18:39:42Z</time>
      </trkpt>
      <trkpt lat="48.73092" lon="2.10222">
        <ele>141</ele>
        <time>2013-07-25T18:39:44Z</time>
      </trkpt>
      <trkpt lat="48.73093" lon="2.10221">
        <ele>141</ele>
        <time>2013-07-25T18:39:45Z</time>
      </trkpt>
      <trkpt lat="48.73094" lon="2.1022">
        <ele>141</ele>
        <time>2013-07-25T18:39:46Z</time>
      </trkpt>
      <trkpt lat="48.73095" lon="2.10219">
        <ele>141</ele>
        <time>2013-07-25T18:39:47Z</time>
      </trkpt>
      <trkpt lat="48.73098" lon="2.10218">
        <ele>142</ele>
        <time>2013-07-25T18:39:49Z</time>
      </trkpt>
      <trkpt lat="48.73099" lon="2.10217">
        <ele>142</ele>
        <time>2013-07-25T18:39:50Z</time>
      </trkpt>
      <trkpt lat="48.73101" lon="2.10216">
        <ele>142</ele>
        <time>2013-07-25T18:39:52Z</time>
      </trkpt>
      <trkpt lat="48.73102" lon="2.10216">
        <ele>142</ele>
        <time>2013-07-25T18:39:53Z</time>
      </trkpt>
      <trkpt lat="48.73104" lon="2.10217">
        <ele>142</ele>
        <time>2013-07-25T18:39:54Z</time>
      </trkpt>
      <trkpt lat="48.73106" lon="2.10217">
        <ele>142</ele>
        <time>2013-07-25T18:39:56Z</time>
      </trkpt>
      <trkpt lat="48.73107" lon="2.10217">
        <ele>142</ele>
        <time>2013-07-25T18:39:57Z</time>
      </trkpt>
      <trkpt lat="48.73108" lon="2.10218">
        <ele>142</ele>
        <time>2013-07-25T18:39:58Z</time>
      </trkpt>
      <trkpt lat="48.73111" lon="2.1022">
        <ele>142</ele>
        <time>2013-07-25T18:40:01Z</time>
      </trkpt>
      <trkpt lat="48.73112" lon="2.10221">
        <ele>143</ele>
        <time>2013-07-25T18:40:02Z</time>
      </trkpt>
      <trkpt lat="48.73113" lon="2.10222">
        <ele>143</ele>
        <time>2013-07-25T18:40:03Z</time>
      </trkpt>
      <trkpt lat="48.73115" lon="2.10223">
        <ele>143</ele>
        <time>2013-07-25T18:40:05Z</time>
      </trkpt>
      <trkpt lat="48.73116" lon="2.10224">
        <ele>143</ele>
        <time>2013-07-25T18:40:06Z</time>
      </trkpt>
      <trkpt lat="48.73116" lon="2.10225">
        <ele>143</ele>
        <time>2013-07-25T18:40:07Z</time>
      </trkpt>
      <trkpt lat="48.73117" lon="2.10226">
        <ele>143</ele>
        <time>2013-07-25T18:40:08Z</time>
      </trkpt>
      <trkpt lat="48.73118" lon="2.10227">
        <ele>143</ele>
        <time>2013-07-25T18:40:09Z</time>
      </trkpt>
      <trkpt lat="48.73119" lon="2.10228">
        <ele>143</ele>
        <time>2013-07-25T18:40:10Z</time>
      </trkpt>
      <trkpt lat="48.73121" lon="2.10229">
        <ele>143</ele>
        <time>2013-07-25T18:40:11Z</time>
      </trkpt>
      <trkpt lat="48.73122" lon="2.1023">
        <ele>144</ele>
        <time>2013-07-25T18:40:12Z</time>
      </trkpt>
      <trkpt lat="48.73123" lon="2.1023">
        <ele>144</ele>
        <time>2013-07-25T18:40:13Z</time>
      </trkpt>
      <trkpt lat="48.73126" lon="2.10232">
        <ele>144</ele>
        <time>2013-07-25T18:40:15Z</time>
      </trkpt>
      <trkpt lat="48.73129" lon="2.10235">
        <ele>144</ele>
        <time>2013-07-25T18:40:18Z</time>
      </trkpt>
      <trkpt lat="48.73131" lon="2.10236">
        <ele>145</ele>
        <time>2013-07-25T18:40:19Z</time>
      </trkpt>
      <trkpt lat="48.73133" lon="2.10237">
        <ele>145</ele>
        <time>2013-07-25T18:40:20Z</time>
      </trkpt>
      <trkpt lat="48.73137" lon="2.1024">
        <ele>146</ele>
        <time>2013-07-25T18:40:23Z</time>
      </trkpt>
      <trkpt lat="48.73139" lon="2.10241">
        <ele>146</ele>
        <time>2013-07-25T18:40:24Z</time>
      </trkpt>
      <trkpt lat="48.7314" lon="2.10242">
        <ele>146</ele>
        <time>2013-07-25T18:40:25Z</time>
      </trkpt>
      <trkpt lat="48.73142" lon="2.10243">
        <ele>146</ele>
        <time>2013-07-25T18:40:26Z</time>
      </trkpt>
      <trkpt lat="48.73145" lon="2.10246">
        <ele>147</ele>
        <time>2013-07-25T18:40:28Z</time>
      </trkpt>
      <trkpt lat="48.73149" lon="2.10248">
        <ele>148</ele>
        <time>2013-07-25T18:40:31Z</time>
      </trkpt>
      <trkpt lat="48.7315" lon="2.10249">
        <ele>148</ele>
        <time>2013-07-25T18:40:32Z</time>
      </trkpt>
      <trkpt lat="48.73152" lon="2.1025">
        <ele>148</ele>
        <time>2013-07-25T18:40:33Z</time>
      </trkpt>
      <trkpt lat="48.73153" lon="2.1025">
        <ele>150</ele>
        <time>2013-07-25T18:40:34Z</time>
      </trkpt>
      <trkpt lat="48.73155" lon="2.10251">
        <ele>150</ele>
        <time>2013-07-25T18:40:35Z</time>
      </trkpt>
      <trkpt lat="48.73157" lon="2.10253">
        <ele>150</ele>
        <time>2013-07-25T18:40:36Z</time>
      </trkpt>
      <trkpt lat="48.7316" lon="2.10256">
        <ele>150</ele>
        <time>2013-07-25T18:40:38Z</time>
      </trkpt>
      <trkpt lat="48.73162" lon="2.10257">
        <ele>151</ele>
        <time>2013-07-25T18:40:39Z</time>
      </trkpt>
      <trkpt lat="48.73164" lon="2.10258">
        <ele>151</ele>
        <time>2013-07-25T18:40:40Z</time>
      </trkpt>
      <trkpt lat="48.73165" lon="2.10259">
        <ele>150</ele>
        <time>2013-07-25T18:40:41Z</time>
      </trkpt>
      <trkpt lat="48.73167" lon="2.1026">
        <ele>153</ele>
        <time>2013-07-25T18:40:42Z</time>
      </trkpt>
      <trkpt lat="48.73169" lon="2.10261">
        <ele>153</ele>
        <time>2013-07-25T18:40:43Z</time>
      </trkpt>
      <trkpt lat="48.7317" lon="2.10262">
        <ele>153</ele>
        <time>2013-07-25T18:40:44Z</time>
      </trkpt>
      <trkpt lat="48.73171" lon="2.10263">
        <ele>153</ele>
        <time>2013-07-25T18:40:45Z</time>
      </trkpt>
      <trkpt lat="48.73172" lon="2.10265">
        <ele>153</ele>
        <time>2013-07-25T18:40:46Z</time>
      </trkpt>
      <trkpt lat="48.73173" lon="2.10266">
        <ele>153</ele>
        <time>2013-07-25T18:40:47Z</time>
      </trkpt>
      <trkpt lat="48.73175" lon="2.10267">
        <ele>153</ele>
        <time>2013-07-25T18:40:48Z</time>
      </trkpt>
      <trkpt lat="48.73177" lon="2.10266">
        <ele>153</ele>
        <time>2013-07-25T18:40:49Z</time>
      </trkpt>
      <trkpt lat="48.73179" lon="2.10267">
        <ele>153</ele>
        <time>2013-07-25T18:40:50Z</time>
      </trkpt>
      <trkpt lat="48.73184" lon="2.1027">
        <ele>153</ele>
        <time>2013-07-25T18:40:53Z</time>
      </trkpt>
      <trkpt lat="48.73188" lon="2.10273">
        <ele>153</ele>
        <time>2013-07-25T18:40:55Z</time>
      </trkpt>
      <trkpt lat="48.7319" lon="2.10275">
        <ele>153</ele>
        <time>2013-07-25T18:40:56Z</time>
      </trkpt>
      <trkpt lat="48.732" lon="2.10289">
        <ele>154</ele>
        <time>2013-07-25T18:41:02Z</time>
      </trkpt>
      <trkpt lat="48.73202" lon="2.10291">
        <ele>154</ele>
        <time>2013-07-25T18:41:03Z</time>
      </trkpt>
      <trkpt lat="48.73204" lon="2.10293">
        <ele>154</ele>
        <time>2013-07-25T18:41:04Z</time>
      </trkpt>
      <trkpt lat="48.73209" lon="2.10295">
        <ele>154</ele>
        <time>2013-07-25T18:41:06Z</time>
      </trkpt>
      <trkpt lat="48.73211" lon="2.10297">
        <ele>154</ele>
        <time>2013-07-25T18:41:07Z</time>
      </trkpt>
      <trkpt lat="48.73228" lon="2.10318">
        <ele>154</ele>
        <time>2013-07-25T18:41:15Z</time>
      </trkpt>
      <trkpt lat="48.73237" lon="2.10327">
        <ele>154</ele>
        <time>2013-07-25T18:41:19Z</time>
      </trkpt>
      <trkpt lat="48.73239" lon="2.10329">
        <ele>155</ele>
        <time>2013-07-25T18:41:20Z</time>
      </trkpt>
      <trkpt lat="48.73242" lon="2.10331">
        <ele>155</ele>
        <time>2013-07-25T18:41:21Z</time>
      </trkpt>
      <trkpt lat="48.73244" lon="2.10332">
        <ele>155</ele>
        <time>2013-07-25T18:41:22Z</time>
      </trkpt>
      <trkpt lat="48.73247" lon="2.10332">
        <ele>155</ele>
        <time>2013-07-25T18:41:23Z</time>
      </trkpt>
      <trkpt lat="48.73252" lon="2.10334">
        <ele>155</ele>
        <time>2013-07-25T18:41:25Z</time>
      </trkpt>
      <trkpt lat="48.73257" lon="2.10337">
        <ele>155</ele>
        <time>2013-07-25T18:41:27Z</time>
      </trkpt>
      <trkpt lat="48.7326" lon="2.10339">
        <ele>155</ele>
        <time>2013-07-25T18:41:28Z</time>
      </trkpt>
      <trkpt lat="48.73264" lon="2.10343">
        <ele>155</ele>
        <time>2013-07-25T18:41:30Z</time>
      </trkpt>
      <trkpt lat="48.73267" lon="2.10344">
        <ele>155</ele>
        <time>2013-07-25T18:41:31Z</time>
      </trkpt>
      <trkpt lat="48.73269" lon="2.10343">
        <ele>155</ele>
        <time>2013-07-25T18:41:32Z</time>
      </trkpt>
      <trkpt lat="48.73271" lon="2.1034">
        <ele>155</ele>
        <time>2013-07-25T18:41:33Z</time>
      </trkpt>
      <trkpt lat="48.73272" lon="2.10337">
        <ele>155</ele>
        <time>2013-07-25T18:41:34Z</time>
      </trkpt>
      <trkpt lat="48.73272" lon="2.10332">
        <ele>155</ele>
        <time>2013-07-25T18:41:35Z</time>
      </trkpt>
      <trkpt lat="48.73268" lon="2.10289">
        <ele>155</ele>
        <time>2013-07-25T18:41:43Z</time>
      </trkpt>
      <trkpt lat="48.7326" lon="2.10182">
        <ele>154</ele>
        <time>2013-07-25T18:42:00Z</time>
      </trkpt>
      <trkpt lat="48.7326" lon="2.10178">
        <ele>154</ele>
        <time>2013-07-25T18:42:01Z</time>
      </trkpt>
      <trkpt lat="48.73261" lon="2.10176">
        <ele>154</ele>
        <time>2013-07-25T18:42:02Z</time>
      </trkpt>
      <trkpt lat="48.73263" lon="2.10174">
        <ele>154</ele>
        <time>2013-07-25T18:42:03Z</time>
      </trkpt>
      <trkpt lat="48.73266" lon="2.10173">
        <ele>154</ele>
        <time>2013-07-25T18:42:04Z</time>
      </trkpt>
      <trkpt lat="48.73267" lon="2.10169">
        <ele>154</ele>
        <time>2013-07-25T18:42:05Z</time>
      </trkpt>
      <trkpt lat="48.73268" lon="2.10158">
        <ele>154</ele>
        <time>2013-07-25T18:42:07Z</time>
      </trkpt>
      <trkpt lat="48.73288" lon="2.09983">
        <ele>152</ele>
        <time>2013-07-25T18:42:31Z</time>
      </trkpt>
      <trkpt lat="48.73315" lon="2.09877">
        <ele>150</ele>
        <time>2013-07-25T18:42:45Z</time>
      </trkpt>
      <trkpt lat="48.73351" lon="2.09795">
        <ele>153</ele>
        <time>2013-07-25T18:42:58Z</time>
      </trkpt>
      <trkpt lat="48.73355" lon="2.09791">
        <ele>153</ele>
        <time>2013-07-25T18:42:59Z</time>
      </trkpt>
      <trkpt lat="48.73359" lon="2.0979">
        <ele>154</ele>
        <time>2013-07-25T18:43:00Z</time>
      </trkpt>
      <trkpt lat="48.73403" lon="2.098">
        <ele>155</ele>
        <time>2013-07-25T18:43:10Z</time>
      </trkpt>
      <trkpt lat="48.7341" lon="2.09803">
        <ele>155</ele>
        <time>2013-07-25T18:43:12Z</time>
      </trkpt>
      <trkpt lat="48.73413" lon="2.09802">
        <ele>155</ele>
        <time>2013-07-25T18:43:13Z</time>
      </trkpt>
      <trkpt lat="48.73415" lon="2.098">
        <ele>155</ele>
        <time>2013-07-25T18:43:14Z</time>
      </trkpt>
      <trkpt lat="48.73417" lon="2.09796">
        <ele>155</ele>
        <time>2013-07-25T18:43:15Z</time>
      </trkpt>
      <trkpt lat="48.73418" lon="2.09792">
        <ele>157</ele>
        <time>2013-07-25T18:43:16Z</time>
      </trkpt>
      <trkpt lat="48.73421" lon="2.09789">
        <ele>158</ele>
        <time>2013-07-25T18:43:17Z</time>
      </trkpt>
      <trkpt lat="48.73424" lon="2.09788">
        <ele>158</ele>
        <time>2013-07-25T18:43:18Z</time>
      </trkpt>
      <trkpt lat="48.73427" lon="2.09785">
        <ele>158</ele>
        <time>2013-07-25T18:43:19Z</time>
      </trkpt>
      <trkpt lat="48.7343" lon="2.09781">
        <ele>158</ele>
        <time>2013-07-25T18:43:20Z</time>
      </trkpt>
      <trkpt lat="48.73433" lon="2.09776">
        <ele>158</ele>
        <time>2013-07-25T18:43:21Z</time>
      </trkpt>
      <trkpt lat="48.73436" lon="2.09772">
        <ele>158</ele>
        <time>2013-07-25T18:43:22Z</time>
      </trkpt>
      <trkpt lat="48.73439" lon="2.09768">
        <ele>158</ele>
        <time>2013-07-25T18:43:23Z</time>
      </trkpt>
      <trkpt lat="48.73442" lon="2.09764">
        <ele>158</ele>
        <time>2013-07-25T18:43:24Z</time>
      </trkpt>
      <trkpt lat="48.7345" lon="2.09759">
        <ele>158</ele>
        <time>2013-07-25T18:43:26Z</time>
      </trkpt>
      <trkpt lat="48.73454" lon="2.09755">
        <ele>158</ele>
        <time>2013-07-25T18:43:27Z</time>
      </trkpt>
      <trkpt lat="48.73498" lon="2.09704">
        <ele>158</ele>
        <time>2013-07-25T18:43:38Z</time>
      </trkpt>
      <trkpt lat="48.73511" lon="2.09681">
        <ele>158</ele>
        <time>2013-07-25T18:43:42Z</time>
      </trkpt>
      <trkpt lat="48.73523" lon="2.0965">
        <ele>158</ele>
        <time>2013-07-25T18:43:47Z</time>
      </trkpt>
      <trkpt lat="48.73526" lon="2.09645">
        <ele>158</ele>
        <time>2013-07-25T18:43:48Z</time>
      </trkpt>
      <trkpt lat="48.7353" lon="2.09643">
        <ele>158</ele>
        <time>2013-07-25T18:43:49Z</time>
      </trkpt>
      <trkpt lat="48.73536" lon="2.09641">
        <ele>158</ele>
        <time>2013-07-25T18:43:51Z</time>
      </trkpt>
      <trkpt lat="48.73541" lon="2.09637">
        <ele>158</ele>
        <time>2013-07-25T18:43:53Z</time>
      </trkpt>
      <trkpt lat="48.73545" lon="2.0963">
        <ele>158</ele>
        <time>2013-07-25T18:43:55Z</time>
      </trkpt>
      <trkpt lat="48.73547" lon="2.09626">
        <ele>158</ele>
        <time>2013-07-25T18:43:56Z</time>
      </trkpt>
      <trkpt lat="48.73564" lon="2.09594">
        <ele>157</ele>
        <time>2013-07-25T18:44:02Z</time>
      </trkpt>
      <trkpt lat="48.73588" lon="2.09544">
        <ele>157</ele>
        <time>2013-07-25T18:44:10Z</time>
      </trkpt>
      <trkpt lat="48.73592" lon="2.09538">
        <ele>157</ele>
        <time>2013-07-25T18:44:11Z</time>
      </trkpt>
      <trkpt lat="48.73604" lon="2.09524">
        <ele>157</ele>
        <time>2013-07-25T18:44:14Z</time>
      </trkpt>
      <trkpt lat="48.73609" lon="2.09518">
        <ele>157</ele>
        <time>2013-07-25T18:44:15Z</time>
      </trkpt>
      <trkpt lat="48.73612" lon="2.09512">
        <ele>157</ele>
        <time>2013-07-25T18:44:16Z</time>
      </trkpt>
      <trkpt lat="48.73614" lon="2.09505">
        <ele>157</ele>
        <time>2013-07-25T18:44:17Z</time>
      </trkpt>
      <trkpt lat="48.73614" lon="2.09498">
        <ele>158</ele>
        <time>2013-07-25T18:44:18Z</time>
      </trkpt>
      <trkpt lat="48.73613" lon="2.09492">
        <ele>158</ele>
        <time>2013-07-25T18:44:19Z</time>
      </trkpt>
      <trkpt lat="48.73615" lon="2.09485">
        <ele>158</ele>
        <time>2013-07-25T18:44:20Z</time>
      </trkpt>
      <trkpt lat="48.73617" lon="2.09478">
        <ele>158</ele>
        <time>2013-07-25T18:44:21Z</time>
      </trkpt>
      <trkpt lat="48.73663" lon="2.09404">
        <ele>157</ele>
        <time>2013-07-25T18:44:32Z</time>
      </trkpt>
      <trkpt lat="48.73675" lon="2.09379">
        <ele>156</ele>
        <time>2013-07-25T18:44:35Z</time>
      </trkpt>
      <trkpt lat="48.73701" lon="2.09285">
        <ele>154</ele>
        <time>2013-07-25T18:44:45Z</time>
      </trkpt>
      <trkpt lat="48.73702" lon="2.09276">
        <ele>154</ele>
        <time>2013-07-25T18:44:46Z</time>
      </trkpt>
      <trkpt lat="48.73703" lon="2.09267">
        <ele>154</ele>
        <time>2013-07-25T18:44:47Z</time>
      </trkpt>
      <trkpt lat="48.73701" lon="2.09258">
        <ele>154</ele>
        <time>2013-07-25T18:44:48Z</time>
      </trkpt>
      <trkpt lat="48.73699" lon="2.09249">
        <ele>153</ele>
        <time>2013-07-25T18:44:49Z</time>
      </trkpt>
      <trkpt lat="48.73696" lon="2.09241">
        <ele>153</ele>
        <time>2013-07-25T18:44:50Z</time>
      </trkpt>
      <trkpt lat="48.7365" lon="2.0916">
        <ele>151</ele>
        <time>2013-07-25T18:45:02Z</time>
      </trkpt>
      <trkpt lat="48.73645" lon="2.09147">
        <ele>151</ele>
        <time>2013-07-25T18:45:04Z</time>
      </trkpt>
      <trkpt lat="48.73642" lon="2.09141">
        <ele>151</ele>
        <time>2013-07-25T18:45:05Z</time>
      </trkpt>
      <trkpt lat="48.73639" lon="2.09136">
        <ele>151</ele>
        <time>2013-07-25T18:45:06Z</time>
      </trkpt>
      <trkpt lat="48.73635" lon="2.09133">
        <ele>151</ele>
        <time>2013-07-25T18:45:07Z</time>
      </trkpt>
      <trkpt lat="48.73631" lon="2.0913">
        <ele>151</ele>
        <time>2013-07-25T18:45:08Z</time>
      </trkpt>
      <trkpt lat="48.73626" lon="2.09127">
        <ele>151</ele>
        <time>2013-07-25T18:45:09Z</time>
      </trkpt>
      <trkpt lat="48.73621" lon="2.09126">
        <ele>151</ele>
        <time>2013-07-25T18:45:10Z</time>
      </trkpt>
      <trkpt lat="48.7355" lon="2.09109">
        <ele>147</ele>
        <time>2013-07-25T18:45:22Z</time>
      </trkpt>
      <trkpt lat="48.73532" lon="2.09102">
        <ele>148</ele>
        <time>2013-07-25T18:45:25Z</time>
      </trkpt>
      <trkpt lat="48.73527" lon="2.09098">
        <ele>148</ele>
        <time>2013-07-25T18:45:26Z</time>
      </trkpt>
      <trkpt lat="48.73522" lon="2.09094">
        <ele>148</ele>
        <time>2013-07-25T18:45:27Z</time>
      </trkpt>
      <trkpt lat="48.73509" lon="2.09076">
        <ele>152</ele>
        <time>2013-07-25T18:45:31Z</time>
      </trkpt>
      <trkpt lat="48.73505" lon="2.09069">
        <ele>151</ele>
        <time>2013-07-25T18:45:33Z</time>
      </trkpt>
      <trkpt lat="48.73502" lon="2.09066">
        <ele>151</ele>
        <time>2013-07-25T18:45:34Z</time>
      </trkpt>
      <trkpt lat="48.73499" lon="2.09065">
        <ele>147</ele>
        <time>2013-07-25T18:45:35Z</time>
      </trkpt>
      <trkpt lat="48.73493" lon="2.09065">
        <ele>147</ele>
        <time>2013-07-25T18:45:37Z</time>
      </trkpt>
      <trkpt lat="48.7349" lon="2.09064">
        <ele>146</ele>
        <time>2013-07-25T18:45:38Z</time>
      </trkpt>
      <trkpt lat="48.73484" lon="2.09063">
        <ele>146</ele>
        <time>2013-07-25T18:45:40Z</time>
      </trkpt>
      <trkpt lat="48.73481" lon="2.09062">
        <ele>145</ele>
        <time>2013-07-25T18:45:41Z</time>
      </trkpt>
      <trkpt lat="48.73475" lon="2.0906">
        <ele>144</ele>
        <time>2013-07-25T18:45:43Z</time>
      </trkpt>
      <trkpt lat="48.73471" lon="2.0906">
        <ele>144</ele>
        <time>2013-07-25T18:45:44Z</time>
      </trkpt>
      <trkpt lat="48.73463" lon="2.09061">
        <ele>143</ele>
        <time>2013-07-25T18:45:46Z</time>
      </trkpt>
      <trkpt lat="48.73458" lon="2.0906">
        <ele>143</ele>
        <time>2013-07-25T18:45:47Z</time>
      </trkpt>
      <trkpt lat="48.73454" lon="2.09057">
        <ele>142</ele>
        <time>2013-07-25T18:45:48Z</time>
      </trkpt>
      <trkpt lat="48.73447" lon="2.09049">
        <ele>141</ele>
        <time>2013-07-25T18:45:50Z</time>
      </trkpt>
      <trkpt lat="48.73443" lon="2.09046">
        <ele>141</ele>
        <time>2013-07-25T18:45:52Z</time>
      </trkpt>
      <trkpt lat="48.73441" lon="2.09044">
        <ele>141</ele>
        <time>2013-07-25T18:45:53Z</time>
      </trkpt>
      <trkpt lat="48.73439" lon="2.09042">
        <ele>140</ele>
        <time>2013-07-25T18:45:54Z</time>
      </trkpt>
      <trkpt lat="48.73437" lon="2.0904">
        <ele>140</ele>
        <time>2013-07-25T18:45:55Z</time>
      </trkpt>
      <trkpt lat="48.73435" lon="2.09038">
        <ele>140</ele>
        <time>2013-07-25T18:45:56Z</time>
      </trkpt>
      <trkpt lat="48.73433" lon="2.09036">
        <ele>140</ele>
        <time>2013-07-25T18:45:57Z</time>
      </trkpt>
      <trkpt lat="48.73429" lon="2.09033">
        <ele>139</ele>
        <time>2013-07-25T18:45:59Z</time>
      </trkpt>
      <trkpt lat="48.73427" lon="2.09033">
        <ele>139</ele>
        <time>2013-07-25T18:46:00Z</time>
      </trkpt>
      <trkpt lat="48.73424" lon="2.09034">
        <ele>139</ele>
        <time>2013-07-25T18:46:01Z</time>
      </trkpt>
      <trkpt lat="48.73422" lon="2.09039">
        <ele>139</ele>
        <time>2013-07-25T18:46:02Z</time>
      </trkpt>
      <trkpt lat="48.73411" lon="2.09064">
        <ele>131</ele>
        <time>2013-07-25T18:46:06Z</time>
      </trkpt>
      <trkpt lat="48.73409" lon="2.0907">
        <ele>132</ele>
        <time>2013-07-25T18:46:07Z</time>
      </trkpt>
      <trkpt lat="48.73406" lon="2.09074">
        <ele>132</ele>
        <time>2013-07-25T18:46:08Z</time>
      </trkpt>
      <trkpt lat="48.73397" lon="2.09076">
        <ele>130</ele>
        <time>2013-07-25T18:46:10Z</time>
      </trkpt>
      <trkpt lat="48.73385" lon="2.09075">
        <ele>127</ele>
        <time>2013-07-25T18:46:12Z</time>
      </trkpt>
      <trkpt lat="48.7338" lon="2.09076">
        <ele>125</ele>
        <time>2013-07-25T18:46:13Z</time>
      </trkpt>
      <trkpt lat="48.73376" lon="2.09077">
        <ele>125</ele>
        <time>2013-07-25T18:46:14Z</time>
      </trkpt>
      <trkpt lat="48.73373" lon="2.0908">
        <ele>124</ele>
        <time>2013-07-25T18:46:15Z</time>
      </trkpt>
      <trkpt lat="48.73371" lon="2.09084">
        <ele>124</ele>
        <time>2013-07-25T18:46:16Z</time>
      </trkpt>
      <trkpt lat="48.73369" lon="2.09097">
        <ele>124</ele>
        <time>2013-07-25T18:46:19Z</time>
      </trkpt>
      <trkpt lat="48.73365" lon="2.09101">
        <ele>123</ele>
        <time>2013-07-25T18:46:20Z</time>
      </trkpt>
      <trkpt lat="48.73354" lon="2.09108">
        <ele>122</ele>
        <time>2013-07-25T18:46:22Z</time>
      </trkpt>
      <trkpt lat="48.73348" lon="2.09114">
        <ele>121</ele>
        <time>2013-07-25T18:46:23Z</time>
      </trkpt>
      <trkpt lat="48.73344" lon="2.09123">
        <ele>121</ele>
        <time>2013-07-25T18:46:24Z</time>
      </trkpt>
      <trkpt lat="48.73341" lon="2.09133">
        <ele>121</ele>
        <time>2013-07-25T18:46:25Z</time>
      </trkpt>
      <trkpt lat="48.73339" lon="2.09144">
        <ele>120</ele>
        <time>2013-07-25T18:46:26Z</time>
      </trkpt>
      <trkpt lat="48.73339" lon="2.09155">
        <ele>119</ele>
        <time>2013-07-25T18:46:27Z</time>
      </trkpt>
      <trkpt lat="48.73342" lon="2.09165">
        <ele>118</ele>
        <time>2013-07-25T18:46:28Z</time>
      </trkpt>
      <trkpt lat="48.73348" lon="2.09182">
        <ele>116</ele>
        <time>2013-07-25T18:46:30Z</time>
      </trkpt>
      <trkpt lat="48.73351" lon="2.09194">
        <ele>117</ele>
        <time>2013-07-25T18:46:32Z</time>
      </trkpt>
      <trkpt lat="48.73349" lon="2.09197">
        <ele>116</ele>
        <time>2013-07-25T18:46:33Z</time>
      </trkpt>
      <trkpt lat="48.73347" lon="2.092">
        <ele>116</ele>
        <time>2013-07-25T18:46:34Z</time>
      </trkpt>
      <trkpt lat="48.73343" lon="2.09202">
        <ele>116</ele>
        <time>2013-07-25T18:46:35Z</time>
      </trkpt>
      <trkpt lat="48.7334" lon="2.09201">
        <ele>116</ele>
        <time>2013-07-25T18:46:36Z</time>
      </trkpt>
      <trkpt lat="48.73327" lon="2.09197">
        <ele>111</ele>
        <time>2013-07-25T18:46:39Z</time>
      </trkpt>
      <trkpt lat="48.73322" lon="2.09195">
        <ele>111</ele>
        <time>2013-07-25T18:46:40Z</time>
      </trkpt>
      <trkpt lat="48.73317" lon="2.09193">
        <ele>110</ele>
        <time>2013-07-25T18:46:41Z</time>
      </trkpt>
      <trkpt lat="48.73312" lon="2.09191">
        <ele>110</ele>
        <time>2013-07-25T18:46:42Z</time>
      </trkpt>
      <trkpt lat="48.73307" lon="2.09187">
        <ele>110</ele>
        <time>2013-07-25T18:46:43Z</time>
      </trkpt>
      <trkpt lat="48.73301" lon="2.09181">
        <ele>110</ele>
        <time>2013-07-25T18:46:44Z</time>
      </trkpt>
      <trkpt lat="48.7329" lon="2.09166">
        <ele>110</ele>
        <time>2013-07-25T18:46:46Z</time>
      </trkpt>
      <trkpt lat="48.7328" lon="2.09156">
        <ele>109</ele>
        <time>2013-07-25T18:46:48Z</time>
      </trkpt>
      <trkpt lat="48.73277" lon="2.09153">
        <ele>109</ele>
        <time>2013-07-25T18:46:49Z</time>
      </trkpt>
      <trkpt lat="48.73276" lon="2.09148">
        <ele>109</ele>
        <time>2013-07-25T18:46:50Z</time>
      </trkpt>
      <trkpt lat="48.73282" lon="2.09133">
        <ele>109</ele>
        <time>2013-07-25T18:46:55Z</time>
      </trkpt>
      <trkpt lat="48.73283" lon="2.09131">
        <ele>109</ele>
        <time>2013-07-25T18:46:56Z</time>
      </trkpt>
      <trkpt lat="48.73284" lon="2.09128">
        <ele>109</ele>
        <time>2013-07-25T18:46:58Z</time>
      </trkpt>
      <trkpt lat="48.73285" lon="2.09126">
        <ele>109</ele>
        <time>2013-07-25T18:46:59Z</time>
      </trkpt>
      <trkpt lat="48.73285" lon="2.09124">
        <ele>109</ele>
        <time>2013-07-25T18:47:00Z</time>
      </trkpt>
      <trkpt lat="48.73285" lon="2.0912">
        <ele>109</ele>
        <time>2013-07-25T18:47:02Z</time>
      </trkpt>
      <trkpt lat="48.73284" lon="2.09117">
        <ele>109</ele>
        <time>2013-07-25T18:47:04Z</time>
      </trkpt>
      <trkpt lat="48.73285" lon="2.09117">
        <ele>109</ele>
        <time>2013-07-25T18:47:05Z</time>
      </trkpt>
      <trkpt lat="48.73284" lon="2.09116">
        <ele>109</ele>
        <time>2013-07-25T18:47:06Z</time>
      </trkpt>
      <trkpt lat="48.73284" lon="2.09116">
        <ele>109</ele>
        <time>2013-07-25T18:47:07Z</time>
      </trkpt>
      <trkpt lat="48.73284" lon="2.09116">
        <ele>109</ele>
        <time>2013-07-25T18:47:08Z</time>
      </trkpt>
      <trkpt lat="48.73284" lon="2.09116">
        <ele>109</ele>
        <time>2013-07-25T18:47:09Z</time>
      </trkpt>
      <trkpt lat="48.73284" lon="2.09116">
        <ele>109</ele>
        <time>2013-07-25T18:47:10Z</time>
      </trkpt>
      <trkpt lat="48.73284" lon="2.09116">
        <ele>109</ele>
        <time>2013-07-25T18:47:11Z</time>
      </trkpt>
      <trkpt lat="48.73284" lon="2.09116">
        <ele>109</ele>
        <time>2013-07-25T18:47:12Z</time>
      </trkpt>
      <trkpt lat="48.73284" lon="2.09116">
        <ele>109</ele>
        <time>2013-07-25T18:47:13Z</time>
      </trkpt>
      <trkpt lat="48.73284" lon="2.09116">
        <ele>109</ele>
        <time>2013-07-25T18:47:14Z</time>
      </trkpt>
      <trkpt lat="48.73283" lon="2.09115">
        <ele>109</ele>
        <time>2013-07-25T18:47:15Z</time>
      </trkpt>
      <trkpt lat="48.73283" lon="2.09115">
        <ele>109</ele>
        <time>2013-07-25T18:47:16Z</time>
      </trkpt>
      <trkpt lat="48.73283" lon="2.09115">
        <ele>109</ele>
        <time>2013-07-25T18:47:17Z</time>
      </trkpt>
      <trkpt lat="48.73283" lon="2.09115">
        <ele>109</ele>
        <time>2013-07-25T18:47:18Z</time>
      </trkpt>
      <trkpt lat="48.73283" lon="2.09115">
        <ele>109</ele>
        <time>2013-07-25T18:47:19Z</time>
      </trkpt>
      <trkpt lat="48.73283" lon="2.09115">
        <ele>109</ele>
        <time>2013-07-25T18:47:20Z</time>
      </trkpt>
      <trkpt lat="48.73283" lon="2.09115">
        <ele>109</ele>
        <time>2013-07-25T18:47:21Z</time>
      </trkpt>
      <trkpt lat="48.73283" lon="2.09115">
        <ele>109</ele>
        <time>2013-07-25T18:47:22Z</time>
      </trkpt>
      <trkpt lat="48.73283" lon="2.09115">
        <ele>109</ele>
        <time>2013-07-25T18:47:23Z</time>
      </trkpt>
      <trkpt lat="48.73283" lon="2.09115">
        <ele>109</ele>
        <time>2013-07-25T18:47:24Z</time>
      </trkpt>
      <trkpt lat="48.73283" lon="2.09115">
        <ele>109</ele>
        <time>2013-07-25T18:47:25Z</time>
      </trkpt>
      <trkpt lat="48.73283" lon="2.09115">
        <ele>109</ele>
        <time>2013-07-25T18:47:26Z</time>
      </trkpt>
      <trkpt lat="48.73283" lon="2.09115">
        <ele>109</ele>
        <time>2013-07-25T18:47:27Z</time>
      </trkpt>
      <trkpt lat="48.73283" lon="2.09114">
        <ele>109</ele>
        <time>2013-07-25T18:47:28Z</time>
      </trkpt>
      <trkpt lat="48.73282" lon="2.09114">
        <ele>109</ele>
        <time>2013-07-25T18:47:30Z</time>
      </trkpt>
      <trkpt lat="48.73282" lon="2.09114">
        <ele>109</ele>
        <time>2013-07-25T18:47:31Z</time>
      </trkpt>
      <trkpt lat="48.73281" lon="2.09113">
        <ele>109</ele>
        <time>2013-07-25T18:47:34Z</time>
      </trkpt>
      <trkpt lat="48.73281" lon="2.09112">
        <ele>109</ele>
        <time>2013-07-25T18:47:35Z</time>
      </trkpt>
      <trkpt lat="48.7328" lon="2.09112">
        <ele>109</ele>
        <time>2013-07-25T18:47:36Z</time>
      </trkpt>
      <trkpt lat="48.7328" lon="2.09112">
        <ele>109</ele>
        <time>2013-07-25T18:47:37Z</time>
      </trkpt>
      <trkpt lat="48.73279" lon="2.09111">
        <ele>109</ele>
        <time>2013-07-25T18:47:39Z</time>
      </trkpt>
      <trkpt lat="48.73279" lon="2.09111">
        <ele>109</ele>
        <time>2013-07-25T18:47:40Z</time>
      </trkpt>
      <trkpt lat="48.73279" lon="2.09111">
        <ele>109</ele>
        <time>2013-07-25T18:47:41Z</time>
      </trkpt>
      <trkpt lat="48.73278" lon="2.0911">
        <ele>109</ele>
        <time>2013-07-25T18:47:43Z</time>
      </trkpt>
      <trkpt lat="48.73278" lon="2.0911">
        <ele>109</ele>
        <time>2013-07-25T18:47:44Z</time>
      </trkpt>
      <trkpt lat="48.73278" lon="2.09109">
        <ele>109</ele>
        <time>2013-07-25T18:47:46Z</time>
      </trkpt>
      <trkpt lat="48.73277" lon="2.09109">
        <ele>109</ele>
        <time>2013-07-25T18:47:47Z</time>
      </trkpt>
      <trkpt lat="48.73277" lon="2.09109">
        <ele>109</ele>
        <time>2013-07-25T18:47:48Z</time>
      </trkpt>
      <trkpt lat="48.73277" lon="2.09109">
        <ele>109</ele>
        <time>2013-07-25T18:47:49Z</time>
      </trkpt>
      <trkpt lat="48.73276" lon="2.09108">
        <ele>109</ele>
        <time>2013-07-25T18:47:52Z</time>
      </trkpt>
      <trkpt lat="48.73276" lon="2.09108">
        <ele>109</ele>
        <time>2013-07-25T18:47:53Z</time>
      </trkpt>
      <trkpt lat="48.73276" lon="2.09108">
        <ele>109</ele>
        <time>2013-07-25T18:47:54Z</time>
      </trkpt>
      <trkpt lat="48.73276" lon="2.09107">
        <ele>109</ele>
        <time>2013-07-25T18:47:55Z</time>
      </trkpt>
      <trkpt lat="48.73275" lon="2.09107">
        <ele>109</ele>
        <time>2013-07-25T18:47:59Z</time>
      </trkpt>
      <trkpt lat="48.73275" lon="2.09107">
        <ele>109</ele>
        <time>2013-07-25T18:48:00Z</time>
      </trkpt>
      <trkpt lat="48.73275" lon="2.09107">
        <ele>109</ele>
        <time>2013-07-25T18:48:01Z</time>
      </trkpt>
      <trkpt lat="48.73275" lon="2.09107">
        <ele>109</ele>
        <time>2013-07-25T18:48:02Z</time>
      </trkpt>
      <trkpt lat="48.73274" lon="2.09106">
        <ele>109</ele>
        <time>2013-07-25T18:48:03Z</time>
      </trkpt>
      <trkpt lat="48.73274" lon="2.09106">
        <ele>109</ele>
        <time>2013-07-25T18:48:04Z</time>
      </trkpt>
      <trkpt lat="48.73274" lon="2.09106">
        <ele>109</ele>
        <time>2013-07-25T18:48:05Z</time>
      </trkpt>
      <trkpt lat="48.73274" lon="2.09106">
        <ele>109</ele>
        <time>2013-07-25T18:48:06Z</time>
      </trkpt>
      <trkpt lat="48.73274" lon="2.09107">
        <ele>109</ele>
        <time>2013-07-25T18:48:07Z</time>
      </trkpt>
      <trkpt lat="48.73274" lon="2.09107">
        <ele>109</ele>
        <time>2013-07-25T18:48:08Z</time>
      </trkpt>
      <trkpt lat="48.73274" lon="2.09107">
        <ele>109</ele>
        <time>2013-07-25T18:48:09Z</time>
      </trkpt>
      <trkpt lat="48.73274" lon="2.09107">
        <ele>109</ele>
        <time>2013-07-25T18:48:10Z</time>
      </trkpt>
      <trkpt lat="48.73274" lon="2.09107">
        <ele>109</ele>
        <time>2013-07-25T18:48:11Z</time>
      </trkpt>
      <trkpt lat="48.73274" lon="2.09108">
        <ele>109</ele>
        <time>2013-07-25T18:48:12Z</time>
      </trkpt>
      <trkpt lat="48.73274" lon="2.09108">
        <ele>109</ele>
        <time>2013-07-25T18:48:13Z</time>
      </trkpt>
      <trkpt lat="48.73274" lon="2.09108">
        <ele>109</ele>
        <time>2013-07-25T18:48:14Z</time>
      </trkpt>
      <trkpt lat="48.73274" lon="2.09108">
        <ele>109</ele>
        <time>2013-07-25T18:48:15Z</time>
      </trkpt>
      <trkpt lat="48.73274" lon="2.09108">
        <ele>109</ele>
        <time>2013-07-25T18:48:16Z</time>
      </trkpt>
      <trkpt lat="48.73274" lon="2.09109">
        <ele>109</ele>
        <time>2013-07-25T18:48:17Z</time>
      </trkpt>
      <trkpt lat="48.73274" lon="2.09109">
        <ele>109</ele>
        <time>2013-07-25T18:48:18Z</time>
      </trkpt>
      <trkpt lat="48.73274" lon="2.09109">
        <ele>109</ele>
        <time>2013-07-25T18:48:19Z</time>
      </trkpt>
      <trkpt lat="48.73274" lon="2.09109">
        <ele>109</ele>
        <time>2013-07-25T18:48:20Z</time>
      </trkpt>
      <trkpt lat="48.73274" lon="2.09109">
        <ele>109</ele>
        <time>2013-07-25T18:48:21Z</time>
      </trkpt>
      <trkpt lat="48.73274" lon="2.09109">
        <ele>109</ele>
        <time>2013-07-25T18:48:22Z</time>
      </trkpt>
      <trkpt lat="48.73274" lon="2.09109">
        <ele>109</ele>
        <time>2013-07-25T18:48:23Z</time>
      </trkpt>
      <trkpt lat="48.73275" lon="2.0911">
        <ele>109</ele>
        <time>2013-07-25T18:48:24Z</time>
      </trkpt>
      <trkpt lat="48.73275" lon="2.0911">
        <ele>109</ele>
        <time>2013-07-25T18:48:25Z</time>
      </trkpt>
      <trkpt lat="48.73275" lon="2.0911">
        <ele>109</ele>
        <time>2013-07-25T18:48:26Z</time>
      </trkpt>
      <trkpt lat="48.73275" lon="2.0911">
        <ele>109</ele>
        <time>2013-07-25T18:48:27Z</time>
      </trkpt>
      <trkpt lat="48.73275" lon="2.0911">
        <ele>109</ele>
        <time>2013-07-25T18:48:28Z</time>
      </trkpt>
      <trkpt lat="48.73275" lon="2.0911">
        <ele>109</ele>
        <time>2013-07-25T18:48:29Z</time>
      </trkpt>
      <trkpt lat="48.73275" lon="2.0911">
        <ele>109</ele>
        <time>2013-07-25T18:48:30Z</time>
      </trkpt>
      <trkpt lat="48.73275" lon="2.0911">
        <ele>109</ele>
        <time>2013-07-25T18:48:31Z</time>
      </trkpt>
      <trkpt lat="48.73275" lon="2.0911">
        <ele>109</ele>
        <time>2013-07-25T18:48:32Z</time>
      </trkpt>
      <trkpt lat="48.73275" lon="2.0911">
        <ele>109</ele>
        <time>2013-07-25T18:48:33Z</time>
      </trkpt>
      <trkpt lat="48.73275" lon="2.09111">
        <ele>109</ele>
        <time>2013-07-25T18:48:34Z</time>
      </trkpt>
      <trkpt lat="48.73276" lon="2.09111">
        <ele>109</ele>
        <time>2013-07-25T18:48:35Z</time>
      </trkpt>
      <trkpt lat="48.73276" lon="2.09111">
        <ele>109</ele>
        <time>2013-07-25T18:48:36Z</time>
      </trkpt>
      <trkpt lat="48.73276" lon="2.09111">
        <ele>109</ele>
        <time>2013-07-25T18:48:37Z</time>
      </trkpt>
      <trkpt lat="48.73276" lon="2.09111">
        <ele>109</ele>
        <time>2013-07-25T18:48:38Z</time>
      </trkpt>
      <trkpt lat="48.73276" lon="2.09111">
        <ele>109</ele>
        <time>2013-07-25T18:48:39Z</time>
      </trkpt>
      <trkpt lat="48.73276" lon="2.09111">
        <ele>109</ele>
        <time>2013-07-25T18:48:40Z</time>
      </trkpt>
      <trkpt lat="48.73275" lon="2.09111">
        <ele>109</ele>
        <time>2013-07-25T18:48:41Z</time>
      </trkpt>
      <trkpt lat="48.73275" lon="2.09111">
        <ele>109</ele>
        <time>2013-07-25T18:48:42Z</time>
      </trkpt>
      <trkpt lat="48.73275" lon="2.09111">
        <ele>109</ele>
        <time>2013-07-25T18:48:43Z</time>
      </trkpt>
      <trkpt lat="48.73274" lon="2.09111">
        <ele>109</ele>
        <time>2013-07-25T18:48:44Z</time>
      </trkpt>
      <trkpt lat="48.73274" lon="2.09111">
        <ele>109</ele>
        <time>2013-07-25T18:48:45Z</time>
      </trkpt>
      <trkpt lat="48.73274" lon="2.09112">
        <ele>109</ele>
        <time>2013-07-25T18:48:46Z</time>
      </trkpt>
      <trkpt lat="48.73274" lon="2.09112">
        <ele>109</ele>
        <time>2013-07-25T18:48:47Z</time>
      </trkpt>
      <trkpt lat="48.73274" lon="2.09112">
        <ele>109</ele>
        <time>2013-07-25T18:48:48Z</time>
      </trkpt>
      <trkpt lat="48.73274" lon="2.09112">
        <ele>109</ele>
        <time>2013-07-25T18:48:49Z</time>
      </trkpt>
      <trkpt lat="48.73274" lon="2.09112">
        <ele>109</ele>
        <time>2013-07-25T18:48:50Z</time>
      </trkpt>
      <trkpt lat="48.73275" lon="2.09113">
        <ele>109</ele>
        <time>2013-07-25T18:48:51Z</time>
      </trkpt>
      <trkpt lat="48.73275" lon="2.09113">
        <ele>109</ele>
        <time>2013-07-25T18:48:52Z</time>
      </trkpt>
      <trkpt lat="48.73275" lon="2.09113">
        <ele>109</ele>
        <time>2013-07-25T18:48:53Z</time>
      </trkpt>
      <trkpt lat="48.73275" lon="2.09113">
        <ele>109</ele>
        <time>2013-07-25T18:48:54Z</time>
      </trkpt>
      <trkpt lat="48.73275" lon="2.09113">
        <ele>109</ele>
        <time>2013-07-25T18:48:55Z</time>
      </trkpt>
      <trkpt lat="48.73275" lon="2.09113">
        <ele>109</ele>
        <time>2013-07-25T18:48:56Z</time>
      </trkpt>
      <trkpt lat="48.73275" lon="2.09114">
        <ele>109</ele>
        <time>2013-07-25T18:48:57Z</time>
      </trkpt>
      <trkpt lat="48.73275" lon="2.09114">
        <ele>109</ele>
        <time>2013-07-25T18:48:58Z</time>
      </trkpt>
      <trkpt lat="48.73275" lon="2.09114">
        <ele>109</ele>
        <time>2013-07-25T18:48:59Z</time>
      </trkpt>
      <trkpt lat="48.73275" lon="2.09114">
        <ele>109</ele>
        <time>2013-07-25T18:49:00Z</time>
      </trkpt>
      <trkpt lat="48.73275" lon="2.09114">
        <ele>109</ele>
        <time>2013-07-25T18:49:01Z</time>
      </trkpt>
      <trkpt lat="48.73275" lon="2.09115">
        <ele>109</ele>
        <time>2013-07-25T18:49:02Z</time>
      </trkpt>
      <trkpt lat="48.73276" lon="2.09114">
        <ele>109</ele>
        <time>2013-07-25T18:49:04Z</time>
      </trkpt>
      <trkpt lat="48.73276" lon="2.09114">
        <ele>109</ele>
        <time>2013-07-25T18:49:05Z</time>
      </trkpt>
      <trkpt lat="48.73277" lon="2.09114">
        <ele>109</ele>
        <time>2013-07-25T18:49:06Z</time>
      </trkpt>
      <trkpt lat="48.73277" lon="2.09114">
        <ele>109</ele>
        <time>2013-07-25T18:49:07Z</time>
      </trkpt>
      <trkpt lat="48.73277" lon="2.09114">
        <ele>109</ele>
        <time>2013-07-25T18:49:08Z</time>
      </trkpt>
      <trkpt lat="48.73277" lon="2.09114">
        <ele>109</ele>
        <time>2013-07-25T18:49:09Z</time>
      </trkpt>
      <trkpt lat="48.73277" lon="2.09114">
        <ele>109</ele>
        <time>2013-07-25T18:49:10Z</time>
      </trkpt>
      <trkpt lat="48.73278" lon="2.09114">
        <ele>109</ele>
        <time>2013-07-25T18:49:11Z</time>
      </trkpt>
      <trkpt lat="48.73278" lon="2.09114">
        <ele>109</ele>
        <time>2013-07-25T18:49:12Z</time>
      </trkpt>
      <trkpt lat="48.73278" lon="2.09114">
        <ele>109</ele>
        <time>2013-07-25T18:49:13Z</time>
      </trkpt>
      <trkpt lat="48.73278" lon="2.09114">
        <ele>109</ele>
        <time>2013-07-25T18:49:14Z</time>
      </trkpt>
      <trkpt lat="48.73278" lon="2.09114">
        <ele>109</ele>
        <time>2013-07-25T18:49:15Z</time>
      </trkpt>
      <trkpt lat="48.73278" lon="2.09114">
        <ele>109</ele>
        <time>2013-07-25T18:49:16Z</time>
      </trkpt>
      <trkpt lat="48.73279" lon="2.09114">
        <ele>109</ele>
        <time>2013-07-25T18:49:17Z</time>
      </trkpt>
      <trkpt lat="48.73279" lon="2.09114">
        <ele>109</ele>
        <time>2013-07-25T18:49:18Z</time>
      </trkpt>
      <trkpt lat="48.73279" lon="2.09114">
        <ele>109</ele>
        <time>2013-07-25T18:49:19Z</time>
      </trkpt>
      <trkpt lat="48.73279" lon="2.09114">
        <ele>109</ele>
        <time>2013-07-25T18:49:20Z</time>
      </trkpt>
      <trkpt lat="48.73279" lon="2.09114">
        <ele>109</ele>
        <time>2013-07-25T18:49:21Z</time>
      </trkpt>
      <trkpt lat="48.73279" lon="2.09114">
        <ele>109</ele>
        <time>2013-07-25T18:49:22Z</time>
      </trkpt>
      <trkpt lat="48.73279" lon="2.09114">
        <ele>109</ele>
        <time>2013-07-25T18:49:23Z</time>
      </trkpt>
      <trkpt lat="48.73279" lon="2.09114">
        <ele>109</ele>
        <time>2013-07-25T18:49:24Z</time>
      </trkpt>
      <trkpt lat="48.73279" lon="2.09114">
        <ele>109</ele>
        <time>2013-07-25T18:49:25Z</time>
      </trkpt>
      <trkpt lat="48.7328" lon="2.09114">
        <ele>109</ele>
        <time>2013-07-25T18:49:26Z</time>
      </trkpt>
      <trkpt lat="48.7328" lon="2.09114">
        <ele>109</ele>
        <time>2013-07-25T18:49:27Z</time>
      </trkpt>
      <trkpt lat="48.7328" lon="2.09114">
        <ele>109</ele>
        <time>2013-07-25T18:49:28Z</time>
      </trkpt>
      <trkpt lat="48.7328" lon="2.09114">
        <ele>109</ele>
        <time>2013-07-25T18:49:29Z</time>
      </trkpt>
      <trkpt lat="48.7328" lon="2.09114">
        <ele>109</ele>
        <time>2013-07-25T18:49:30Z</time>
      </trkpt>
      <trkpt lat="48.7328" lon="2.09114">
        <ele>109</ele>
        <time>2013-07-25T18:49:31Z</time>
      </trkpt>
      <trkpt lat="48.7328" lon="2.09114">
        <ele>109</ele>
        <time>2013-07-25T18:49:32Z</time>
      </trkpt>
      <trkpt lat="48.7328" lon="2.09114">
        <ele>109</ele>
        <time>2013-07-25T18:49:33Z</time>
      </trkpt>
      <trkpt lat="48.7328" lon="2.09114">
        <ele>109</ele>
        <time>2013-07-25T18:49:34Z</time>
      </trkpt>
      <trkpt lat="48.73281" lon="2.09114">
        <ele>109</ele>
        <time>2013-07-25T18:49:35Z</time>
      </trkpt>
      <trkpt lat="48.73281" lon="2.09114">
        <ele>109</ele>
        <time>2013-07-25T18:49:36Z</time>
      </trkpt>
      <trkpt lat="48.73281" lon="2.09114">
        <ele>109</ele>
        <time>2013-07-25T18:49:37Z</time>
      </trkpt>
      <trkpt lat="48.73281" lon="2.09114">
        <ele>109</ele>
        <time>2013-07-25T18:49:38Z</time>
      </trkpt>
      <trkpt lat="48.73281" lon="2.09114">
        <ele>109</ele>
        <time>2013-07-25T18:49:39Z</time>
      </trkpt>
      <trkpt lat="48.73281" lon="2.09114">
        <ele>109</ele>
        <time>2013-07-25T18:49:40Z</time>
      </trkpt>
      <trkpt lat="48.73281" lon="2.09114">
        <ele>109</ele>
        <time>2013-07-25T18:49:41Z</time>
      </trkpt>
      <trkpt lat="48.73281" lon="2.09115">
        <ele>109</ele>
        <time>2013-07-25T18:49:42Z</time>
      </trkpt>
      <trkpt lat="48.73281" lon="2.09115">
        <ele>109</ele>
        <time>2013-07-25T18:49:43Z</time>
      </trkpt>
      <trkpt lat="48.73281" lon="2.09115">
        <ele>109</ele>
        <time>2013-07-25T18:49:44Z</time>
      </trkpt>
      <trkpt lat="48.73281" lon="2.09115">
        <ele>109</ele>
        <time>2013-07-25T18:49:45Z</time>
      </trkpt>
      <trkpt lat="48.73281" lon="2.09115">
        <ele>109</ele>
        <time>2013-07-25T18:49:46Z</time>
      </trkpt>
      <trkpt lat="48.73282" lon="2.09115">
        <ele>109</ele>
        <time>2013-07-25T18:49:47Z</time>
      </trkpt>
      <trkpt lat="48.73282" lon="2.09115">
        <ele>109</ele>
        <time>2013-07-25T18:49:48Z</time>
      </trkpt>
      <trkpt lat="48.73282" lon="2.09115">
        <ele>109</ele>
        <time>2013-07-25T18:49:49Z</time>
      </trkpt>
      <trkpt lat="48.73282" lon="2.09115">
        <ele>109</ele>
        <time>2013-07-25T18:49:50Z</time>
      </trkpt>
      <trkpt lat="48.73282" lon="2.09115">
        <ele>109</ele>
        <time>2013-07-25T18:49:51Z</time>
      </trkpt>
      <trkpt lat="48.73282" lon="2.09115">
        <ele>109</ele>
        <time>2013-07-25T18:49:52Z</time>
      </trkpt>
      <trkpt lat="48.73282" lon="2.09115">
        <ele>109</ele>
        <time>2013-07-25T18:49:53Z</time>
      </trkpt>
      <trkpt lat="48.73282" lon="2.09115">
        <ele>109</ele>
        <time>2013-07-25T18:49:54Z</time>
      </trkpt>
      <trkpt lat="48.73282" lon="2.09115">
        <ele>109</ele>
        <time>2013-07-25T18:49:55Z</time>
      </trkpt>
      <trkpt lat="48.73282" lon="2.09115">
        <ele>109</ele>
        <time>2013-07-25T18:49:56Z</time>
      </trkpt>
      <trkpt lat="48.73282" lon="2.09115">
        <ele>109</ele>
        <time>2013-07-25T18:49:57Z</time>
      </trkpt>
      <trkpt lat="48.73282" lon="2.09115">
        <ele>109</ele>
        <time>2013-07-25T18:49:58Z</time>
      </trkpt>
      <trkpt lat="48.73282" lon="2.09115">
        <ele>109</ele>
        <time>2013-07-25T18:49:59Z</time>
      </trkpt>
      <trkpt lat="48.73282" lon="2.09115">
        <ele>109</ele>
        <time>2013-07-25T18:50:00Z</time>
      </trkpt>
      <trkpt lat="48.73282" lon="2.09114">
        <ele>109</ele>
        <time>2013-07-25T18:50:01Z</time>
      </trkpt>
      <trkpt lat="48.73282" lon="2.09114">
        <ele>109</ele>
        <time>2013-07-25T18:50:02Z</time>
      </trkpt>
      <trkpt lat="48.73282" lon="2.09114">
        <ele>109</ele>
        <time>2013-07-25T18:50:03Z</time>
      </trkpt>
      <trkpt lat="48.73282" lon="2.09114">
        <ele>109</ele>
        <time>2013-07-25T18:50:04Z</time>
      </trkpt>
      <trkpt lat="48.73281" lon="2.09113">
        <ele>109</ele>
        <time>2013-07-25T18:50:05Z</time>
      </trkpt>
      <trkpt lat="48.73281" lon="2.09113">
        <ele>109</ele>
        <time>2013-07-25T18:50:06Z</time>
      </trkpt>
      <trkpt lat="48.73281" lon="2.09113">
        <ele>109</ele>
        <time>2013-07-25T18:50:07Z</time>
      </trkpt>
      <trkpt lat="48.73281" lon="2.09112">
        <ele>109</ele>
        <time>2013-07-25T18:50:08Z</time>
      </trkpt>
      <trkpt lat="48.7328" lon="2.09112">
        <ele>109</ele>
        <time>2013-07-25T18:50:09Z</time>
      </trkpt>
      <trkpt lat="48.7328" lon="2.09112">
        <ele>109</ele>
        <time>2013-07-25T18:50:10Z</time>
      </trkpt>
      <trkpt lat="48.7328" lon="2.09112">
        <ele>109</ele>
        <time>2013-07-25T18:50:11Z</time>
      </trkpt>
      <trkpt lat="48.7328" lon="2.09111">
        <ele>109</ele>
        <time>2013-07-25T18:50:13Z</time>
      </trkpt>
      <trkpt lat="48.73279" lon="2.09111">
        <ele>109</ele>
        <time>2013-07-25T18:50:14Z</time>
      </trkpt>
      <trkpt lat="48.73279" lon="2.09111">
        <ele>109</ele>
        <time>2013-07-25T18:50:15Z</time>
      </trkpt>
      <trkpt lat="48.73279" lon="2.0911">
        <ele>109</ele>
        <time>2013-07-25T18:50:16Z</time>
      </trkpt>
      <trkpt lat="48.73279" lon="2.0911">
        <ele>109</ele>
        <time>2013-07-25T18:50:17Z</time>
      </trkpt>
      <trkpt lat="48.73279" lon="2.0911">
        <ele>109</ele>
        <time>2013-07-25T18:50:18Z</time>
      </trkpt>
      <trkpt lat="48.73279" lon="2.0911">
        <ele>109</ele>
        <time>2013-07-25T18:50:19Z</time>
      </trkpt>
      <trkpt lat="48.73278" lon="2.0911">
        <ele>109</ele>
        <time>2013-07-25T18:50:20Z</time>
      </trkpt>
      <trkpt lat="48.73278" lon="2.09109">
        <ele>109</ele>
        <time>2013-07-25T18:50:23Z</time>
      </trkpt>
      <trkpt lat="48.73278" lon="2.09109">
        <ele>109</ele>
        <time>2013-07-25T18:50:24Z</time>
      </trkpt>
      <trkpt lat="48.73278" lon="2.09109">
        <ele>109</ele>
        <time>2013-07-25T18:50:25Z</time>
      </trkpt>
      <trkpt lat="48.73278" lon="2.09109">
        <ele>109</ele>
        <time>2013-07-25T18:50:26Z</time>
      </trkpt>
      <trkpt lat="48.73277" lon="2.09109">
        <ele>109</ele>
        <time>2013-07-25T18:50:27Z</time>
      </trkpt>
      <trkpt lat="48.73277" lon="2.09108">
        <ele>109</ele>
        <time>2013-07-25T18:50:28Z</time>
      </trkpt>
      <trkpt lat="48.73277" lon="2.09108">
        <ele>109</ele>
        <time>2013-07-25T18:50:29Z</time>
      </trkpt>
      <trkpt lat="48.73277" lon="2.09108">
        <ele>109</ele>
        <time>2013-07-25T18:50:30Z</time>
      </trkpt>
      <trkpt lat="48.73277" lon="2.09108">
        <ele>109</ele>
        <time>2013-07-25T18:50:31Z</time>
      </trkpt>
      <trkpt lat="48.73277" lon="2.09108">
        <ele>109</ele>
        <time>2013-07-25T18:50:32Z</time>
      </trkpt>
      <trkpt lat="48.73277" lon="2.09108">
        <ele>109</ele>
        <time>2013-07-25T18:50:33Z</time>
      </trkpt>
      <trkpt lat="48.73277" lon="2.09108">
        <ele>109</ele>
        <time>2013-07-25T18:50:34Z</time>
      </trkpt>
      <trkpt lat="48.73277" lon="2.09108">
        <ele>109</ele>
        <time>2013-07-25T18:50:35Z</time>
      </trkpt>
      <trkpt lat="48.73276" lon="2.09107">
        <ele>109</ele>
        <time>2013-07-25T18:50:36Z</time>
      </trkpt>
      <trkpt lat="48.73276" lon="2.09107">
        <ele>109</ele>
        <time>2013-07-25T18:50:37Z</time>
      </trkpt>
      <trkpt lat="48.73276" lon="2.09107">
        <ele>109</ele>
        <time>2013-07-25T18:50:38Z</time>
      </trkpt>
      <trkpt lat="48.73276" lon="2.09107">
        <ele>109</ele>
        <time>2013-07-25T18:50:39Z</time>
      </trkpt>
      <trkpt lat="48.73276" lon="2.09107">
        <ele>109</ele>
        <time>2013-07-25T18:50:40Z</time>
      </trkpt>
      <trkpt lat="48.73276" lon="2.09107">
        <ele>109</ele>
        <time>2013-07-25T18:50:41Z</time>
      </trkpt>
      <trkpt lat="48.73276" lon="2.09107">
        <ele>109</ele>
        <time>2013-07-25T18:50:42Z</time>
      </trkpt>
      <trkpt lat="48.73276" lon="2.09107">
        <ele>109</ele>
        <time>2013-07-25T18:50:43Z</time>
      </trkpt>
      <trkpt lat="48.73276" lon="2.09107">
        <ele>109</ele>
        <time>2013-07-25T18:50:44Z</time>
      </trkpt>
      <trkpt lat="48.73276" lon="2.09107">
        <ele>109</ele>
        <time>2013-07-25T18:50:45Z</time>
      </trkpt>
      <trkpt lat="48.73276" lon="2.09107">
        <ele>109</ele>
        <time>2013-07-25T18:50:46Z</time>
      </trkpt>
      <trkpt lat="48.73276" lon="2.09107">
        <ele>109</ele>
        <time>2013-07-25T18:50:47Z</time>
      </trkpt>
      <trkpt lat="48.73276" lon="2.09107">
        <ele>109</ele>
        <time>2013-07-25T18:50:48Z</time>
      </trkpt>
      <trkpt lat="48.73276" lon="2.09107">
        <ele>109</ele>
        <time>2013-07-25T18:50:49Z</time>
      </trkpt>
      <trkpt lat="48.73275" lon="2.09107">
        <ele>109</ele>
        <time>2013-07-25T18:50:50Z</time>
      </trkpt>
      <trkpt lat="48.73275" lon="2.09107">
        <ele>109</ele>
        <time>2013-07-25T18:50:51Z</time>
      </trkpt>
      <trkpt lat="48.73275" lon="2.09107">
        <ele>109</ele>
        <time>2013-07-25T18:50:52Z</time>
      </trkpt>
      <trkpt lat="48.73275" lon="2.09107">
        <ele>109</ele>
        <time>2013-07-25T18:50:53Z</time>
      </trkpt>
      <trkpt lat="48.73275" lon="2.09107">
        <ele>109</ele>
        <time>2013-07-25T18:50:54Z</time>
      </trkpt>
      <trkpt lat="48.73275" lon="2.09107">
        <ele>109</ele>
        <time>2013-07-25T18:50:55Z</time>
      </trkpt>
      <trkpt lat="48.73275" lon="2.09107">
        <ele>109</ele>
        <time>2013-07-25T18:50:56Z</time>
      </trkpt>
      <trkpt lat="48.73275" lon="2.09107">
        <ele>109</ele>
        <time>2013-07-25T18:50:57Z</time>
      </trkpt>
      <trkpt lat="48.73275" lon="2.09107">
        <ele>109</ele>
        <time>2013-07-25T18:50:58Z</time>
      </trkpt>
      <trkpt lat="48.73275" lon="2.09107">
        <ele>109</ele>
        <time>2013-07-25T18:50:59Z</time>
      </trkpt>
      <trkpt lat="48.73275" lon="2.09107">
        <ele>109</ele>
        <time>2013-07-25T18:51:00Z</time>
      </trkpt>
      <trkpt lat="48.73275" lon="2.09107">
        <ele>109</ele>
        <time>2013-07-25T18:51:01Z</time>
      </trkpt>
      <trkpt lat="48.73275" lon="2.09107">
        <ele>109</ele>
        <time>2013-07-25T18:51:02Z</time>
      </trkpt>
      <trkpt lat="48.73275" lon="2.09107">
        <ele>109</ele>
        <time>2013-07-25T18:51:03Z</time>
      </trkpt>
      <trkpt lat="48.73275" lon="2.09107">
        <ele>109</ele>
        <time>2013-07-25T18:51:04Z</time>
      </trkpt>
      <trkpt lat="48.73275" lon="2.09107">
        <ele>109</ele>
        <time>2013-07-25T18:51:05Z</time>
      </trkpt>
      <trkpt lat="48.73275" lon="2.09107">
        <ele>109</ele>
        <time>2013-07-25T18:51:06Z</time>
      </trkpt>
      <trkpt lat="48.73275" lon="2.09107">
        <ele>109</ele>
        <time>2013-07-25T18:51:07Z</time>
      </trkpt>
      <trkpt lat="48.73275" lon="2.09107">
        <ele>109</ele>
        <time>2013-07-25T18:51:08Z</time>
      </trkpt>
      <trkpt lat="48.73275" lon="2.09107">
        <ele>109</ele>
        <time>2013-07-25T18:51:09Z</time>
      </trkpt>
      <trkpt lat="48.73275" lon="2.09107">
        <ele>109</ele>
        <time>2013-07-25T18:51:10Z</time>
      </trkpt>
      <trkpt lat="48.73275" lon="2.09107">
        <ele>109</ele>
        <time>2013-07-25T18:51:11Z</time>
      </trkpt>
      <trkpt lat="48.73276" lon="2.09108">
        <ele>109</ele>
        <time>2013-07-25T18:51:12Z</time>
      </trkpt>
      <trkpt lat="48.73276" lon="2.09108">
        <ele>109</ele>
        <time>2013-07-25T18:51:13Z</time>
      </trkpt>
      <trkpt lat="48.73276" lon="2.09108">
        <ele>109</ele>
        <time>2013-07-25T18:51:14Z</time>
      </trkpt>
      <trkpt lat="48.73276" lon="2.09108">
        <ele>109</ele>
        <time>2013-07-25T18:51:15Z</time>
      </trkpt>
      <trkpt lat="48.73276" lon="2.09108">
        <ele>109</ele>
        <time>2013-07-25T18:51:16Z</time>
      </trkpt>
      <trkpt lat="48.73276" lon="2.09108">
        <ele>109</ele>
        <time>2013-07-25T18:51:17Z</time>
      </trkpt>
      <trkpt lat="48.73276" lon="2.09108">
        <ele>109</ele>
        <time>2013-07-25T18:51:18Z</time>
      </trkpt>
      <trkpt lat="48.73276" lon="2.09109">
        <ele>109</ele>
        <time>2013-07-25T18:51:19Z</time>
      </trkpt>
      <trkpt lat="48.73276" lon="2.09109">
        <ele>109</ele>
        <time>2013-07-25T18:51:20Z</time>
      </trkpt>
      <trkpt lat="48.73276" lon="2.09109">
        <ele>109</ele>
        <time>2013-07-25T18:51:21Z</time>
      </trkpt>
      <trkpt lat="48.73277" lon="2.09109">
        <ele>109</ele>
        <time>2013-07-25T18:51:22Z</time>
      </trkpt>
      <trkpt lat="48.73277" lon="2.09109">
        <ele>109</ele>
        <time>2013-07-25T18:51:23Z</time>
      </trkpt>
      <trkpt lat="48.73277" lon="2.09109">
        <ele>109</ele>
        <time>2013-07-25T18:51:24Z</time>
      </trkpt>
      <trkpt lat="48.73277" lon="2.09109">
        <ele>109</ele>
        <time>2013-07-25T18:51:25Z</time>
      </trkpt>
      <trkpt lat="48.73277" lon="2.09109">
        <ele>109</ele>
        <time>2013-07-25T18:51:26Z</time>
      </trkpt>
      <trkpt lat="48.73277" lon="2.09109">
        <ele>109</ele>
        <time>2013-07-25T18:51:27Z</time>
      </trkpt>
      <trkpt lat="48.73277" lon="2.09109">
        <ele>109</ele>
        <time>2013-07-25T18:51:28Z</time>
      </trkpt>
      <trkpt lat="48.73277" lon="2.0911">
        <ele>109</ele>
        <time>2013-07-25T18:51:29Z</time>
      </trkpt>
      <trkpt lat="48.73277" lon="2.0911">
        <ele>109</ele>
        <time>2013-07-25T18:51:30Z</time>
      </trkpt>
      <trkpt lat="48.73277" lon="2.0911">
        <ele>109</ele>
        <time>2013-07-25T18:51:31Z</time>
      </trkpt>
      <trkpt lat="48.73277" lon="2.0911">
        <ele>109</ele>
        <time>2013-07-25T18:51:32Z</time>
      </trkpt>
      <trkpt lat="48.73277" lon="2.0911">
        <ele>109</ele>
        <time>2013-07-25T18:51:33Z</time>
      </trkpt>
      <trkpt lat="48.73277" lon="2.0911">
        <ele>109</ele>
        <time>2013-07-25T18:51:34Z</time>
      </trkpt>
      <trkpt lat="48.73277" lon="2.0911">
        <ele>109</ele>
        <time>2013-07-25T18:51:35Z</time>
      </trkpt>
      <trkpt lat="48.73278" lon="2.0911">
        <ele>109</ele>
        <time>2013-07-25T18:51:36Z</time>
      </trkpt>
      <trkpt lat="48.73278" lon="2.0911">
        <ele>109</ele>
        <time>2013-07-25T18:51:37Z</time>
      </trkpt>
      <trkpt lat="48.73278" lon="2.0911">
        <ele>109</ele>
        <time>2013-07-25T18:51:38Z</time>
      </trkpt>
      <trkpt lat="48.73278" lon="2.09111">
        <ele>109</ele>
        <time>2013-07-25T18:51:39Z</time>
      </trkpt>
      <trkpt lat="48.73278" lon="2.09111">
        <ele>109</ele>
        <time>2013-07-25T18:51:40Z</time>
      </trkpt>
      <trkpt lat="48.73278" lon="2.09111">
        <ele>109</ele>
        <time>2013-07-25T18:51:41Z</time>
      </trkpt>
      <trkpt lat="48.73278" lon="2.09111">
        <ele>109</ele>
        <time>2013-07-25T18:51:42Z</time>
      </trkpt>
      <trkpt lat="48.73278" lon="2.09111">
        <ele>109</ele>
        <time>2013-07-25T18:51:43Z</time>
      </trkpt>
      <trkpt lat="48.73278" lon="2.09111">
        <ele>109</ele>
        <time>2013-07-25T18:51:44Z</time>
      </trkpt>
      <trkpt lat="48.73278" lon="2.09111">
        <ele>109</ele>
        <time>2013-07-25T18:51:45Z</time>
      </trkpt>
      <trkpt lat="48.73278" lon="2.09111">
        <ele>109</ele>
        <time>2013-07-25T18:51:46Z</time>
      </trkpt>
      <trkpt lat="48.73278" lon="2.09111">
        <ele>109</ele>
        <time>2013-07-25T18:51:47Z</time>
      </trkpt>
      <trkpt lat="48.73278" lon="2.09111">
        <ele>109</ele>
        <time>2013-07-25T18:51:48Z</time>
      </trkpt>
      <trkpt lat="48.73278" lon="2.09111">
        <ele>109</ele>
        <time>2013-07-25T18:51:49Z</time>
      </trkpt>
      <trkpt lat="48.73278" lon="2.09111">
        <ele>109</ele>
        <time>2013-07-25T18:51:50Z</time>
      </trkpt>
      <trkpt lat="48.73278" lon="2.09111">
        <ele>109</ele>
        <time>2013-07-25T18:51:51Z</time>
      </trkpt>
      <trkpt lat="48.73278" lon="2.09111">
        <ele>109</ele>
        <time>2013-07-25T18:51:52Z</time>
      </trkpt>
      <trkpt lat="48.73278" lon="2.09111">
        <ele>109</ele>
        <time>2013-07-25T18:51:53Z</time>
      </trkpt>
      <trkpt lat="48.73278" lon="2.09112">
        <ele>109</ele>
        <time>2013-07-25T18:51:54Z</time>
      </trkpt>
      <trkpt lat="48.73278" lon="2.09112">
        <ele>109</ele>
        <time>2013-07-25T18:51:55Z</time>
      </trkpt>
      <trkpt lat="48.73279" lon="2.09112">
        <ele>109</ele>
        <time>2013-07-25T18:51:56Z</time>
      </trkpt>
      <trkpt lat="48.73279" lon="2.09112">
        <ele>109</ele>
        <time>2013-07-25T18:51:57Z</time>
      </trkpt>
      <trkpt lat="48.73279" lon="2.09112">
        <ele>109</ele>
        <time>2013-07-25T18:51:58Z</time>
      </trkpt>
      <trkpt lat="48.73279" lon="2.09112">
        <ele>109</ele>
        <time>2013-07-25T18:51:59Z</time>
      </trkpt>
      <trkpt lat="48.73279" lon="2.09112">
        <ele>109</ele>
        <time>2013-07-25T18:52:00Z</time>
      </trkpt>
      <trkpt lat="48.73279" lon="2.09112">
        <ele>109</ele>
        <time>2013-07-25T18:52:01Z</time>
      </trkpt>
      <trkpt lat="48.73279" lon="2.09112">
        <ele>109</ele>
        <time>2013-07-25T18:52:02Z</time>
      </trkpt>
      <trkpt lat="48.73279" lon="2.09112">
        <ele>109</ele>
        <time>2013-07-25T18:52:03Z</time>
      </trkpt>
      <trkpt lat="48.73279" lon="2.09112">
        <ele>109</ele>
        <time>2013-07-25T18:52:04Z</time>
      </trkpt>
      <trkpt lat="48.73279" lon="2.09112">
        <ele>109</ele>
        <time>2013-07-25T18:52:05Z</time>
      </trkpt>
      <trkpt lat="48.73279" lon="2.09113">
        <ele>109</ele>
        <time>2013-07-25T18:52:06Z</time>
      </trkpt>
      <trkpt lat="48.7328" lon="2.09113">
        <ele>109</ele>
        <time>2013-07-25T18:52:07Z</time>
      </trkpt>
      <trkpt lat="48.7328" lon="2.09113">
        <ele>109</ele>
        <time>2013-07-25T18:52:08Z</time>
      </trkpt>
      <trkpt lat="48.7328" lon="2.09113">
        <ele>109</ele>
        <time>2013-07-25T18:52:09Z</time>
      </trkpt>
      <trkpt lat="48.7328" lon="2.09113">
        <ele>109</ele>
        <time>2013-07-25T18:52:10Z</time>
      </trkpt>
      <trkpt lat="48.7328" lon="2.09113">
        <ele>109</ele>
        <time>2013-07-25T18:52:11Z</time>
      </trkpt>
      <trkpt lat="48.7328" lon="2.09113">
        <ele>109</ele>
        <time>2013-07-25T18:52:12Z</time>
      </trkpt>
      <trkpt lat="48.7328" lon="2.09113">
        <ele>109</ele>
        <time>2013-07-25T18:52:13Z</time>
      </trkpt>
      <trkpt lat="48.7328" lon="2.09113">
        <ele>109</ele>
        <time>2013-07-25T18:52:14Z</time>
      </trkpt>
      <trkpt lat="48.7328" lon="2.09113">
        <ele>109</ele>
        <time>2013-07-25T18:52:15Z</time>
      </trkpt>
      <trkpt lat="48.7328" lon="2.09113">
        <ele>109</ele>
        <time>2013-07-25T18:52:16Z</time>
      </trkpt>
      <trkpt lat="48.7328" lon="2.09113">
        <ele>109</ele>
        <time>2013-07-25T18:52:17Z</time>
      </trkpt>
      <trkpt lat="48.7328" lon="2.09113">
        <ele>109</ele>
        <time>2013-07-25T18:52:18Z</time>
      </trkpt>
      <trkpt lat="48.7328" lon="2.09113">
        <ele>109</ele>
        <time>2013-07-25T18:52:19Z</time>
      </trkpt>
      <trkpt lat="48.7328" lon="2.09113">
        <ele>109</ele>
        <time>2013-07-25T18:52:20Z</time>
      </trkpt>
      <trkpt lat="48.7328" lon="2.09113">
        <ele>109</ele>
        <time>2013-07-25T18:52:21Z</time>
      </trkpt>
      <trkpt lat="48.7328" lon="2.09113">
        <ele>109</ele>
        <time>2013-07-25T18:52:22Z</time>
      </trkpt>
      <trkpt lat="48.7328" lon="2.09113">
        <ele>109</ele>
        <time>2013-07-25T18:52:23Z</time>
      </trkpt>
      <trkpt lat="48.73281" lon="2.09113">
        <ele>109</ele>
        <time>2013-07-25T18:52:24Z</time>
      </trkpt>
      <trkpt lat="48.73281" lon="2.09113">
        <ele>109</ele>
        <time>2013-07-25T18:52:25Z</time>
      </trkpt>
      <trkpt lat="48.73281" lon="2.09113">
        <ele>109</ele>
        <time>2013-07-25T18:52:26Z</time>
      </trkpt>
      <trkpt lat="48.73281" lon="2.09113">
        <ele>109</ele>
        <time>2013-07-25T18:52:27Z</time>
      </trkpt>
      <trkpt lat="48.73281" lon="2.09113">
        <ele>109</ele>
        <time>2013-07-25T18:52:28Z</time>
      </trkpt>
      <trkpt lat="48.73281" lon="2.09113">
        <ele>109</ele>
        <time>2013-07-25T18:52:29Z</time>
      </trkpt>
      <trkpt lat="48.73281" lon="2.09113">
        <ele>109</ele>
        <time>2013-07-25T18:52:30Z</time>
      </trkpt>
      <trkpt lat="48.73281" lon="2.09113">
        <ele>109</ele>
        <time>2013-07-25T18:52:31Z</time>
      </trkpt>
      <trkpt lat="48.73281" lon="2.09113">
        <ele>109</ele>
        <time>2013-07-25T18:52:32Z</time>
      </trkpt>
      <trkpt lat="48.73281" lon="2.09113">
        <ele>109</ele>
        <time>2013-07-25T18:52:33Z</time>
      </trkpt>
      <trkpt lat="48.73281" lon="2.09113">
        <ele>109</ele>
        <time>2013-07-25T18:52:34Z</time>
      </trkpt>
      <trkpt lat="48.73281" lon="2.09113">
        <ele>109</ele>
        <time>2013-07-25T18:52:35Z</time>
      </trkpt>
      <trkpt lat="48.73281" lon="2.09113">
        <ele>109</ele>
        <time>2013-07-25T18:52:36Z</time>
      </trkpt>
      <trkpt lat="48.73281" lon="2.09113">
        <ele>109</ele>
        <time>2013-07-25T18:52:37Z</time>
      </trkpt>
      <trkpt lat="48.73281" lon="2.09113">
        <ele>109</ele>
        <time>2013-07-25T18:52:38Z</time>
      </trkpt>
      <trkpt lat="48.73281" lon="2.09113">
        <ele>109</ele>
        <time>2013-07-25T18:52:39Z</time>
      </trkpt>
      <trkpt lat="48.73281" lon="2.09113">
        <ele>109</ele>
        <time>2013-07-25T18:52:40Z</time>
      </trkpt>
      <trkpt lat="48.73281" lon="2.09113">
        <ele>109</ele>
        <time>2013-07-25T18:52:41Z</time>
      </trkpt>
      <trkpt lat="48.73281" lon="2.09113">
        <ele>109</ele>
        <time>2013-07-25T18:52:42Z</time>
      </trkpt>
      <trkpt lat="48.73281" lon="2.09113">
        <ele>109</ele>
        <time>2013-07-25T18:52:43Z</time>
      </trkpt>
      <trkpt lat="48.73281" lon="2.09113">
        <ele>109</ele>
        <time>2013-07-25T18:52:44Z</time>
      </trkpt>
      <trkpt lat="48.73281" lon="2.09113">
        <ele>109</ele>
        <time>2013-07-25T18:52:45Z</time>
      </trkpt>
      <trkpt lat="48.73281" lon="2.09113">
        <ele>109</ele>
        <time>2013-07-25T18:52:46Z</time>
      </trkpt>
      <trkpt lat="48.73281" lon="2.09113">
        <ele>109</ele>
        <time>2013-07-25T18:52:47Z</time>
      </trkpt>
      <trkpt lat="48.73281" lon="2.09113">
        <ele>109</ele>
        <time>2013-07-25T18:52:48Z</time>
      </trkpt>
      <trkpt lat="48.73281" lon="2.09113">
        <ele>109</ele>
        <time>2013-07-25T18:52:49Z</time>
      </trkpt>
      <trkpt lat="48.73281" lon="2.09113">
        <ele>109</ele>
        <time>2013-07-25T18:52:50Z</time>
      </trkpt>
      <trkpt lat="48.73281" lon="2.09113">
        <ele>109</ele>
        <time>2013-07-25T18:52:51Z</time>
      </trkpt>
      <trkpt lat="48.73281" lon="2.09113">
        <ele>109</ele>
        <time>2013-07-25T18:52:52Z</time>
      </trkpt>
      <trkpt lat="48.73281" lon="2.09113">
        <ele>109</ele>
        <time>2013-07-25T18:52:53Z</time>
      </trkpt>
      <trkpt lat="48.73281" lon="2.09113">
        <ele>109</ele>
        <time>2013-07-25T18:52:54Z</time>
      </trkpt>
      <trkpt lat="48.73281" lon="2.09113">
        <ele>109</ele>
        <time>2013-07-25T18:52:55Z</time>
      </trkpt>
      <trkpt lat="48.73281" lon="2.09113">
        <ele>109</ele>
        <time>2013-07-25T18:52:56Z</time>
      </trkpt>
      <trkpt lat="48.73281" lon="2.09113">
        <ele>109</ele>
        <time>2013-07-25T18:52:57Z</time>
      </trkpt>
      <trkpt lat="48.73281" lon="2.09112">
        <ele>109</ele>
        <time>2013-07-25T18:52:58Z</time>
      </trkpt>
      <trkpt lat="48.73281" lon="2.09112">
        <ele>109</ele>
        <time>2013-07-25T18:52:59Z</time>
      </trkpt>
      <trkpt lat="48.73281" lon="2.09112">
        <ele>109</ele>
        <time>2013-07-25T18:53:00Z</time>
      </trkpt>
      <trkpt lat="48.73281" lon="2.09112">
        <ele>109</ele>
        <time>2013-07-25T18:53:01Z</time>
      </trkpt>
      <trkpt lat="48.73281" lon="2.09112">
        <ele>109</ele>
        <time>2013-07-25T18:53:02Z</time>
      </trkpt>
      <trkpt lat="48.73281" lon="2.09112">
        <ele>109</ele>
        <time>2013-07-25T18:53:03Z</time>
      </trkpt>
      <trkpt lat="48.73281" lon="2.09112">
        <ele>109</ele>
        <time>2013-07-25T18:53:04Z</time>
      </trkpt>
      <trkpt lat="48.73281" lon="2.09112">
        <ele>109</ele>
        <time>2013-07-25T18:53:05Z</time>
      </trkpt>
      <trkpt lat="48.73281" lon="2.09112">
        <ele>109</ele>
        <time>2013-07-25T18:53:06Z</time>
      </trkpt>
      <trkpt lat="48.73281" lon="2.09112">
        <ele>109</ele>
        <time>2013-07-25T18:53:07Z</time>
      </trkpt>
      <trkpt lat="48.73281" lon="2.09112">
        <ele>109</ele>
        <time>2013-07-25T18:53:08Z</time>
      </trkpt>
      <trkpt lat="48.73281" lon="2.09112">
        <ele>109</ele>
        <time>2013-07-25T18:53:09Z</time>
      </trkpt>
      <trkpt lat="48.73281" lon="2.09112">
        <ele>109</ele>
        <time>2013-07-25T18:53:10Z</time>
      </trkpt>
      <trkpt lat="48.73281" lon="2.09112">
        <ele>109</ele>
        <time>2013-07-25T18:53:11Z</time>
      </trkpt>
      <trkpt lat="48.73281" lon="2.09112">
        <ele>109</ele>
        <time>2013-07-25T18:53:12Z</time>
      </trkpt>
      <trkpt lat="48.73281" lon="2.09112">
        <ele>109</ele>
        <time>2013-07-25T18:53:13Z</time>
      </trkpt>
      <trkpt lat="48.73281" lon="2.09112">
        <ele>109</ele>
        <time>2013-07-25T18:53:14Z</time>
      </trkpt>
      <trkpt lat="48.73281" lon="2.09112">
        <ele>109</ele>
        <time>2013-07-25T18:53:15Z</time>
      </trkpt>
      <trkpt lat="48.73281" lon="2.09112">
        <ele>109</ele>
        <time>2013-07-25T18:53:16Z</time>
      </trkpt>
      <trkpt lat="48.73281" lon="2.09112">
        <ele>109</ele>
        <time>2013-07-25T18:53:17Z</time>
      </trkpt>
      <trkpt lat="48.73281" lon="2.09112">
        <ele>109</ele>
        <time>2013-07-25T18:53:18Z</time>
      </trkpt>
      <trkpt lat="48.73281" lon="2.09112">
        <ele>109</ele>
        <time>2013-07-25T18:53:19Z</time>
      </trkpt>
      <trkpt lat="48.73282" lon="2.09112">
        <ele>109</ele>
        <time>2013-07-25T18:53:20Z</time>
      </trkpt>
      <trkpt lat="48.73282" lon="2.09113">
        <ele>109</ele>
        <time>2013-07-25T18:53:22Z</time>
      </trkpt>
      <trkpt lat="48.73282" lon="2.09113">
        <ele>109</ele>
        <time>2013-07-25T18:53:23Z</time>
      </trkpt>
      <trkpt lat="48.73282" lon="2.09113">
        <ele>109</ele>
        <time>2013-07-25T18:53:24Z</time>
      </trkpt>
      <trkpt lat="48.73282" lon="2.09113">
        <ele>109</ele>
        <time>2013-07-25T18:53:25Z</time>
      </trkpt>
      <trkpt lat="48.73282" lon="2.09113">
        <ele>109</ele>
        <time>2013-07-25T18:53:26Z</time>
      </trkpt>
      <trkpt lat="48.73282" lon="2.09113">
        <ele>109</ele>
        <time>2013-07-25T18:53:27Z</time>
      </trkpt>
      <trkpt lat="48.73282" lon="2.09113">
        <ele>109</ele>
        <time>2013-07-25T18:53:28Z</time>
      </trkpt>
      <trkpt lat="48.73282" lon="2.09113">
        <ele>109</ele>
        <time>2013-07-25T18:53:29Z</time>
      </trkpt>
      <trkpt lat="48.73282" lon="2.09113">
        <ele>109</ele>
        <time>2013-07-25T18:53:30Z</time>
      </trkpt>
      <trkpt lat="48.73282" lon="2.09114">
        <ele>109</ele>
        <time>2013-07-25T18:53:31Z</time>
      </trkpt>
      <trkpt lat="48.73282" lon="2.09114">
        <ele>109</ele>
        <time>2013-07-25T18:53:32Z</time>
      </trkpt>
      <trkpt lat="48.73282" lon="2.09114">
        <ele>109</ele>
        <time>2013-07-25T18:53:33Z</time>
      </trkpt>
      <trkpt lat="48.73282" lon="2.09114">
        <ele>109</ele>
        <time>2013-07-25T18:53:34Z</time>
      </trkpt>
      <trkpt lat="48.73282" lon="2.09114">
        <ele>109</ele>
        <time>2013-07-25T18:53:35Z</time>
      </trkpt>
      <trkpt lat="48.73283" lon="2.09114">
        <ele>109</ele>
        <time>2013-07-25T18:53:36Z</time>
      </trkpt>
      <trkpt lat="48.73283" lon="2.09114">
        <ele>109</ele>
        <time>2013-07-25T18:53:37Z</time>
      </trkpt>
      <trkpt lat="48.73283" lon="2.09114">
        <ele>109</ele>
        <time>2013-07-25T18:53:38Z</time>
      </trkpt>
      <trkpt lat="48.73283" lon="2.09114">
        <ele>109</ele>
        <time>2013-07-25T18:53:39Z</time>
      </trkpt>
      <trkpt lat="48.73283" lon="2.09114">
        <ele>109</ele>
        <time>2013-07-25T18:53:40Z</time>
      </trkpt>
      <trkpt lat="48.73283" lon="2.09114">
        <ele>109</ele>
        <time>2013-07-25T18:53:41Z</time>
      </trkpt>
      <trkpt lat="48.73283" lon="2.09114">
        <ele>109</ele>
        <time>2013-07-25T18:53:42Z</time>
      </trkpt>
      <trkpt lat="48.73283" lon="2.09114">
        <ele>109</ele>
        <time>2013-07-25T18:53:43Z</time>
      </trkpt>
      <trkpt lat="48.73283" lon="2.09114">
        <ele>109</ele>
        <time>2013-07-25T18:53:44Z</time>
      </trkpt>
      <trkpt lat="48.73282" lon="2.09114">
        <ele>109</ele>
        <time>2013-07-25T18:53:45Z</time>
      </trkpt>
      <trkpt lat="48.73282" lon="2.09113">
        <ele>109</ele>
        <time>2013-07-25T18:53:47Z</time>
      </trkpt>
      <trkpt lat="48.73282" lon="2.09113">
        <ele>109</ele>
        <time>2013-07-25T18:53:48Z</time>
      </trkpt>
      <trkpt lat="48.73282" lon="2.09113">
        <ele>109</ele>
        <time>2013-07-25T18:53:49Z</time>
      </trkpt>
      <trkpt lat="48.73282" lon="2.09114">
        <ele>109</ele>
        <time>2013-07-25T18:53:50Z</time>
      </trkpt>
      <trkpt lat="48.73282" lon="2.09114">
        <ele>109</ele>
        <time>2013-07-25T18:53:51Z</time>
      </trkpt>
      <trkpt lat="48.73282" lon="2.09113">
        <ele>109</ele>
        <time>2013-07-25T18:53:52Z</time>
      </trkpt>
      <trkpt lat="48.73282" lon="2.09113">
        <ele>109</ele>
        <time>2013-07-25T18:53:53Z</time>
      </trkpt>
      <trkpt lat="48.73282" lon="2.09113">
        <ele>109</ele>
        <time>2013-07-25T18:53:54Z</time>
      </trkpt>
      <trkpt lat="48.73282" lon="2.09113">
        <ele>109</ele>
        <time>2013-07-25T18:53:55Z</time>
      </trkpt>
      <trkpt lat="48.73282" lon="2.09113">
        <ele>109</ele>
        <time>2013-07-25T18:53:56Z</time>
      </trkpt>
      <trkpt lat="48.73282" lon="2.09114">
        <ele>109</ele>
        <time>2013-07-25T18:53:57Z</time>
      </trkpt>
      <trkpt lat="48.73282" lon="2.09114">
        <ele>109</ele>
        <time>2013-07-25T18:53:58Z</time>
      </trkpt>
      <trkpt lat="48.73282" lon="2.09113">
        <ele>109</ele>
        <time>2013-07-25T18:53:59Z</time>
      </trkpt>
      <trkpt lat="48.73282" lon="2.09113">
        <ele>109</ele>
        <time>2013-07-25T18:54:00Z</time>
      </trkpt>
      <trkpt lat="48.73282" lon="2.09113">
        <ele>109</ele>
        <time>2013-07-25T18:54:01Z</time>
      </trkpt>
      <trkpt lat="48.73282" lon="2.09113">
        <ele>109</ele>
        <time>2013-07-25T18:54:02Z</time>
      </trkpt>
      <trkpt lat="48.73282" lon="2.09113">
        <ele>109</ele>
        <time>2013-07-25T18:54:03Z</time>
      </trkpt>
      <trkpt lat="48.73282" lon="2.09113">
        <ele>109</ele>
        <time>2013-07-25T18:54:04Z</time>
      </trkpt>
      <trkpt lat="48.73282" lon="2.09113">
        <ele>109</ele>
        <time>2013-07-25T18:54:05Z</time>
      </trkpt>
      <trkpt lat="48.73282" lon="2.09113">
        <ele>109</ele>
        <time>2013-07-25T18:54:06Z</time>
      </trkpt>
      <trkpt lat="48.73282" lon="2.09114">
        <ele>109</ele>
        <time>2013-07-25T18:54:07Z</time>
      </trkpt>
      <trkpt lat="48.73282" lon="2.09114">
        <ele>109</ele>
        <time>2013-07-25T18:54:08Z</time>
      </trkpt>
      <trkpt lat="48.73282" lon="2.09114">
        <ele>109</ele>
        <time>2013-07-25T18:54:09Z</time>
      </trkpt>
      <trkpt lat="48.73282" lon="2.09114">
        <ele>109</ele>
        <time>2013-07-25T18:54:10Z</time>
      </trkpt>
      <trkpt lat="48.73282" lon="2.09114">
        <ele>109</ele>
        <time>2013-07-25T18:54:11Z</time>
      </trkpt>
      <trkpt lat="48.73282" lon="2.09114">
        <ele>109</ele>
        <time>2013-07-25T18:54:12Z</time>
      </trkpt>
      <trkpt lat="48.73282" lon="2.09114">
        <ele>109</ele>
        <time>2013-07-25T18:54:13Z</time>
      </trkpt>
      <trkpt lat="48.73282" lon="2.09114">
        <ele>109</ele>
        <time>2013-07-25T18:54:14Z</time>
      </trkpt>
      <trkpt lat="48.73282" lon="2.09114">
        <ele>109</ele>
        <time>2013-07-25T18:54:15Z</time>
      </trkpt>
      <trkpt lat="48.73282" lon="2.09114">
        <ele>109</ele>
        <time>2013-07-25T18:54:16Z</time>
      </trkpt>
      <trkpt lat="48.73282" lon="2.09114">
        <ele>109</ele>
        <time>2013-07-25T18:54:17Z</time>
      </trkpt>
      <trkpt lat="48.73282" lon="2.09114">
        <ele>109</ele>
        <time>2013-07-25T18:54:18Z</time>
      </trkpt>
      <trkpt lat="48.73282" lon="2.09115">
        <ele>109</ele>
        <time>2013-07-25T18:54:19Z</time>
      </trkpt>
      <trkpt lat="48.73282" lon="2.09115">
        <ele>109</ele>
        <time>2013-07-25T18:54:20Z</time>
      </trkpt>
      <trkpt lat="48.73282" lon="2.09115">
        <ele>109</ele>
        <time>2013-07-25T18:54:21Z</time>
      </trkpt>
      <trkpt lat="48.73282" lon="2.09115">
        <ele>109</ele>
        <time>2013-07-25T18:54:22Z</time>
      </trkpt>
      <trkpt lat="48.73282" lon="2.09114">
        <ele>109</ele>
        <time>2013-07-25T18:54:23Z</time>
      </trkpt>
      <trkpt lat="48.73281" lon="2.09114">
        <ele>109</ele>
        <time>2013-07-25T18:54:24Z</time>
      </trkpt>
      <trkpt lat="48.73281" lon="2.09114">
        <ele>109</ele>
        <time>2013-07-25T18:54:25Z</time>
      </trkpt>
      <trkpt lat="48.73281" lon="2.09114">
        <ele>109</ele>
        <time>2013-07-25T18:54:26Z</time>
      </trkpt>
      <trkpt lat="48.73281" lon="2.09114">
        <ele>109</ele>
        <time>2013-07-25T18:54:27Z</time>
      </trkpt>
      <trkpt lat="48.73281" lon="2.09114">
        <ele>109</ele>
        <time>2013-07-25T18:54:28Z</time>
      </trkpt>
      <trkpt lat="48.73281" lon="2.09114">
        <ele>109</ele>
        <time>2013-07-25T18:54:29Z</time>
      </trkpt>
      <trkpt lat="48.7328" lon="2.09113">
        <ele>109</ele>
        <time>2013-07-25T18:54:30Z</time>
      </trkpt>
      <trkpt lat="48.7328" lon="2.09113">
        <ele>109</ele>
        <time>2013-07-25T18:54:31Z</time>
      </trkpt>
      <trkpt lat="48.7328" lon="2.09113">
        <ele>109</ele>
        <time>2013-07-25T18:54:32Z</time>
      </trkpt>
      <trkpt lat="48.7328" lon="2.09113">
        <ele>109</ele>
        <time>2013-07-25T18:54:33Z</time>
      </trkpt>
      <trkpt lat="48.73279" lon="2.09113">
        <ele>109</ele>
        <time>2013-07-25T18:54:34Z</time>
      </trkpt>
      <trkpt lat="48.73279" lon="2.09113">
        <ele>109</ele>
        <time>2013-07-25T18:54:35Z</time>
      </trkpt>
      <trkpt lat="48.73279" lon="2.09113">
        <ele>109</ele>
        <time>2013-07-25T18:54:36Z</time>
      </trkpt>
      <trkpt lat="48.73279" lon="2.09113">
        <ele>109</ele>
        <time>2013-07-25T18:54:37Z</time>
      </trkpt>
      <trkpt lat="48.73279" lon="2.09113">
        <ele>109</ele>
        <time>2013-07-25T18:54:38Z</time>
      </trkpt>
      <trkpt lat="48.73279" lon="2.09113">
        <ele>109</ele>
        <time>2013-07-25T18:54:39Z</time>
      </trkpt>
      <trkpt lat="48.73279" lon="2.09113">
        <ele>109</ele>
        <time>2013-07-25T18:54:40Z</time>
      </trkpt>
      <trkpt lat="48.73279" lon="2.09113">
        <ele>109</ele>
        <time>2013-07-25T18:54:41Z</time>
      </trkpt>
      <trkpt lat="48.73279" lon="2.09113">
        <ele>109</ele>
        <time>2013-07-25T18:54:42Z</time>
      </trkpt>
      <trkpt lat="48.73279" lon="2.09113">
        <ele>109</ele>
        <time>2013-07-25T18:54:43Z</time>
      </trkpt>
      <trkpt lat="48.73279" lon="2.09113">
        <ele>109</ele>
        <time>2013-07-25T18:54:44Z</time>
      </trkpt>
      <trkpt lat="48.7328" lon="2.09113">
        <ele>109</ele>
        <time>2013-07-25T18:54:45Z</time>
      </trkpt>
      <trkpt lat="48.7328" lon="2.09113">
        <ele>109</ele>
        <time>2013-07-25T18:54:46Z</time>
      </trkpt>
      <trkpt lat="48.7328" lon="2.09114">
        <ele>109</ele>
        <time>2013-07-25T18:54:47Z</time>
      </trkpt>
      <trkpt lat="48.7328" lon="2.09114">
        <ele>109</ele>
        <time>2013-07-25T18:54:48Z</time>
      </trkpt>
      <trkpt lat="48.7328" lon="2.09114">
        <ele>109</ele>
        <time>2013-07-25T18:54:49Z</time>
      </trkpt>
      <trkpt lat="48.7328" lon="2.09114">
        <ele>109</ele>
        <time>2013-07-25T18:54:50Z</time>
      </trkpt>
      <trkpt lat="48.7328" lon="2.09114">
        <ele>109</ele>
        <time>2013-07-25T18:54:51Z</time>
      </trkpt>
      <trkpt lat="48.7328" lon="2.09114">
        <ele>109</ele>
        <time>2013-07-25T18:54:52Z</time>
      </trkpt>
      <trkpt lat="48.7328" lon="2.09114">
        <ele>109</ele>
        <time>2013-07-25T18:54:53Z</time>
      </trkpt>
      <trkpt lat="48.7328" lon="2.09114">
        <ele>109</ele>
        <time>2013-07-25T18:54:54Z</time>
      </trkpt>
      <trkpt lat="48.7328" lon="2.09114">
        <ele>109</ele>
        <time>2013-07-25T18:54:55Z</time>
      </trkpt>
      <trkpt lat="48.7328" lon="2.09114">
        <ele>109</ele>
        <time>2013-07-25T18:54:56Z</time>
      </trkpt>
      <trkpt lat="48.7328" lon="2.09114">
        <ele>109</ele>
        <time>2013-07-25T18:54:57Z</time>
      </trkpt>
      <trkpt lat="48.7328" lon="2.09114">
        <ele>109</ele>
        <time>2013-07-25T18:54:58Z</time>
      </trkpt>
      <trkpt lat="48.7328" lon="2.09114">
        <ele>109</ele>
        <time>2013-07-25T18:54:59Z</time>
      </trkpt>
      <trkpt lat="48.7328" lon="2.09114">
        <ele>109</ele>
        <time>2013-07-25T18:55:00Z</time>
      </trkpt>
      <trkpt lat="48.7328" lon="2.09114">
        <ele>109</ele>
        <time>2013-07-25T18:55:01Z</time>
      </trkpt>
      <trkpt lat="48.7328" lon="2.09114">
        <ele>109</ele>
        <time>2013-07-25T18:55:02Z</time>
      </trkpt>
      <trkpt lat="48.7328" lon="2.09114">
        <ele>109</ele>
        <time>2013-07-25T18:55:03Z</time>
      </trkpt>
      <trkpt lat="48.7328" lon="2.09114">
        <ele>109</ele>
        <time>2013-07-25T18:55:04Z</time>
      </trkpt>
      <trkpt lat="48.7328" lon="2.09114">
        <ele>109</ele>
        <time>2013-07-25T18:55:05Z</time>
      </trkpt>
      <trkpt lat="48.7328" lon="2.09115">
        <ele>109</ele>
        <time>2013-07-25T18:55:06Z</time>
      </trkpt>
      <trkpt lat="48.7328" lon="2.09115">
        <ele>109</ele>
        <time>2013-07-25T18:55:07Z</time>
      </trkpt>
      <trkpt lat="48.7328" lon="2.09115">
        <ele>109</ele>
        <time>2013-07-25T18:55:08Z</time>
      </trkpt>
      <trkpt lat="48.7328" lon="2.09115">
        <ele>109</ele>
        <time>2013-07-25T18:55:09Z</time>
      </trkpt>
      <trkpt lat="48.7328" lon="2.09115">
        <ele>109</ele>
        <time>2013-07-25T18:55:10Z</time>
      </trkpt>
      <trkpt lat="48.7328" lon="2.09115">
        <ele>109</ele>
        <time>2013-07-25T18:55:11Z</time>
      </trkpt>
      <trkpt lat="48.7328" lon="2.09115">
        <ele>109</ele>
        <time>2013-07-25T18:55:12Z</time>
      </trkpt>
      <trkpt lat="48.7328" lon="2.09114">
        <ele>109</ele>
        <time>2013-07-25T18:55:13Z</time>
      </trkpt>
      <trkpt lat="48.7328" lon="2.09114">
        <ele>109</ele>
        <time>2013-07-25T18:55:14Z</time>
      </trkpt>
      <trkpt lat="48.7328" lon="2.09114">
        <ele>109</ele>
        <time>2013-07-25T18:55:15Z</time>
      </trkpt>
      <trkpt lat="48.7328" lon="2.09114">
        <ele>109</ele>
        <time>2013-07-25T18:55:16Z</time>
      </trkpt>
      <trkpt lat="48.7328" lon="2.09114">
        <ele>109</ele>
        <time>2013-07-25T18:55:17Z</time>
      </trkpt>
      <trkpt lat="48.7328" lon="2.09114">
        <ele>109</ele>
        <time>2013-07-25T18:55:18Z</time>
      </trkpt>
      <trkpt lat="48.7328" lon="2.09114">
        <ele>109</ele>
        <time>2013-07-25T18:55:19Z</time>
      </trkpt>
      <trkpt lat="48.73279" lon="2.09114">
        <ele>109</ele>
        <time>2013-07-25T18:55:20Z</time>
      </trkpt>
      <trkpt lat="48.73279" lon="2.09114">
        <ele>109</ele>
        <time>2013-07-25T18:55:21Z</time>
      </trkpt>
      <trkpt lat="48.73279" lon="2.09114">
        <ele>109</ele>
        <time>2013-07-25T18:55:22Z</time>
      </trkpt>
      <trkpt lat="48.73279" lon="2.09114">
        <ele>109</ele>
        <time>2013-07-25T18:55:23Z</time>
      </trkpt>
      <trkpt lat="48.73279" lon="2.09114">
        <ele>109</ele>
        <time>2013-07-25T18:55:24Z</time>
      </trkpt>
      <trkpt lat="48.73279" lon="2.09114">
        <ele>109</ele>
        <time>2013-07-25T18:55:25Z</time>
      </trkpt>
      <trkpt lat="48.73279" lon="2.09114">
        <ele>109</ele>
        <time>2013-07-25T18:55:26Z</time>
      </trkpt>
      <trkpt lat="48.73279" lon="2.09114">
        <ele>109</ele>
        <time>2013-07-25T18:55:27Z</time>
      </trkpt>
      <trkpt lat="48.73279" lon="2.09114">
        <ele>109</ele>
        <time>2013-07-25T18:55:28Z</time>
      </trkpt>
      <trkpt lat="48.73279" lon="2.09114">
        <ele>109</ele>
        <time>2013-07-25T18:55:29Z</time>
      </trkpt>
      <trkpt lat="48.73279" lon="2.09113">
        <ele>109</ele>
        <time>2013-07-25T18:55:30Z</time>
      </trkpt>
      <trkpt lat="48.73279" lon="2.09113">
        <ele>109</ele>
        <time>2013-07-25T18:55:31Z</time>
      </trkpt>
      <trkpt lat="48.73279" lon="2.09113">
        <ele>109</ele>
        <time>2013-07-25T18:55:32Z</time>
      </trkpt>
      <trkpt lat="48.73279" lon="2.09113">
        <ele>109</ele>
        <time>2013-07-25T18:55:33Z</time>
      </trkpt>
      <trkpt lat="48.73279" lon="2.09113">
        <ele>109</ele>
        <time>2013-07-25T18:55:34Z</time>
      </trkpt>
      <trkpt lat="48.73279" lon="2.09114">
        <ele>109</ele>
        <time>2013-07-25T18:55:35Z</time>
      </trkpt>
      <trkpt lat="48.73279" lon="2.09114">
        <ele>109</ele>
        <time>2013-07-25T18:55:36Z</time>
      </trkpt>
      <trkpt lat="48.73279" lon="2.09114">
        <ele>109</ele>
        <time>2013-07-25T18:55:37Z</time>
      </trkpt>
      <trkpt lat="48.73279" lon="2.09114">
        <ele>109</ele>
        <time>2013-07-25T18:55:38Z</time>
      </trkpt>
      <trkpt lat="48.73279" lon="2.09114">
        <ele>109</ele>
        <time>2013-07-25T18:55:39Z</time>
      </trkpt>
      <trkpt lat="48.73279" lon="2.09114">
        <ele>109</ele>
        <time>2013-07-25T18:55:40Z</time>
      </trkpt>
      <trkpt lat="48.73279" lon="2.09114">
        <ele>109</ele>
        <time>2013-07-25T18:55:41Z</time>
      </trkpt>
      <trkpt lat="48.73279" lon="2.09114">
        <ele>109</ele>
        <time>2013-07-25T18:55:42Z</time>
      </trkpt>
      <trkpt lat="48.73279" lon="2.09114">
        <ele>109</ele>
        <time>2013-07-25T18:55:43Z</time>
      </trkpt>
      <trkpt lat="48.73279" lon="2.09114">
        <ele>109</ele>
        <time>2013-07-25T18:55:44Z</time>
      </trkpt>
      <trkpt lat="48.73279" lon="2.09114">
        <ele>109</ele>
        <time>2013-07-25T18:55:45Z</time>
      </trkpt>
      <trkpt lat="48.73279" lon="2.09114">
        <ele>109</ele>
        <time>2013-07-25T18:55:46Z</time>
      </trkpt>
      <trkpt lat="48.73279" lon="2.09114">
        <ele>109</ele>
        <time>2013-07-25T18:55:47Z</time>
      </trkpt>
      <trkpt lat="48.73279" lon="2.09114">
        <ele>109</ele>
        <time>2013-07-25T18:55:48Z</time>
      </trkpt>
      <trkpt lat="48.73279" lon="2.09114">
        <ele>109</ele>
        <time>2013-07-25T18:55:49Z</time>
      </trkpt>
      <trkpt lat="48.73279" lon="2.09114">
        <ele>109</ele>
        <time>2013-07-25T18:55:50Z</time>
      </trkpt>
      <trkpt lat="48.73279" lon="2.09114">
        <ele>109</ele>
        <time>2013-07-25T18:55:51Z</time>
      </trkpt>
      <trkpt lat="48.73279" lon="2.09114">
        <ele>109</ele>
        <time>2013-07-25T18:55:52Z</time>
      </trkpt>
      <trkpt lat="48.73279" lon="2.09114">
        <ele>109</ele>
        <time>2013-07-25T18:55:53Z</time>
      </trkpt>
      <trkpt lat="48.73279" lon="2.09114">
        <ele>109</ele>
        <time>2013-07-25T18:55:54Z</time>
      </trkpt>
      <trkpt lat="48.73279" lon="2.09114">
        <ele>109</ele>
        <time>2013-07-25T18:55:55Z</time>
      </trkpt>
      <trkpt lat="48.73279" lon="2.09114">
        <ele>109</ele>
        <time>2013-07-25T18:55:56Z</time>
      </trkpt>
      <trkpt lat="48.73279" lon="2.09114">
        <ele>109</ele>
        <time>2013-07-25T18:55:57Z</time>
      </trkpt>
      <trkpt lat="48.73279" lon="2.09114">
        <ele>109</ele>
        <time>2013-07-25T18:55:58Z</time>
      </trkpt>
      <trkpt lat="48.73279" lon="2.09114">
        <ele>109</ele>
        <time>2013-07-25T18:55:59Z</time>
      </trkpt>
      <trkpt lat="48.73279" lon="2.09114">
        <ele>109</ele>
        <time>2013-07-25T18:56:00Z</time>
      </trkpt>
      <trkpt lat="48.73279" lon="2.09114">
        <ele>109</ele>
        <time>2013-07-25T18:56:01Z</time>
      </trkpt>
      <trkpt lat="48.73279" lon="2.09115">
        <ele>109</ele>
        <time>2013-07-25T18:56:02Z</time>
      </trkpt>
      <trkpt lat="48.73279" lon="2.09115">
        <ele>109</ele>
        <time>2013-07-25T18:56:03Z</time>
      </trkpt>
      <trkpt lat="48.73279" lon="2.09115">
        <ele>109</ele>
        <time>2013-07-25T18:56:04Z</time>
      </trkpt>
      <trkpt lat="48.73279" lon="2.09115">
        <ele>109</ele>
        <time>2013-07-25T18:56:05Z</time>
      </trkpt>
      <trkpt lat="48.73279" lon="2.09115">
        <ele>109</ele>
        <time>2013-07-25T18:56:06Z</time>
      </trkpt>
      <trkpt lat="48.73279" lon="2.09115">
        <ele>109</ele>
        <time>2013-07-25T18:56:07Z</time>
      </trkpt>
      <trkpt lat="48.73279" lon="2.09115">
        <ele>109</ele>
        <time>2013-07-25T18:56:08Z</time>
      </trkpt>
      <trkpt lat="48.7328" lon="2.09115">
        <ele>109</ele>
        <time>2013-07-25T18:56:09Z</time>
      </trkpt>
      <trkpt lat="48.7328" lon="2.09115">
        <ele>109</ele>
        <time>2013-07-25T18:56:10Z</time>
      </trkpt>
      <trkpt lat="48.7328" lon="2.09115">
        <ele>109</ele>
        <time>2013-07-25T18:56:11Z</time>
      </trkpt>
      <trkpt lat="48.7328" lon="2.09115">
        <ele>109</ele>
        <time>2013-07-25T18:56:12Z</time>
      </trkpt>
      <trkpt lat="48.7328" lon="2.09115">
        <ele>109</ele>
        <time>2013-07-25T18:56:13Z</time>
      </trkpt>
      <trkpt lat="48.7328" lon="2.09115">
        <ele>109</ele>
        <time>2013-07-25T18:56:14Z</time>
      </trkpt>
      <trkpt lat="48.7328" lon="2.09115">
        <ele>109</ele>
        <time>2013-07-25T18:56:15Z</time>
      </trkpt>
      <trkpt lat="48.7328" lon="2.09115">
        <ele>109</ele>
        <time>2013-07-25T18:56:16Z</time>
      </trkpt>
      <trkpt lat="48.7328" lon="2.09115">
        <ele>109</ele>
        <time>2013-07-25T18:56:17Z</time>
      </trkpt>
      <trkpt lat="48.7328" lon="2.09116">
        <ele>109</ele>
        <time>2013-07-25T18:56:18Z</time>
      </trkpt>
      <trkpt lat="48.7328" lon="2.09116">
        <ele>109</ele>
        <time>2013-07-25T18:56:19Z</time>
      </trkpt>
      <trkpt lat="48.7328" lon="2.09116">
        <ele>109</ele>
        <time>2013-07-25T18:56:20Z</time>
      </trkpt>
      <trkpt lat="48.7328" lon="2.09116">
        <ele>109</ele>
        <time>2013-07-25T18:56:21Z</time>
      </trkpt>
      <trkpt lat="48.7328" lon="2.09116">
        <ele>109</ele>
        <time>2013-07-25T18:56:22Z</time>
      </trkpt>
      <trkpt lat="48.7328" lon="2.09116">
        <ele>109</ele>
        <time>2013-07-25T18:56:23Z</time>
      </trkpt>
      <trkpt lat="48.7328" lon="2.09116">
        <ele>109</ele>
        <time>2013-07-25T18:56:24Z</time>
      </trkpt>
      <trkpt lat="48.7328" lon="2.09116">
        <ele>109</ele>
        <time>2013-07-25T18:56:25Z</time>
      </trkpt>
      <trkpt lat="48.7328" lon="2.09116">
        <ele>109</ele>
        <time>2013-07-25T18:56:26Z</time>
      </trkpt>
      <trkpt lat="48.7328" lon="2.09116">
        <ele>109</ele>
        <time>2013-07-25T18:56:27Z</time>
      </trkpt>
      <trkpt lat="48.7328" lon="2.09115">
        <ele>109</ele>
        <time>2013-07-25T18:56:28Z</time>
      </trkpt>
      <trkpt lat="48.7328" lon="2.09116">
        <ele>109</ele>
        <time>2013-07-25T18:56:29Z</time>
      </trkpt>
      <trkpt lat="48.7328" lon="2.09116">
        <ele>109</ele>
        <time>2013-07-25T18:56:30Z</time>
      </trkpt>
      <trkpt lat="48.7328" lon="2.09116">
        <ele>109</ele>
        <time>2013-07-25T18:56:31Z</time>
      </trkpt>
      <trkpt lat="48.7328" lon="2.09116">
        <ele>109</ele>
        <time>2013-07-25T18:56:32Z</time>
      </trkpt>
      <trkpt lat="48.7328" lon="2.09116">
        <ele>109</ele>
        <time>2013-07-25T18:56:33Z</time>
      </trkpt>
      <trkpt lat="48.7328" lon="2.09116">
        <ele>109</ele>
        <time>2013-07-25T18:56:34Z</time>
      </trkpt>
      <trkpt lat="48.7328" lon="2.09116">
        <ele>109</ele>
        <time>2013-07-25T18:56:35Z</time>
      </trkpt>
      <trkpt lat="48.7328" lon="2.09116">
        <ele>109</ele>
        <time>2013-07-25T18:56:36Z</time>
      </trkpt>
      <trkpt lat="48.7328" lon="2.09116">
        <ele>109</ele>
        <time>2013-07-25T18:56:37Z</time>
      </trkpt>
      <trkpt lat="48.7328" lon="2.09116">
        <ele>109</ele>
        <time>2013-07-25T18:56:38Z</time>
      </trkpt>
      <trkpt lat="48.7328" lon="2.09116">
        <ele>109</ele>
        <time>2013-07-25T18:56:39Z</time>
      </trkpt>
      <trkpt lat="48.7328" lon="2.09116">
        <ele>109</ele>
        <time>2013-07-25T18:56:40Z</time>
      </trkpt>
      <trkpt lat="48.7328" lon="2.09116">
        <ele>109</ele>
        <time>2013-07-25T18:56:41Z</time>
      </trkpt>
      <trkpt lat="48.7328" lon="2.09116">
        <ele>109</ele>
        <time>2013-07-25T18:56:42Z</time>
      </trkpt>
      <trkpt lat="48.7328" lon="2.09116">
        <ele>109</ele>
        <time>2013-07-25T18:56:43Z</time>
      </trkpt>
      <trkpt lat="48.7328" lon="2.09116">
        <ele>109</ele>
        <time>2013-07-25T18:56:44Z</time>
      </trkpt>
      <trkpt lat="48.7328" lon="2.09116">
        <ele>109</ele>
        <time>2013-07-25T18:56:45Z</time>
      </trkpt>
      <trkpt lat="48.7328" lon="2.09116">
        <ele>109</ele>
        <time>2013-07-25T18:56:46Z</time>
      </trkpt>
      <trkpt lat="48.7328" lon="2.09116">
        <ele>109</ele>
        <time>2013-07-25T18:56:47Z</time>
      </trkpt>
      <trkpt lat="48.7328" lon="2.09116">
        <ele>109</ele>
        <time>2013-07-25T18:56:48Z</time>
      </trkpt>
      <trkpt lat="48.7328" lon="2.09116">
        <ele>109</ele>
        <time>2013-07-25T18:56:49Z</time>
      </trkpt>
      <trkpt lat="48.7328" lon="2.09116">
        <ele>109</ele>
        <time>2013-07-25T18:56:50Z</time>
      </trkpt>
      <trkpt lat="48.7328" lon="2.09116">
        <ele>109</ele>
        <time>2013-07-25T18:56:51Z</time>
      </trkpt>
      <trkpt lat="48.7328" lon="2.09116">
        <ele>109</ele>
        <time>2013-07-25T18:56:52Z</time>
      </trkpt>
      <trkpt lat="48.7328" lon="2.09116">
        <ele>109</ele>
        <time>2013-07-25T18:56:53Z</time>
      </trkpt>
      <trkpt lat="48.7328" lon="2.09116">
        <ele>109</ele>
        <time>2013-07-25T18:56:54Z</time>
      </trkpt>
      <trkpt lat="48.7328" lon="2.09116">
        <ele>109</ele>
        <time>2013-07-25T18:56:55Z</time>
      </trkpt>
      <trkpt lat="48.7328" lon="2.09116">
        <ele>109</ele>
        <time>2013-07-25T18:56:56Z</time>
      </trkpt>
      <trkpt lat="48.7328" lon="2.09116">
        <ele>109</ele>
        <time>2013-07-25T18:56:57Z</time>
      </trkpt>
      <trkpt lat="48.7328" lon="2.09116">
        <ele>109</ele>
        <time>2013-07-25T18:56:58Z</time>
      </trkpt>
      <trkpt lat="48.7328" lon="2.09116">
        <ele>109</ele>
        <time>2013-07-25T18:56:59Z</time>
      </trkpt>
      <trkpt lat="48.7328" lon="2.09116">
        <ele>109</ele>
        <time>2013-07-25T18:57:00Z</time>
      </trkpt>
      <trkpt lat="48.7328" lon="2.09116">
        <ele>109</ele>
        <time>2013-07-25T18:57:01Z</time>
      </trkpt>
      <trkpt lat="48.7328" lon="2.09116">
        <ele>109</ele>
        <time>2013-07-25T18:57:02Z</time>
      </trkpt>
      <trkpt lat="48.7328" lon="2.09116">
        <ele>109</ele>
        <time>2013-07-25T18:57:03Z</time>
      </trkpt>
      <trkpt lat="48.7328" lon="2.09116">
        <ele>109</ele>
        <time>2013-07-25T18:57:04Z</time>
      </trkpt>
      <trkpt lat="48.7328" lon="2.09116">
        <ele>109</ele>
        <time>2013-07-25T18:57:05Z</time>
      </trkpt>
      <trkpt lat="48.7328" lon="2.09116">
        <ele>109</ele>
        <time>2013-07-25T18:57:06Z</time>
      </trkpt>
      <trkpt lat="48.7328" lon="2.09116">
        <ele>109</ele>
        <time>2013-07-25T18:57:07Z</time>
      </trkpt>
      <trkpt lat="48.7328" lon="2.09116">
        <ele>109</ele>
        <time>2013-07-25T18:57:08Z</time>
      </trkpt>
      <trkpt lat="48.7328" lon="2.09116">
        <ele>109</ele>
        <time>2013-07-25T18:57:09Z</time>
      </trkpt>
      <trkpt lat="48.7328" lon="2.09116">
        <ele>109</ele>
        <time>2013-07-25T18:57:10Z</time>
      </trkpt>
      <trkpt lat="48.7328" lon="2.09116">
        <ele>109</ele>
        <time>2013-07-25T18:57:11Z</time>
      </trkpt>
      <trkpt lat="48.7328" lon="2.09116">
        <ele>109</ele>
        <time>2013-07-25T18:57:12Z</time>
      </trkpt>
      <trkpt lat="48.7328" lon="2.09116">
        <ele>109</ele>
        <time>2013-07-25T18:57:13Z</time>
      </trkpt>
      <trkpt lat="48.7328" lon="2.09116">
        <ele>109</ele>
        <time>2013-07-25T18:57:14Z</time>
      </trkpt>
      <trkpt lat="48.7328" lon="2.09116">
        <ele>109</ele>
        <time>2013-07-25T18:57:15Z</time>
      </trkpt>
      <trkpt lat="48.7328" lon="2.09116">
        <ele>109</ele>
        <time>2013-07-25T18:57:16Z</time>
      </trkpt>
      <trkpt lat="48.7328" lon="2.09116">
        <ele>109</ele>
        <time>2013-07-25T18:57:17Z</time>
      </trkpt>
      <trkpt lat="48.7328" lon="2.09116">
        <ele>109</ele>
        <time>2013-07-25T18:57:18Z</time>
      </trkpt>
      <trkpt lat="48.7328" lon="2.09116">
        <ele>109</ele>
        <time>2013-07-25T18:57:19Z</time>
      </trkpt>
      <trkpt lat="48.7328" lon="2.09116">
        <ele>109</ele>
        <time>2013-07-25T18:57:20Z</time>
      </trkpt>
      <trkpt lat="48.7328" lon="2.09115">
        <ele>109</ele>
        <time>2013-07-25T18:57:21Z</time>
      </trkpt>
      <trkpt lat="48.7328" lon="2.09115">
        <ele>109</ele>
        <time>2013-07-25T18:57:22Z</time>
      </trkpt>
      <trkpt lat="48.7328" lon="2.09115">
        <ele>109</ele>
        <time>2013-07-25T18:57:23Z</time>
      </trkpt>
      <trkpt lat="48.7328" lon="2.09115">
        <ele>109</ele>
        <time>2013-07-25T18:57:24Z</time>
      </trkpt>
      <trkpt lat="48.7328" lon="2.09115">
        <ele>109</ele>
        <time>2013-07-25T18:57:25Z</time>
      </trkpt>
      <trkpt lat="48.7328" lon="2.09115">
        <ele>109</ele>
        <time>2013-07-25T18:57:26Z</time>
      </trkpt>
      <trkpt lat="48.73281" lon="2.09115">
        <ele>109</ele>
        <time>2013-07-25T18:57:27Z</time>
      </trkpt>
      <trkpt lat="48.73281" lon="2.09115">
        <ele>109</ele>
        <time>2013-07-25T18:57:28Z</time>
      </trkpt>
      <trkpt lat="48.73281" lon="2.09115">
        <ele>109</ele>
        <time>2013-07-25T18:57:29Z</time>
      </trkpt>
      <trkpt lat="48.73281" lon="2.09115">
        <ele>109</ele>
        <time>2013-07-25T18:57:30Z</time>
      </trkpt>
      <trkpt lat="48.73281" lon="2.09115">
        <ele>109</ele>
        <time>2013-07-25T18:57:31Z</time>
      </trkpt>
      <trkpt lat="48.73281" lon="2.09115">
        <ele>109</ele>
        <time>2013-07-25T18:57:32Z</time>
      </trkpt>
      <trkpt lat="48.73281" lon="2.09115">
        <ele>109</ele>
        <time>2013-07-25T18:57:33Z</time>
      </trkpt>
      <trkpt lat="48.73281" lon="2.09115">
        <ele>109</ele>
        <time>2013-07-25T18:57:34Z</time>
      </trkpt>
      <trkpt lat="48.73281" lon="2.09115">
        <ele>109</ele>
        <time>2013-07-25T18:57:35Z</time>
      </trkpt>
      <trkpt lat="48.73281" lon="2.09115">
        <ele>109</ele>
        <time>2013-07-25T18:57:36Z</time>
      </trkpt>
      <trkpt lat="48.73281" lon="2.09115">
        <ele>109</ele>
        <time>2013-07-25T18:57:37Z</time>
      </trkpt>
      <trkpt lat="48.73281" lon="2.09115">
        <ele>109</ele>
        <time>2013-07-25T18:57:38Z</time>
      </trkpt>
      <trkpt lat="48.73281" lon="2.09115">
        <ele>109</ele>
        <time>2013-07-25T18:57:39Z</time>
      </trkpt>
      <trkpt lat="48.73281" lon="2.09115">
        <ele>109</ele>
        <time>2013-07-25T18:57:40Z</time>
      </trkpt>
      <trkpt lat="48.73281" lon="2.09115">
        <ele>109</ele>
        <time>2013-07-25T18:57:41Z</time>
      </trkpt>
      <trkpt lat="48.73281" lon="2.09115">
        <ele>109</ele>
        <time>2013-07-25T18:57:42Z</time>
      </trkpt>
      <trkpt lat="48.73281" lon="2.09115">
        <ele>109</ele>
        <time>2013-07-25T18:57:43Z</time>
      </trkpt>
      <trkpt lat="48.73281" lon="2.09115">
        <ele>109</ele>
        <time>2013-07-25T18:57:44Z</time>
      </trkpt>
      <trkpt lat="48.73281" lon="2.09115">
        <ele>109</ele>
        <time>2013-07-25T18:57:45Z</time>
      </trkpt>
      <trkpt lat="48.73281" lon="2.09115">
        <ele>109</ele>
        <time>2013-07-25T18:57:46Z</time>
      </trkpt>
      <trkpt lat="48.73281" lon="2.09115">
        <ele>109</ele>
        <time>2013-07-25T18:57:47Z</time>
      </trkpt>
      <trkpt lat="48.73281" lon="2.09115">
        <ele>109</ele>
        <time>2013-07-25T18:57:48Z</time>
      </trkpt>
      <trkpt lat="48.73281" lon="2.09115">
        <ele>109</ele>
        <time>2013-07-25T18:57:49Z</time>
      </trkpt>
      <trkpt lat="48.73281" lon="2.09115">
        <ele>109</ele>
        <time>2013-07-25T18:57:50Z</time>
      </trkpt>
      <trkpt lat="48.73281" lon="2.09115">
        <ele>109</ele>
        <time>2013-07-25T18:57:51Z</time>
      </trkpt>
      <trkpt lat="48.73281" lon="2.09115">
        <ele>109</ele>
        <time>2013-07-25T18:57:52Z</time>
      </trkpt>
      <trkpt lat="48.73281" lon="2.09115">
        <ele>109</ele>
        <time>2013-07-25T18:57:53Z</time>
      </trkpt>
      <trkpt lat="48.73281" lon="2.09115">
        <ele>109</ele>
        <time>2013-07-25T18:57:54Z</time>
      </trkpt>
      <trkpt lat="48.73281" lon="2.09115">
        <ele>109</ele>
        <time>2013-07-25T18:57:55Z</time>
      </trkpt>
      <trkpt lat="48.73281" lon="2.09115">
        <ele>109</ele>
        <time>2013-07-25T18:57:56Z</time>
      </trkpt>
      <trkpt lat="48.73281" lon="2.09115">
        <ele>109</ele>
        <time>2013-07-25T18:57:57Z</time>
      </trkpt>
      <trkpt lat="48.73281" lon="2.09115">
        <ele>109</ele>
        <time>2013-07-25T18:57:58Z</time>
      </trkpt>
      <trkpt lat="48.73281" lon="2.09115">
        <ele>109</ele>
        <time>2013-07-25T18:57:59Z</time>
      </trkpt>
      <trkpt lat="48.73281" lon="2.09115">
        <ele>109</ele>
        <time>2013-07-25T18:58:00Z</time>
      </trkpt>
      <trkpt lat="48.73281" lon="2.09115">
        <ele>109</ele>
        <time>2013-07-25T18:58:01Z</time>
      </trkpt>
      <trkpt lat="48.73281" lon="2.09115">
        <ele>109</ele>
        <time>2013-07-25T18:58:02Z</time>
      </trkpt>
      <trkpt lat="48.73281" lon="2.09115">
        <ele>109</ele>
        <time>2013-07-25T18:58:03Z</time>
      </trkpt>
      <trkpt lat="48.73281" lon="2.09115">
        <ele>109</ele>
        <time>2013-07-25T18:58:04Z</time>
      </trkpt>
      <trkpt lat="48.73281" lon="2.09115">
        <ele>109</ele>
        <time>2013-07-25T18:58:05Z</time>
      </trkpt>
      <trkpt lat="48.73281" lon="2.09115">
        <ele>109</ele>
        <time>2013-07-25T18:58:06Z</time>
      </trkpt>
      <trkpt lat="48.73281" lon="2.09115">
        <ele>109</ele>
        <time>2013-07-25T18:58:07Z</time>
      </trkpt>
      <trkpt lat="48.73281" lon="2.09115">
        <ele>109</ele>
        <time>2013-07-25T18:58:08Z</time>
      </trkpt>
      <trkpt lat="48.73281" lon="2.09115">
        <ele>109</ele>
        <time>2013-07-25T18:58:09Z</time>
      </trkpt>
      <trkpt lat="48.73281" lon="2.09115">
        <ele>109</ele>
        <time>2013-07-25T18:58:10Z</time>
      </trkpt>
      <trkpt lat="48.73281" lon="2.09115">
        <ele>109</ele>
        <time>2013-07-25T18:58:11Z</time>
      </trkpt>
      <trkpt lat="48.73281" lon="2.09115">
        <ele>109</ele>
        <time>2013-07-25T18:58:12Z</time>
      </trkpt>
      <trkpt lat="48.73281" lon="2.09115">
        <ele>109</ele>
        <time>2013-07-25T18:58:13Z</time>
      </trkpt>
      <trkpt lat="48.73281" lon="2.09115">
        <ele>109</ele>
        <time>2013-07-25T18:58:14Z</time>
      </trkpt>
      <trkpt lat="48.73281" lon="2.09115">
        <ele>109</ele>
        <time>2013-07-25T18:58:15Z</time>
      </trkpt>
      <trkpt lat="48.73281" lon="2.09115">
        <ele>109</ele>
        <time>2013-07-25T18:58:16Z</time>
      </trkpt>
      <trkpt lat="48.73282" lon="2.09115">
        <ele>109</ele>
        <time>2013-07-25T18:58:17Z</time>
      </trkpt>
      <trkpt lat="48.73282" lon="2.09115">
        <ele>109</ele>
        <time>2013-07-25T18:58:18Z</time>
      </trkpt>
      <trkpt lat="48.73282" lon="2.09115">
        <ele>109</ele>
        <time>2013-07-25T18:58:19Z</time>
      </trkpt>
      <trkpt lat="48.73282" lon="2.09115">
        <ele>109</ele>
        <time>2013-07-25T18:58:20Z</time>
      </trkpt>
      <trkpt lat="48.73282" lon="2.09115">
        <ele>109</ele>
        <time>2013-07-25T18:58:21Z</time>
      </trkpt>
      <trkpt lat="48.73282" lon="2.09115">
        <ele>109</ele>
        <time>2013-07-25T18:58:22Z</time>
      </trkpt>
      <trkpt lat="48.73282" lon="2.09115">
        <ele>109</ele>
        <time>2013-07-25T18:58:23Z</time>
      </trkpt>
      <trkpt lat="48.73282" lon="2.09115">
        <ele>109</ele>
        <time>2013-07-25T18:58:24Z</time>
      </trkpt>
      <trkpt lat="48.73282" lon="2.09115">
        <ele>109</ele>
        <time>2013-07-25T18:58:25Z</time>
      </trkpt>
      <trkpt lat="48.73282" lon="2.09115">
        <ele>109</ele>
        <time>2013-07-25T18:58:26Z</time>
      </trkpt>
      <trkpt lat="48.73283" lon="2.09112">
        <ele>109</ele>
        <time>2013-07-25T18:58:28Z</time>
      </trkpt>
      <trkpt lat="48.73285" lon="2.09107">
        <ele>109</ele>
        <time>2013-07-25T18:58:31Z</time>
      </trkpt>
      <trkpt lat="48.73288" lon="2.09102">
        <ele>109</ele>
        <time>2013-07-25T18:58:33Z</time>
      </trkpt>
      <trkpt lat="48.73307" lon="2.09056">
        <ele>110</ele>
        <time>2013-07-25T18:58:45Z</time>
      </trkpt>
      <trkpt lat="48.73313" lon="2.09033">
        <ele>109</ele>
        <time>2013-07-25T18:58:50Z</time>
      </trkpt>
      <trkpt lat="48.73318" lon="2.0902">
        <ele>110</ele>
        <time>2013-07-25T18:58:53Z</time>
      </trkpt>
      <trkpt lat="48.73325" lon="2.0901">
        <ele>110</ele>
        <time>2013-07-25T18:58:56Z</time>
      </trkpt>
      <trkpt lat="48.73329" lon="2.09002">
        <ele>111</ele>
        <time>2013-07-25T18:58:58Z</time>
      </trkpt>
      <trkpt lat="48.73338" lon="2.08989">
        <ele>113</ele>
        <time>2013-07-25T18:59:02Z</time>
      </trkpt>
      <trkpt lat="48.73347" lon="2.08977">
        <ele>115</ele>
        <time>2013-07-25T18:59:06Z</time>
      </trkpt>
      <trkpt lat="48.73349" lon="2.08975">
        <ele>115</ele>
        <time>2013-07-25T18:59:07Z</time>
      </trkpt>
      <trkpt lat="48.73351" lon="2.08973">
        <ele>116</ele>
        <time>2013-07-25T18:59:08Z</time>
      </trkpt>
      <trkpt lat="48.73355" lon="2.08969">
        <ele>116</ele>
        <time>2013-07-25T18:59:10Z</time>
      </trkpt>
      <trkpt lat="48.73357" lon="2.08968">
        <ele>116</ele>
        <time>2013-07-25T18:59:11Z</time>
      </trkpt>
      <trkpt lat="48.73361" lon="2.08963">
        <ele>116</ele>
        <time>2013-07-25T18:59:13Z</time>
      </trkpt>
      <trkpt lat="48.73367" lon="2.08957">
        <ele>117</ele>
        <time>2013-07-25T18:59:16Z</time>
      </trkpt>
      <trkpt lat="48.7337" lon="2.08953">
        <ele>117</ele>
        <time>2013-07-25T18:59:18Z</time>
      </trkpt>
      <trkpt lat="48.73374" lon="2.08949">
        <ele>117</ele>
        <time>2013-07-25T18:59:20Z</time>
      </trkpt>
      <trkpt lat="48.73384" lon="2.08939">
        <ele>118</ele>
        <time>2013-07-25T18:59:25Z</time>
      </trkpt>
      <trkpt lat="48.73386" lon="2.08937">
        <ele>118</ele>
        <time>2013-07-25T18:59:26Z</time>
      </trkpt>
      <trkpt lat="48.73389" lon="2.08934">
        <ele>118</ele>
        <time>2013-07-25T18:59:28Z</time>
      </trkpt>
      <trkpt lat="48.73391" lon="2.08932">
        <ele>118</ele>
        <time>2013-07-25T18:59:29Z</time>
      </trkpt>
      <trkpt lat="48.73399" lon="2.08927">
        <ele>119</ele>
        <time>2013-07-25T18:59:33Z</time>
      </trkpt>
      <trkpt lat="48.73401" lon="2.08926">
        <ele>119</ele>
        <time>2013-07-25T18:59:34Z</time>
      </trkpt>
      <trkpt lat="48.73403" lon="2.08925">
        <ele>119</ele>
        <time>2013-07-25T18:59:35Z</time>
      </trkpt>
      <trkpt lat="48.73407" lon="2.08925">
        <ele>119</ele>
        <time>2013-07-25T18:59:37Z</time>
      </trkpt>
      <trkpt lat="48.73409" lon="2.08925">
        <ele>119</ele>
        <time>2013-07-25T18:59:38Z</time>
      </trkpt>
      <trkpt lat="48.73413" lon="2.08925">
        <ele>119</ele>
        <time>2013-07-25T18:59:40Z</time>
      </trkpt>
      <trkpt lat="48.73416" lon="2.08925">
        <ele>119</ele>
        <time>2013-07-25T18:59:42Z</time>
      </trkpt>
      <trkpt lat="48.73417" lon="2.08925">
        <ele>123</ele>
        <time>2013-07-25T18:59:43Z</time>
      </trkpt>
      <trkpt lat="48.73419" lon="2.08926">
        <ele>123</ele>
        <time>2013-07-25T18:59:44Z</time>
      </trkpt>
      <trkpt lat="48.7342" lon="2.08926">
        <ele>124</ele>
        <time>2013-07-25T18:59:45Z</time>
      </trkpt>
      <trkpt lat="48.73422" lon="2.08925">
        <ele>124</ele>
        <time>2013-07-25T18:59:46Z</time>
      </trkpt>
      <trkpt lat="48.73423" lon="2.08925">
        <ele>124</ele>
        <time>2013-07-25T18:59:47Z</time>
      </trkpt>
      <trkpt lat="48.73424" lon="2.08926">
        <ele>124</ele>
        <time>2013-07-25T18:59:48Z</time>
      </trkpt>
      <trkpt lat="48.73425" lon="2.08927">
        <ele>125</ele>
        <time>2013-07-25T18:59:49Z</time>
      </trkpt>
      <trkpt lat="48.73427" lon="2.08928">
        <ele>125</ele>
        <time>2013-07-25T18:59:50Z</time>
      </trkpt>
      <trkpt lat="48.73428" lon="2.08928">
        <ele>125</ele>
        <time>2013-07-25T18:59:51Z</time>
      </trkpt>
      <trkpt lat="48.7343" lon="2.08927">
        <ele>125</ele>
        <time>2013-07-25T18:59:52Z</time>
      </trkpt>
      <trkpt lat="48.73435" lon="2.08927">
        <ele>126</ele>
        <time>2013-07-25T18:59:56Z</time>
      </trkpt>
      <trkpt lat="48.73438" lon="2.08927">
        <ele>127</ele>
        <time>2013-07-25T18:59:58Z</time>
      </trkpt>
      <trkpt lat="48.7344" lon="2.08927">
        <ele>127</ele>
        <time>2013-07-25T18:59:59Z</time>
      </trkpt>
      <trkpt lat="48.73441" lon="2.08928">
        <ele>127</ele>
        <time>2013-07-25T19:00:00Z</time>
      </trkpt>
      <trkpt lat="48.73443" lon="2.08928">
        <ele>128</ele>
        <time>2013-07-25T19:00:01Z</time>
      </trkpt>
      <trkpt lat="48.73444" lon="2.08928">
        <ele>128</ele>
        <time>2013-07-25T19:00:02Z</time>
      </trkpt>
      <trkpt lat="48.73445" lon="2.08928">
        <ele>128</ele>
        <time>2013-07-25T19:00:03Z</time>
      </trkpt>
      <trkpt lat="48.73447" lon="2.08928">
        <ele>128</ele>
        <time>2013-07-25T19:00:04Z</time>
      </trkpt>
      <trkpt lat="48.73448" lon="2.08928">
        <ele>128</ele>
        <time>2013-07-25T19:00:05Z</time>
      </trkpt>
      <trkpt lat="48.7345" lon="2.08928">
        <ele>128</ele>
        <time>2013-07-25T19:00:06Z</time>
      </trkpt>
      <trkpt lat="48.73451" lon="2.08928">
        <ele>129</ele>
        <time>2013-07-25T19:00:07Z</time>
      </trkpt>
      <trkpt lat="48.73455" lon="2.08927">
        <ele>129</ele>
        <time>2013-07-25T19:00:10Z</time>
      </trkpt>
      <trkpt lat="48.73457" lon="2.08927">
        <ele>129</ele>
        <time>2013-07-25T19:00:11Z</time>
      </trkpt>
      <trkpt lat="48.73458" lon="2.08926">
        <ele>129</ele>
        <time>2013-07-25T19:00:12Z</time>
      </trkpt>
      <trkpt lat="48.73461" lon="2.08926">
        <ele>129</ele>
        <time>2013-07-25T19:00:14Z</time>
      </trkpt>
      <trkpt lat="48.73462" lon="2.08926">
        <ele>129</ele>
        <time>2013-07-25T19:00:15Z</time>
      </trkpt>
      <trkpt lat="48.73467" lon="2.08925">
        <ele>130</ele>
        <time>2013-07-25T19:00:18Z</time>
      </trkpt>
      <trkpt lat="48.73468" lon="2.08925">
        <ele>130</ele>
        <time>2013-07-25T19:00:19Z</time>
      </trkpt>
      <trkpt lat="48.7347" lon="2.08926">
        <ele>130</ele>
        <time>2013-07-25T19:00:20Z</time>
      </trkpt>
      <trkpt lat="48.73471" lon="2.08926">
        <ele>130</ele>
        <time>2013-07-25T19:00:21Z</time>
      </trkpt>
      <trkpt lat="48.73473" lon="2.08926">
        <ele>130</ele>
        <time>2013-07-25T19:00:22Z</time>
      </trkpt>
      <trkpt lat="48.73478" lon="2.08926">
        <ele>130</ele>
        <time>2013-07-25T19:00:25Z</time>
      </trkpt>
      <trkpt lat="48.7348" lon="2.08926">
        <ele>130</ele>
        <time>2013-07-25T19:00:27Z</time>
      </trkpt>
      <trkpt lat="48.73482" lon="2.08926">
        <ele>130</ele>
        <time>2013-07-25T19:00:28Z</time>
      </trkpt>
      <trkpt lat="48.73483" lon="2.08926">
        <ele>130</ele>
        <time>2013-07-25T19:00:29Z</time>
      </trkpt>
      <trkpt lat="48.73484" lon="2.08926">
        <ele>130</ele>
        <time>2013-07-25T19:00:30Z</time>
      </trkpt>
      <trkpt lat="48.73486" lon="2.08925">
        <ele>130</ele>
        <time>2013-07-25T19:00:31Z</time>
      </trkpt>
      <trkpt lat="48.73488" lon="2.08925">
        <ele>130</ele>
        <time>2013-07-25T19:00:32Z</time>
      </trkpt>
      <trkpt lat="48.73491" lon="2.08923">
        <ele>130</ele>
        <time>2013-07-25T19:00:34Z</time>
      </trkpt>
      <trkpt lat="48.73493" lon="2.08922">
        <ele>130</ele>
        <time>2013-07-25T19:00:35Z</time>
      </trkpt>
      <trkpt lat="48.73494" lon="2.0892">
        <ele>130</ele>
        <time>2013-07-25T19:00:36Z</time>
      </trkpt>
      <trkpt lat="48.73496" lon="2.08917">
        <ele>129</ele>
        <time>2013-07-25T19:00:37Z</time>
      </trkpt>
      <trkpt lat="48.73507" lon="2.08887">
        <ele>128</ele>
        <time>2013-07-25T19:00:41Z</time>
      </trkpt>
      <trkpt lat="48.73511" lon="2.08876">
        <ele>127</ele>
        <time>2013-07-25T19:00:42Z</time>
      </trkpt>
      <trkpt lat="48.73515" lon="2.08865">
        <ele>125</ele>
        <time>2013-07-25T19:00:43Z</time>
      </trkpt>
      <trkpt lat="48.73528" lon="2.0883">
        <ele>117</ele>
        <time>2013-07-25T19:00:47Z</time>
      </trkpt>
      <trkpt lat="48.73529" lon="2.08822">
        <ele>117</ele>
        <time>2013-07-25T19:00:48Z</time>
      </trkpt>
      <trkpt lat="48.73526" lon="2.08813">
        <ele>117</ele>
        <time>2013-07-25T19:00:49Z</time>
      </trkpt>
      <trkpt lat="48.73455" lon="2.08694">
        <ele>108</ele>
        <time>2013-07-25T19:01:00Z</time>
      </trkpt>
      <trkpt lat="48.73448" lon="2.08687">
        <ele>108</ele>
        <time>2013-07-25T19:01:01Z</time>
      </trkpt>
      <trkpt lat="48.7344" lon="2.08681">
        <ele>108</ele>
        <time>2013-07-25T19:01:02Z</time>
      </trkpt>
      <trkpt lat="48.73421" lon="2.08676">
        <ele>109</ele>
        <time>2013-07-25T19:01:05Z</time>
      </trkpt>
      <trkpt lat="48.73416" lon="2.08674">
        <ele>108</ele>
        <time>2013-07-25T19:01:06Z</time>
      </trkpt>
      <trkpt lat="48.73413" lon="2.0867">
        <ele>109</ele>
        <time>2013-07-25T19:01:07Z</time>
      </trkpt>
      <trkpt lat="48.73413" lon="2.08665">
        <ele>109</ele>
        <time>2013-07-25T19:01:08Z</time>
      </trkpt>
      <trkpt lat="48.73413" lon="2.0866">
        <ele>109</ele>
        <time>2013-07-25T19:01:09Z</time>
      </trkpt>
      <trkpt lat="48.73416" lon="2.08645">
        <ele>109</ele>
        <time>2013-07-25T19:01:12Z</time>
      </trkpt>
      <trkpt lat="48.73417" lon="2.08634">
        <ele>109</ele>
        <time>2013-07-25T19:01:14Z</time>
      </trkpt>
      <trkpt lat="48.73418" lon="2.08629">
        <ele>109</ele>
        <time>2013-07-25T19:01:15Z</time>
      </trkpt>
      <trkpt lat="48.7342" lon="2.08618">
        <ele>109</ele>
        <time>2013-07-25T19:01:17Z</time>
      </trkpt>
      <trkpt lat="48.73419" lon="2.08602">
        <ele>110</ele>
        <time>2013-07-25T19:01:20Z</time>
      </trkpt>
      <trkpt lat="48.73419" lon="2.08597">
        <ele>110</ele>
        <time>2013-07-25T19:01:21Z</time>
      </trkpt>
      <trkpt lat="48.73411" lon="2.0857">
        <ele>112</ele>
        <time>2013-07-25T19:01:27Z</time>
      </trkpt>
      <trkpt lat="48.73409" lon="2.08567">
        <ele>112</ele>
        <time>2013-07-25T19:01:28Z</time>
      </trkpt>
      <trkpt lat="48.73408" lon="2.0856">
        <ele>112</ele>
        <time>2013-07-25T19:01:30Z</time>
      </trkpt>
      <trkpt lat="48.73407" lon="2.08557">
        <ele>112</ele>
        <time>2013-07-25T19:01:31Z</time>
      </trkpt>
      <trkpt lat="48.73403" lon="2.08541">
        <ele>113</ele>
        <time>2013-07-25T19:01:36Z</time>
      </trkpt>
      <trkpt lat="48.73402" lon="2.08535">
        <ele>113</ele>
        <time>2013-07-25T19:01:38Z</time>
      </trkpt>
      <trkpt lat="48.73399" lon="2.08525">
        <ele>113</ele>
        <time>2013-07-25T19:01:41Z</time>
      </trkpt>
      <trkpt lat="48.73398" lon="2.08522">
        <ele>113</ele>
        <time>2013-07-25T19:01:42Z</time>
      </trkpt>
      <trkpt lat="48.7339" lon="2.08498">
        <ele>117</ele>
        <time>2013-07-25T19:01:50Z</time>
      </trkpt>
      <trkpt lat="48.73388" lon="2.08491">
        <ele>117</ele>
        <time>2013-07-25T19:01:52Z</time>
      </trkpt>
      <trkpt lat="48.73387" lon="2.08488">
        <ele>117</ele>
        <time>2013-07-25T19:01:53Z</time>
      </trkpt>
      <trkpt lat="48.73387" lon="2.08485">
        <ele>117</ele>
        <time>2013-07-25T19:01:54Z</time>
      </trkpt>
      <trkpt lat="48.73386" lon="2.08483">
        <ele>117</ele>
        <time>2013-07-25T19:01:55Z</time>
      </trkpt>
      <trkpt lat="48.73385" lon="2.08479">
        <ele>118</ele>
        <time>2013-07-25T19:01:57Z</time>
      </trkpt>
      <trkpt lat="48.73378" lon="2.08471">
        <ele>118</ele>
        <time>2013-07-25T19:02:01Z</time>
      </trkpt>
      <trkpt lat="48.73377" lon="2.08468">
        <ele>118</ele>
        <time>2013-07-25T19:02:02Z</time>
      </trkpt>
      <trkpt lat="48.73373" lon="2.08458">
        <ele>119</ele>
        <time>2013-07-25T19:02:06Z</time>
      </trkpt>
      <trkpt lat="48.73372" lon="2.08453">
        <ele>119</ele>
        <time>2013-07-25T19:02:08Z</time>
      </trkpt>
      <trkpt lat="48.73372" lon="2.08451">
        <ele>119</ele>
        <time>2013-07-25T19:02:09Z</time>
      </trkpt>
      <trkpt lat="48.73371" lon="2.08449">
        <ele>119</ele>
        <time>2013-07-25T19:02:10Z</time>
      </trkpt>
      <trkpt lat="48.73369" lon="2.08446">
        <ele>120</ele>
        <time>2013-07-25T19:02:12Z</time>
      </trkpt>
      <trkpt lat="48.73368" lon="2.08444">
        <ele>120</ele>
        <time>2013-07-25T19:02:13Z</time>
      </trkpt>
      <trkpt lat="48.73367" lon="2.08442">
        <ele>120</ele>
        <time>2013-07-25T19:02:14Z</time>
      </trkpt>
      <trkpt lat="48.73366" lon="2.0844">
        <ele>120</ele>
        <time>2013-07-25T19:02:15Z</time>
      </trkpt>
      <trkpt lat="48.73362" lon="2.0843">
        <ele>121</ele>
        <time>2013-07-25T19:02:20Z</time>
      </trkpt>
      <trkpt lat="48.73361" lon="2.08428">
        <ele>121</ele>
        <time>2013-07-25T19:02:21Z</time>
      </trkpt>
      <trkpt lat="48.7336" lon="2.08426">
        <ele>121</ele>
        <time>2013-07-25T19:02:22Z</time>
      </trkpt>
      <trkpt lat="48.73355" lon="2.08416">
        <ele>125</ele>
        <time>2013-07-25T19:02:27Z</time>
      </trkpt>
      <trkpt lat="48.73354" lon="2.08414">
        <ele>125</ele>
        <time>2013-07-25T19:02:28Z</time>
      </trkpt>
      <trkpt lat="48.73352" lon="2.08408">
        <ele>125</ele>
        <time>2013-07-25T19:02:31Z</time>
      </trkpt>
      <trkpt lat="48.73351" lon="2.08406">
        <ele>125</ele>
        <time>2013-07-25T19:02:32Z</time>
      </trkpt>
      <trkpt lat="48.73347" lon="2.084">
        <ele>125</ele>
        <time>2013-07-25T19:02:35Z</time>
      </trkpt>
      <trkpt lat="48.73342" lon="2.08392">
        <ele>125</ele>
        <time>2013-07-25T19:02:39Z</time>
      </trkpt>
      <trkpt lat="48.73341" lon="2.0839">
        <ele>125</ele>
        <time>2013-07-25T19:02:40Z</time>
      </trkpt>
      <trkpt lat="48.73339" lon="2.08386">
        <ele>126</ele>
        <time>2013-07-25T19:02:42Z</time>
      </trkpt>
      <trkpt lat="48.73337" lon="2.08384">
        <ele>126</ele>
        <time>2013-07-25T19:02:43Z</time>
      </trkpt>
      <trkpt lat="48.73335" lon="2.0838">
        <ele>126</ele>
        <time>2013-07-25T19:02:45Z</time>
      </trkpt>
      <trkpt lat="48.73331" lon="2.08374">
        <ele>133</ele>
        <time>2013-07-25T19:02:48Z</time>
      </trkpt>
      <trkpt lat="48.73329" lon="2.08372">
        <ele>133</ele>
        <time>2013-07-25T19:02:50Z</time>
      </trkpt>
      <trkpt lat="48.73329" lon="2.08371">
        <ele>133</ele>
        <time>2013-07-25T19:02:51Z</time>
      </trkpt>
      <trkpt lat="48.73326" lon="2.08366">
        <ele>134</ele>
        <time>2013-07-25T19:02:54Z</time>
      </trkpt>
      <trkpt lat="48.73323" lon="2.08361">
        <ele>134</ele>
        <time>2013-07-25T19:02:57Z</time>
      </trkpt>
      <trkpt lat="48.73322" lon="2.0836">
        <ele>134</ele>
        <time>2013-07-25T19:02:58Z</time>
      </trkpt>
      <trkpt lat="48.7332" lon="2.08356">
        <ele>134</ele>
        <time>2013-07-25T19:03:00Z</time>
      </trkpt>
      <trkpt lat="48.73318" lon="2.08349">
        <ele>134</ele>
        <time>2013-07-25T19:03:04Z</time>
      </trkpt>
      <trkpt lat="48.73316" lon="2.08346">
        <ele>134</ele>
        <time>2013-07-25T19:03:06Z</time>
      </trkpt>
      <trkpt lat="48.73313" lon="2.08343">
        <ele>134</ele>
        <time>2013-07-25T19:03:08Z</time>
      </trkpt>
      <trkpt lat="48.73311" lon="2.08338">
        <ele>135</ele>
        <time>2013-07-25T19:03:11Z</time>
      </trkpt>
      <trkpt lat="48.7331" lon="2.08337">
        <ele>135</ele>
        <time>2013-07-25T19:03:12Z</time>
      </trkpt>
      <trkpt lat="48.7331" lon="2.08336">
        <ele>135</ele>
        <time>2013-07-25T19:03:13Z</time>
      </trkpt>
      <trkpt lat="48.73309" lon="2.08335">
        <ele>135</ele>
        <time>2013-07-25T19:03:14Z</time>
      </trkpt>
      <trkpt lat="48.73308" lon="2.08333">
        <ele>137</ele>
        <time>2013-07-25T19:03:15Z</time>
      </trkpt>
      <trkpt lat="48.73307" lon="2.08331">
        <ele>137</ele>
        <time>2013-07-25T19:03:16Z</time>
      </trkpt>
      <trkpt lat="48.73304" lon="2.08326">
        <ele>138</ele>
        <time>2013-07-25T19:03:19Z</time>
      </trkpt>
      <trkpt lat="48.73302" lon="2.08323">
        <ele>138</ele>
        <time>2013-07-25T19:03:21Z</time>
      </trkpt>
      <trkpt lat="48.73293" lon="2.08311">
        <ele>139</ele>
        <time>2013-07-25T19:03:30Z</time>
      </trkpt>
      <trkpt lat="48.73292" lon="2.0831">
        <ele>139</ele>
        <time>2013-07-25T19:03:31Z</time>
      </trkpt>
      <trkpt lat="48.73291" lon="2.08309">
        <ele>139</ele>
        <time>2013-07-25T19:03:32Z</time>
      </trkpt>
      <trkpt lat="48.7329" lon="2.08308">
        <ele>139</ele>
        <time>2013-07-25T19:03:33Z</time>
      </trkpt>
      <trkpt lat="48.73288" lon="2.08305">
        <ele>140</ele>
        <time>2013-07-25T19:03:35Z</time>
      </trkpt>
      <trkpt lat="48.73288" lon="2.08304">
        <ele>140</ele>
        <time>2013-07-25T19:03:36Z</time>
      </trkpt>
      <trkpt lat="48.73287" lon="2.08302">
        <ele>140</ele>
        <time>2013-07-25T19:03:37Z</time>
      </trkpt>
      <trkpt lat="48.73284" lon="2.08297">
        <ele>140</ele>
        <time>2013-07-25T19:03:40Z</time>
      </trkpt>
      <trkpt lat="48.73283" lon="2.08296">
        <ele>140</ele>
        <time>2013-07-25T19:03:41Z</time>
      </trkpt>
      <trkpt lat="48.73282" lon="2.08295">
        <ele>140</ele>
        <time>2013-07-25T19:03:42Z</time>
      </trkpt>
      <trkpt lat="48.73281" lon="2.08294">
        <ele>140</ele>
        <time>2013-07-25T19:03:43Z</time>
      </trkpt>
      <trkpt lat="48.73281" lon="2.08293">
        <ele>140</ele>
        <time>2013-07-25T19:03:44Z</time>
      </trkpt>
      <trkpt lat="48.73277" lon="2.08289">
        <ele>141</ele>
        <time>2013-07-25T19:03:47Z</time>
      </trkpt>
      <trkpt lat="48.73274" lon="2.08286">
        <ele>141</ele>
        <time>2013-07-25T19:03:50Z</time>
      </trkpt>
      <trkpt lat="48.73273" lon="2.08285">
        <ele>141</ele>
        <time>2013-07-25T19:03:51Z</time>
      </trkpt>
      <trkpt lat="48.73271" lon="2.08282">
        <ele>141</ele>
        <time>2013-07-25T19:03:53Z</time>
      </trkpt>
      <trkpt lat="48.73269" lon="2.08279">
        <ele>142</ele>
        <time>2013-07-25T19:03:55Z</time>
      </trkpt>
      <trkpt lat="48.73268" lon="2.08278">
        <ele>142</ele>
        <time>2013-07-25T19:03:56Z</time>
      </trkpt>
      <trkpt lat="48.73267" lon="2.08277">
        <ele>142</ele>
        <time>2013-07-25T19:03:57Z</time>
      </trkpt>
      <trkpt lat="48.73267" lon="2.08275">
        <ele>142</ele>
        <time>2013-07-25T19:03:58Z</time>
      </trkpt>
      <trkpt lat="48.73266" lon="2.08274">
        <ele>142</ele>
        <time>2013-07-25T19:03:59Z</time>
      </trkpt>
      <trkpt lat="48.73265" lon="2.08272">
        <ele>142</ele>
        <time>2013-07-25T19:04:00Z</time>
      </trkpt>
      <trkpt lat="48.73264" lon="2.08271">
        <ele>143</ele>
        <time>2013-07-25T19:04:01Z</time>
      </trkpt>
      <trkpt lat="48.73262" lon="2.0827">
        <ele>143</ele>
        <time>2013-07-25T19:04:02Z</time>
      </trkpt>
      <trkpt lat="48.73259" lon="2.08267">
        <ele>143</ele>
        <time>2013-07-25T19:04:04Z</time>
      </trkpt>
      <trkpt lat="48.73259" lon="2.08265">
        <ele>144</ele>
        <time>2013-07-25T19:04:05Z</time>
      </trkpt>
      <trkpt lat="48.73255" lon="2.0826">
        <ele>145</ele>
        <time>2013-07-25T19:04:09Z</time>
      </trkpt>
      <trkpt lat="48.73255" lon="2.08258">
        <ele>145</ele>
        <time>2013-07-25T19:04:10Z</time>
      </trkpt>
      <trkpt lat="48.73254" lon="2.08257">
        <ele>146</ele>
        <time>2013-07-25T19:04:11Z</time>
      </trkpt>
      <trkpt lat="48.73253" lon="2.08255">
        <ele>146</ele>
        <time>2013-07-25T19:04:12Z</time>
      </trkpt>
      <trkpt lat="48.73253" lon="2.08253">
        <ele>147</ele>
        <time>2013-07-25T19:04:13Z</time>
      </trkpt>
      <trkpt lat="48.73253" lon="2.08249">
        <ele>147</ele>
        <time>2013-07-25T19:04:15Z</time>
      </trkpt>
      <trkpt lat="48.73252" lon="2.08246">
        <ele>147</ele>
        <time>2013-07-25T19:04:17Z</time>
      </trkpt>
      <trkpt lat="48.73251" lon="2.08245">
        <ele>146</ele>
        <time>2013-07-25T19:04:18Z</time>
      </trkpt>
      <trkpt lat="48.7325" lon="2.08244">
        <ele>146</ele>
        <time>2013-07-25T19:04:19Z</time>
      </trkpt>
      <trkpt lat="48.73249" lon="2.08243">
        <ele>150</ele>
        <time>2013-07-25T19:04:20Z</time>
      </trkpt>
      <trkpt lat="48.73246" lon="2.08242">
        <ele>150</ele>
        <time>2013-07-25T19:04:22Z</time>
      </trkpt>
      <trkpt lat="48.73245" lon="2.08242">
        <ele>150</ele>
        <time>2013-07-25T19:04:23Z</time>
      </trkpt>
      <trkpt lat="48.73244" lon="2.08241">
        <ele>150</ele>
        <time>2013-07-25T19:04:24Z</time>
      </trkpt>
      <trkpt lat="48.73242" lon="2.0824">
        <ele>151</ele>
        <time>2013-07-25T19:04:25Z</time>
      </trkpt>
      <trkpt lat="48.7324" lon="2.08239">
        <ele>151</ele>
        <time>2013-07-25T19:04:27Z</time>
      </trkpt>
      <trkpt lat="48.73239" lon="2.08237">
        <ele>151</ele>
        <time>2013-07-25T19:04:28Z</time>
      </trkpt>
      <trkpt lat="48.73236" lon="2.08234">
        <ele>152</ele>
        <time>2013-07-25T19:04:31Z</time>
      </trkpt>
      <trkpt lat="48.73236" lon="2.08234">
        <ele>152</ele>
        <time>2013-07-25T19:04:32Z</time>
      </trkpt>
      <trkpt lat="48.73224" lon="2.08224">
        <ele>153</ele>
        <time>2013-07-25T19:04:41Z</time>
      </trkpt>
      <trkpt lat="48.73223" lon="2.08223">
        <ele>154</ele>
        <time>2013-07-25T19:04:42Z</time>
      </trkpt>
      <trkpt lat="48.73222" lon="2.08222">
        <ele>154</ele>
        <time>2013-07-25T19:04:43Z</time>
      </trkpt>
      <trkpt lat="48.73221" lon="2.08221">
        <ele>154</ele>
        <time>2013-07-25T19:04:44Z</time>
      </trkpt>
      <trkpt lat="48.7322" lon="2.08219">
        <ele>154</ele>
        <time>2013-07-25T19:04:45Z</time>
      </trkpt>
      <trkpt lat="48.73218" lon="2.08218">
        <ele>154</ele>
        <time>2013-07-25T19:04:46Z</time>
      </trkpt>
      <trkpt lat="48.73217" lon="2.08217">
        <ele>154</ele>
        <time>2013-07-25T19:04:47Z</time>
      </trkpt>
      <trkpt lat="48.73216" lon="2.08216">
        <ele>154</ele>
        <time>2013-07-25T19:04:48Z</time>
      </trkpt>
      <trkpt lat="48.73215" lon="2.08215">
        <ele>154</ele>
        <time>2013-07-25T19:04:49Z</time>
      </trkpt>
      <trkpt lat="48.73214" lon="2.08214">
        <ele>154</ele>
        <time>2013-07-25T19:04:50Z</time>
      </trkpt>
      <trkpt lat="48.73213" lon="2.08213">
        <ele>154</ele>
        <time>2013-07-25T19:04:51Z</time>
      </trkpt>
      <trkpt lat="48.73212" lon="2.08212">
        <ele>155</ele>
        <time>2013-07-25T19:04:52Z</time>
      </trkpt>
      <trkpt lat="48.7321" lon="2.08211">
        <ele>155</ele>
        <time>2013-07-25T19:04:53Z</time>
      </trkpt>
      <trkpt lat="48.73208" lon="2.08209">
        <ele>155</ele>
        <time>2013-07-25T19:04:55Z</time>
      </trkpt>
      <trkpt lat="48.73205" lon="2.08206">
        <ele>155</ele>
        <time>2013-07-25T19:04:57Z</time>
      </trkpt>
      <trkpt lat="48.73203" lon="2.08204">
        <ele>155</ele>
        <time>2013-07-25T19:04:59Z</time>
      </trkpt>
      <trkpt lat="48.73202" lon="2.08203">
        <ele>155</ele>
        <time>2013-07-25T19:05:00Z</time>
      </trkpt>
      <trkpt lat="48.732" lon="2.08202">
        <ele>155</ele>
        <time>2013-07-25T19:05:01Z</time>
      </trkpt>
      <trkpt lat="48.73199" lon="2.08201">
        <ele>155</ele>
        <time>2013-07-25T19:05:02Z</time>
      </trkpt>
      <trkpt lat="48.73198" lon="2.082">
        <ele>156</ele>
        <time>2013-07-25T19:05:03Z</time>
      </trkpt>
      <trkpt lat="48.73196" lon="2.08198">
        <ele>156</ele>
        <time>2013-07-25T19:05:04Z</time>
      </trkpt>
      <trkpt lat="48.73194" lon="2.08197">
        <ele>156</ele>
        <time>2013-07-25T19:05:05Z</time>
      </trkpt>
      <trkpt lat="48.73191" lon="2.08193">
        <ele>156</ele>
        <time>2013-07-25T19:05:07Z</time>
      </trkpt>
      <trkpt lat="48.73189" lon="2.08192">
        <ele>156</ele>
        <time>2013-07-25T19:05:08Z</time>
      </trkpt>
      <trkpt lat="48.73186" lon="2.08189">
        <ele>157</ele>
        <time>2013-07-25T19:05:10Z</time>
      </trkpt>
      <trkpt lat="48.73184" lon="2.08188">
        <ele>157</ele>
        <time>2013-07-25T19:05:11Z</time>
      </trkpt>
      <trkpt lat="48.73182" lon="2.08186">
        <ele>157</ele>
        <time>2013-07-25T19:05:12Z</time>
      </trkpt>
      <trkpt lat="48.73178" lon="2.08182">
        <ele>157</ele>
        <time>2013-07-25T19:05:14Z</time>
      </trkpt>
      <trkpt lat="48.73167" lon="2.08173">
        <ele>159</ele>
        <time>2013-07-25T19:05:19Z</time>
      </trkpt>
      <trkpt lat="48.73165" lon="2.08171">
        <ele>161</ele>
        <time>2013-07-25T19:05:20Z</time>
      </trkpt>
      <trkpt lat="48.73163" lon="2.08169">
        <ele>161</ele>
        <time>2013-07-25T19:05:21Z</time>
      </trkpt>
      <trkpt lat="48.7316" lon="2.08169">
        <ele>161</ele>
        <time>2013-07-25T19:05:22Z</time>
      </trkpt>
      <trkpt lat="48.73158" lon="2.08169">
        <ele>161</ele>
        <time>2013-07-25T19:05:23Z</time>
      </trkpt>
      <trkpt lat="48.73155" lon="2.0817">
        <ele>161</ele>
        <time>2013-07-25T19:05:24Z</time>
      </trkpt>
      <trkpt lat="48.73149" lon="2.08176">
        <ele>162</ele>
        <time>2013-07-25T19:05:27Z</time>
      </trkpt>
      <trkpt lat="48.73143" lon="2.08184">
        <ele>163</ele>
        <time>2013-07-25T19:05:30Z</time>
      </trkpt>
      <trkpt lat="48.7314" lon="2.08189">
        <ele>163</ele>
        <time>2013-07-25T19:05:32Z</time>
      </trkpt>
      <trkpt lat="48.73139" lon="2.08192">
        <ele>163</ele>
        <time>2013-07-25T19:05:33Z</time>
      </trkpt>
      <trkpt lat="48.73125" lon="2.08215">
        <ele>164</ele>
        <time>2013-07-25T19:05:41Z</time>
      </trkpt>
      <trkpt lat="48.73123" lon="2.08218">
        <ele>164</ele>
        <time>2013-07-25T19:05:42Z</time>
      </trkpt>
      <trkpt lat="48.73121" lon="2.0822">
        <ele>164</ele>
        <time>2013-07-25T19:05:43Z</time>
      </trkpt>
      <trkpt lat="48.73119" lon="2.08221">
        <ele>164</ele>
        <time>2013-07-25T19:05:44Z</time>
      </trkpt>
      <trkpt lat="48.73112" lon="2.08225">
        <ele>165</ele>
        <time>2013-07-25T19:05:46Z</time>
      </trkpt>
      <trkpt lat="48.73109" lon="2.08227">
        <ele>165</ele>
        <time>2013-07-25T19:05:47Z</time>
      </trkpt>
      <trkpt lat="48.73097" lon="2.08238">
        <ele>166</ele>
        <time>2013-07-25T19:05:51Z</time>
      </trkpt>
      <trkpt lat="48.73094" lon="2.08241">
        <ele>166</ele>
        <time>2013-07-25T19:05:52Z</time>
      </trkpt>
      <trkpt lat="48.73082" lon="2.08254">
        <ele>168</ele>
        <time>2013-07-25T19:05:56Z</time>
      </trkpt>
      <trkpt lat="48.73057" lon="2.08286">
        <ele>167</ele>
        <time>2013-07-25T19:06:04Z</time>
      </trkpt>
      <trkpt lat="48.73053" lon="2.0829">
        <ele>167</ele>
        <time>2013-07-25T19:06:05Z</time>
      </trkpt>
      <trkpt lat="48.73028" lon="2.08324">
        <ele>167</ele>
        <time>2013-07-25T19:06:12Z</time>
      </trkpt>
      <trkpt lat="48.73024" lon="2.08328">
        <ele>167</ele>
        <time>2013-07-25T19:06:13Z</time>
      </trkpt>
      <trkpt lat="48.72981" lon="2.0838">
        <ele>166</ele>
        <time>2013-07-25T19:06:24Z</time>
      </trkpt>
      <trkpt lat="48.72965" lon="2.08403">
        <ele>165</ele>
        <time>2013-07-25T19:06:28Z</time>
      </trkpt>
      <trkpt lat="48.72925" lon="2.08449">
        <ele>162</ele>
        <time>2013-07-25T19:06:37Z</time>
      </trkpt>
      <trkpt lat="48.72921" lon="2.08455">
        <ele>162</ele>
        <time>2013-07-25T19:06:38Z</time>
      </trkpt>
      <trkpt lat="48.72918" lon="2.08462">
        <ele>161</ele>
        <time>2013-07-25T19:06:39Z</time>
      </trkpt>
      <trkpt lat="48.7291" lon="2.08487">
        <ele>164</ele>
        <time>2013-07-25T19:06:42Z</time>
      </trkpt>
      <trkpt lat="48.72906" lon="2.08503">
        <ele>163</ele>
        <time>2013-07-25T19:06:44Z</time>
      </trkpt>
      <trkpt lat="48.72903" lon="2.08521">
        <ele>163</ele>
        <time>2013-07-25T19:06:46Z</time>
      </trkpt>
      <trkpt lat="48.72894" lon="2.08562">
        <ele>162</ele>
        <time>2013-07-25T19:06:51Z</time>
      </trkpt>
      <trkpt lat="48.72893" lon="2.08571">
        <ele>162</ele>
        <time>2013-07-25T19:06:52Z</time>
      </trkpt>
      <trkpt lat="48.72894" lon="2.0858">
        <ele>161</ele>
        <time>2013-07-25T19:06:53Z</time>
      </trkpt>
      <trkpt lat="48.72895" lon="2.08588">
        <ele>161</ele>
        <time>2013-07-25T19:06:54Z</time>
      </trkpt>
      <trkpt lat="48.729" lon="2.08604">
        <ele>161</ele>
        <time>2013-07-25T19:06:56Z</time>
      </trkpt>
      <trkpt lat="48.72903" lon="2.0862">
        <ele>161</ele>
        <time>2013-07-25T19:06:58Z</time>
      </trkpt>
      <trkpt lat="48.72904" lon="2.08637">
        <ele>161</ele>
        <time>2013-07-25T19:07:00Z</time>
      </trkpt>
      <trkpt lat="48.72901" lon="2.0866">
        <ele>160</ele>
        <time>2013-07-25T19:07:03Z</time>
      </trkpt>
      <trkpt lat="48.72892" lon="2.08681">
        <ele>161</ele>
        <time>2013-07-25T19:07:06Z</time>
      </trkpt>
      <trkpt lat="48.72889" lon="2.08688">
        <ele>161</ele>
        <time>2013-07-25T19:07:07Z</time>
      </trkpt>
      <trkpt lat="48.72881" lon="2.08706">
        <ele>162</ele>
        <time>2013-07-25T19:07:10Z</time>
      </trkpt>
      <trkpt lat="48.72861" lon="2.08743">
        <ele>164</ele>
        <time>2013-07-25T19:07:16Z</time>
      </trkpt>
      <trkpt lat="48.72857" lon="2.08756">
        <ele>163</ele>
        <time>2013-07-25T19:07:18Z</time>
      </trkpt>
      <trkpt lat="48.72851" lon="2.08796">
        <ele>162</ele>
        <time>2013-07-25T19:07:23Z</time>
      </trkpt>
      <trkpt lat="48.7285" lon="2.08814">
        <ele>162</ele>
        <time>2013-07-25T19:07:25Z</time>
      </trkpt>
      <trkpt lat="48.72852" lon="2.08832">
        <ele>162</ele>
        <time>2013-07-25T19:07:27Z</time>
      </trkpt>
      <trkpt lat="48.72853" lon="2.0885">
        <ele>161</ele>
        <time>2013-07-25T19:07:29Z</time>
      </trkpt>
      <trkpt lat="48.72852" lon="2.08859">
        <ele>161</ele>
        <time>2013-07-25T19:07:30Z</time>
      </trkpt>
      <trkpt lat="48.7285" lon="2.08868">
        <ele>161</ele>
        <time>2013-07-25T19:07:31Z</time>
      </trkpt>
      <trkpt lat="48.72847" lon="2.08875">
        <ele>161</ele>
        <time>2013-07-25T19:07:32Z</time>
      </trkpt>
      <trkpt lat="48.72845" lon="2.08882">
        <ele>161</ele>
        <time>2013-07-25T19:07:33Z</time>
      </trkpt>
      <trkpt lat="48.72841" lon="2.08888">
        <ele>162</ele>
        <time>2013-07-25T19:07:34Z</time>
      </trkpt>
      <trkpt lat="48.72836" lon="2.08899">
        <ele>163</ele>
        <time>2013-07-25T19:07:36Z</time>
      </trkpt>
      <trkpt lat="48.72828" lon="2.08932">
        <ele>166</ele>
        <time>2013-07-25T19:07:41Z</time>
      </trkpt>
      <trkpt lat="48.72825" lon="2.08957">
        <ele>165</ele>
        <time>2013-07-25T19:07:44Z</time>
      </trkpt>
      <trkpt lat="48.72822" lon="2.08965">
        <ele>165</ele>
        <time>2013-07-25T19:07:45Z</time>
      </trkpt>
      <trkpt lat="48.72817" lon="2.08972">
        <ele>165</ele>
        <time>2013-07-25T19:07:46Z</time>
      </trkpt>
      <trkpt lat="48.72813" lon="2.08977">
        <ele>165</ele>
        <time>2013-07-25T19:07:47Z</time>
      </trkpt>
      <trkpt lat="48.72794" lon="2.08994">
        <ele>164</ele>
        <time>2013-07-25T19:07:51Z</time>
      </trkpt>
      <trkpt lat="48.7278" lon="2.0901">
        <ele>162</ele>
        <time>2013-07-25T19:07:55Z</time>
      </trkpt>
      <trkpt lat="48.72774" lon="2.09021">
        <ele>162</ele>
        <time>2013-07-25T19:07:57Z</time>
      </trkpt>
      <trkpt lat="48.72771" lon="2.09027">
        <ele>162</ele>
        <time>2013-07-25T19:07:58Z</time>
      </trkpt>
      <trkpt lat="48.72765" lon="2.09046">
        <ele>161</ele>
        <time>2013-07-25T19:08:01Z</time>
      </trkpt>
      <trkpt lat="48.72764" lon="2.09052">
        <ele>161</ele>
        <time>2013-07-25T19:08:02Z</time>
      </trkpt>
      <trkpt lat="48.72764" lon="2.0906">
        <ele>161</ele>
        <time>2013-07-25T19:08:03Z</time>
      </trkpt>
      <trkpt lat="48.72767" lon="2.09088">
        <ele>159</ele>
        <time>2013-07-25T19:08:07Z</time>
      </trkpt>
      <trkpt lat="48.72769" lon="2.09096">
        <ele>159</ele>
        <time>2013-07-25T19:08:08Z</time>
      </trkpt>
      <trkpt lat="48.72776" lon="2.09113">
        <ele>157</ele>
        <time>2013-07-25T19:08:10Z</time>
      </trkpt>
      <trkpt lat="48.72786" lon="2.09131">
        <ele>156</ele>
        <time>2013-07-25T19:08:12Z</time>
      </trkpt>
      <trkpt lat="48.7279" lon="2.09141">
        <ele>155</ele>
        <time>2013-07-25T19:08:13Z</time>
      </trkpt>
      <trkpt lat="48.72792" lon="2.09152">
        <ele>155</ele>
        <time>2013-07-25T19:08:14Z</time>
      </trkpt>
      <trkpt lat="48.72793" lon="2.09161">
        <ele>155</ele>
        <time>2013-07-25T19:08:15Z</time>
      </trkpt>
      <trkpt lat="48.7279" lon="2.09173">
        <ele>152</ele>
        <time>2013-07-25T19:08:17Z</time>
      </trkpt>
      <trkpt lat="48.7279" lon="2.09177">
        <ele>152</ele>
        <time>2013-07-25T19:08:18Z</time>
      </trkpt>
      <trkpt lat="48.72791" lon="2.09181">
        <ele>152</ele>
        <time>2013-07-25T19:08:20Z</time>
      </trkpt>
      <trkpt lat="48.72791" lon="2.09183">
        <ele>152</ele>
        <time>2013-07-25T19:08:21Z</time>
      </trkpt>
      <trkpt lat="48.72793" lon="2.09185">
        <ele>152</ele>
        <time>2013-07-25T19:08:22Z</time>
      </trkpt>
      <trkpt lat="48.72794" lon="2.09187">
        <ele>152</ele>
        <time>2013-07-25T19:08:23Z</time>
      </trkpt>
      <trkpt lat="48.72798" lon="2.09194">
        <ele>151</ele>
        <time>2013-07-25T19:08:26Z</time>
      </trkpt>
      <trkpt lat="48.728" lon="2.09197">
        <ele>151</ele>
        <time>2013-07-25T19:08:27Z</time>
      </trkpt>
      <trkpt lat="48.72802" lon="2.09201">
        <ele>151</ele>
        <time>2013-07-25T19:08:28Z</time>
      </trkpt>
      <trkpt lat="48.72811" lon="2.09219">
        <ele>149</ele>
        <time>2013-07-25T19:08:31Z</time>
      </trkpt>
      <trkpt lat="48.72813" lon="2.09223">
        <ele>149</ele>
        <time>2013-07-25T19:08:32Z</time>
      </trkpt>
      <trkpt lat="48.72825" lon="2.09232">
        <ele>147</ele>
        <time>2013-07-25T19:08:35Z</time>
      </trkpt>
      <trkpt lat="48.72829" lon="2.09236">
        <ele>146</ele>
        <time>2013-07-25T19:08:36Z</time>
      </trkpt>
      <trkpt lat="48.72835" lon="2.0924">
        <ele>141</ele>
        <time>2013-07-25T19:08:38Z</time>
      </trkpt>
      <trkpt lat="48.72839" lon="2.09243">
        <ele>141</ele>
        <time>2013-07-25T19:08:39Z</time>
      </trkpt>
      <trkpt lat="48.72845" lon="2.09244">
        <ele>140</ele>
        <time>2013-07-25T19:08:41Z</time>
      </trkpt>
      <trkpt lat="48.72852" lon="2.0925">
        <ele>140</ele>
        <time>2013-07-25T19:08:44Z</time>
      </trkpt>
      <trkpt lat="48.72855" lon="2.09252">
        <ele>137</ele>
        <time>2013-07-25T19:08:46Z</time>
      </trkpt>
      <trkpt lat="48.72856" lon="2.09252">
        <ele>137</ele>
        <time>2013-07-25T19:08:47Z</time>
      </trkpt>
      <trkpt lat="48.72857" lon="2.09253">
        <ele>137</ele>
        <time>2013-07-25T19:08:48Z</time>
      </trkpt>
      <trkpt lat="48.72859" lon="2.09253">
        <ele>136</ele>
        <time>2013-07-25T19:08:49Z</time>
      </trkpt>
      <trkpt lat="48.7286" lon="2.09253">
        <ele>136</ele>
        <time>2013-07-25T19:08:50Z</time>
      </trkpt>
      <trkpt lat="48.72863" lon="2.09253">
        <ele>136</ele>
        <time>2013-07-25T19:08:51Z</time>
      </trkpt>
      <trkpt lat="48.72868" lon="2.09252">
        <ele>135</ele>
        <time>2013-07-25T19:08:53Z</time>
      </trkpt>
      <trkpt lat="48.72869" lon="2.09252">
        <ele>135</ele>
        <time>2013-07-25T19:08:54Z</time>
      </trkpt>
      <trkpt lat="48.7287" lon="2.09252">
        <ele>135</ele>
        <time>2013-07-25T19:08:55Z</time>
      </trkpt>
      <trkpt lat="48.72873" lon="2.09252">
        <ele>135</ele>
        <time>2013-07-25T19:08:58Z</time>
      </trkpt>
      <trkpt lat="48.72874" lon="2.09251">
        <ele>135</ele>
        <time>2013-07-25T19:08:59Z</time>
      </trkpt>
      <trkpt lat="48.72876" lon="2.09252">
        <ele>135</ele>
        <time>2013-07-25T19:09:00Z</time>
      </trkpt>
      <trkpt lat="48.72877" lon="2.09252">
        <ele>134</ele>
        <time>2013-07-25T19:09:01Z</time>
      </trkpt>
      <trkpt lat="48.7288" lon="2.09253">
        <ele>134</ele>
        <time>2013-07-25T19:09:02Z</time>
      </trkpt>
      <trkpt lat="48.72882" lon="2.09253">
        <ele>134</ele>
        <time>2013-07-25T19:09:03Z</time>
      </trkpt>
      <trkpt lat="48.72885" lon="2.09252">
        <ele>134</ele>
        <time>2013-07-25T19:09:04Z</time>
      </trkpt>
      <trkpt lat="48.72886" lon="2.09251">
        <ele>134</ele>
        <time>2013-07-25T19:09:05Z</time>
      </trkpt>
      <trkpt lat="48.72889" lon="2.09251">
        <ele>133</ele>
        <time>2013-07-25T19:09:06Z</time>
      </trkpt>
      <trkpt lat="48.72893" lon="2.09254">
        <ele>133</ele>
        <time>2013-07-25T19:09:08Z</time>
      </trkpt>
      <trkpt lat="48.72898" lon="2.09256">
        <ele>133</ele>
        <time>2013-07-25T19:09:10Z</time>
      </trkpt>
      <trkpt lat="48.729" lon="2.09257">
        <ele>133</ele>
        <time>2013-07-25T19:09:11Z</time>
      </trkpt>
      <trkpt lat="48.72906" lon="2.09259">
        <ele>132</ele>
        <time>2013-07-25T19:09:14Z</time>
      </trkpt>
      <trkpt lat="48.72908" lon="2.0926">
        <ele>132</ele>
        <time>2013-07-25T19:09:15Z</time>
      </trkpt>
      <trkpt lat="48.72911" lon="2.09259">
        <ele>132</ele>
        <time>2013-07-25T19:09:17Z</time>
      </trkpt>
      <trkpt lat="48.72911" lon="2.09259">
        <ele>132</ele>
        <time>2013-07-25T19:09:18Z</time>
      </trkpt>
      <trkpt lat="48.72912" lon="2.09259">
        <ele>132</ele>
        <time>2013-07-25T19:09:19Z</time>
      </trkpt>
      <trkpt lat="48.72913" lon="2.09259">
        <ele>132</ele>
        <time>2013-07-25T19:09:20Z</time>
      </trkpt>
      <trkpt lat="48.72913" lon="2.09259">
        <ele>132</ele>
        <time>2013-07-25T19:09:21Z</time>
      </trkpt>
      <trkpt lat="48.72914" lon="2.09259">
        <ele>132</ele>
        <time>2013-07-25T19:09:22Z</time>
      </trkpt>
      <trkpt lat="48.72915" lon="2.09259">
        <ele>132</ele>
        <time>2013-07-25T19:09:23Z</time>
      </trkpt>
      <trkpt lat="48.72916" lon="2.09259">
        <ele>132</ele>
        <time>2013-07-25T19:09:24Z</time>
      </trkpt>
      <trkpt lat="48.72916" lon="2.09259">
        <ele>132</ele>
        <time>2013-07-25T19:09:25Z</time>
      </trkpt>
      <trkpt lat="48.72917" lon="2.09259">
        <ele>132</ele>
        <time>2013-07-25T19:09:26Z</time>
      </trkpt>
      <trkpt lat="48.72917" lon="2.0926">
        <ele>128</ele>
        <time>2013-07-25T19:09:27Z</time>
      </trkpt>
      <trkpt lat="48.72917" lon="2.0926">
        <ele>128</ele>
        <time>2013-07-25T19:09:28Z</time>
      </trkpt>
      <trkpt lat="48.72916" lon="2.09259">
        <ele>132</ele>
        <time>2013-07-25T19:09:30Z</time>
      </trkpt>
      <trkpt lat="48.72916" lon="2.09259">
        <ele>132</ele>
        <time>2013-07-25T19:09:31Z</time>
      </trkpt>
      <trkpt lat="48.72916" lon="2.09258">
        <ele>132</ele>
        <time>2013-07-25T19:09:32Z</time>
      </trkpt>
      <trkpt lat="48.72916" lon="2.09258">
        <ele>132</ele>
        <time>2013-07-25T19:09:33Z</time>
      </trkpt>
      <trkpt lat="48.72915" lon="2.09257">
        <ele>132</ele>
        <time>2013-07-25T19:09:34Z</time>
      </trkpt>
      <trkpt lat="48.72915" lon="2.09257">
        <ele>132</ele>
        <time>2013-07-25T19:09:35Z</time>
      </trkpt>
      <trkpt lat="48.72915" lon="2.09256">
        <ele>132</ele>
        <time>2013-07-25T19:09:36Z</time>
      </trkpt>
      <trkpt lat="48.72914" lon="2.09256">
        <ele>132</ele>
        <time>2013-07-25T19:09:37Z</time>
      </trkpt>
      <trkpt lat="48.72915" lon="2.09256">
        <ele>132</ele>
        <time>2013-07-25T19:09:38Z</time>
      </trkpt>
      <trkpt lat="48.72915" lon="2.09256">
        <ele>132</ele>
        <time>2013-07-25T19:09:39Z</time>
      </trkpt>
      <trkpt lat="48.72915" lon="2.09256">
        <ele>132</ele>
        <time>2013-07-25T19:09:40Z</time>
      </trkpt>
      <trkpt lat="48.72914" lon="2.09255">
        <ele>132</ele>
        <time>2013-07-25T19:09:41Z</time>
      </trkpt>
      <trkpt lat="48.72913" lon="2.09255">
        <ele>132</ele>
        <time>2013-07-25T19:09:42Z</time>
      </trkpt>
      <trkpt lat="48.72913" lon="2.09254">
        <ele>132</ele>
        <time>2013-07-25T19:09:43Z</time>
      </trkpt>
      <trkpt lat="48.72913" lon="2.09254">
        <ele>131</ele>
        <time>2013-07-25T19:09:44Z</time>
      </trkpt>
      <trkpt lat="48.72914" lon="2.09254">
        <ele>131</ele>
        <time>2013-07-25T19:09:45Z</time>
      </trkpt>
      <trkpt lat="48.72914" lon="2.09254">
        <ele>131</ele>
        <time>2013-07-25T19:09:46Z</time>
      </trkpt>
      <trkpt lat="48.72914" lon="2.09254">
        <ele>131</ele>
        <time>2013-07-25T19:09:47Z</time>
      </trkpt>
      <trkpt lat="48.72914" lon="2.09254">
        <ele>131</ele>
        <time>2013-07-25T19:09:48Z</time>
      </trkpt>
      <trkpt lat="48.72913" lon="2.09254">
        <ele>131</ele>
        <time>2013-07-25T19:09:49Z</time>
      </trkpt>
      <trkpt lat="48.72913" lon="2.09254">
        <ele>132</ele>
        <time>2013-07-25T19:09:50Z</time>
      </trkpt>
      <trkpt lat="48.72913" lon="2.09255">
        <ele>132</ele>
        <time>2013-07-25T19:09:51Z</time>
      </trkpt>
      <trkpt lat="48.72912" lon="2.09255">
        <ele>132</ele>
        <time>2013-07-25T19:09:52Z</time>
      </trkpt>
      <trkpt lat="48.72911" lon="2.09255">
        <ele>132</ele>
        <time>2013-07-25T19:09:53Z</time>
      </trkpt>
      <trkpt lat="48.72911" lon="2.09255">
        <ele>132</ele>
        <time>2013-07-25T19:09:54Z</time>
      </trkpt>
      <trkpt lat="48.7291" lon="2.09254">
        <ele>132</ele>
        <time>2013-07-25T19:09:55Z</time>
      </trkpt>
      <trkpt lat="48.72909" lon="2.09254">
        <ele>132</ele>
        <time>2013-07-25T19:09:56Z</time>
      </trkpt>
      <trkpt lat="48.72909" lon="2.09253">
        <ele>132</ele>
        <time>2013-07-25T19:09:57Z</time>
      </trkpt>
      <trkpt lat="48.72908" lon="2.09252">
        <ele>132</ele>
        <time>2013-07-25T19:09:58Z</time>
      </trkpt>
      <trkpt lat="48.72907" lon="2.09252">
        <ele>132</ele>
        <time>2013-07-25T19:09:59Z</time>
      </trkpt>
      <trkpt lat="48.72906" lon="2.09251">
        <ele>132</ele>
        <time>2013-07-25T19:10:00Z</time>
      </trkpt>
      <trkpt lat="48.72905" lon="2.09252">
        <ele>132</ele>
        <time>2013-07-25T19:10:01Z</time>
      </trkpt>
      <trkpt lat="48.72905" lon="2.09252">
        <ele>132</ele>
        <time>2013-07-25T19:10:02Z</time>
      </trkpt>
      <trkpt lat="48.72904" lon="2.09252">
        <ele>132</ele>
        <time>2013-07-25T19:10:03Z</time>
      </trkpt>
      <trkpt lat="48.72903" lon="2.09253">
        <ele>132</ele>
        <time>2013-07-25T19:10:04Z</time>
      </trkpt>
      <trkpt lat="48.72901" lon="2.09253">
        <ele>132</ele>
        <time>2013-07-25T19:10:06Z</time>
      </trkpt>
      <trkpt lat="48.729" lon="2.09253">
        <ele>133</ele>
        <time>2013-07-25T19:10:07Z</time>
      </trkpt>
      <trkpt lat="48.72899" lon="2.09254">
        <ele>133</ele>
        <time>2013-07-25T19:10:08Z</time>
      </trkpt>
      <trkpt lat="48.72899" lon="2.09254">
        <ele>133</ele>
        <time>2013-07-25T19:10:09Z</time>
      </trkpt>
      <trkpt lat="48.72899" lon="2.09255">
        <ele>133</ele>
        <time>2013-07-25T19:10:10Z</time>
      </trkpt>
      <trkpt lat="48.72899" lon="2.09255">
        <ele>133</ele>
        <time>2013-07-25T19:10:11Z</time>
      </trkpt>
      <trkpt lat="48.72899" lon="2.09255">
        <ele>133</ele>
        <time>2013-07-25T19:10:12Z</time>
      </trkpt>
      <trkpt lat="48.72898" lon="2.09256">
        <ele>133</ele>
        <time>2013-07-25T19:10:13Z</time>
      </trkpt>
      <trkpt lat="48.72898" lon="2.09257">
        <ele>133</ele>
        <time>2013-07-25T19:10:14Z</time>
      </trkpt>
      <trkpt lat="48.72897" lon="2.09256">
        <ele>133</ele>
        <time>2013-07-25T19:10:15Z</time>
      </trkpt>
      <trkpt lat="48.72897" lon="2.09256">
        <ele>133</ele>
        <time>2013-07-25T19:10:16Z</time>
      </trkpt>
      <trkpt lat="48.72896" lon="2.09255">
        <ele>133</ele>
        <time>2013-07-25T19:10:17Z</time>
      </trkpt>
      <trkpt lat="48.72895" lon="2.09256">
        <ele>133</ele>
        <time>2013-07-25T19:10:18Z</time>
      </trkpt>
      <trkpt lat="48.72894" lon="2.09256">
        <ele>133</ele>
        <time>2013-07-25T19:10:19Z</time>
      </trkpt>
      <trkpt lat="48.72893" lon="2.09256">
        <ele>133</ele>
        <time>2013-07-25T19:10:20Z</time>
      </trkpt>
      <trkpt lat="48.7289" lon="2.09255">
        <ele>133</ele>
        <time>2013-07-25T19:10:22Z</time>
      </trkpt>
      <trkpt lat="48.72888" lon="2.09253">
        <ele>133</ele>
        <time>2013-07-25T19:10:23Z</time>
      </trkpt>
      <trkpt lat="48.72888" lon="2.09251">
        <ele>134</ele>
        <time>2013-07-25T19:10:24Z</time>
      </trkpt>
      <trkpt lat="48.72889" lon="2.09248">
        <ele>136</ele>
        <time>2013-07-25T19:10:25Z</time>
      </trkpt>
      <trkpt lat="48.7289" lon="2.09242">
        <ele>136</ele>
        <time>2013-07-25T19:10:27Z</time>
      </trkpt>
      <trkpt lat="48.7289" lon="2.09241">
        <ele>136</ele>
        <time>2013-07-25T19:10:28Z</time>
      </trkpt>
      <trkpt lat="48.7289" lon="2.09241">
        <ele>136</ele>
        <time>2013-07-25T19:10:29Z</time>
      </trkpt>
      <trkpt lat="48.72891" lon="2.09241">
        <ele>136</ele>
        <time>2013-07-25T19:10:30Z</time>
      </trkpt>
      <trkpt lat="48.72892" lon="2.0924">
        <ele>136</ele>
        <time>2013-07-25T19:10:31Z</time>
      </trkpt>
      <trkpt lat="48.72897" lon="2.09238">
        <ele>135</ele>
        <time>2013-07-25T19:10:33Z</time>
      </trkpt>
      <trkpt lat="48.72903" lon="2.09233">
        <ele>135</ele>
        <time>2013-07-25T19:10:35Z</time>
      </trkpt>
      <trkpt lat="48.72905" lon="2.09232">
        <ele>135</ele>
        <time>2013-07-25T19:10:36Z</time>
      </trkpt>
      <trkpt lat="48.72908" lon="2.09231">
        <ele>134</ele>
        <time>2013-07-25T19:10:37Z</time>
      </trkpt>
      <trkpt lat="48.7291" lon="2.09229">
        <ele>135</ele>
        <time>2013-07-25T19:10:38Z</time>
      </trkpt>
      <trkpt lat="48.72911" lon="2.09227">
        <ele>135</ele>
        <time>2013-07-25T19:10:39Z</time>
      </trkpt>
      <trkpt lat="48.72912" lon="2.09226">
        <ele>135</ele>
        <time>2013-07-25T19:10:40Z</time>
      </trkpt>
      <trkpt lat="48.72914" lon="2.09226">
        <ele>135</ele>
        <time>2013-07-25T19:10:41Z</time>
      </trkpt>
      <trkpt lat="48.72916" lon="2.09225">
        <ele>135</ele>
        <time>2013-07-25T19:10:43Z</time>
      </trkpt>
      <trkpt lat="48.72917" lon="2.09224">
        <ele>126</ele>
        <time>2013-07-25T19:10:44Z</time>
      </trkpt>
      <trkpt lat="48.72919" lon="2.09224">
        <ele>126</ele>
        <time>2013-07-25T19:10:45Z</time>
      </trkpt>
      <trkpt lat="48.7292" lon="2.09223">
        <ele>126</ele>
        <time>2013-07-25T19:10:46Z</time>
      </trkpt>
      <trkpt lat="48.72927" lon="2.09215">
        <ele>125</ele>
        <time>2013-07-25T19:10:49Z</time>
      </trkpt>
      <trkpt lat="48.7293" lon="2.09214">
        <ele>125</ele>
        <time>2013-07-25T19:10:50Z</time>
      </trkpt>
      <trkpt lat="48.72935" lon="2.09215">
        <ele>125</ele>
        <time>2013-07-25T19:10:51Z</time>
      </trkpt>
      <trkpt lat="48.7294" lon="2.09217">
        <ele>124</ele>
        <time>2013-07-25T19:10:52Z</time>
      </trkpt>
      <trkpt lat="48.72967" lon="2.09224">
        <ele>122</ele>
        <time>2013-07-25T19:10:57Z</time>
      </trkpt>
      <trkpt lat="48.72975" lon="2.09224">
        <ele>121</ele>
        <time>2013-07-25T19:10:59Z</time>
      </trkpt>
      <trkpt lat="48.72979" lon="2.09226">
        <ele>120</ele>
        <time>2013-07-25T19:11:00Z</time>
      </trkpt>
      <trkpt lat="48.72984" lon="2.09228">
        <ele>120</ele>
        <time>2013-07-25T19:11:01Z</time>
      </trkpt>
      <trkpt lat="48.72994" lon="2.0923">
        <ele>119</ele>
        <time>2013-07-25T19:11:03Z</time>
      </trkpt>
      <trkpt lat="48.73003" lon="2.09233">
        <ele>113</ele>
        <time>2013-07-25T19:11:05Z</time>
      </trkpt>
      <trkpt lat="48.73032" lon="2.09239">
        <ele>111</ele>
        <time>2013-07-25T19:11:12Z</time>
      </trkpt>
      <trkpt lat="48.73037" lon="2.09239">
        <ele>110</ele>
        <time>2013-07-25T19:11:13Z</time>
      </trkpt>
      <trkpt lat="48.73043" lon="2.09238">
        <ele>110</ele>
        <time>2013-07-25T19:11:14Z</time>
      </trkpt>
      <trkpt lat="48.73091" lon="2.09209">
        <ele>105</ele>
        <time>2013-07-25T19:11:22Z</time>
      </trkpt>
      <trkpt lat="48.73096" lon="2.09209">
        <ele>105</ele>
        <time>2013-07-25T19:11:23Z</time>
      </trkpt>
      <trkpt lat="48.73099" lon="2.09214">
        <ele>105</ele>
        <time>2013-07-25T19:11:24Z</time>
      </trkpt>
      <trkpt lat="48.73099" lon="2.0922">
        <ele>105</ele>
        <time>2013-07-25T19:11:25Z</time>
      </trkpt>
      <trkpt lat="48.73097" lon="2.09226">
        <ele>105</ele>
        <time>2013-07-25T19:11:26Z</time>
      </trkpt>
      <trkpt lat="48.73096" lon="2.09231">
        <ele>105</ele>
        <time>2013-07-25T19:11:27Z</time>
      </trkpt>
      <trkpt lat="48.73095" lon="2.09237">
        <ele>106</ele>
        <time>2013-07-25T19:11:28Z</time>
      </trkpt>
      <trkpt lat="48.73089" lon="2.09265">
        <ele>106</ele>
        <time>2013-07-25T19:11:33Z</time>
      </trkpt>
      <trkpt lat="48.73087" lon="2.0927">
        <ele>106</ele>
        <time>2013-07-25T19:11:34Z</time>
      </trkpt>
      <trkpt lat="48.73083" lon="2.09271">
        <ele>110</ele>
        <time>2013-07-25T19:11:35Z</time>
      </trkpt>
      <trkpt lat="48.7308" lon="2.09271">
        <ele>110</ele>
        <time>2013-07-25T19:11:36Z</time>
      </trkpt>
      <trkpt lat="48.73077" lon="2.09271">
        <ele>110</ele>
        <time>2013-07-25T19:11:37Z</time>
      </trkpt>
      <trkpt lat="48.73064" lon="2.09273">
        <ele>111</ele>
        <time>2013-07-25T19:11:41Z</time>
      </trkpt>
      <trkpt lat="48.73061" lon="2.09275">
        <ele>111</ele>
        <time>2013-07-25T19:11:42Z</time>
      </trkpt>
      <trkpt lat="48.73053" lon="2.09283">
        <ele>111</ele>
        <time>2013-07-25T19:11:45Z</time>
      </trkpt>
      <trkpt lat="48.73045" lon="2.09293">
        <ele>112</ele>
        <time>2013-07-25T19:11:48Z</time>
      </trkpt>
      <trkpt lat="48.73036" lon="2.09307">
        <ele>113</ele>
        <time>2013-07-25T19:11:53Z</time>
      </trkpt>
      <trkpt lat="48.73034" lon="2.09309">
        <ele>113</ele>
        <time>2013-07-25T19:11:54Z</time>
      </trkpt>
      <trkpt lat="48.73033" lon="2.09311">
        <ele>113</ele>
        <time>2013-07-25T19:11:55Z</time>
      </trkpt>
      <trkpt lat="48.73025" lon="2.09321">
        <ele>114</ele>
        <time>2013-07-25T19:11:59Z</time>
      </trkpt>
      <trkpt lat="48.73023" lon="2.09323">
        <ele>114</ele>
        <time>2013-07-25T19:12:00Z</time>
      </trkpt>
      <trkpt lat="48.7302" lon="2.09325">
        <ele>115</ele>
        <time>2013-07-25T19:12:01Z</time>
      </trkpt>
      <trkpt lat="48.73017" lon="2.09328">
        <ele>115</ele>
        <time>2013-07-25T19:12:02Z</time>
      </trkpt>
      <trkpt lat="48.73014" lon="2.09331">
        <ele>116</ele>
        <time>2013-07-25T19:12:03Z</time>
      </trkpt>
      <trkpt lat="48.73003" lon="2.09345">
        <ele>116</ele>
        <time>2013-07-25T19:12:07Z</time>
      </trkpt>
      <trkpt lat="48.72994" lon="2.09355">
        <ele>120</ele>
        <time>2013-07-25T19:12:11Z</time>
      </trkpt>
      <trkpt lat="48.72993" lon="2.09357">
        <ele>120</ele>
        <time>2013-07-25T19:12:12Z</time>
      </trkpt>
      <trkpt lat="48.72991" lon="2.09359">
        <ele>120</ele>
        <time>2013-07-25T19:12:13Z</time>
      </trkpt>
      <trkpt lat="48.7299" lon="2.09361">
        <ele>120</ele>
        <time>2013-07-25T19:12:14Z</time>
      </trkpt>
      <trkpt lat="48.72988" lon="2.09365">
        <ele>120</ele>
        <time>2013-07-25T19:12:16Z</time>
      </trkpt>
      <trkpt lat="48.72983" lon="2.09371">
        <ele>120</ele>
        <time>2013-07-25T19:12:19Z</time>
      </trkpt>
      <trkpt lat="48.72981" lon="2.09373">
        <ele>120</ele>
        <time>2013-07-25T19:12:20Z</time>
      </trkpt>
      <trkpt lat="48.72976" lon="2.0938">
        <ele>120</ele>
        <time>2013-07-25T19:12:23Z</time>
      </trkpt>
      <trkpt lat="48.72945" lon="2.09422">
        <ele>119</ele>
        <time>2013-07-25T19:12:34Z</time>
      </trkpt>
      <trkpt lat="48.72941" lon="2.09426">
        <ele>119</ele>
        <time>2013-07-25T19:12:35Z</time>
      </trkpt>
      <trkpt lat="48.72936" lon="2.0943">
        <ele>119</ele>
        <time>2013-07-25T19:12:36Z</time>
      </trkpt>
      <trkpt lat="48.72931" lon="2.09432">
        <ele>119</ele>
        <time>2013-07-25T19:12:37Z</time>
      </trkpt>
      <trkpt lat="48.72928" lon="2.09433">
        <ele>119</ele>
        <time>2013-07-25T19:12:38Z</time>
      </trkpt>
      <trkpt lat="48.72924" lon="2.09432">
        <ele>120</ele>
        <time>2013-07-25T19:12:39Z</time>
      </trkpt>
      <trkpt lat="48.72918" lon="2.0943">
        <ele>120</ele>
        <time>2013-07-25T19:12:41Z</time>
      </trkpt>
      <trkpt lat="48.72908" lon="2.0943">
        <ele>123</ele>
        <time>2013-07-25T19:12:47Z</time>
      </trkpt>
      <trkpt lat="48.72898" lon="2.09429">
        <ele>124</ele>
        <time>2013-07-25T19:12:51Z</time>
      </trkpt>
      <trkpt lat="48.72896" lon="2.0943">
        <ele>124</ele>
        <time>2013-07-25T19:12:52Z</time>
      </trkpt>
      <trkpt lat="48.72887" lon="2.09429">
        <ele>125</ele>
        <time>2013-07-25T19:12:57Z</time>
      </trkpt>
      <trkpt lat="48.72884" lon="2.09428">
        <ele>125</ele>
        <time>2013-07-25T19:12:59Z</time>
      </trkpt>
      <trkpt lat="48.7288" lon="2.09427">
        <ele>125</ele>
        <time>2013-07-25T19:13:01Z</time>
      </trkpt>
      <trkpt lat="48.72876" lon="2.09425">
        <ele>125</ele>
        <time>2013-07-25T19:13:04Z</time>
      </trkpt>
      <trkpt lat="48.72874" lon="2.09423">
        <ele>125</ele>
        <time>2013-07-25T19:13:07Z</time>
      </trkpt>
      <trkpt lat="48.72864" lon="2.09417">
        <ele>126</ele>
        <time>2013-07-25T19:13:13Z</time>
      </trkpt>
      <trkpt lat="48.72859" lon="2.09415">
        <ele>128</ele>
        <time>2013-07-25T19:13:15Z</time>
      </trkpt>
      <trkpt lat="48.7285" lon="2.09412">
        <ele>129</ele>
        <time>2013-07-25T19:13:20Z</time>
      </trkpt>
      <trkpt lat="48.72833" lon="2.09409">
        <ele>132</ele>
        <time>2013-07-25T19:13:28Z</time>
      </trkpt>
      <trkpt lat="48.72831" lon="2.0941">
        <ele>132</ele>
        <time>2013-07-25T19:13:29Z</time>
      </trkpt>
      <trkpt lat="48.72827" lon="2.09412">
        <ele>133</ele>
        <time>2013-07-25T19:13:31Z</time>
      </trkpt>
      <trkpt lat="48.72825" lon="2.09413">
        <ele>133</ele>
        <time>2013-07-25T19:13:32Z</time>
      </trkpt>
      <trkpt lat="48.72823" lon="2.09415">
        <ele>133</ele>
        <time>2013-07-25T19:13:33Z</time>
      </trkpt>
      <trkpt lat="48.72822" lon="2.09417">
        <ele>132</ele>
        <time>2013-07-25T19:13:34Z</time>
      </trkpt>
      <trkpt lat="48.72813" lon="2.09429">
        <ele>133</ele>
        <time>2013-07-25T19:13:42Z</time>
      </trkpt>
      <trkpt lat="48.72811" lon="2.09433">
        <ele>133</ele>
        <time>2013-07-25T19:13:44Z</time>
      </trkpt>
      <trkpt lat="48.72809" lon="2.09437">
        <ele>134</ele>
        <time>2013-07-25T19:13:46Z</time>
      </trkpt>
      <trkpt lat="48.72805" lon="2.09442">
        <ele>134</ele>
        <time>2013-07-25T19:13:49Z</time>
      </trkpt>
      <trkpt lat="48.72804" lon="2.09444">
        <ele>134</ele>
        <time>2013-07-25T19:13:50Z</time>
      </trkpt>
      <trkpt lat="48.72795" lon="2.09472">
        <ele>134</ele>
        <time>2013-07-25T19:13:59Z</time>
      </trkpt>
      <trkpt lat="48.72793" lon="2.09485">
        <ele>134</ele>
        <time>2013-07-25T19:14:02Z</time>
      </trkpt>
      <trkpt lat="48.72791" lon="2.0949">
        <ele>134</ele>
        <time>2013-07-25T19:14:03Z</time>
      </trkpt>
      <trkpt lat="48.72789" lon="2.09495">
        <ele>134</ele>
        <time>2013-07-25T19:14:04Z</time>
      </trkpt>
      <trkpt lat="48.72739" lon="2.09644">
        <ele>129</ele>
        <time>2013-07-25T19:14:20Z</time>
      </trkpt>
      <trkpt lat="48.72735" lon="2.09665">
        <ele>128</ele>
        <time>2013-07-25T19:14:22Z</time>
      </trkpt>
      <trkpt lat="48.72723" lon="2.09694">
        <ele>124</ele>
        <time>2013-07-25T19:14:25Z</time>
      </trkpt>
      <trkpt lat="48.7269" lon="2.09793">
        <ele>119</ele>
        <time>2013-07-25T19:14:37Z</time>
      </trkpt>
      <trkpt lat="48.72686" lon="2.09801">
        <ele>119</ele>
        <time>2013-07-25T19:14:39Z</time>
      </trkpt>
      <trkpt lat="48.72684" lon="2.0981">
        <ele>119</ele>
        <time>2013-07-25T19:14:41Z</time>
      </trkpt>
      <trkpt lat="48.72683" lon="2.09814">
        <ele>120</ele>
        <time>2013-07-25T19:14:42Z</time>
      </trkpt>
      <trkpt lat="48.7268" lon="2.09821">
        <ele>120</ele>
        <time>2013-07-25T19:14:44Z</time>
      </trkpt>
      <trkpt lat="48.72678" lon="2.09828">
        <ele>120</ele>
        <time>2013-07-25T19:14:46Z</time>
      </trkpt>
      <trkpt lat="48.72672" lon="2.09846">
        <ele>119</ele>
        <time>2013-07-25T19:14:51Z</time>
      </trkpt>
      <trkpt lat="48.72668" lon="2.09856">
        <ele>118</ele>
        <time>2013-07-25T19:14:54Z</time>
      </trkpt>
      <trkpt lat="48.72664" lon="2.09861">
        <ele>127</ele>
        <time>2013-07-25T19:14:56Z</time>
      </trkpt>
      <trkpt lat="48.72656" lon="2.09868">
        <ele>128</ele>
        <time>2013-07-25T19:15:00Z</time>
      </trkpt>
      <trkpt lat="48.7264" lon="2.0988">
        <ele>129</ele>
        <time>2013-07-25T19:15:08Z</time>
      </trkpt>
      <trkpt lat="48.72638" lon="2.09881">
        <ele>129</ele>
        <time>2013-07-25T19:15:09Z</time>
      </trkpt>
      <trkpt lat="48.72632" lon="2.09886">
        <ele>130</ele>
        <time>2013-07-25T19:15:12Z</time>
      </trkpt>
      <trkpt lat="48.72623" lon="2.09895">
        <ele>131</ele>
        <time>2013-07-25T19:15:18Z</time>
      </trkpt>
      <trkpt lat="48.72614" lon="2.09905">
        <ele>132</ele>
        <time>2013-07-25T19:15:24Z</time>
      </trkpt>
      <trkpt lat="48.72612" lon="2.09908">
        <ele>133</ele>
        <time>2013-07-25T19:15:26Z</time>
      </trkpt>
      <trkpt lat="48.72609" lon="2.0991">
        <ele>133</ele>
        <time>2013-07-25T19:15:28Z</time>
      </trkpt>
      <trkpt lat="48.72608" lon="2.09911">
        <ele>133</ele>
        <time>2013-07-25T19:15:29Z</time>
      </trkpt>
      <trkpt lat="48.72607" lon="2.09913">
        <ele>134</ele>
        <time>2013-07-25T19:15:30Z</time>
      </trkpt>
      <trkpt lat="48.72606" lon="2.09914">
        <ele>134</ele>
        <time>2013-07-25T19:15:31Z</time>
      </trkpt>
      <trkpt lat="48.72602" lon="2.09918">
        <ele>133</ele>
        <time>2013-07-25T19:15:35Z</time>
      </trkpt>
      <trkpt lat="48.72601" lon="2.09919">
        <ele>134</ele>
        <time>2013-07-25T19:15:36Z</time>
      </trkpt>
      <trkpt lat="48.726" lon="2.09921">
        <ele>134</ele>
        <time>2013-07-25T19:15:37Z</time>
      </trkpt>
      <trkpt lat="48.72599" lon="2.09922">
        <ele>134</ele>
        <time>2013-07-25T19:15:38Z</time>
      </trkpt>
      <trkpt lat="48.72598" lon="2.09924">
        <ele>134</ele>
        <time>2013-07-25T19:15:39Z</time>
      </trkpt>
      <trkpt lat="48.72596" lon="2.09927">
        <ele>134</ele>
        <time>2013-07-25T19:15:41Z</time>
      </trkpt>
      <trkpt lat="48.72595" lon="2.09928">
        <ele>134</ele>
        <time>2013-07-25T19:15:42Z</time>
      </trkpt>
      <trkpt lat="48.72594" lon="2.09929">
        <ele>134</ele>
        <time>2013-07-25T19:15:43Z</time>
      </trkpt>
      <trkpt lat="48.72593" lon="2.09931">
        <ele>134</ele>
        <time>2013-07-25T19:15:44Z</time>
      </trkpt>
      <trkpt lat="48.72592" lon="2.09932">
        <ele>134</ele>
        <time>2013-07-25T19:15:45Z</time>
      </trkpt>
      <trkpt lat="48.72592" lon="2.09933">
        <ele>134</ele>
        <time>2013-07-25T19:15:46Z</time>
      </trkpt>
      <trkpt lat="48.7259" lon="2.09934">
        <ele>134</ele>
        <time>2013-07-25T19:15:47Z</time>
      </trkpt>
      <trkpt lat="48.72589" lon="2.09935">
        <ele>134</ele>
        <time>2013-07-25T19:15:48Z</time>
      </trkpt>
      <trkpt lat="48.72588" lon="2.09936">
        <ele>134</ele>
        <time>2013-07-25T19:15:49Z</time>
      </trkpt>
      <trkpt lat="48.72586" lon="2.09939">
        <ele>133</ele>
        <time>2013-07-25T19:15:51Z</time>
      </trkpt>
      <trkpt lat="48.72585" lon="2.09941">
        <ele>133</ele>
        <time>2013-07-25T19:15:52Z</time>
      </trkpt>
      <trkpt lat="48.72584" lon="2.09942">
        <ele>133</ele>
        <time>2013-07-25T19:15:53Z</time>
      </trkpt>
      <trkpt lat="48.72583" lon="2.09945">
        <ele>145</ele>
        <time>2013-07-25T19:15:55Z</time>
      </trkpt>
      <trkpt lat="48.72582" lon="2.09949">
        <ele>145</ele>
        <time>2013-07-25T19:15:57Z</time>
      </trkpt>
      <trkpt lat="48.72581" lon="2.0995">
        <ele>145</ele>
        <time>2013-07-25T19:15:58Z</time>
      </trkpt>
      <trkpt lat="48.7258" lon="2.0995">
        <ele>145</ele>
        <time>2013-07-25T19:15:59Z</time>
      </trkpt>
      <trkpt lat="48.7258" lon="2.09949">
        <ele>145</ele>
        <time>2013-07-25T19:16:00Z</time>
      </trkpt>
      <trkpt lat="48.72579" lon="2.09948">
        <ele>145</ele>
        <time>2013-07-25T19:16:01Z</time>
      </trkpt>
      <trkpt lat="48.72579" lon="2.09948">
        <ele>145</ele>
        <time>2013-07-25T19:16:02Z</time>
      </trkpt>
      <trkpt lat="48.72578" lon="2.09947">
        <ele>145</ele>
        <time>2013-07-25T19:16:03Z</time>
      </trkpt>
      <trkpt lat="48.72578" lon="2.09946">
        <ele>145</ele>
        <time>2013-07-25T19:16:04Z</time>
      </trkpt>
      <trkpt lat="48.72577" lon="2.09945">
        <ele>145</ele>
        <time>2013-07-25T19:16:05Z</time>
      </trkpt>
      <trkpt lat="48.72576" lon="2.09942">
        <ele>145</ele>
        <time>2013-07-25T19:16:08Z</time>
      </trkpt>
      <trkpt lat="48.72576" lon="2.09941">
        <ele>145</ele>
        <time>2013-07-25T19:16:09Z</time>
      </trkpt>
      <trkpt lat="48.72575" lon="2.09938">
        <ele>144</ele>
        <time>2013-07-25T19:16:12Z</time>
      </trkpt>
      <trkpt lat="48.72575" lon="2.09937">
        <ele>144</ele>
        <time>2013-07-25T19:16:13Z</time>
      </trkpt>
      <trkpt lat="48.72575" lon="2.09936">
        <ele>144</ele>
        <time>2013-07-25T19:16:14Z</time>
      </trkpt>
      <trkpt lat="48.72575" lon="2.09934">
        <ele>144</ele>
        <time>2013-07-25T19:16:15Z</time>
      </trkpt>
      <trkpt lat="48.72574" lon="2.09933">
        <ele>144</ele>
        <time>2013-07-25T19:16:16Z</time>
      </trkpt>
      <trkpt lat="48.72574" lon="2.09932">
        <ele>144</ele>
        <time>2013-07-25T19:16:17Z</time>
      </trkpt>
      <trkpt lat="48.72574" lon="2.0993">
        <ele>144</ele>
        <time>2013-07-25T19:16:18Z</time>
      </trkpt>
      <trkpt lat="48.72574" lon="2.09927">
        <ele>143</ele>
        <time>2013-07-25T19:16:20Z</time>
      </trkpt>
      <trkpt lat="48.72573" lon="2.09926">
        <ele>143</ele>
        <time>2013-07-25T19:16:21Z</time>
      </trkpt>
      <trkpt lat="48.72573" lon="2.09922">
        <ele>143</ele>
        <time>2013-07-25T19:16:23Z</time>
      </trkpt>
      <trkpt lat="48.72573" lon="2.09921">
        <ele>143</ele>
        <time>2013-07-25T19:16:24Z</time>
      </trkpt>
      <trkpt lat="48.72572" lon="2.09917">
        <ele>143</ele>
        <time>2013-07-25T19:16:26Z</time>
      </trkpt>
      <trkpt lat="48.72572" lon="2.09916">
        <ele>143</ele>
        <time>2013-07-25T19:16:27Z</time>
      </trkpt>
      <trkpt lat="48.72571" lon="2.09909">
        <ele>144</ele>
        <time>2013-07-25T19:16:31Z</time>
      </trkpt>
      <trkpt lat="48.72571" lon="2.09907">
        <ele>144</ele>
        <time>2013-07-25T19:16:32Z</time>
      </trkpt>
      <trkpt lat="48.7257" lon="2.09906">
        <ele>145</ele>
        <time>2013-07-25T19:16:33Z</time>
      </trkpt>
      <trkpt lat="48.7257" lon="2.09899">
        <ele>145</ele>
        <time>2013-07-25T19:16:37Z</time>
      </trkpt>
      <trkpt lat="48.7257" lon="2.09897">
        <ele>146</ele>
        <time>2013-07-25T19:16:38Z</time>
      </trkpt>
      <trkpt lat="48.7257" lon="2.09895">
        <ele>146</ele>
        <time>2013-07-25T19:16:39Z</time>
      </trkpt>
      <trkpt lat="48.7257" lon="2.0989">
        <ele>146</ele>
        <time>2013-07-25T19:16:42Z</time>
      </trkpt>
      <trkpt lat="48.7257" lon="2.09889">
        <ele>147</ele>
        <time>2013-07-25T19:16:43Z</time>
      </trkpt>
      <trkpt lat="48.7257" lon="2.09886">
        <ele>147</ele>
        <time>2013-07-25T19:16:45Z</time>
      </trkpt>
      <trkpt lat="48.7257" lon="2.09883">
        <ele>147</ele>
        <time>2013-07-25T19:16:47Z</time>
      </trkpt>
      <trkpt lat="48.72569" lon="2.09883">
        <ele>147</ele>
        <time>2013-07-25T19:16:48Z</time>
      </trkpt>
      <trkpt lat="48.72567" lon="2.09882">
        <ele>147</ele>
        <time>2013-07-25T19:16:50Z</time>
      </trkpt>
      <trkpt lat="48.72566" lon="2.09882">
        <ele>147</ele>
        <time>2013-07-25T19:16:51Z</time>
      </trkpt>
      <trkpt lat="48.72565" lon="2.09883">
        <ele>147</ele>
        <time>2013-07-25T19:16:52Z</time>
      </trkpt>
      <trkpt lat="48.72564" lon="2.09882">
        <ele>147</ele>
        <time>2013-07-25T19:16:53Z</time>
      </trkpt>
      <trkpt lat="48.72564" lon="2.09882">
        <ele>148</ele>
        <time>2013-07-25T19:16:54Z</time>
      </trkpt>
      <trkpt lat="48.72564" lon="2.09882">
        <ele>148</ele>
        <time>2013-07-25T19:16:55Z</time>
      </trkpt>
      <trkpt lat="48.72564" lon="2.09882">
        <ele>148</ele>
        <time>2013-07-25T19:16:56Z</time>
      </trkpt>
      <trkpt lat="48.72563" lon="2.09882">
        <ele>148</ele>
        <time>2013-07-25T19:16:58Z</time>
      </trkpt>
      <trkpt lat="48.72563" lon="2.09882">
        <ele>148</ele>
        <time>2013-07-25T19:17:01Z</time>
      </trkpt>
      <trkpt lat="48.72563" lon="2.09882">
        <ele>148</ele>
        <time>2013-07-25T19:17:02Z</time>
      </trkpt>
      <trkpt lat="48.72563" lon="2.09882">
        <ele>148</ele>
        <time>2013-07-25T19:17:03Z</time>
      </trkpt>
      <trkpt lat="48.72563" lon="2.09882">
        <ele>148</ele>
        <time>2013-07-25T19:17:04Z</time>
      </trkpt>
      <trkpt lat="48.72563" lon="2.09881">
        <ele>148</ele>
        <time>2013-07-25T19:17:05Z</time>
      </trkpt>
      <trkpt lat="48.72563" lon="2.09881">
        <ele>148</ele>
        <time>2013-07-25T19:17:06Z</time>
      </trkpt>
      <trkpt lat="48.72563" lon="2.09881">
        <ele>148</ele>
        <time>2013-07-25T19:17:07Z</time>
      </trkpt>
      <trkpt lat="48.72563" lon="2.09881">
        <ele>148</ele>
        <time>2013-07-25T19:17:08Z</time>
      </trkpt>
      <trkpt lat="48.72563" lon="2.09881">
        <ele>148</ele>
        <time>2013-07-25T19:17:09Z</time>
      </trkpt>
      <trkpt lat="48.72563" lon="2.09881">
        <ele>148</ele>
        <time>2013-07-25T19:17:10Z</time>
      </trkpt>
      <trkpt lat="48.72563" lon="2.09881">
        <ele>148</ele>
        <time>2013-07-25T19:17:11Z</time>
      </trkpt>
      <trkpt lat="48.72562" lon="2.09881">
        <ele>148</ele>
        <time>2013-07-25T19:17:12Z</time>
      </trkpt>
      <trkpt lat="48.72562" lon="2.0988">
        <ele>148</ele>
        <time>2013-07-25T19:17:13Z</time>
      </trkpt>
      <trkpt lat="48.72562" lon="2.0988">
        <ele>148</ele>
        <time>2013-07-25T19:17:14Z</time>
      </trkpt>
      <trkpt lat="48.72562" lon="2.0988">
        <ele>148</ele>
        <time>2013-07-25T19:17:15Z</time>
      </trkpt>
      <trkpt lat="48.72562" lon="2.0988">
        <ele>148</ele>
        <time>2013-07-25T19:17:16Z</time>
      </trkpt>
      <trkpt lat="48.72562" lon="2.0988">
        <ele>148</ele>
        <time>2013-07-25T19:17:17Z</time>
      </trkpt>
      <trkpt lat="48.72562" lon="2.0988">
        <ele>148</ele>
        <time>2013-07-25T19:17:18Z</time>
      </trkpt>
      <trkpt lat="48.72562" lon="2.0988">
        <ele>148</ele>
        <time>2013-07-25T19:17:19Z</time>
      </trkpt>
      <trkpt lat="48.72562" lon="2.0988">
        <ele>148</ele>
        <time>2013-07-25T19:17:20Z</time>
      </trkpt>
      <trkpt lat="48.72562" lon="2.0988">
        <ele>148</ele>
        <time>2013-07-25T19:17:21Z</time>
      </trkpt>
      <trkpt lat="48.72562" lon="2.0988">
        <ele>148</ele>
        <time>2013-07-25T19:17:22Z</time>
      </trkpt>
      <trkpt lat="48.72562" lon="2.0988">
        <ele>148</ele>
        <time>2013-07-25T19:17:23Z</time>
      </trkpt>
      <trkpt lat="48.72562" lon="2.0988">
        <ele>148</ele>
        <time>2013-07-25T19:17:24Z</time>
      </trkpt>
      <trkpt lat="48.72562" lon="2.0988">
        <ele>148</ele>
        <time>2013-07-25T19:17:25Z</time>
      </trkpt>
      <trkpt lat="48.72561" lon="2.09879">
        <ele>148</ele>
        <time>2013-07-25T19:17:26Z</time>
      </trkpt>
      <trkpt lat="48.72561" lon="2.09879">
        <ele>148</ele>
        <time>2013-07-25T19:17:27Z</time>
      </trkpt>
      <trkpt lat="48.72561" lon="2.09879">
        <ele>148</ele>
        <time>2013-07-25T19:17:28Z</time>
      </trkpt>
      <trkpt lat="48.72561" lon="2.09879">
        <ele>148</ele>
        <time>2013-07-25T19:17:29Z</time>
      </trkpt>
      <trkpt lat="48.72561" lon="2.09879">
        <ele>148</ele>
        <time>2013-07-25T19:17:30Z</time>
      </trkpt>
      <trkpt lat="48.72561" lon="2.09879">
        <ele>148</ele>
        <time>2013-07-25T19:17:31Z</time>
      </trkpt>
      <trkpt lat="48.72561" lon="2.09879">
        <ele>148</ele>
        <time>2013-07-25T19:17:32Z</time>
      </trkpt>
      <trkpt lat="48.72561" lon="2.09879">
        <ele>148</ele>
        <time>2013-07-25T19:17:33Z</time>
      </trkpt>
      <trkpt lat="48.72561" lon="2.09879">
        <ele>148</ele>
        <time>2013-07-25T19:17:34Z</time>
      </trkpt>
      <trkpt lat="48.72561" lon="2.09879">
        <ele>148</ele>
        <time>2013-07-25T19:17:35Z</time>
      </trkpt>
      <trkpt lat="48.72561" lon="2.09879">
        <ele>148</ele>
        <time>2013-07-25T19:17:36Z</time>
      </trkpt>
      <trkpt lat="48.7256" lon="2.0988">
        <ele>148</ele>
        <time>2013-07-25T19:17:38Z</time>
      </trkpt>
      <trkpt lat="48.7256" lon="2.0988">
        <ele>148</ele>
        <time>2013-07-25T19:17:39Z</time>
      </trkpt>
      <trkpt lat="48.7256" lon="2.0988">
        <ele>148</ele>
        <time>2013-07-25T19:17:40Z</time>
      </trkpt>
      <trkpt lat="48.7256" lon="2.0988">
        <ele>148</ele>
        <time>2013-07-25T19:17:41Z</time>
      </trkpt>
      <trkpt lat="48.7256" lon="2.0988">
        <ele>148</ele>
        <time>2013-07-25T19:17:42Z</time>
      </trkpt>
      <trkpt lat="48.7256" lon="2.0988">
        <ele>148</ele>
        <time>2013-07-25T19:17:43Z</time>
      </trkpt>
      <trkpt lat="48.7256" lon="2.0988">
        <ele>148</ele>
        <time>2013-07-25T19:17:44Z</time>
      </trkpt>
      <trkpt lat="48.7256" lon="2.0988">
        <ele>148</ele>
        <time>2013-07-25T19:17:45Z</time>
      </trkpt>
      <trkpt lat="48.7256" lon="2.0988">
        <ele>148</ele>
        <time>2013-07-25T19:17:46Z</time>
      </trkpt>
      <trkpt lat="48.7256" lon="2.0988">
        <ele>148</ele>
        <time>2013-07-25T19:17:47Z</time>
      </trkpt>
      <trkpt lat="48.7256" lon="2.0988">
        <ele>148</ele>
        <time>2013-07-25T19:17:48Z</time>
      </trkpt>
      <trkpt lat="48.7256" lon="2.0988">
        <ele>148</ele>
        <time>2013-07-25T19:17:49Z</time>
      </trkpt>
      <trkpt lat="48.7256" lon="2.0988">
        <ele>148</ele>
        <time>2013-07-25T19:17:50Z</time>
      </trkpt>
      <trkpt lat="48.7256" lon="2.0988">
        <ele>148</ele>
        <time>2013-07-25T19:17:51Z</time>
      </trkpt>
      <trkpt lat="48.72559" lon="2.0988">
        <ele>148</ele>
        <time>2013-07-25T19:17:52Z</time>
      </trkpt>
      <trkpt lat="48.72559" lon="2.0988">
        <ele>148</ele>
        <time>2013-07-25T19:17:53Z</time>
      </trkpt>
      <trkpt lat="48.72559" lon="2.0988">
        <ele>148</ele>
        <time>2013-07-25T19:17:54Z</time>
      </trkpt>
      <trkpt lat="48.72559" lon="2.0988">
        <ele>148</ele>
        <time>2013-07-25T19:17:55Z</time>
      </trkpt>
      <trkpt lat="48.72559" lon="2.0988">
        <ele>148</ele>
        <time>2013-07-25T19:17:56Z</time>
      </trkpt>
      <trkpt lat="48.72559" lon="2.0988">
        <ele>148</ele>
        <time>2013-07-25T19:17:57Z</time>
      </trkpt>
      <trkpt lat="48.72559" lon="2.0988">
        <ele>148</ele>
        <time>2013-07-25T19:17:58Z</time>
      </trkpt>
      <trkpt lat="48.72559" lon="2.0988">
        <ele>148</ele>
        <time>2013-07-25T19:17:59Z</time>
      </trkpt>
      <trkpt lat="48.72559" lon="2.0988">
        <ele>148</ele>
        <time>2013-07-25T19:18:00Z</time>
      </trkpt>
      <trkpt lat="48.72559" lon="2.0988">
        <ele>148</ele>
        <time>2013-07-25T19:18:01Z</time>
      </trkpt>
      <trkpt lat="48.72559" lon="2.0988">
        <ele>148</ele>
        <time>2013-07-25T19:18:02Z</time>
      </trkpt>
      <trkpt lat="48.72559" lon="2.09881">
        <ele>148</ele>
        <time>2013-07-25T19:18:03Z</time>
      </trkpt>
      <trkpt lat="48.72559" lon="2.09881">
        <ele>148</ele>
        <time>2013-07-25T19:18:04Z</time>
      </trkpt>
      <trkpt lat="48.72559" lon="2.09881">
        <ele>148</ele>
        <time>2013-07-25T19:18:05Z</time>
      </trkpt>
      <trkpt lat="48.72558" lon="2.0988">
        <ele>148</ele>
        <time>2013-07-25T19:18:06Z</time>
      </trkpt>
      <trkpt lat="48.72558" lon="2.0988">
        <ele>148</ele>
        <time>2013-07-25T19:18:07Z</time>
      </trkpt>
      <trkpt lat="48.72558" lon="2.0988">
        <ele>148</ele>
        <time>2013-07-25T19:18:08Z</time>
      </trkpt>
      <trkpt lat="48.72558" lon="2.0988">
        <ele>148</ele>
        <time>2013-07-25T19:18:09Z</time>
      </trkpt>
      <trkpt lat="48.72558" lon="2.0988">
        <ele>148</ele>
        <time>2013-07-25T19:18:10Z</time>
      </trkpt>
      <trkpt lat="48.72558" lon="2.0988">
        <ele>148</ele>
        <time>2013-07-25T19:18:11Z</time>
      </trkpt>
      <trkpt lat="48.72558" lon="2.0988">
        <ele>148</ele>
        <time>2013-07-25T19:18:12Z</time>
      </trkpt>
      <trkpt lat="48.72558" lon="2.0988">
        <ele>148</ele>
        <time>2013-07-25T19:18:13Z</time>
      </trkpt>
      <trkpt lat="48.72558" lon="2.0988">
        <ele>148</ele>
        <time>2013-07-25T19:18:14Z</time>
      </trkpt>
      <trkpt lat="48.72558" lon="2.0988">
        <ele>148</ele>
        <time>2013-07-25T19:18:15Z</time>
      </trkpt>
      <trkpt lat="48.72558" lon="2.0988">
        <ele>148</ele>
        <time>2013-07-25T19:18:16Z</time>
      </trkpt>
      <trkpt lat="48.72558" lon="2.0988">
        <ele>148</ele>
        <time>2013-07-25T19:18:17Z</time>
      </trkpt>
      <trkpt lat="48.72558" lon="2.0988">
        <ele>148</ele>
        <time>2013-07-25T19:18:18Z</time>
      </trkpt>
      <trkpt lat="48.72558" lon="2.0988">
        <ele>148</ele>
        <time>2013-07-25T19:18:19Z</time>
      </trkpt>
      <trkpt lat="48.72558" lon="2.0988">
        <ele>148</ele>
        <time>2013-07-25T19:18:20Z</time>
      </trkpt>
      <trkpt lat="48.72558" lon="2.09879">
        <ele>148</ele>
        <time>2013-07-25T19:18:21Z</time>
      </trkpt>
      <trkpt lat="48.72558" lon="2.09879">
        <ele>148</ele>
        <time>2013-07-25T19:18:22Z</time>
      </trkpt>
      <trkpt lat="48.72558" lon="2.09879">
        <ele>148</ele>
        <time>2013-07-25T19:18:23Z</time>
      </trkpt>
      <trkpt lat="48.72558" lon="2.09879">
        <ele>148</ele>
        <time>2013-07-25T19:18:24Z</time>
      </trkpt>
      <trkpt lat="48.72558" lon="2.09879">
        <ele>148</ele>
        <time>2013-07-25T19:18:25Z</time>
      </trkpt>
      <trkpt lat="48.72558" lon="2.09879">
        <ele>148</ele>
        <time>2013-07-25T19:18:26Z</time>
      </trkpt>
      <trkpt lat="48.72558" lon="2.09879">
        <ele>148</ele>
        <time>2013-07-25T19:18:27Z</time>
      </trkpt>
      <trkpt lat="48.72558" lon="2.09879">
        <ele>148</ele>
        <time>2013-07-25T19:18:28Z</time>
      </trkpt>
      <trkpt lat="48.72558" lon="2.09879">
        <ele>148</ele>
        <time>2013-07-25T19:18:29Z</time>
      </trkpt>
      <trkpt lat="48.72558" lon="2.09878">
        <ele>148</ele>
        <time>2013-07-25T19:18:30Z</time>
      </trkpt>
      <trkpt lat="48.72558" lon="2.09878">
        <ele>148</ele>
        <time>2013-07-25T19:18:31Z</time>
      </trkpt>
      <trkpt lat="48.72558" lon="2.09878">
        <ele>148</ele>
        <time>2013-07-25T19:18:32Z</time>
      </trkpt>
      <trkpt lat="48.72557" lon="2.09878">
        <ele>148</ele>
        <time>2013-07-25T19:18:33Z</time>
      </trkpt>
      <trkpt lat="48.72557" lon="2.09878">
        <ele>148</ele>
        <time>2013-07-25T19:18:34Z</time>
      </trkpt>
      <trkpt lat="48.72557" lon="2.09878">
        <ele>148</ele>
        <time>2013-07-25T19:18:35Z</time>
      </trkpt>
      <trkpt lat="48.72557" lon="2.09878">
        <ele>148</ele>
        <time>2013-07-25T19:18:36Z</time>
      </trkpt>
      <trkpt lat="48.72557" lon="2.09878">
        <ele>148</ele>
        <time>2013-07-25T19:18:37Z</time>
      </trkpt>
      <trkpt lat="48.72557" lon="2.09878">
        <ele>148</ele>
        <time>2013-07-25T19:18:38Z</time>
      </trkpt>
      <trkpt lat="48.72557" lon="2.09878">
        <ele>148</ele>
        <time>2013-07-25T19:18:39Z</time>
      </trkpt>
      <trkpt lat="48.72556" lon="2.09878">
        <ele>148</ele>
        <time>2013-07-25T19:18:40Z</time>
      </trkpt>
      <trkpt lat="48.72556" lon="2.09878">
        <ele>148</ele>
        <time>2013-07-25T19:18:41Z</time>
      </trkpt>
      <trkpt lat="48.72556" lon="2.09878">
        <ele>148</ele>
        <time>2013-07-25T19:18:42Z</time>
      </trkpt>
      <trkpt lat="48.72556" lon="2.09878">
        <ele>148</ele>
        <time>2013-07-25T19:18:43Z</time>
      </trkpt>
      <trkpt lat="48.72556" lon="2.09878">
        <ele>148</ele>
        <time>2013-07-25T19:18:44Z</time>
      </trkpt>
      <trkpt lat="48.72556" lon="2.09877">
        <ele>148</ele>
        <time>2013-07-25T19:18:45Z</time>
      </trkpt>
      <trkpt lat="48.72556" lon="2.09877">
        <ele>148</ele>
        <time>2013-07-25T19:18:46Z</time>
      </trkpt>
      <trkpt lat="48.72555" lon="2.09877">
        <ele>149</ele>
        <time>2013-07-25T19:18:47Z</time>
      </trkpt>
      <trkpt lat="48.72555" lon="2.09877">
        <ele>149</ele>
        <time>2013-07-25T19:18:48Z</time>
      </trkpt>
      <trkpt lat="48.72555" lon="2.09877">
        <ele>149</ele>
        <time>2013-07-25T19:18:49Z</time>
      </trkpt>
      <trkpt lat="48.72555" lon="2.09877">
        <ele>149</ele>
        <time>2013-07-25T19:18:50Z</time>
      </trkpt>
      <trkpt lat="48.72555" lon="2.09877">
        <ele>149</ele>
        <time>2013-07-25T19:18:51Z</time>
      </trkpt>
      <trkpt lat="48.72555" lon="2.09877">
        <ele>149</ele>
        <time>2013-07-25T19:18:52Z</time>
      </trkpt>
      <trkpt lat="48.72555" lon="2.09877">
        <ele>149</ele>
        <time>2013-07-25T19:18:53Z</time>
      </trkpt>
      <trkpt lat="48.72555" lon="2.09877">
        <ele>149</ele>
        <time>2013-07-25T19:18:54Z</time>
      </trkpt>
      <trkpt lat="48.72555" lon="2.09877">
        <ele>149</ele>
        <time>2013-07-25T19:18:55Z</time>
      </trkpt>
      <trkpt lat="48.72555" lon="2.09877">
        <ele>149</ele>
        <time>2013-07-25T19:18:56Z</time>
      </trkpt>
      <trkpt lat="48.72555" lon="2.09877">
        <ele>149</ele>
        <time>2013-07-25T19:18:57Z</time>
      </trkpt>
      <trkpt lat="48.72555" lon="2.09877">
        <ele>149</ele>
        <time>2013-07-25T19:18:58Z</time>
      </trkpt>
      <trkpt lat="48.72555" lon="2.09876">
        <ele>149</ele>
        <time>2013-07-25T19:18:59Z</time>
      </trkpt>
      <trkpt lat="48.72555" lon="2.09876">
        <ele>149</ele>
        <time>2013-07-25T19:19:00Z</time>
      </trkpt>
      <trkpt lat="48.72555" lon="2.09876">
        <ele>149</ele>
        <time>2013-07-25T19:19:01Z</time>
      </trkpt>
      <trkpt lat="48.72555" lon="2.09876">
        <ele>149</ele>
        <time>2013-07-25T19:19:02Z</time>
      </trkpt>
      <trkpt lat="48.72555" lon="2.09876">
        <ele>149</ele>
        <time>2013-07-25T19:19:03Z</time>
      </trkpt>
      <trkpt lat="48.72555" lon="2.09876">
        <ele>149</ele>
        <time>2013-07-25T19:19:04Z</time>
      </trkpt>
      <trkpt lat="48.72555" lon="2.09876">
        <ele>149</ele>
        <time>2013-07-25T19:19:05Z</time>
      </trkpt>
      <trkpt lat="48.72555" lon="2.09876">
        <ele>149</ele>
        <time>2013-07-25T19:19:06Z</time>
      </trkpt>
      <trkpt lat="48.72555" lon="2.09876">
        <ele>149</ele>
        <time>2013-07-25T19:19:07Z</time>
      </trkpt>
      <trkpt lat="48.72555" lon="2.09876">
        <ele>149</ele>
        <time>2013-07-25T19:19:08Z</time>
      </trkpt>
      <trkpt lat="48.72555" lon="2.09876">
        <ele>149</ele>
        <time>2013-07-25T19:19:09Z</time>
      </trkpt>
      <trkpt lat="48.72555" lon="2.09875">
        <ele>149</ele>
        <time>2013-07-25T19:19:10Z</time>
      </trkpt>
      <trkpt lat="48.72555" lon="2.09875">
        <ele>149</ele>
        <time>2013-07-25T19:19:11Z</time>
      </trkpt>
      <trkpt lat="48.72555" lon="2.09875">
        <ele>149</ele>
        <time>2013-07-25T19:19:12Z</time>
      </trkpt>
      <trkpt lat="48.72555" lon="2.09875">
        <ele>149</ele>
        <time>2013-07-25T19:19:13Z</time>
      </trkpt>
      <trkpt lat="48.72555" lon="2.09875">
        <ele>149</ele>
        <time>2013-07-25T19:19:14Z</time>
      </trkpt>
      <trkpt lat="48.72555" lon="2.09875">
        <ele>149</ele>
        <time>2013-07-25T19:19:15Z</time>
      </trkpt>
      <trkpt lat="48.72555" lon="2.09875">
        <ele>149</ele>
        <time>2013-07-25T19:19:16Z</time>
      </trkpt>
      <trkpt lat="48.72555" lon="2.09875">
        <ele>149</ele>
        <time>2013-07-25T19:19:17Z</time>
      </trkpt>
      <trkpt lat="48.72555" lon="2.09875">
        <ele>149</ele>
        <time>2013-07-25T19:19:18Z</time>
      </trkpt>
      <trkpt lat="48.72555" lon="2.09875">
        <ele>149</ele>
        <time>2013-07-25T19:19:19Z</time>
      </trkpt>
      <trkpt lat="48.72555" lon="2.09875">
        <ele>149</ele>
        <time>2013-07-25T19:19:20Z</time>
      </trkpt>
      <trkpt lat="48.72555" lon="2.09875">
        <ele>149</ele>
        <time>2013-07-25T19:19:21Z</time>
      </trkpt>
      <trkpt lat="48.72555" lon="2.09875">
        <ele>149</ele>
        <time>2013-07-25T19:19:22Z</time>
      </trkpt>
      <trkpt lat="48.72555" lon="2.09875">
        <ele>149</ele>
        <time>2013-07-25T19:19:23Z</time>
      </trkpt>
      <trkpt lat="48.72555" lon="2.09875">
        <ele>149</ele>
        <time>2013-07-25T19:19:24Z</time>
      </trkpt>
      <trkpt lat="48.72555" lon="2.09875">
        <ele>149</ele>
        <time>2013-07-25T19:19:25Z</time>
      </trkpt>
      <trkpt lat="48.72555" lon="2.09875">
        <ele>149</ele>
        <time>2013-07-25T19:19:26Z</time>
      </trkpt>
      <trkpt lat="48.72555" lon="2.09875">
        <ele>149</ele>
        <time>2013-07-25T19:19:27Z</time>
      </trkpt>
      <trkpt lat="48.72555" lon="2.09875">
        <ele>149</ele>
        <time>2013-07-25T19:19:28Z</time>
      </trkpt>
      <trkpt lat="48.72555" lon="2.09875">
        <ele>149</ele>
        <time>2013-07-25T19:19:29Z</time>
      </trkpt>
      <trkpt lat="48.72555" lon="2.09875">
        <ele>149</ele>
        <time>2013-07-25T19:19:30Z</time>
      </trkpt>
      <trkpt lat="48.72556" lon="2.09875">
        <ele>149</ele>
        <time>2013-07-25T19:19:31Z</time>
      </trkpt>
      <trkpt lat="48.72556" lon="2.09875">
        <ele>149</ele>
        <time>2013-07-25T19:19:32Z</time>
      </trkpt>
      <trkpt lat="48.72556" lon="2.09875">
        <ele>149</ele>
        <time>2013-07-25T19:19:33Z</time>
      </trkpt>
      <trkpt lat="48.72556" lon="2.09874">
        <ele>149</ele>
        <time>2013-07-25T19:19:34Z</time>
      </trkpt>
      <trkpt lat="48.72556" lon="2.09874">
        <ele>149</ele>
        <time>2013-07-25T19:19:35Z</time>
      </trkpt>
      <trkpt lat="48.72556" lon="2.09874">
        <ele>149</ele>
        <time>2013-07-25T19:19:36Z</time>
      </trkpt>
      <trkpt lat="48.72556" lon="2.09874">
        <ele>149</ele>
        <time>2013-07-25T19:19:37Z</time>
      </trkpt>
      <trkpt lat="48.72556" lon="2.09874">
        <ele>149</ele>
        <time>2013-07-25T19:19:38Z</time>
      </trkpt>
      <trkpt lat="48.72556" lon="2.09874">
        <ele>148</ele>
        <time>2013-07-25T19:19:39Z</time>
      </trkpt>
      <trkpt lat="48.72557" lon="2.09875">
        <ele>148</ele>
        <time>2013-07-25T19:19:40Z</time>
      </trkpt>
      <trkpt lat="48.72557" lon="2.09875">
        <ele>148</ele>
        <time>2013-07-25T19:19:41Z</time>
      </trkpt>
      <trkpt lat="48.72557" lon="2.09875">
        <ele>148</ele>
        <time>2013-07-25T19:19:42Z</time>
      </trkpt>
      <trkpt lat="48.72557" lon="2.09875">
        <ele>148</ele>
        <time>2013-07-25T19:19:43Z</time>
      </trkpt>
      <trkpt lat="48.72557" lon="2.09876">
        <ele>148</ele>
        <time>2013-07-25T19:19:44Z</time>
      </trkpt>
      <trkpt lat="48.72557" lon="2.09877">
        <ele>148</ele>
        <time>2013-07-25T19:19:45Z</time>
      </trkpt>
      <trkpt lat="48.72557" lon="2.09878">
        <ele>148</ele>
        <time>2013-07-25T19:19:46Z</time>
      </trkpt>
      <trkpt lat="48.72553" lon="2.09889">
        <ele>148</ele>
        <time>2013-07-25T19:19:51Z</time>
      </trkpt>
      <trkpt lat="48.72552" lon="2.09891">
        <ele>148</ele>
        <time>2013-07-25T19:19:52Z</time>
      </trkpt>
      <trkpt lat="48.72551" lon="2.09894">
        <ele>149</ele>
        <time>2013-07-25T19:19:53Z</time>
      </trkpt>
      <trkpt lat="48.72549" lon="2.09902">
        <ele>148</ele>
        <time>2013-07-25T19:19:56Z</time>
      </trkpt>
      <trkpt lat="48.72549" lon="2.09906">
        <ele>148</ele>
        <time>2013-07-25T19:19:57Z</time>
      </trkpt>
      <trkpt lat="48.72549" lon="2.0991">
        <ele>148</ele>
        <time>2013-07-25T19:19:58Z</time>
      </trkpt>
      <trkpt lat="48.7255" lon="2.0992">
        <ele>148</ele>
        <time>2013-07-25T19:20:00Z</time>
      </trkpt>
      <trkpt lat="48.72549" lon="2.09926">
        <ele>148</ele>
        <time>2013-07-25T19:20:01Z</time>
      </trkpt>
      <trkpt lat="48.72549" lon="2.09936">
        <ele>148</ele>
        <time>2013-07-25T19:20:03Z</time>
      </trkpt>
      <trkpt lat="48.72549" lon="2.09941">
        <ele>148</ele>
        <time>2013-07-25T19:20:04Z</time>
      </trkpt>
      <trkpt lat="48.72545" lon="2.09958">
        <ele>149</ele>
        <time>2013-07-25T19:20:09Z</time>
      </trkpt>
      <trkpt lat="48.72544" lon="2.09962">
        <ele>149</ele>
        <time>2013-07-25T19:20:10Z</time>
      </trkpt>
      <trkpt lat="48.7254" lon="2.09978">
        <ele>149</ele>
        <time>2013-07-25T19:20:14Z</time>
      </trkpt>
      <trkpt lat="48.72534" lon="2.09999">
        <ele>151</ele>
        <time>2013-07-25T19:20:18Z</time>
      </trkpt>
      <trkpt lat="48.72533" lon="2.10004">
        <ele>150</ele>
        <time>2013-07-25T19:20:19Z</time>
      </trkpt>
      <trkpt lat="48.72531" lon="2.10008">
        <ele>151</ele>
        <time>2013-07-25T19:20:20Z</time>
      </trkpt>
      <trkpt lat="48.72528" lon="2.10018">
        <ele>151</ele>
        <time>2013-07-25T19:20:22Z</time>
      </trkpt>
      <trkpt lat="48.72521" lon="2.1005">
        <ele>151</ele>
        <time>2013-07-25T19:20:27Z</time>
      </trkpt>
      <trkpt lat="48.72519" lon="2.10057">
        <ele>152</ele>
        <time>2013-07-25T19:20:28Z</time>
      </trkpt>
      <trkpt lat="48.72517" lon="2.10062">
        <ele>153</ele>
        <time>2013-07-25T19:20:29Z</time>
      </trkpt>
      <trkpt lat="48.72513" lon="2.10081">
        <ele>155</ele>
        <time>2013-07-25T19:20:33Z</time>
      </trkpt>
      <trkpt lat="48.72509" lon="2.10093">
        <ele>155</ele>
        <time>2013-07-25T19:20:36Z</time>
      </trkpt>
      <trkpt lat="48.72505" lon="2.10101">
        <ele>153</ele>
        <time>2013-07-25T19:20:38Z</time>
      </trkpt>
      <trkpt lat="48.72499" lon="2.10108">
        <ele>161</ele>
        <time>2013-07-25T19:20:40Z</time>
      </trkpt>
      <trkpt lat="48.72481" lon="2.10121">
        <ele>161</ele>
        <time>2013-07-25T19:20:45Z</time>
      </trkpt>
      <trkpt lat="48.72477" lon="2.10125">
        <ele>161</ele>
        <time>2013-07-25T19:20:46Z</time>
      </trkpt>
      <trkpt lat="48.72468" lon="2.10135">
        <ele>161</ele>
        <time>2013-07-25T19:20:49Z</time>
      </trkpt>
      <trkpt lat="48.72465" lon="2.10139">
        <ele>161</ele>
        <time>2013-07-25T19:20:50Z</time>
      </trkpt>
      <trkpt lat="48.72446" lon="2.10156">
        <ele>162</ele>
        <time>2013-07-25T19:20:55Z</time>
      </trkpt>
      <trkpt lat="48.72441" lon="2.10159">
        <ele>162</ele>
        <time>2013-07-25T19:20:56Z</time>
      </trkpt>
      <trkpt lat="48.72437" lon="2.10162">
        <ele>163</ele>
        <time>2013-07-25T19:20:57Z</time>
      </trkpt>
      <trkpt lat="48.72433" lon="2.10167">
        <ele>163</ele>
        <time>2013-07-25T19:20:58Z</time>
      </trkpt>
      <trkpt lat="48.7243" lon="2.10172">
        <ele>161</ele>
        <time>2013-07-25T19:20:59Z</time>
      </trkpt>
      <trkpt lat="48.72428" lon="2.10178">
        <ele>160</ele>
        <time>2013-07-25T19:21:00Z</time>
      </trkpt>
      <trkpt lat="48.72425" lon="2.10193">
        <ele>158</ele>
        <time>2013-07-25T19:21:02Z</time>
      </trkpt>
      <trkpt lat="48.72421" lon="2.102">
        <ele>158</ele>
        <time>2013-07-25T19:21:03Z</time>
      </trkpt>
      <trkpt lat="48.72401" lon="2.10228">
        <ele>159</ele>
        <time>2013-07-25T19:21:07Z</time>
      </trkpt>
      <trkpt lat="48.72392" lon="2.10239">
        <ele>159</ele>
        <time>2013-07-25T19:21:09Z</time>
      </trkpt>
      <trkpt lat="48.72388" lon="2.10244">
        <ele>159</ele>
        <time>2013-07-25T19:21:10Z</time>
      </trkpt>
      <trkpt lat="48.72385" lon="2.10249">
        <ele>159</ele>
        <time>2013-07-25T19:21:11Z</time>
      </trkpt>
      <trkpt lat="48.72382" lon="2.10253">
        <ele>155</ele>
        <time>2013-07-25T19:21:12Z</time>
      </trkpt>
      <trkpt lat="48.72378" lon="2.10256">
        <ele>155</ele>
        <time>2013-07-25T19:21:13Z</time>
      </trkpt>
      <trkpt lat="48.72375" lon="2.10258">
        <ele>155</ele>
        <time>2013-07-25T19:21:14Z</time>
      </trkpt>
      <trkpt lat="48.72368" lon="2.10263">
        <ele>155</ele>
        <time>2013-07-25T19:21:16Z</time>
      </trkpt>
      <trkpt lat="48.72365" lon="2.10265">
        <ele>155</ele>
        <time>2013-07-25T19:21:17Z</time>
      </trkpt>
      <trkpt lat="48.72363" lon="2.10267">
        <ele>155</ele>
        <time>2013-07-25T19:21:18Z</time>
      </trkpt>
      <trkpt lat="48.72351" lon="2.10277">
        <ele>155</ele>
        <time>2013-07-25T19:21:23Z</time>
      </trkpt>
      <trkpt lat="48.72349" lon="2.10281">
        <ele>155</ele>
        <time>2013-07-25T19:21:24Z</time>
      </trkpt>
      <trkpt lat="48.72348" lon="2.10285">
        <ele>155</ele>
        <time>2013-07-25T19:21:25Z</time>
      </trkpt>
      <trkpt lat="48.72347" lon="2.1029">
        <ele>155</ele>
        <time>2013-07-25T19:21:26Z</time>
      </trkpt>
      <trkpt lat="48.72347" lon="2.10301">
        <ele>155</ele>
        <time>2013-07-25T19:21:28Z</time>
      </trkpt>
      <trkpt lat="48.72335" lon="2.1037">
        <ele>149</ele>
        <time>2013-07-25T19:21:41Z</time>
      </trkpt>
      <trkpt lat="48.72333" lon="2.10375">
        <ele>155</ele>
        <time>2013-07-25T19:21:42Z</time>
      </trkpt>
      <trkpt lat="48.72331" lon="2.10379">
        <ele>155</ele>
        <time>2013-07-25T19:21:43Z</time>
      </trkpt>
      <trkpt lat="48.72328" lon="2.10384">
        <ele>154</ele>
        <time>2013-07-25T19:21:44Z</time>
      </trkpt>
      <trkpt lat="48.72313" lon="2.10402">
        <ele>154</ele>
        <time>2013-07-25T19:21:49Z</time>
      </trkpt>
      <trkpt lat="48.7231" lon="2.10406">
        <ele>154</ele>
        <time>2013-07-25T19:21:50Z</time>
      </trkpt>
      <trkpt lat="48.72303" lon="2.10412">
        <ele>154</ele>
        <time>2013-07-25T19:21:52Z</time>
      </trkpt>
      <trkpt lat="48.72283" lon="2.10424">
        <ele>152</ele>
        <time>2013-07-25T19:21:57Z</time>
      </trkpt>
      <trkpt lat="48.72273" lon="2.10432">
        <ele>152</ele>
        <time>2013-07-25T19:22:00Z</time>
      </trkpt>
      <trkpt lat="48.7227" lon="2.10435">
        <ele>153</ele>
        <time>2013-07-25T19:22:01Z</time>
      </trkpt>
      <trkpt lat="48.72266" lon="2.10436">
        <ele>153</ele>
        <time>2013-07-25T19:22:02Z</time>
      </trkpt>
      <trkpt lat="48.72248" lon="2.1045">
        <ele>157</ele>
        <time>2013-07-25T19:22:07Z</time>
      </trkpt>
      <trkpt lat="48.72225" lon="2.10466">
        <ele>156</ele>
        <time>2013-07-25T19:22:13Z</time>
      </trkpt>
      <trkpt lat="48.72208" lon="2.10475">
        <ele>157</ele>
        <time>2013-07-25T19:22:16Z</time>
      </trkpt>
      <trkpt lat="48.72203" lon="2.10479">
        <ele>157</ele>
        <time>2013-07-25T19:22:17Z</time>
      </trkpt>
      <trkpt lat="48.72192" lon="2.10487">
        <ele>157</ele>
        <time>2013-07-25T19:22:19Z</time>
      </trkpt>
      <trkpt lat="48.72183" lon="2.10493">
        <ele>158</ele>
        <time>2013-07-25T19:22:21Z</time>
      </trkpt>
      <trkpt lat="48.7218" lon="2.10496">
        <ele>158</ele>
        <time>2013-07-25T19:22:22Z</time>
      </trkpt>
      <trkpt lat="48.72162" lon="2.10521">
        <ele>157</ele>
        <time>2013-07-25T19:22:28Z</time>
      </trkpt>
      <trkpt lat="48.72158" lon="2.10524">
        <ele>157</ele>
        <time>2013-07-25T19:22:29Z</time>
      </trkpt>
      <trkpt lat="48.72154" lon="2.10525">
        <ele>157</ele>
        <time>2013-07-25T19:22:30Z</time>
      </trkpt>
      <trkpt lat="48.72094" lon="2.10556">
        <ele>158</ele>
        <time>2013-07-25T19:22:42Z</time>
      </trkpt>
      <trkpt lat="48.7209" lon="2.10559">
        <ele>158</ele>
        <time>2013-07-25T19:22:43Z</time>
      </trkpt>
      <trkpt lat="48.72087" lon="2.10563">
        <ele>158</ele>
        <time>2013-07-25T19:22:44Z</time>
      </trkpt>
      <trkpt lat="48.72086" lon="2.10567">
        <ele>158</ele>
        <time>2013-07-25T19:22:45Z</time>
      </trkpt>
      <trkpt lat="48.72081" lon="2.10583">
        <ele>159</ele>
        <time>2013-07-25T19:22:48Z</time>
      </trkpt>
      <trkpt lat="48.72076" lon="2.10595">
        <ele>159</ele>
        <time>2013-07-25T19:22:50Z</time>
      </trkpt>
      <trkpt lat="48.72073" lon="2.10599">
        <ele>159</ele>
        <time>2013-07-25T19:22:51Z</time>
      </trkpt>
      <trkpt lat="48.72068" lon="2.10603">
        <ele>159</ele>
        <time>2013-07-25T19:22:52Z</time>
      </trkpt>
      <trkpt lat="48.72054" lon="2.10609">
        <ele>159</ele>
        <time>2013-07-25T19:22:55Z</time>
      </trkpt>
      <trkpt lat="48.72042" lon="2.10614">
        <ele>159</ele>
        <time>2013-07-25T19:22:58Z</time>
      </trkpt>
      <trkpt lat="48.72039" lon="2.10617">
        <ele>159</ele>
        <time>2013-07-25T19:22:59Z</time>
      </trkpt>
      <trkpt lat="48.72036" lon="2.10621">
        <ele>159</ele>
        <time>2013-07-25T19:23:00Z</time>
      </trkpt>
      <trkpt lat="48.72033" lon="2.10625">
        <ele>160</ele>
        <time>2013-07-25T19:23:01Z</time>
      </trkpt>
      <trkpt lat="48.72029" lon="2.10628">
        <ele>160</ele>
        <time>2013-07-25T19:23:02Z</time>
      </trkpt>
      <trkpt lat="48.72025" lon="2.1063">
        <ele>160</ele>
        <time>2013-07-25T19:23:03Z</time>
      </trkpt>
      <trkpt lat="48.72022" lon="2.10629">
        <ele>160</ele>
        <time>2013-07-25T19:23:04Z</time>
      </trkpt>
      <trkpt lat="48.72021" lon="2.10629">
        <ele>160</ele>
        <time>2013-07-25T19:23:05Z</time>
      </trkpt>
      <trkpt lat="48.72018" lon="2.10629">
        <ele>160</ele>
        <time>2013-07-25T19:23:06Z</time>
      </trkpt>
      <trkpt lat="48.72016" lon="2.1063">
        <ele>160</ele>
        <time>2013-07-25T19:23:07Z</time>
      </trkpt>
      <trkpt lat="48.72014" lon="2.10632">
        <ele>160</ele>
        <time>2013-07-25T19:23:08Z</time>
      </trkpt>
      <trkpt lat="48.71999" lon="2.10647">
        <ele>163</ele>
        <time>2013-07-25T19:23:13Z</time>
      </trkpt>
      <trkpt lat="48.71995" lon="2.10652">
        <ele>163</ele>
        <time>2013-07-25T19:23:14Z</time>
      </trkpt>
      <trkpt lat="48.71988" lon="2.10664">
        <ele>163</ele>
        <time>2013-07-25T19:23:16Z</time>
      </trkpt>
      <trkpt lat="48.71984" lon="2.10668">
        <ele>162</ele>
        <time>2013-07-25T19:23:17Z</time>
      </trkpt>
      <trkpt lat="48.71963" lon="2.10688">
        <ele>162</ele>
        <time>2013-07-25T19:23:23Z</time>
      </trkpt>
      <trkpt lat="48.71946" lon="2.10702">
        <ele>162</ele>
        <time>2013-07-25T19:23:28Z</time>
      </trkpt>
      <trkpt lat="48.7193" lon="2.10711">
        <ele>162</ele>
        <time>2013-07-25T19:23:32Z</time>
      </trkpt>
      <trkpt lat="48.71926" lon="2.10712">
        <ele>162</ele>
        <time>2013-07-25T19:23:33Z</time>
      </trkpt>
      <trkpt lat="48.71909" lon="2.10712">
        <ele>162</ele>
        <time>2013-07-25T19:23:38Z</time>
      </trkpt>
      <trkpt lat="48.71905" lon="2.10712">
        <ele>162</ele>
        <time>2013-07-25T19:23:39Z</time>
      </trkpt>
      <trkpt lat="48.71901" lon="2.10714">
        <ele>162</ele>
        <time>2013-07-25T19:23:40Z</time>
      </trkpt>
      <trkpt lat="48.71898" lon="2.10718">
        <ele>162</ele>
        <time>2013-07-25T19:23:41Z</time>
      </trkpt>
      <trkpt lat="48.71887" lon="2.10734">
        <ele>162</ele>
        <time>2013-07-25T19:23:45Z</time>
      </trkpt>
      <trkpt lat="48.71884" lon="2.10736">
        <ele>162</ele>
        <time>2013-07-25T19:23:46Z</time>
      </trkpt>
      <trkpt lat="48.71878" lon="2.1074">
        <ele>162</ele>
        <time>2013-07-25T19:23:48Z</time>
      </trkpt>
      <trkpt lat="48.71875" lon="2.10742">
        <ele>161</ele>
        <time>2013-07-25T19:23:49Z</time>
      </trkpt>
      <trkpt lat="48.71867" lon="2.10747">
        <ele>161</ele>
        <time>2013-07-25T19:23:52Z</time>
      </trkpt>
      <trkpt lat="48.71864" lon="2.10747">
        <ele>161</ele>
        <time>2013-07-25T19:23:53Z</time>
      </trkpt>
      <trkpt lat="48.71861" lon="2.10748">
        <ele>161</ele>
        <time>2013-07-25T19:23:54Z</time>
      </trkpt>
      <trkpt lat="48.71849" lon="2.10755">
        <ele>160</ele>
        <time>2013-07-25T19:23:58Z</time>
      </trkpt>
      <trkpt lat="48.7184" lon="2.10759">
        <ele>160</ele>
        <time>2013-07-25T19:24:01Z</time>
      </trkpt>
      <trkpt lat="48.71838" lon="2.10761">
        <ele>160</ele>
        <time>2013-07-25T19:24:02Z</time>
      </trkpt>
      <trkpt lat="48.71835" lon="2.10763">
        <ele>160</ele>
        <time>2013-07-25T19:24:03Z</time>
      </trkpt>
      <trkpt lat="48.71832" lon="2.10765">
        <ele>159</ele>
        <time>2013-07-25T19:24:04Z</time>
      </trkpt>
      <trkpt lat="48.71829" lon="2.10768">
        <ele>159</ele>
        <time>2013-07-25T19:24:05Z</time>
      </trkpt>
      <trkpt lat="48.7182" lon="2.1078">
        <ele>159</ele>
        <time>2013-07-25T19:24:09Z</time>
      </trkpt>
      <trkpt lat="48.71818" lon="2.10782">
        <ele>159</ele>
        <time>2013-07-25T19:24:10Z</time>
      </trkpt>
      <trkpt lat="48.71812" lon="2.10786">
        <ele>159</ele>
        <time>2013-07-25T19:24:12Z</time>
      </trkpt>
      <trkpt lat="48.71807" lon="2.10788">
        <ele>158</ele>
        <time>2013-07-25T19:24:14Z</time>
      </trkpt>
      <trkpt lat="48.71804" lon="2.10791">
        <ele>158</ele>
        <time>2013-07-25T19:24:15Z</time>
      </trkpt>
      <trkpt lat="48.718" lon="2.10799">
        <ele>158</ele>
        <time>2013-07-25T19:24:17Z</time>
      </trkpt>
      <trkpt lat="48.71789" lon="2.10812">
        <ele>158</ele>
        <time>2013-07-25T19:24:21Z</time>
      </trkpt>
      <trkpt lat="48.71784" lon="2.10821">
        <ele>158</ele>
        <time>2013-07-25T19:24:23Z</time>
      </trkpt>
      <trkpt lat="48.71779" lon="2.10828">
        <ele>158</ele>
        <time>2013-07-25T19:24:25Z</time>
      </trkpt>
      <trkpt lat="48.71777" lon="2.10831">
        <ele>158</ele>
        <time>2013-07-25T19:24:26Z</time>
      </trkpt>
      <trkpt lat="48.71775" lon="2.10835">
        <ele>158</ele>
        <time>2013-07-25T19:24:27Z</time>
      </trkpt>
      <trkpt lat="48.71773" lon="2.10839">
        <ele>158</ele>
        <time>2013-07-25T19:24:28Z</time>
      </trkpt>
      <trkpt lat="48.71768" lon="2.10845">
        <ele>158</ele>
        <time>2013-07-25T19:24:30Z</time>
      </trkpt>
      <trkpt lat="48.71765" lon="2.10848">
        <ele>158</ele>
        <time>2013-07-25T19:24:31Z</time>
      </trkpt>
      <trkpt lat="48.71758" lon="2.10853">
        <ele>158</ele>
        <time>2013-07-25T19:24:33Z</time>
      </trkpt>
      <trkpt lat="48.71755" lon="2.10857">
        <ele>158</ele>
        <time>2013-07-25T19:24:34Z</time>
      </trkpt>
      <trkpt lat="48.71753" lon="2.10861">
        <ele>158</ele>
        <time>2013-07-25T19:24:35Z</time>
      </trkpt>
      <trkpt lat="48.7175" lon="2.10865">
        <ele>158</ele>
        <time>2013-07-25T19:24:36Z</time>
      </trkpt>
      <trkpt lat="48.71746" lon="2.1087">
        <ele>157</ele>
        <time>2013-07-25T19:24:37Z</time>
      </trkpt>
      <trkpt lat="48.71743" lon="2.10876">
        <ele>157</ele>
        <time>2013-07-25T19:24:38Z</time>
      </trkpt>
      <trkpt lat="48.71738" lon="2.10881">
        <ele>157</ele>
        <time>2013-07-25T19:24:39Z</time>
      </trkpt>
      <trkpt lat="48.71728" lon="2.10882">
        <ele>157</ele>
        <time>2013-07-25T19:24:41Z</time>
      </trkpt>
      <trkpt lat="48.71723" lon="2.10886">
        <ele>158</ele>
        <time>2013-07-25T19:24:42Z</time>
      </trkpt>
      <trkpt lat="48.71718" lon="2.10895">
        <ele>158</ele>
        <time>2013-07-25T19:24:44Z</time>
      </trkpt>
      <trkpt lat="48.71717" lon="2.10896">
        <ele>158</ele>
        <time>2013-07-25T19:24:45Z</time>
      </trkpt>
      <trkpt lat="48.71714" lon="2.10897">
        <ele>158</ele>
        <time>2013-07-25T19:24:46Z</time>
      </trkpt>
      <trkpt lat="48.7171" lon="2.10898">
        <ele>158</ele>
        <time>2013-07-25T19:24:48Z</time>
      </trkpt>
      <trkpt lat="48.71707" lon="2.10899">
        <ele>158</ele>
        <time>2013-07-25T19:24:49Z</time>
      </trkpt>
      <trkpt lat="48.71705" lon="2.10899">
        <ele>158</ele>
        <time>2013-07-25T19:24:50Z</time>
      </trkpt>
      <trkpt lat="48.71703" lon="2.10898">
        <ele>158</ele>
        <time>2013-07-25T19:24:51Z</time>
      </trkpt>
      <trkpt lat="48.71699" lon="2.10897">
        <ele>158</ele>
        <time>2013-07-25T19:24:53Z</time>
      </trkpt>
      <trkpt lat="48.71693" lon="2.10895">
        <ele>158</ele>
        <time>2013-07-25T19:24:55Z</time>
      </trkpt>
      <trkpt lat="48.71691" lon="2.10894">
        <ele>158</ele>
        <time>2013-07-25T19:24:56Z</time>
      </trkpt>
      <trkpt lat="48.71689" lon="2.10891">
        <ele>158</ele>
        <time>2013-07-25T19:24:57Z</time>
      </trkpt>
      <trkpt lat="48.71686" lon="2.10889">
        <ele>158</ele>
        <time>2013-07-25T19:24:58Z</time>
      </trkpt>
      <trkpt lat="48.71683" lon="2.10889">
        <ele>158</ele>
        <time>2013-07-25T19:24:59Z</time>
      </trkpt>
      <trkpt lat="48.71681" lon="2.10892">
        <ele>158</ele>
        <time>2013-07-25T19:25:00Z</time>
      </trkpt>
      <trkpt lat="48.71681" lon="2.10895">
        <ele>158</ele>
        <time>2013-07-25T19:25:01Z</time>
      </trkpt>
      <trkpt lat="48.71681" lon="2.10902">
        <ele>158</ele>
        <time>2013-07-25T19:25:03Z</time>
      </trkpt>
      <trkpt lat="48.71678" lon="2.10921">
        <ele>159</ele>
        <time>2013-07-25T19:25:08Z</time>
      </trkpt>
      <trkpt lat="48.71677" lon="2.10941">
        <ele>159</ele>
        <time>2013-07-25T19:25:14Z</time>
      </trkpt>
      <trkpt lat="48.71677" lon="2.10948">
        <ele>159</ele>
        <time>2013-07-25T19:25:16Z</time>
      </trkpt>
      <trkpt lat="48.71676" lon="2.10963">
        <ele>160</ele>
        <time>2013-07-25T19:25:20Z</time>
      </trkpt>
      <trkpt lat="48.71676" lon="2.10967">
        <ele>160</ele>
        <time>2013-07-25T19:25:21Z</time>
      </trkpt>
      <trkpt lat="48.71677" lon="2.10976">
        <ele>160</ele>
        <time>2013-07-25T19:25:24Z</time>
      </trkpt>
      <trkpt lat="48.71677" lon="2.10978">
        <ele>160</ele>
        <time>2013-07-25T19:25:25Z</time>
      </trkpt>
      <trkpt lat="48.71678" lon="2.10983">
        <ele>160</ele>
        <time>2013-07-25T19:25:27Z</time>
      </trkpt>
      <trkpt lat="48.71679" lon="2.10992">
        <ele>160</ele>
        <time>2013-07-25T19:25:30Z</time>
      </trkpt>
      <trkpt lat="48.71679" lon="2.10995">
        <ele>161</ele>
        <time>2013-07-25T19:25:31Z</time>
      </trkpt>
      <trkpt lat="48.71679" lon="2.10999">
        <ele>161</ele>
        <time>2013-07-25T19:25:32Z</time>
      </trkpt>
      <trkpt lat="48.71679" lon="2.11005">
        <ele>161</ele>
        <time>2013-07-25T19:25:34Z</time>
      </trkpt>
      <trkpt lat="48.71677" lon="2.11009">
        <ele>161</ele>
        <time>2013-07-25T19:25:35Z</time>
      </trkpt>
      <trkpt lat="48.71676" lon="2.11011">
        <ele>161</ele>
        <time>2013-07-25T19:25:36Z</time>
      </trkpt>
      <trkpt lat="48.71672" lon="2.11014">
        <ele>161</ele>
        <time>2013-07-25T19:25:38Z</time>
      </trkpt>
      <trkpt lat="48.71671" lon="2.11016">
        <ele>161</ele>
        <time>2013-07-25T19:25:39Z</time>
      </trkpt>
      <trkpt lat="48.71669" lon="2.11018">
        <ele>161</ele>
        <time>2013-07-25T19:25:40Z</time>
      </trkpt>
      <trkpt lat="48.71667" lon="2.11019">
        <ele>161</ele>
        <time>2013-07-25T19:25:41Z</time>
      </trkpt>
      <trkpt lat="48.71665" lon="2.1102">
        <ele>161</ele>
        <time>2013-07-25T19:25:42Z</time>
      </trkpt>
      <trkpt lat="48.71662" lon="2.11021">
        <ele>161</ele>
        <time>2013-07-25T19:25:43Z</time>
      </trkpt>
      <trkpt lat="48.7166" lon="2.11025">
        <ele>161</ele>
        <time>2013-07-25T19:25:44Z</time>
      </trkpt>
      <trkpt lat="48.71658" lon="2.11029">
        <ele>161</ele>
        <time>2013-07-25T19:25:45Z</time>
      </trkpt>
      <trkpt lat="48.71656" lon="2.11034">
        <ele>160</ele>
        <time>2013-07-25T19:25:46Z</time>
      </trkpt>
      <trkpt lat="48.71657" lon="2.11039">
        <ele>160</ele>
        <time>2013-07-25T19:25:47Z</time>
      </trkpt>
      <trkpt lat="48.71661" lon="2.11049">
        <ele>161</ele>
        <time>2013-07-25T19:25:50Z</time>
      </trkpt>
      <trkpt lat="48.71668" lon="2.11059">
        <ele>162</ele>
        <time>2013-07-25T19:25:53Z</time>
      </trkpt>
      <trkpt lat="48.71671" lon="2.11065">
        <ele>162</ele>
        <time>2013-07-25T19:25:55Z</time>
      </trkpt>
      <trkpt lat="48.71673" lon="2.11068">
        <ele>161</ele>
        <time>2013-07-25T19:25:56Z</time>
      </trkpt>
      <trkpt lat="48.71675" lon="2.1107">
        <ele>161</ele>
        <time>2013-07-25T19:25:57Z</time>
      </trkpt>
      <trkpt lat="48.71677" lon="2.11072">
        <ele>161</ele>
        <time>2013-07-25T19:25:58Z</time>
      </trkpt>
      <trkpt lat="48.71679" lon="2.11076">
        <ele>161</ele>
        <time>2013-07-25T19:25:59Z</time>
      </trkpt>
      <trkpt lat="48.7168" lon="2.11079">
        <ele>161</ele>
        <time>2013-07-25T19:26:00Z</time>
      </trkpt>
      <trkpt lat="48.71681" lon="2.11082">
        <ele>161</ele>
        <time>2013-07-25T19:26:01Z</time>
      </trkpt>
      <trkpt lat="48.71688" lon="2.11092">
        <ele>160</ele>
        <time>2013-07-25T19:26:04Z</time>
      </trkpt>
      <trkpt lat="48.71698" lon="2.11113">
        <ele>160</ele>
        <time>2013-07-25T19:26:08Z</time>
      </trkpt>
      <trkpt lat="48.71699" lon="2.11118">
        <ele>159</ele>
        <time>2013-07-25T19:26:09Z</time>
      </trkpt>
      <trkpt lat="48.717" lon="2.11128">
        <ele>159</ele>
        <time>2013-07-25T19:26:11Z</time>
      </trkpt>
      <trkpt lat="48.71702" lon="2.11133">
        <ele>159</ele>
        <time>2013-07-25T19:26:12Z</time>
      </trkpt>
      <trkpt lat="48.71705" lon="2.11137">
        <ele>159</ele>
        <time>2013-07-25T19:26:13Z</time>
      </trkpt>
      <trkpt lat="48.71711" lon="2.11146">
        <ele>159</ele>
        <time>2013-07-25T19:26:15Z</time>
      </trkpt>
      <trkpt lat="48.71716" lon="2.11149">
        <ele>159</ele>
        <time>2013-07-25T19:26:16Z</time>
      </trkpt>
      <trkpt lat="48.71727" lon="2.11155">
        <ele>159</ele>
        <time>2013-07-25T19:26:19Z</time>
      </trkpt>
      <trkpt lat="48.7173" lon="2.11156">
        <ele>159</ele>
        <time>2013-07-25T19:26:20Z</time>
      </trkpt>
      <trkpt lat="48.71734" lon="2.11156">
        <ele>159</ele>
        <time>2013-07-25T19:26:21Z</time>
      </trkpt>
      <trkpt lat="48.71737" lon="2.11155">
        <ele>159</ele>
        <time>2013-07-25T19:26:22Z</time>
      </trkpt>
      <trkpt lat="48.7174" lon="2.11152">
        <ele>159</ele>
        <time>2013-07-25T19:26:23Z</time>
      </trkpt>
      <trkpt lat="48.71742" lon="2.11151">
        <ele>159</ele>
        <time>2013-07-25T19:26:24Z</time>
      </trkpt>
      <trkpt lat="48.71744" lon="2.11152">
        <ele>159</ele>
        <time>2013-07-25T19:26:25Z</time>
      </trkpt>
      <trkpt lat="48.71747" lon="2.11155">
        <ele>159</ele>
        <time>2013-07-25T19:26:27Z</time>
      </trkpt>
      <trkpt lat="48.71749" lon="2.11157">
        <ele>158</ele>
        <time>2013-07-25T19:26:28Z</time>
      </trkpt>
      <trkpt lat="48.7175" lon="2.1116">
        <ele>158</ele>
        <time>2013-07-25T19:26:29Z</time>
      </trkpt>
      <trkpt lat="48.71749" lon="2.11166">
        <ele>158</ele>
        <time>2013-07-25T19:26:31Z</time>
      </trkpt>
      <trkpt lat="48.71749" lon="2.11169">
        <ele>158</ele>
        <time>2013-07-25T19:26:32Z</time>
      </trkpt>
      <trkpt lat="48.71748" lon="2.11175">
        <ele>157</ele>
        <time>2013-07-25T19:26:34Z</time>
      </trkpt>
      <trkpt lat="48.71747" lon="2.11179">
        <ele>156</ele>
        <time>2013-07-25T19:26:35Z</time>
      </trkpt>
      <trkpt lat="48.71746" lon="2.11183">
        <ele>156</ele>
        <time>2013-07-25T19:26:36Z</time>
      </trkpt>
      <trkpt lat="48.71739" lon="2.11193">
        <ele>155</ele>
        <time>2013-07-25T19:26:39Z</time>
      </trkpt>
      <trkpt lat="48.71738" lon="2.11198">
        <ele>155</ele>
        <time>2013-07-25T19:26:40Z</time>
      </trkpt>
      <trkpt lat="48.71735" lon="2.11209">
        <ele>154</ele>
        <time>2013-07-25T19:26:42Z</time>
      </trkpt>
      <trkpt lat="48.71731" lon="2.11233">
        <ele>153</ele>
        <time>2013-07-25T19:26:46Z</time>
      </trkpt>
      <trkpt lat="48.71728" lon="2.11245">
        <ele>152</ele>
        <time>2013-07-25T19:26:50Z</time>
      </trkpt>
      <trkpt lat="48.71728" lon="2.11249">
        <ele>152</ele>
        <time>2013-07-25T19:26:51Z</time>
      </trkpt>
      <trkpt lat="48.71723" lon="2.11267">
        <ele>151</ele>
        <time>2013-07-25T19:26:55Z</time>
      </trkpt>
      <trkpt lat="48.71721" lon="2.11271">
        <ele>151</ele>
        <time>2013-07-25T19:26:56Z</time>
      </trkpt>
      <trkpt lat="48.71719" lon="2.11275">
        <ele>151</ele>
        <time>2013-07-25T19:26:57Z</time>
      </trkpt>
      <trkpt lat="48.71715" lon="2.11277">
        <ele>151</ele>
        <time>2013-07-25T19:26:58Z</time>
      </trkpt>
      <trkpt lat="48.71708" lon="2.11285">
        <ele>152</ele>
        <time>2013-07-25T19:27:00Z</time>
      </trkpt>
      <trkpt lat="48.71704" lon="2.11289">
        <ele>152</ele>
        <time>2013-07-25T19:27:01Z</time>
      </trkpt>
      <trkpt lat="48.71701" lon="2.11293">
        <ele>152</ele>
        <time>2013-07-25T19:27:02Z</time>
      </trkpt>
      <trkpt lat="48.71698" lon="2.11296">
        <ele>152</ele>
        <time>2013-07-25T19:27:03Z</time>
      </trkpt>
      <trkpt lat="48.71695" lon="2.11297">
        <ele>152</ele>
        <time>2013-07-25T19:27:04Z</time>
      </trkpt>
      <trkpt lat="48.71692" lon="2.11298">
        <ele>153</ele>
        <time>2013-07-25T19:27:05Z</time>
      </trkpt>
      <trkpt lat="48.71689" lon="2.11299">
        <ele>153</ele>
        <time>2013-07-25T19:27:06Z</time>
      </trkpt>
      <trkpt lat="48.71684" lon="2.11306">
        <ele>153</ele>
        <time>2013-07-25T19:27:08Z</time>
      </trkpt>
      <trkpt lat="48.71678" lon="2.11312">
        <ele>154</ele>
        <time>2013-07-25T19:27:10Z</time>
      </trkpt>
      <trkpt lat="48.71671" lon="2.11319">
        <ele>155</ele>
        <time>2013-07-25T19:27:12Z</time>
      </trkpt>
      <trkpt lat="48.71669" lon="2.11322">
        <ele>156</ele>
        <time>2013-07-25T19:27:13Z</time>
      </trkpt>
      <trkpt lat="48.71665" lon="2.1133">
        <ele>159</ele>
        <time>2013-07-25T19:27:15Z</time>
      </trkpt>
      <trkpt lat="48.71661" lon="2.11337">
        <ele>159</ele>
        <time>2013-07-25T19:27:17Z</time>
      </trkpt>
      <trkpt lat="48.7166" lon="2.11341">
        <ele>159</ele>
        <time>2013-07-25T19:27:18Z</time>
      </trkpt>
      <trkpt lat="48.71659" lon="2.11344">
        <ele>159</ele>
        <time>2013-07-25T19:27:19Z</time>
      </trkpt>
      <trkpt lat="48.71656" lon="2.11347">
        <ele>159</ele>
        <time>2013-07-25T19:27:20Z</time>
      </trkpt>
      <trkpt lat="48.71655" lon="2.11351">
        <ele>159</ele>
        <time>2013-07-25T19:27:21Z</time>
      </trkpt>
      <trkpt lat="48.71654" lon="2.11359">
        <ele>159</ele>
        <time>2013-07-25T19:27:23Z</time>
      </trkpt>
      <trkpt lat="48.71652" lon="2.11364">
        <ele>159</ele>
        <time>2013-07-25T19:27:24Z</time>
      </trkpt>
      <trkpt lat="48.71649" lon="2.11376">
        <ele>159</ele>
        <time>2013-07-25T19:27:27Z</time>
      </trkpt>
      <trkpt lat="48.71648" lon="2.11379">
        <ele>159</ele>
        <time>2013-07-25T19:27:28Z</time>
      </trkpt>
      <trkpt lat="48.71644" lon="2.11385">
        <ele>159</ele>
        <time>2013-07-25T19:27:30Z</time>
      </trkpt>
      <trkpt lat="48.71642" lon="2.11388">
        <ele>159</ele>
        <time>2013-07-25T19:27:31Z</time>
      </trkpt>
      <trkpt lat="48.71641" lon="2.11392">
        <ele>159</ele>
        <time>2013-07-25T19:27:32Z</time>
      </trkpt>
      <trkpt lat="48.7164" lon="2.11395">
        <ele>159</ele>
        <time>2013-07-25T19:27:33Z</time>
      </trkpt>
      <trkpt lat="48.71639" lon="2.11399">
        <ele>159</ele>
        <time>2013-07-25T19:27:34Z</time>
      </trkpt>
      <trkpt lat="48.71637" lon="2.11402">
        <ele>159</ele>
        <time>2013-07-25T19:27:35Z</time>
      </trkpt>
      <trkpt lat="48.71635" lon="2.11404">
        <ele>159</ele>
        <time>2013-07-25T19:27:36Z</time>
      </trkpt>
      <trkpt lat="48.7163" lon="2.11405">
        <ele>159</ele>
        <time>2013-07-25T19:27:38Z</time>
      </trkpt>
      <trkpt lat="48.71628" lon="2.11407">
        <ele>159</ele>
        <time>2013-07-25T19:27:39Z</time>
      </trkpt>
      <trkpt lat="48.71617" lon="2.11411">
        <ele>159</ele>
        <time>2013-07-25T19:27:42Z</time>
      </trkpt>
      <trkpt lat="48.71615" lon="2.11413">
        <ele>159</ele>
        <time>2013-07-25T19:27:43Z</time>
      </trkpt>
      <trkpt lat="48.71613" lon="2.11414">
        <ele>160</ele>
        <time>2013-07-25T19:27:44Z</time>
      </trkpt>
      <trkpt lat="48.71607" lon="2.11417">
        <ele>160</ele>
        <time>2013-07-25T19:27:47Z</time>
      </trkpt>
      <trkpt lat="48.71605" lon="2.11417">
        <ele>159</ele>
        <time>2013-07-25T19:27:48Z</time>
      </trkpt>
      <trkpt lat="48.71601" lon="2.11419">
        <ele>159</ele>
        <time>2013-07-25T19:27:50Z</time>
      </trkpt>
      <trkpt lat="48.71598" lon="2.11419">
        <ele>159</ele>
        <time>2013-07-25T19:27:51Z</time>
      </trkpt>
      <trkpt lat="48.71597" lon="2.11416">
        <ele>160</ele>
        <time>2013-07-25T19:27:52Z</time>
      </trkpt>
      <trkpt lat="48.71595" lon="2.1141">
        <ele>160</ele>
        <time>2013-07-25T19:27:54Z</time>
      </trkpt>
      <trkpt lat="48.7159" lon="2.11403">
        <ele>160</ele>
        <time>2013-07-25T19:27:57Z</time>
      </trkpt>
      <trkpt lat="48.71588" lon="2.114">
        <ele>160</ele>
        <time>2013-07-25T19:27:58Z</time>
      </trkpt>
      <trkpt lat="48.71587" lon="2.11398">
        <ele>160</ele>
        <time>2013-07-25T19:27:59Z</time>
      </trkpt>
      <trkpt lat="48.71585" lon="2.11396">
        <ele>160</ele>
        <time>2013-07-25T19:28:00Z</time>
      </trkpt>
      <trkpt lat="48.71581" lon="2.11393">
        <ele>155</ele>
        <time>2013-07-25T19:28:02Z</time>
      </trkpt>
      <trkpt lat="48.71578" lon="2.11392">
        <ele>155</ele>
        <time>2013-07-25T19:28:03Z</time>
      </trkpt>
      <trkpt lat="48.71575" lon="2.11392">
        <ele>155</ele>
        <time>2013-07-25T19:28:04Z</time>
      </trkpt>
      <trkpt lat="48.71572" lon="2.11391">
        <ele>154</ele>
        <time>2013-07-25T19:28:05Z</time>
      </trkpt>
      <trkpt lat="48.7157" lon="2.1139">
        <ele>154</ele>
        <time>2013-07-25T19:28:06Z</time>
      </trkpt>
      <trkpt lat="48.71568" lon="2.11388">
        <ele>154</ele>
        <time>2013-07-25T19:28:07Z</time>
      </trkpt>
      <trkpt lat="48.71567" lon="2.11386">
        <ele>154</ele>
        <time>2013-07-25T19:28:08Z</time>
      </trkpt>
      <trkpt lat="48.71567" lon="2.11384">
        <ele>154</ele>
        <time>2013-07-25T19:28:09Z</time>
      </trkpt>
      <trkpt lat="48.71567" lon="2.11382">
        <ele>154</ele>
        <time>2013-07-25T19:28:10Z</time>
      </trkpt>
      <trkpt lat="48.71566" lon="2.11381">
        <ele>154</ele>
        <time>2013-07-25T19:28:11Z</time>
      </trkpt>
      <trkpt lat="48.71566" lon="2.11376">
        <ele>153</ele>
        <time>2013-07-25T19:28:12Z</time>
      </trkpt>
      <trkpt lat="48.71566" lon="2.11371">
        <ele>154</ele>
        <time>2013-07-25T19:28:13Z</time>
      </trkpt>
      <trkpt lat="48.71567" lon="2.11367">
        <ele>154</ele>
        <time>2013-07-25T19:28:14Z</time>
      </trkpt>
      <trkpt lat="48.71569" lon="2.11356">
        <ele>155</ele>
        <time>2013-07-25T19:28:16Z</time>
      </trkpt>
      <trkpt lat="48.71569" lon="2.1135">
        <ele>155</ele>
        <time>2013-07-25T19:28:17Z</time>
      </trkpt>
      <trkpt lat="48.71568" lon="2.11346">
        <ele>155</ele>
        <time>2013-07-25T19:28:18Z</time>
      </trkpt>
      <trkpt lat="48.71562" lon="2.11331">
        <ele>155</ele>
        <time>2013-07-25T19:28:21Z</time>
      </trkpt>
      <trkpt lat="48.7156" lon="2.11327">
        <ele>154</ele>
        <time>2013-07-25T19:28:22Z</time>
      </trkpt>
      <trkpt lat="48.71557" lon="2.11324">
        <ele>154</ele>
        <time>2013-07-25T19:28:23Z</time>
      </trkpt>
      <trkpt lat="48.71554" lon="2.11321">
        <ele>153</ele>
        <time>2013-07-25T19:28:24Z</time>
      </trkpt>
      <trkpt lat="48.71542" lon="2.11316">
        <ele>151</ele>
        <time>2013-07-25T19:28:27Z</time>
      </trkpt>
      <trkpt lat="48.71539" lon="2.11312">
        <ele>151</ele>
        <time>2013-07-25T19:28:28Z</time>
      </trkpt>
      <trkpt lat="48.71537" lon="2.11307">
        <ele>150</ele>
        <time>2013-07-25T19:28:29Z</time>
      </trkpt>
      <trkpt lat="48.71536" lon="2.11301">
        <ele>150</ele>
        <time>2013-07-25T19:28:30Z</time>
      </trkpt>
      <trkpt lat="48.71536" lon="2.11295">
        <ele>150</ele>
        <time>2013-07-25T19:28:31Z</time>
      </trkpt>
      <trkpt lat="48.71536" lon="2.11286">
        <ele>150</ele>
        <time>2013-07-25T19:28:33Z</time>
      </trkpt>
      <trkpt lat="48.71536" lon="2.11277">
        <ele>150</ele>
        <time>2013-07-25T19:28:35Z</time>
      </trkpt>
      <trkpt lat="48.71537" lon="2.11274">
        <ele>150</ele>
        <time>2013-07-25T19:28:36Z</time>
      </trkpt>
      <trkpt lat="48.71536" lon="2.11268">
        <ele>150</ele>
        <time>2013-07-25T19:28:38Z</time>
      </trkpt>
      <trkpt lat="48.71537" lon="2.11264">
        <ele>150</ele>
        <time>2013-07-25T19:28:39Z</time>
      </trkpt>
      <trkpt lat="48.71537" lon="2.11261">
        <ele>150</ele>
        <time>2013-07-25T19:28:40Z</time>
      </trkpt>
      <trkpt lat="48.71538" lon="2.1125">
        <ele>151</ele>
        <time>2013-07-25T19:28:43Z</time>
      </trkpt>
      <trkpt lat="48.71539" lon="2.11246">
        <ele>151</ele>
        <time>2013-07-25T19:28:44Z</time>
      </trkpt>
      <trkpt lat="48.7154" lon="2.11239">
        <ele>151</ele>
        <time>2013-07-25T19:28:46Z</time>
      </trkpt>
      <trkpt lat="48.7154" lon="2.11237">
        <ele>151</ele>
        <time>2013-07-25T19:28:47Z</time>
      </trkpt>
      <trkpt lat="48.7154" lon="2.11234">
        <ele>151</ele>
        <time>2013-07-25T19:28:48Z</time>
      </trkpt>
      <trkpt lat="48.71541" lon="2.11231">
        <ele>151</ele>
        <time>2013-07-25T19:28:49Z</time>
      </trkpt>
      <trkpt lat="48.71541" lon="2.11228">
        <ele>151</ele>
        <time>2013-07-25T19:28:50Z</time>
      </trkpt>
      <trkpt lat="48.71541" lon="2.11225">
        <ele>151</ele>
        <time>2013-07-25T19:28:51Z</time>
      </trkpt>
      <trkpt lat="48.71542" lon="2.11219">
        <ele>151</ele>
        <time>2013-07-25T19:28:53Z</time>
      </trkpt>
      <trkpt lat="48.71542" lon="2.11217">
        <ele>151</ele>
        <time>2013-07-25T19:28:54Z</time>
      </trkpt>
      <trkpt lat="48.71543" lon="2.11214">
        <ele>151</ele>
        <time>2013-07-25T19:28:55Z</time>
      </trkpt>
      <trkpt lat="48.71543" lon="2.11203">
        <ele>151</ele>
        <time>2013-07-25T19:28:59Z</time>
      </trkpt>
      <trkpt lat="48.71543" lon="2.11199">
        <ele>151</ele>
        <time>2013-07-25T19:29:00Z</time>
      </trkpt>
      <trkpt lat="48.71544" lon="2.11197">
        <ele>151</ele>
        <time>2013-07-25T19:29:01Z</time>
      </trkpt>
      <trkpt lat="48.71544" lon="2.11192">
        <ele>151</ele>
        <time>2013-07-25T19:29:03Z</time>
      </trkpt>
      <trkpt lat="48.71544" lon="2.1119">
        <ele>152</ele>
        <time>2013-07-25T19:29:04Z</time>
      </trkpt>
      <trkpt lat="48.71543" lon="2.11188">
        <ele>151</ele>
        <time>2013-07-25T19:29:05Z</time>
      </trkpt>
      <trkpt lat="48.71543" lon="2.11186">
        <ele>151</ele>
        <time>2013-07-25T19:29:06Z</time>
      </trkpt>
      <trkpt lat="48.71543" lon="2.11184">
        <ele>151</ele>
        <time>2013-07-25T19:29:07Z</time>
      </trkpt>
      <trkpt lat="48.71544" lon="2.11176">
        <ele>152</ele>
        <time>2013-07-25T19:29:10Z</time>
      </trkpt>
      <trkpt lat="48.71545" lon="2.11172">
        <ele>152</ele>
        <time>2013-07-25T19:29:12Z</time>
      </trkpt>
      <trkpt lat="48.71546" lon="2.11169">
        <ele>152</ele>
        <time>2013-07-25T19:29:13Z</time>
      </trkpt>
      <trkpt lat="48.71547" lon="2.11159">
        <ele>153</ele>
        <time>2013-07-25T19:29:16Z</time>
      </trkpt>
      <trkpt lat="48.71547" lon="2.11155">
        <ele>153</ele>
        <time>2013-07-25T19:29:17Z</time>
      </trkpt>
      <trkpt lat="48.71549" lon="2.11149">
        <ele>153</ele>
        <time>2013-07-25T19:29:19Z</time>
      </trkpt>
      <trkpt lat="48.7155" lon="2.11146">
        <ele>153</ele>
        <time>2013-07-25T19:29:20Z</time>
      </trkpt>
      <trkpt lat="48.71552" lon="2.11135">
        <ele>153</ele>
        <time>2013-07-25T19:29:22Z</time>
      </trkpt>
      <trkpt lat="48.71554" lon="2.11131">
        <ele>153</ele>
        <time>2013-07-25T19:29:23Z</time>
      </trkpt>
      <trkpt lat="48.71556" lon="2.11121">
        <ele>153</ele>
        <time>2013-07-25T19:29:26Z</time>
      </trkpt>
      <trkpt lat="48.71557" lon="2.11111">
        <ele>154</ele>
        <time>2013-07-25T19:29:28Z</time>
      </trkpt>
      <trkpt lat="48.71558" lon="2.11101">
        <ele>154</ele>
        <time>2013-07-25T19:29:30Z</time>
      </trkpt>
      <trkpt lat="48.71559" lon="2.11098">
        <ele>154</ele>
        <time>2013-07-25T19:29:31Z</time>
      </trkpt>
      <trkpt lat="48.71561" lon="2.11091">
        <ele>155</ele>
        <time>2013-07-25T19:29:33Z</time>
      </trkpt>
      <trkpt lat="48.71562" lon="2.11081">
        <ele>155</ele>
        <time>2013-07-25T19:29:35Z</time>
      </trkpt>
      <trkpt lat="48.71565" lon="2.11066">
        <ele>155</ele>
        <time>2013-07-25T19:29:39Z</time>
      </trkpt>
      <trkpt lat="48.71565" lon="2.11062">
        <ele>154</ele>
        <time>2013-07-25T19:29:40Z</time>
      </trkpt>
      <trkpt lat="48.71563" lon="2.1106">
        <ele>154</ele>
        <time>2013-07-25T19:29:41Z</time>
      </trkpt>
      <trkpt lat="48.71561" lon="2.11058">
        <ele>154</ele>
        <time>2013-07-25T19:29:42Z</time>
      </trkpt>
      <trkpt lat="48.7156" lon="2.11055">
        <ele>154</ele>
        <time>2013-07-25T19:29:43Z</time>
      </trkpt>
      <trkpt lat="48.71559" lon="2.11053">
        <ele>153</ele>
        <time>2013-07-25T19:29:44Z</time>
      </trkpt>
      <trkpt lat="48.71558" lon="2.11051">
        <ele>153</ele>
        <time>2013-07-25T19:29:45Z</time>
      </trkpt>
      <trkpt lat="48.71558" lon="2.11048">
        <ele>153</ele>
        <time>2013-07-25T19:29:46Z</time>
      </trkpt>
      <trkpt lat="48.71558" lon="2.11045">
        <ele>153</ele>
        <time>2013-07-25T19:29:47Z</time>
      </trkpt>
      <trkpt lat="48.71559" lon="2.11042">
        <ele>153</ele>
        <time>2013-07-25T19:29:48Z</time>
      </trkpt>
      <trkpt lat="48.71559" lon="2.11039">
        <ele>153</ele>
        <time>2013-07-25T19:29:50Z</time>
      </trkpt>
      <trkpt lat="48.71559" lon="2.11038">
        <ele>153</ele>
        <time>2013-07-25T19:29:51Z</time>
      </trkpt>
      <trkpt lat="48.71559" lon="2.11037">
        <ele>153</ele>
        <time>2013-07-25T19:29:52Z</time>
      </trkpt>
      <trkpt lat="48.71558" lon="2.11037">
        <ele>153</ele>
        <time>2013-07-25T19:29:53Z</time>
      </trkpt>
      <trkpt lat="48.71558" lon="2.11036">
        <ele>153</ele>
        <time>2013-07-25T19:29:54Z</time>
      </trkpt>
      <trkpt lat="48.71559" lon="2.11035">
        <ele>153</ele>
        <time>2013-07-25T19:29:55Z</time>
      </trkpt>
      <trkpt lat="48.71559" lon="2.11034">
        <ele>153</ele>
        <time>2013-07-25T19:29:56Z</time>
      </trkpt>
      <trkpt lat="48.71559" lon="2.11034">
        <ele>153</ele>
        <time>2013-07-25T19:29:57Z</time>
      </trkpt>
      <trkpt lat="48.71558" lon="2.11032">
        <ele>153</ele>
        <time>2013-07-25T19:29:59Z</time>
      </trkpt>
      <trkpt lat="48.71558" lon="2.11032">
        <ele>153</ele>
        <time>2013-07-25T19:30:00Z</time>
      </trkpt>
      <trkpt lat="48.71558" lon="2.11031">
        <ele>153</ele>
        <time>2013-07-25T19:30:02Z</time>
      </trkpt>
      <trkpt lat="48.71558" lon="2.1103">
        <ele>153</ele>
        <time>2013-07-25T19:30:03Z</time>
      </trkpt>
      <trkpt lat="48.71558" lon="2.1103">
        <ele>153</ele>
        <time>2013-07-25T19:30:04Z</time>
      </trkpt>
      <trkpt lat="48.71558" lon="2.11029">
        <ele>153</ele>
        <time>2013-07-25T19:30:05Z</time>
      </trkpt>
      <trkpt lat="48.71558" lon="2.11029">
        <ele>153</ele>
        <time>2013-07-25T19:30:06Z</time>
      </trkpt>
      <trkpt lat="48.71558" lon="2.11029">
        <ele>153</ele>
        <time>2013-07-25T19:30:07Z</time>
      </trkpt>
      <trkpt lat="48.71558" lon="2.11028">
        <ele>153</ele>
        <time>2013-07-25T19:30:08Z</time>
      </trkpt>
      <trkpt lat="48.71558" lon="2.11028">
        <ele>153</ele>
        <time>2013-07-25T19:30:09Z</time>
      </trkpt>
      <trkpt lat="48.71559" lon="2.11028">
        <ele>153</ele>
        <time>2013-07-25T19:30:10Z</time>
      </trkpt>
      <trkpt lat="48.71559" lon="2.11028">
        <ele>153</ele>
        <time>2013-07-25T19:30:11Z</time>
      </trkpt>
      <trkpt lat="48.71559" lon="2.11028">
        <ele>153</ele>
        <time>2013-07-25T19:30:12Z</time>
      </trkpt>
      <trkpt lat="48.71559" lon="2.11027">
        <ele>153</ele>
        <time>2013-07-25T19:30:13Z</time>
      </trkpt>
      <trkpt lat="48.71559" lon="2.11027">
        <ele>153</ele>
        <time>2013-07-25T19:30:14Z</time>
      </trkpt>
      <trkpt lat="48.71559" lon="2.11027">
        <ele>153</ele>
        <time>2013-07-25T19:30:15Z</time>
      </trkpt>
      <trkpt lat="48.71559" lon="2.11027">
        <ele>153</ele>
        <time>2013-07-25T19:30:16Z</time>
      </trkpt>
      <trkpt lat="48.7156" lon="2.11027">
        <ele>153</ele>
        <time>2013-07-25T19:30:17Z</time>
      </trkpt>
      <trkpt lat="48.7156" lon="2.11027">
        <ele>153</ele>
        <time>2013-07-25T19:30:18Z</time>
      </trkpt>
      <trkpt lat="48.7156" lon="2.11027">
        <ele>153</ele>
        <time>2013-07-25T19:30:19Z</time>
      </trkpt>
      <trkpt lat="48.7156" lon="2.11027">
        <ele>153</ele>
        <time>2013-07-25T19:30:20Z</time>
      </trkpt>
      <trkpt lat="48.7156" lon="2.11027">
        <ele>154</ele>
        <time>2013-07-25T19:30:21Z</time>
      </trkpt>
      <trkpt lat="48.71561" lon="2.11027">
        <ele>154</ele>
        <time>2013-07-25T19:30:22Z</time>
      </trkpt>
      <trkpt lat="48.71561" lon="2.11027">
        <ele>154</ele>
        <time>2013-07-25T19:30:23Z</time>
      </trkpt>
      <trkpt lat="48.71561" lon="2.11027">
        <ele>154</ele>
        <time>2013-07-25T19:30:24Z</time>
      </trkpt>
      <trkpt lat="48.71561" lon="2.11027">
        <ele>154</ele>
        <time>2013-07-25T19:30:25Z</time>
      </trkpt>
      <trkpt lat="48.71561" lon="2.11027">
        <ele>154</ele>
        <time>2013-07-25T19:30:26Z</time>
      </trkpt>
      <trkpt lat="48.71561" lon="2.11027">
        <ele>154</ele>
        <time>2013-07-25T19:30:27Z</time>
      </trkpt>
      <trkpt lat="48.71562" lon="2.11027">
        <ele>154</ele>
        <time>2013-07-25T19:30:28Z</time>
      </trkpt>
      <trkpt lat="48.71562" lon="2.11027">
        <ele>154</ele>
        <time>2013-07-25T19:30:29Z</time>
      </trkpt>
      <trkpt lat="48.71562" lon="2.11027">
        <ele>154</ele>
        <time>2013-07-25T19:30:30Z</time>
      </trkpt>
      <trkpt lat="48.71562" lon="2.11027">
        <ele>154</ele>
        <time>2013-07-25T19:30:31Z</time>
      </trkpt>
      <trkpt lat="48.71562" lon="2.11027">
        <ele>154</ele>
        <time>2013-07-25T19:30:32Z</time>
      </trkpt>
      <trkpt lat="48.71562" lon="2.11027">
        <ele>154</ele>
        <time>2013-07-25T19:30:33Z</time>
      </trkpt>
      <trkpt lat="48.71563" lon="2.11027">
        <ele>154</ele>
        <time>2013-07-25T19:30:34Z</time>
      </trkpt>
      <trkpt lat="48.71563" lon="2.11027">
        <ele>154</ele>
        <time>2013-07-25T19:30:35Z</time>
      </trkpt>
      <trkpt lat="48.71563" lon="2.11027">
        <ele>154</ele>
        <time>2013-07-25T19:30:36Z</time>
      </trkpt>
      <trkpt lat="48.71563" lon="2.11026">
        <ele>154</ele>
        <time>2013-07-25T19:30:37Z</time>
      </trkpt>
      <trkpt lat="48.71563" lon="2.11026">
        <ele>154</ele>
        <time>2013-07-25T19:30:38Z</time>
      </trkpt>
      <trkpt lat="48.71563" lon="2.11026">
        <ele>154</ele>
        <time>2013-07-25T19:30:39Z</time>
      </trkpt>
      <trkpt lat="48.71563" lon="2.11026">
        <ele>154</ele>
        <time>2013-07-25T19:30:40Z</time>
      </trkpt>
      <trkpt lat="48.71563" lon="2.11026">
        <ele>154</ele>
        <time>2013-07-25T19:30:41Z</time>
      </trkpt>
      <trkpt lat="48.71563" lon="2.11026">
        <ele>154</ele>
        <time>2013-07-25T19:30:42Z</time>
      </trkpt>
      <trkpt lat="48.71564" lon="2.11026">
        <ele>154</ele>
        <time>2013-07-25T19:30:43Z</time>
      </trkpt>
      <trkpt lat="48.71564" lon="2.11026">
        <ele>154</ele>
        <time>2013-07-25T19:30:44Z</time>
      </trkpt>
      <trkpt lat="48.71564" lon="2.11026">
        <ele>154</ele>
        <time>2013-07-25T19:30:45Z</time>
      </trkpt>
      <trkpt lat="48.71564" lon="2.11025">
        <ele>154</ele>
        <time>2013-07-25T19:30:46Z</time>
      </trkpt>
      <trkpt lat="48.71564" lon="2.11025">
        <ele>154</ele>
        <time>2013-07-25T19:30:47Z</time>
      </trkpt>
      <trkpt lat="48.71564" lon="2.11025">
        <ele>154</ele>
        <time>2013-07-25T19:30:48Z</time>
      </trkpt>
      <trkpt lat="48.71564" lon="2.11025">
        <ele>154</ele>
        <time>2013-07-25T19:30:49Z</time>
      </trkpt>
      <trkpt lat="48.71564" lon="2.11025">
        <ele>154</ele>
        <time>2013-07-25T19:30:50Z</time>
      </trkpt>
      <trkpt lat="48.71564" lon="2.11025">
        <ele>154</ele>
        <time>2013-07-25T19:30:51Z</time>
      </trkpt>
      <trkpt lat="48.71564" lon="2.11025">
        <ele>154</ele>
        <time>2013-07-25T19:30:52Z</time>
      </trkpt>
      <trkpt lat="48.71564" lon="2.11025">
        <ele>154</ele>
        <time>2013-07-25T19:30:53Z</time>
      </trkpt>
      <trkpt lat="48.71564" lon="2.11025">
        <ele>154</ele>
        <time>2013-07-25T19:30:54Z</time>
      </trkpt>
      <trkpt lat="48.71564" lon="2.11025">
        <ele>154</ele>
        <time>2013-07-25T19:30:55Z</time>
      </trkpt>
      <trkpt lat="48.71564" lon="2.11025">
        <ele>154</ele>
        <time>2013-07-25T19:30:56Z</time>
      </trkpt>
      <trkpt lat="48.71564" lon="2.11024">
        <ele>154</ele>
        <time>2013-07-25T19:30:57Z</time>
      </trkpt>
      <trkpt lat="48.71564" lon="2.11024">
        <ele>154</ele>
        <time>2013-07-25T19:30:58Z</time>
      </trkpt>
      <trkpt lat="48.71565" lon="2.11024">
        <ele>154</ele>
        <time>2013-07-25T19:30:59Z</time>
      </trkpt>
      <trkpt lat="48.71565" lon="2.11024">
        <ele>154</ele>
        <time>2013-07-25T19:31:00Z</time>
      </trkpt>
      <trkpt lat="48.71565" lon="2.11024">
        <ele>154</ele>
        <time>2013-07-25T19:31:01Z</time>
      </trkpt>
      <trkpt lat="48.71565" lon="2.11024">
        <ele>154</ele>
        <time>2013-07-25T19:31:02Z</time>
      </trkpt>
      <trkpt lat="48.71565" lon="2.11024">
        <ele>154</ele>
        <time>2013-07-25T19:31:03Z</time>
      </trkpt>
      <trkpt lat="48.71565" lon="2.11024">
        <ele>154</ele>
        <time>2013-07-25T19:31:04Z</time>
      </trkpt>
      <trkpt lat="48.71565" lon="2.11024">
        <ele>154</ele>
        <time>2013-07-25T19:31:05Z</time>
      </trkpt>
      <trkpt lat="48.71565" lon="2.11024">
        <ele>154</ele>
        <time>2013-07-25T19:31:06Z</time>
      </trkpt>
      <trkpt lat="48.71565" lon="2.11024">
        <ele>154</ele>
        <time>2013-07-25T19:31:07Z</time>
      </trkpt>
      <trkpt lat="48.71565" lon="2.11024">
        <ele>154</ele>
        <time>2013-07-25T19:31:08Z</time>
      </trkpt>
      <trkpt lat="48.71565" lon="2.11024">
        <ele>154</ele>
        <time>2013-07-25T19:31:09Z</time>
      </trkpt>
      <trkpt lat="48.71565" lon="2.11024">
        <ele>154</ele>
        <time>2013-07-25T19:31:10Z</time>
      </trkpt>
      <trkpt lat="48.71565" lon="2.11023">
        <ele>154</ele>
        <time>2013-07-25T19:31:11Z</time>
      </trkpt>
      <trkpt lat="48.71565" lon="2.11023">
        <ele>154</ele>
        <time>2013-07-25T19:31:12Z</time>
      </trkpt>
      <trkpt lat="48.71565" lon="2.11023">
        <ele>154</ele>
        <time>2013-07-25T19:31:13Z</time>
      </trkpt>
      <trkpt lat="48.71565" lon="2.11023">
        <ele>154</ele>
        <time>2013-07-25T19:31:14Z</time>
      </trkpt>
      <trkpt lat="48.71565" lon="2.11023">
        <ele>154</ele>
        <time>2013-07-25T19:31:15Z</time>
      </trkpt>
      <trkpt lat="48.71565" lon="2.11023">
        <ele>154</ele>
        <time>2013-07-25T19:31:16Z</time>
      </trkpt>
      <trkpt lat="48.71565" lon="2.11023">
        <ele>154</ele>
        <time>2013-07-25T19:31:17Z</time>
      </trkpt>
      <trkpt lat="48.71565" lon="2.11023">
        <ele>154</ele>
        <time>2013-07-25T19:31:18Z</time>
      </trkpt>
      <trkpt lat="48.71565" lon="2.11023">
        <ele>154</ele>
        <time>2013-07-25T19:31:19Z</time>
      </trkpt>
      <trkpt lat="48.71565" lon="2.11023">
        <ele>154</ele>
        <time>2013-07-25T19:31:20Z</time>
      </trkpt>
      <trkpt lat="48.71565" lon="2.11023">
        <ele>154</ele>
        <time>2013-07-25T19:31:21Z</time>
      </trkpt>
      <trkpt lat="48.71565" lon="2.11023">
        <ele>154</ele>
        <time>2013-07-25T19:31:22Z</time>
      </trkpt>
      <trkpt lat="48.71565" lon="2.11023">
        <ele>154</ele>
        <time>2013-07-25T19:31:23Z</time>
      </trkpt>
      <trkpt lat="48.71565" lon="2.11023">
        <ele>154</ele>
        <time>2013-07-25T19:31:24Z</time>
      </trkpt>
      <trkpt lat="48.71565" lon="2.11023">
        <ele>154</ele>
        <time>2013-07-25T19:31:25Z</time>
      </trkpt>
      <trkpt lat="48.71565" lon="2.11023">
        <ele>154</ele>
        <time>2013-07-25T19:31:26Z</time>
      </trkpt>
      <trkpt lat="48.71565" lon="2.11023">
        <ele>154</ele>
        <time>2013-07-25T19:31:27Z</time>
      </trkpt>
      <trkpt lat="48.71565" lon="2.11023">
        <ele>154</ele>
        <time>2013-07-25T19:31:28Z</time>
      </trkpt>
      <trkpt lat="48.71565" lon="2.11023">
        <ele>154</ele>
        <time>2013-07-25T19:31:29Z</time>
      </trkpt>
      <trkpt lat="48.71565" lon="2.11023">
        <ele>154</ele>
        <time>2013-07-25T19:31:30Z</time>
      </trkpt>
      <trkpt lat="48.71565" lon="2.11023">
        <ele>154</ele>
        <time>2013-07-25T19:31:31Z</time>
      </trkpt>
      <trkpt lat="48.71565" lon="2.11023">
        <ele>154</ele>
        <time>2013-07-25T19:31:32Z</time>
      </trkpt>
      <trkpt lat="48.71565" lon="2.11023">
        <ele>154</ele>
        <time>2013-07-25T19:31:33Z</time>
      </trkpt>
      <trkpt lat="48.71565" lon="2.11023">
        <ele>154</ele>
        <time>2013-07-25T19:31:34Z</time>
      </trkpt>
      <trkpt lat="48.71565" lon="2.11023">
        <ele>154</ele>
        <time>2013-07-25T19:31:35Z</time>
      </trkpt>
      <trkpt lat="48.71566" lon="2.11023">
        <ele>154</ele>
        <time>2013-07-25T19:31:36Z</time>
      </trkpt>
      <trkpt lat="48.71566" lon="2.11023">
        <ele>154</ele>
        <time>2013-07-25T19:31:37Z</time>
      </trkpt>
      <trkpt lat="48.71566" lon="2.11023">
        <ele>154</ele>
        <time>2013-07-25T19:31:38Z</time>
      </trkpt>
      <trkpt lat="48.71566" lon="2.11023">
        <ele>154</ele>
        <time>2013-07-25T19:31:39Z</time>
      </trkpt>
      <trkpt lat="48.71566" lon="2.11023">
        <ele>154</ele>
        <time>2013-07-25T19:31:40Z</time>
      </trkpt>
      <trkpt lat="48.71566" lon="2.11023">
        <ele>154</ele>
        <time>2013-07-25T19:31:41Z</time>
      </trkpt>
      <trkpt lat="48.71566" lon="2.11023">
        <ele>154</ele>
        <time>2013-07-25T19:31:42Z</time>
      </trkpt>
      <trkpt lat="48.71566" lon="2.11023">
        <ele>154</ele>
        <time>2013-07-25T19:31:43Z</time>
      </trkpt>
      <trkpt lat="48.71566" lon="2.11023">
        <ele>154</ele>
        <time>2013-07-25T19:31:44Z</time>
      </trkpt>
      <trkpt lat="48.71566" lon="2.11023">
        <ele>154</ele>
        <time>2013-07-25T19:31:45Z</time>
      </trkpt>
      <trkpt lat="48.71566" lon="2.11023">
        <ele>154</ele>
        <time>2013-07-25T19:31:46Z</time>
      </trkpt>
      <trkpt lat="48.71567" lon="2.11023">
        <ele>154</ele>
        <time>2013-07-25T19:31:47Z</time>
      </trkpt>
      <trkpt lat="48.71567" lon="2.11023">
        <ele>154</ele>
        <time>2013-07-25T19:31:48Z</time>
      </trkpt>
      <trkpt lat="48.71567" lon="2.11023">
        <ele>154</ele>
        <time>2013-07-25T19:31:49Z</time>
      </trkpt>
      <trkpt lat="48.71567" lon="2.11024">
        <ele>154</ele>
        <time>2013-07-25T19:31:50Z</time>
      </trkpt>
      <trkpt lat="48.71567" lon="2.11024">
        <ele>154</ele>
        <time>2013-07-25T19:31:51Z</time>
      </trkpt>
      <trkpt lat="48.71567" lon="2.11024">
        <ele>154</ele>
        <time>2013-07-25T19:31:52Z</time>
      </trkpt>
      <trkpt lat="48.71567" lon="2.11024">
        <ele>154</ele>
        <time>2013-07-25T19:31:53Z</time>
      </trkpt>
      <trkpt lat="48.71568" lon="2.11024">
        <ele>154</ele>
        <time>2013-07-25T19:31:54Z</time>
      </trkpt>
      <trkpt lat="48.71568" lon="2.11024">
        <ele>154</ele>
        <time>2013-07-25T19:31:55Z</time>
      </trkpt>
      <trkpt lat="48.71568" lon="2.11024">
        <ele>154</ele>
        <time>2013-07-25T19:31:56Z</time>
      </trkpt>
      <trkpt lat="48.71568" lon="2.11024">
        <ele>154</ele>
        <time>2013-07-25T19:31:57Z</time>
      </trkpt>
      <trkpt lat="48.71568" lon="2.11024">
        <ele>154</ele>
        <time>2013-07-25T19:31:58Z</time>
      </trkpt>
      <trkpt lat="48.71568" lon="2.11024">
        <ele>154</ele>
        <time>2013-07-25T19:31:59Z</time>
      </trkpt>
      <trkpt lat="48.71569" lon="2.11024">
        <ele>154</ele>
        <time>2013-07-25T19:32:00Z</time>
      </trkpt>
      <trkpt lat="48.71569" lon="2.11024">
        <ele>154</ele>
        <time>2013-07-25T19:32:01Z</time>
      </trkpt>
      <trkpt lat="48.71569" lon="2.11024">
        <ele>154</ele>
        <time>2013-07-25T19:32:02Z</time>
      </trkpt>
      <trkpt lat="48.71569" lon="2.11024">
        <ele>154</ele>
        <time>2013-07-25T19:32:03Z</time>
      </trkpt>
      <trkpt lat="48.71569" lon="2.11024">
        <ele>154</ele>
        <time>2013-07-25T19:32:04Z</time>
      </trkpt>
      <trkpt lat="48.71569" lon="2.11024">
        <ele>154</ele>
        <time>2013-07-25T19:32:05Z</time>
      </trkpt>
      <trkpt lat="48.71569" lon="2.11024">
        <ele>154</ele>
        <time>2013-07-25T19:32:06Z</time>
      </trkpt>
      <trkpt lat="48.71569" lon="2.11024">
        <ele>154</ele>
        <time>2013-07-25T19:32:07Z</time>
      </trkpt>
      <trkpt lat="48.71569" lon="2.11024">
        <ele>154</ele>
        <time>2013-07-25T19:32:08Z</time>
      </trkpt>
      <trkpt lat="48.71569" lon="2.11024">
        <ele>154</ele>
        <time>2013-07-25T19:32:09Z</time>
      </trkpt>
      <trkpt lat="48.71569" lon="2.11025">
        <ele>154</ele>
        <time>2013-07-25T19:32:10Z</time>
      </trkpt>
      <trkpt lat="48.71569" lon="2.11025">
        <ele>154</ele>
        <time>2013-07-25T19:32:11Z</time>
      </trkpt>
      <trkpt lat="48.71569" lon="2.11025">
        <ele>154</ele>
        <time>2013-07-25T19:32:12Z</time>
      </trkpt>
      <trkpt lat="48.71569" lon="2.11025">
        <ele>154</ele>
        <time>2013-07-25T19:32:13Z</time>
      </trkpt>
      <trkpt lat="48.7157" lon="2.11025">
        <ele>154</ele>
        <time>2013-07-25T19:32:14Z</time>
      </trkpt>
      <trkpt lat="48.7157" lon="2.11025">
        <ele>154</ele>
        <time>2013-07-25T19:32:15Z</time>
      </trkpt>
      <trkpt lat="48.7157" lon="2.11025">
        <ele>154</ele>
        <time>2013-07-25T19:32:16Z</time>
      </trkpt>
      <trkpt lat="48.7157" lon="2.11025">
        <ele>154</ele>
        <time>2013-07-25T19:32:17Z</time>
      </trkpt>
      <trkpt lat="48.7157" lon="2.11025">
        <ele>154</ele>
        <time>2013-07-25T19:32:18Z</time>
      </trkpt>
      <trkpt lat="48.7157" lon="2.11025">
        <ele>154</ele>
        <time>2013-07-25T19:32:19Z</time>
      </trkpt>
      <trkpt lat="48.7157" lon="2.11025">
        <ele>154</ele>
        <time>2013-07-25T19:32:20Z</time>
      </trkpt>
      <trkpt lat="48.7157" lon="2.11025">
        <ele>154</ele>
        <time>2013-07-25T19:32:21Z</time>
      </trkpt>
      <trkpt lat="48.7157" lon="2.11025">
        <ele>154</ele>
        <time>2013-07-25T19:32:22Z</time>
      </trkpt>
      <trkpt lat="48.7157" lon="2.11024">
        <ele>154</ele>
        <time>2013-07-25T19:32:23Z</time>
      </trkpt>
      <trkpt lat="48.7157" lon="2.11024">
        <ele>154</ele>
        <time>2013-07-25T19:32:24Z</time>
      </trkpt>
      <trkpt lat="48.7157" lon="2.11024">
        <ele>154</ele>
        <time>2013-07-25T19:32:25Z</time>
      </trkpt>
      <trkpt lat="48.7157" lon="2.11024">
        <ele>154</ele>
        <time>2013-07-25T19:32:26Z</time>
      </trkpt>
      <trkpt lat="48.7157" lon="2.11023">
        <ele>154</ele>
        <time>2013-07-25T19:32:27Z</time>
      </trkpt>
      <trkpt lat="48.7157" lon="2.11023">
        <ele>154</ele>
        <time>2013-07-25T19:32:28Z</time>
      </trkpt>
      <trkpt lat="48.7157" lon="2.11023">
        <ele>154</ele>
        <time>2013-07-25T19:32:29Z</time>
      </trkpt>
      <trkpt lat="48.7157" lon="2.11022">
        <ele>154</ele>
        <time>2013-07-25T19:32:30Z</time>
      </trkpt>
      <trkpt lat="48.7157" lon="2.11022">
        <ele>154</ele>
        <time>2013-07-25T19:32:31Z</time>
      </trkpt>
      <trkpt lat="48.7157" lon="2.11022">
        <ele>155</ele>
        <time>2013-07-25T19:32:32Z</time>
      </trkpt>
      <trkpt lat="48.7157" lon="2.11022">
        <ele>155</ele>
        <time>2013-07-25T19:32:33Z</time>
      </trkpt>
      <trkpt lat="48.7157" lon="2.11021">
        <ele>155</ele>
        <time>2013-07-25T19:32:34Z</time>
      </trkpt>
      <trkpt lat="48.7157" lon="2.11021">
        <ele>155</ele>
        <time>2013-07-25T19:32:35Z</time>
      </trkpt>
      <trkpt lat="48.7157" lon="2.11021">
        <ele>155</ele>
        <time>2013-07-25T19:32:36Z</time>
      </trkpt>
      <trkpt lat="48.7157" lon="2.1102">
        <ele>155</ele>
        <time>2013-07-25T19:32:38Z</time>
      </trkpt>
      <trkpt lat="48.71571" lon="2.1102">
        <ele>155</ele>
        <time>2013-07-25T19:32:40Z</time>
      </trkpt>
      <trkpt lat="48.71571" lon="2.11019">
        <ele>155</ele>
        <time>2013-07-25T19:32:41Z</time>
      </trkpt>
      <trkpt lat="48.71572" lon="2.11019">
        <ele>155</ele>
        <time>2013-07-25T19:32:42Z</time>
      </trkpt>
      <trkpt lat="48.71572" lon="2.11018">
        <ele>155</ele>
        <time>2013-07-25T19:32:43Z</time>
      </trkpt>
      <trkpt lat="48.71572" lon="2.11018">
        <ele>155</ele>
        <time>2013-07-25T19:32:44Z</time>
      </trkpt>
      <trkpt lat="48.71573" lon="2.11018">
        <ele>155</ele>
        <time>2013-07-25T19:32:45Z</time>
      </trkpt>
      <trkpt lat="48.71573" lon="2.11017">
        <ele>155</ele>
        <time>2013-07-25T19:32:47Z</time>
      </trkpt>
      <trkpt lat="48.71574" lon="2.11017">
        <ele>155</ele>
        <time>2013-07-25T19:32:48Z</time>
      </trkpt>
      <trkpt lat="48.71574" lon="2.11017">
        <ele>155</ele>
        <time>2013-07-25T19:32:49Z</time>
      </trkpt>
      <trkpt lat="48.71575" lon="2.11017">
        <ele>155</ele>
        <time>2013-07-25T19:32:50Z</time>
      </trkpt>
      <trkpt lat="48.71575" lon="2.11017">
        <ele>155</ele>
        <time>2013-07-25T19:32:51Z</time>
      </trkpt>
      <trkpt lat="48.71575" lon="2.11016">
        <ele>155</ele>
        <time>2013-07-25T19:32:52Z</time>
      </trkpt>
      <trkpt lat="48.71575" lon="2.11016">
        <ele>155</ele>
        <time>2013-07-25T19:32:53Z</time>
      </trkpt>
      <trkpt lat="48.71576" lon="2.11016">
        <ele>155</ele>
        <time>2013-07-25T19:32:54Z</time>
      </trkpt>
      <trkpt lat="48.71576" lon="2.11016">
        <ele>156</ele>
        <time>2013-07-25T19:32:55Z</time>
      </trkpt>
      <trkpt lat="48.71576" lon="2.11015">
        <ele>156</ele>
        <time>2013-07-25T19:32:56Z</time>
      </trkpt>
      <trkpt lat="48.71577" lon="2.11015">
        <ele>156</ele>
        <time>2013-07-25T19:32:59Z</time>
      </trkpt>
      <trkpt lat="48.71577" lon="2.11015">
        <ele>156</ele>
        <time>2013-07-25T19:33:00Z</time>
      </trkpt>
      <trkpt lat="48.71578" lon="2.11014">
        <ele>156</ele>
        <time>2013-07-25T19:33:01Z</time>
      </trkpt>
      <trkpt lat="48.71578" lon="2.11014">
        <ele>156</ele>
        <time>2013-07-25T19:33:02Z</time>
      </trkpt>
      <trkpt lat="48.71578" lon="2.11014">
        <ele>156</ele>
        <time>2013-07-25T19:33:03Z</time>
      </trkpt>
      <trkpt lat="48.71578" lon="2.11014">
        <ele>156</ele>
        <time>2013-07-25T19:33:04Z</time>
      </trkpt>
      <trkpt lat="48.71578" lon="2.11014">
        <ele>156</ele>
        <time>2013-07-25T19:33:05Z</time>
      </trkpt>
      <trkpt lat="48.71578" lon="2.11014">
        <ele>156</ele>
        <time>2013-07-25T19:33:06Z</time>
      </trkpt>
      <trkpt lat="48.71579" lon="2.11014">
        <ele>156</ele>
        <time>2013-07-25T19:33:07Z</time>
      </trkpt>
      <trkpt lat="48.71579" lon="2.11014">
        <ele>156</ele>
        <time>2013-07-25T19:33:08Z</time>
      </trkpt>
      <trkpt lat="48.71579" lon="2.11014">
        <ele>156</ele>
        <time>2013-07-25T19:33:09Z</time>
      </trkpt>
      <trkpt lat="48.71579" lon="2.11014">
        <ele>156</ele>
        <time>2013-07-25T19:33:10Z</time>
      </trkpt>
      <trkpt lat="48.71579" lon="2.11014">
        <ele>156</ele>
        <time>2013-07-25T19:33:11Z</time>
      </trkpt>
      <trkpt lat="48.71579" lon="2.11014">
        <ele>156</ele>
        <time>2013-07-25T19:33:12Z</time>
      </trkpt>
      <trkpt lat="48.71579" lon="2.11014">
        <ele>156</ele>
        <time>2013-07-25T19:33:13Z</time>
      </trkpt>
      <trkpt lat="48.71579" lon="2.11014">
        <ele>156</ele>
        <time>2013-07-25T19:33:14Z</time>
      </trkpt>
      <trkpt lat="48.71579" lon="2.11013">
        <ele>156</ele>
        <time>2013-07-25T19:33:15Z</time>
      </trkpt>
      <trkpt lat="48.71579" lon="2.11013">
        <ele>156</ele>
        <time>2013-07-25T19:33:16Z</time>
      </trkpt>
      <trkpt lat="48.71579" lon="2.11013">
        <ele>156</ele>
        <time>2013-07-25T19:33:17Z</time>
      </trkpt>
      <trkpt lat="48.71579" lon="2.11013">
        <ele>156</ele>
        <time>2013-07-25T19:33:18Z</time>
      </trkpt>
      <trkpt lat="48.71579" lon="2.11013">
        <ele>156</ele>
        <time>2013-07-25T19:33:19Z</time>
      </trkpt>
      <trkpt lat="48.71579" lon="2.11013">
        <ele>156</ele>
        <time>2013-07-25T19:33:20Z</time>
      </trkpt>
      <trkpt lat="48.71579" lon="2.11013">
        <ele>156</ele>
        <time>2013-07-25T19:33:21Z</time>
      </trkpt>
      <trkpt lat="48.71579" lon="2.11013">
        <ele>156</ele>
        <time>2013-07-25T19:33:22Z</time>
      </trkpt>
      <trkpt lat="48.71579" lon="2.11013">
        <ele>156</ele>
        <time>2013-07-25T19:33:23Z</time>
      </trkpt>
      <trkpt lat="48.71579" lon="2.11013">
        <ele>156</ele>
        <time>2013-07-25T19:33:24Z</time>
      </trkpt>
      <trkpt lat="48.71579" lon="2.11013">
        <ele>156</ele>
        <time>2013-07-25T19:33:25Z</time>
      </trkpt>
      <trkpt lat="48.71579" lon="2.11013">
        <ele>156</ele>
        <time>2013-07-25T19:33:26Z</time>
      </trkpt>
      <trkpt lat="48.71578" lon="2.11013">
        <ele>156</ele>
        <time>2013-07-25T19:33:27Z</time>
      </trkpt>
      <trkpt lat="48.71578" lon="2.11013">
        <ele>156</ele>
        <time>2013-07-25T19:33:28Z</time>
      </trkpt>
      <trkpt lat="48.71578" lon="2.11013">
        <ele>156</ele>
        <time>2013-07-25T19:33:29Z</time>
      </trkpt>
      <trkpt lat="48.71578" lon="2.11013">
        <ele>156</ele>
        <time>2013-07-25T19:33:30Z</time>
      </trkpt>
      <trkpt lat="48.71578" lon="2.11013">
        <ele>156</ele>
        <time>2013-07-25T19:33:31Z</time>
      </trkpt>
      <trkpt lat="48.71578" lon="2.11014">
        <ele>156</ele>
        <time>2013-07-25T19:33:32Z</time>
      </trkpt>
      <trkpt lat="48.71578" lon="2.11014">
        <ele>156</ele>
        <time>2013-07-25T19:33:33Z</time>
      </trkpt>
      <trkpt lat="48.71578" lon="2.11014">
        <ele>156</ele>
        <time>2013-07-25T19:33:34Z</time>
      </trkpt>
      <trkpt lat="48.71577" lon="2.11014">
        <ele>156</ele>
        <time>2013-07-25T19:33:35Z</time>
      </trkpt>
      <trkpt lat="48.71577" lon="2.11014">
        <ele>156</ele>
        <time>2013-07-25T19:33:36Z</time>
      </trkpt>
      <trkpt lat="48.71577" lon="2.11014">
        <ele>156</ele>
        <time>2013-07-25T19:33:37Z</time>
      </trkpt>
      <trkpt lat="48.71577" lon="2.11014">
        <ele>156</ele>
        <time>2013-07-25T19:33:38Z</time>
      </trkpt>
      <trkpt lat="48.71577" lon="2.11014">
        <ele>156</ele>
        <time>2013-07-25T19:33:39Z</time>
      </trkpt>
      <trkpt lat="48.71577" lon="2.11014">
        <ele>156</ele>
        <time>2013-07-25T19:33:40Z</time>
      </trkpt>
      <trkpt lat="48.71576" lon="2.11014">
        <ele>156</ele>
        <time>2013-07-25T19:33:41Z</time>
      </trkpt>
      <trkpt lat="48.71576" lon="2.11014">
        <ele>156</ele>
        <time>2013-07-25T19:33:42Z</time>
      </trkpt>
      <trkpt lat="48.71576" lon="2.11013">
        <ele>156</ele>
        <time>2013-07-25T19:33:43Z</time>
      </trkpt>
      <trkpt lat="48.71576" lon="2.11013">
        <ele>156</ele>
        <time>2013-07-25T19:33:44Z</time>
      </trkpt>
      <trkpt lat="48.71576" lon="2.11013">
        <ele>156</ele>
        <time>2013-07-25T19:33:45Z</time>
      </trkpt>
      <trkpt lat="48.71574" lon="2.11012">
        <ele>156</ele>
        <time>2013-07-25T19:33:46Z</time>
      </trkpt>
      <trkpt lat="48.71574" lon="2.11012">
        <ele>156</ele>
        <time>2013-07-25T19:33:47Z</time>
      </trkpt>
      <trkpt lat="48.71574" lon="2.11012">
        <ele>156</ele>
        <time>2013-07-25T19:33:48Z</time>
      </trkpt>
      <trkpt lat="48.71574" lon="2.11012">
        <ele>156</ele>
        <time>2013-07-25T19:33:49Z</time>
      </trkpt>
      <trkpt lat="48.71573" lon="2.11012">
        <ele>156</ele>
        <time>2013-07-25T19:33:50Z</time>
      </trkpt>
      <trkpt lat="48.71573" lon="2.11012">
        <ele>156</ele>
        <time>2013-07-25T19:33:51Z</time>
      </trkpt>
      <trkpt lat="48.71573" lon="2.11013">
        <ele>156</ele>
        <time>2013-07-25T19:33:52Z</time>
      </trkpt>
      <trkpt lat="48.71572" lon="2.11013">
        <ele>155</ele>
        <time>2013-07-25T19:33:53Z</time>
      </trkpt>
      <trkpt lat="48.71572" lon="2.11013">
        <ele>155</ele>
        <time>2013-07-25T19:33:54Z</time>
      </trkpt>
      <trkpt lat="48.71572" lon="2.11013">
        <ele>155</ele>
        <time>2013-07-25T19:33:55Z</time>
      </trkpt>
      <trkpt lat="48.71571" lon="2.11014">
        <ele>155</ele>
        <time>2013-07-25T19:33:56Z</time>
      </trkpt>
      <trkpt lat="48.71571" lon="2.11014">
        <ele>155</ele>
        <time>2013-07-25T19:33:57Z</time>
      </trkpt>
      <trkpt lat="48.71569" lon="2.11014">
        <ele>155</ele>
        <time>2013-07-25T19:34:00Z</time>
      </trkpt>
      <trkpt lat="48.71569" lon="2.11014">
        <ele>155</ele>
        <time>2013-07-25T19:34:01Z</time>
      </trkpt>
      <trkpt lat="48.71569" lon="2.11014">
        <ele>155</ele>
        <time>2013-07-25T19:34:02Z</time>
      </trkpt>
      <trkpt lat="48.71569" lon="2.11014">
        <ele>155</ele>
        <time>2013-07-25T19:34:03Z</time>
      </trkpt>
      <trkpt lat="48.71569" lon="2.11014">
        <ele>155</ele>
        <time>2013-07-25T19:34:04Z</time>
      </trkpt>
      <trkpt lat="48.71569" lon="2.11014">
        <ele>155</ele>
        <time>2013-07-25T19:34:05Z</time>
      </trkpt>
      <trkpt lat="48.71569" lon="2.11014">
        <ele>155</ele>
        <time>2013-07-25T19:34:07Z</time>
      </trkpt>
      <trkpt lat="48.71569" lon="2.11013">
        <ele>155</ele>
        <time>2013-07-25T19:34:09Z</time>
      </trkpt>
      <trkpt lat="48.71569" lon="2.11013">
        <ele>155</ele>
        <time>2013-07-25T19:34:10Z</time>
      </trkpt>
      <trkpt lat="48.71568" lon="2.11013">
        <ele>155</ele>
        <time>2013-07-25T19:34:11Z</time>
      </trkpt>
      <trkpt lat="48.71568" lon="2.11013">
        <ele>155</ele>
        <time>2013-07-25T19:34:12Z</time>
      </trkpt>
      <trkpt lat="48.71568" lon="2.11013">
        <ele>155</ele>
        <time>2013-07-25T19:34:13Z</time>
      </trkpt>
      <trkpt lat="48.71568" lon="2.11013">
        <ele>155</ele>
        <time>2013-07-25T19:34:14Z</time>
      </trkpt>
      <trkpt lat="48.71567" lon="2.11014">
        <ele>155</ele>
        <time>2013-07-25T19:34:15Z</time>
      </trkpt>
      <trkpt lat="48.71567" lon="2.11014">
        <ele>155</ele>
        <time>2013-07-25T19:34:16Z</time>
      </trkpt>
      <trkpt lat="48.71567" lon="2.11014">
        <ele>155</ele>
        <time>2013-07-25T19:34:17Z</time>
      </trkpt>
      <trkpt lat="48.71567" lon="2.11014">
        <ele>155</ele>
        <time>2013-07-25T19:34:18Z</time>
      </trkpt>
      <trkpt lat="48.71566" lon="2.11014">
        <ele>155</ele>
        <time>2013-07-25T19:34:19Z</time>
      </trkpt>
      <trkpt lat="48.71566" lon="2.11014">
        <ele>155</ele>
        <time>2013-07-25T19:34:20Z</time>
      </trkpt>
      <trkpt lat="48.71566" lon="2.11014">
        <ele>155</ele>
        <time>2013-07-25T19:34:21Z</time>
      </trkpt>
      <trkpt lat="48.71566" lon="2.11014">
        <ele>155</ele>
        <time>2013-07-25T19:34:22Z</time>
      </trkpt>
      <trkpt lat="48.71566" lon="2.11014">
        <ele>155</ele>
        <time>2013-07-25T19:34:23Z</time>
      </trkpt>
      <trkpt lat="48.71566" lon="2.11014">
        <ele>155</ele>
        <time>2013-07-25T19:34:24Z</time>
      </trkpt>
      <trkpt lat="48.71566" lon="2.11014">
        <ele>155</ele>
        <time>2013-07-25T19:34:25Z</time>
      </trkpt>
      <trkpt lat="48.71566" lon="2.11014">
        <ele>155</ele>
        <time>2013-07-25T19:34:26Z</time>
      </trkpt>
      <trkpt lat="48.71566" lon="2.11013">
        <ele>155</ele>
        <time>2013-07-25T19:34:27Z</time>
      </trkpt>
      <trkpt lat="48.71566" lon="2.11013">
        <ele>155</ele>
        <time>2013-07-25T19:34:28Z</time>
      </trkpt>
      <trkpt lat="48.71566" lon="2.11013">
        <ele>155</ele>
        <time>2013-07-25T19:34:29Z</time>
      </trkpt>
      <trkpt lat="48.71566" lon="2.11013">
        <ele>155</ele>
        <time>2013-07-25T19:34:30Z</time>
      </trkpt>
      <trkpt lat="48.71567" lon="2.11012">
        <ele>155</ele>
        <time>2013-07-25T19:34:31Z</time>
      </trkpt>
      <trkpt lat="48.71567" lon="2.11012">
        <ele>155</ele>
        <time>2013-07-25T19:34:32Z</time>
      </trkpt>
      <trkpt lat="48.71567" lon="2.11012">
        <ele>155</ele>
        <time>2013-07-25T19:34:33Z</time>
      </trkpt>
      <trkpt lat="48.71567" lon="2.11011">
        <ele>155</ele>
        <time>2013-07-25T19:34:34Z</time>
      </trkpt>
      <trkpt lat="48.71567" lon="2.11011">
        <ele>155</ele>
        <time>2013-07-25T19:34:35Z</time>
      </trkpt>
      <trkpt lat="48.71568" lon="2.11011">
        <ele>155</ele>
        <time>2013-07-25T19:34:36Z</time>
      </trkpt>
      <trkpt lat="48.71568" lon="2.1101">
        <ele>155</ele>
        <time>2013-07-25T19:34:37Z</time>
      </trkpt>
      <trkpt lat="48.71568" lon="2.1101">
        <ele>155</ele>
        <time>2013-07-25T19:34:38Z</time>
      </trkpt>
      <trkpt lat="48.71568" lon="2.1101">
        <ele>155</ele>
        <time>2013-07-25T19:34:39Z</time>
      </trkpt>
      <trkpt lat="48.71568" lon="2.1101">
        <ele>155</ele>
        <time>2013-07-25T19:34:40Z</time>
      </trkpt>
      <trkpt lat="48.71567" lon="2.1101">
        <ele>155</ele>
        <time>2013-07-25T19:34:41Z</time>
      </trkpt>
      <trkpt lat="48.71567" lon="2.1101">
        <ele>155</ele>
        <time>2013-07-25T19:34:42Z</time>
      </trkpt>
      <trkpt lat="48.71567" lon="2.1101">
        <ele>155</ele>
        <time>2013-07-25T19:34:43Z</time>
      </trkpt>
      <trkpt lat="48.71567" lon="2.1101">
        <ele>155</ele>
        <time>2013-07-25T19:34:44Z</time>
      </trkpt>
      <trkpt lat="48.71567" lon="2.1101">
        <ele>155</ele>
        <time>2013-07-25T19:34:45Z</time>
      </trkpt>
      <trkpt lat="48.71566" lon="2.1101">
        <ele>155</ele>
        <time>2013-07-25T19:34:47Z</time>
      </trkpt>
      <trkpt lat="48.71566" lon="2.1101">
        <ele>155</ele>
        <time>2013-07-25T19:34:48Z</time>
      </trkpt>
      <trkpt lat="48.71566" lon="2.1101">
        <ele>155</ele>
        <time>2013-07-25T19:34:49Z</time>
      </trkpt>
      <trkpt lat="48.71566" lon="2.11009">
        <ele>155</ele>
        <time>2013-07-25T19:34:50Z</time>
      </trkpt>
      <trkpt lat="48.71566" lon="2.11009">
        <ele>155</ele>
        <time>2013-07-25T19:34:51Z</time>
      </trkpt>
      <trkpt lat="48.71566" lon="2.11009">
        <ele>155</ele>
        <time>2013-07-25T19:34:52Z</time>
      </trkpt>
      <trkpt lat="48.71566" lon="2.11009">
        <ele>155</ele>
        <time>2013-07-25T19:34:53Z</time>
      </trkpt>
      <trkpt lat="48.71566" lon="2.11009">
        <ele>155</ele>
        <time>2013-07-25T19:34:54Z</time>
      </trkpt>
      <trkpt lat="48.71566" lon="2.11009">
        <ele>155</ele>
        <time>2013-07-25T19:34:55Z</time>
      </trkpt>
      <trkpt lat="48.71566" lon="2.11009">
        <ele>155</ele>
        <time>2013-07-25T19:34:56Z</time>
      </trkpt>
      <trkpt lat="48.71565" lon="2.11009">
        <ele>155</ele>
        <time>2013-07-25T19:34:57Z</time>
      </trkpt>
      <trkpt lat="48.71565" lon="2.11009">
        <ele>155</ele>
        <time>2013-07-25T19:34:58Z</time>
      </trkpt>
      <trkpt lat="48.71565" lon="2.11009">
        <ele>155</ele>
        <time>2013-07-25T19:34:59Z</time>
      </trkpt>
      <trkpt lat="48.71565" lon="2.11009">
        <ele>155</ele>
        <time>2013-07-25T19:35:00Z</time>
      </trkpt>
      <trkpt lat="48.71565" lon="2.11009">
        <ele>155</ele>
        <time>2013-07-25T19:35:01Z</time>
      </trkpt>
      <trkpt lat="48.71565" lon="2.11009">
        <ele>155</ele>
        <time>2013-07-25T19:35:02Z</time>
      </trkpt>
      <trkpt lat="48.71565" lon="2.11009">
        <ele>155</ele>
        <time>2013-07-25T19:35:03Z</time>
      </trkpt>
      <trkpt lat="48.71565" lon="2.11009">
        <ele>155</ele>
        <time>2013-07-25T19:35:04Z</time>
      </trkpt>
      <trkpt lat="48.71565" lon="2.11009">
        <ele>155</ele>
        <time>2013-07-25T19:35:05Z</time>
      </trkpt>
      <trkpt lat="48.71565" lon="2.11009">
        <ele>155</ele>
        <time>2013-07-25T19:35:06Z</time>
      </trkpt>
      <trkpt lat="48.71564" lon="2.11009">
        <ele>155</ele>
        <time>2013-07-25T19:35:07Z</time>
      </trkpt>
      <trkpt lat="48.71564" lon="2.11009">
        <ele>155</ele>
        <time>2013-07-25T19:35:08Z</time>
      </trkpt>
      <trkpt lat="48.71564" lon="2.11009">
        <ele>155</ele>
        <time>2013-07-25T19:35:09Z</time>
      </trkpt>
      <trkpt lat="48.71564" lon="2.11009">
        <ele>155</ele>
        <time>2013-07-25T19:35:10Z</time>
      </trkpt>
      <trkpt lat="48.71564" lon="2.11009">
        <ele>155</ele>
        <time>2013-07-25T19:35:11Z</time>
      </trkpt>
      <trkpt lat="48.71564" lon="2.11009">
        <ele>155</ele>
        <time>2013-07-25T19:35:12Z</time>
      </trkpt>
      <trkpt lat="48.71564" lon="2.11009">
        <ele>155</ele>
        <time>2013-07-25T19:35:13Z</time>
      </trkpt>
      <trkpt lat="48.71564" lon="2.11009">
        <ele>155</ele>
        <time>2013-07-25T19:35:14Z</time>
      </trkpt>
      <trkpt lat="48.71564" lon="2.1101">
        <ele>155</ele>
        <time>2013-07-25T19:35:15Z</time>
      </trkpt>
      <trkpt lat="48.71564" lon="2.1101">
        <ele>154</ele>
        <time>2013-07-25T19:35:16Z</time>
      </trkpt>
      <trkpt lat="48.71564" lon="2.1101">
        <ele>154</ele>
        <time>2013-07-25T19:35:17Z</time>
      </trkpt>
      <trkpt lat="48.71564" lon="2.1101">
        <ele>154</ele>
        <time>2013-07-25T19:35:18Z</time>
      </trkpt>
      <trkpt lat="48.71564" lon="2.1101">
        <ele>154</ele>
        <time>2013-07-25T19:35:19Z</time>
      </trkpt>
      <trkpt lat="48.71564" lon="2.1101">
        <ele>154</ele>
        <time>2013-07-25T19:35:20Z</time>
      </trkpt>
      <trkpt lat="48.71564" lon="2.1101">
        <ele>154</ele>
        <time>2013-07-25T19:35:21Z</time>
      </trkpt>
      <trkpt lat="48.71564" lon="2.1101">
        <ele>154</ele>
        <time>2013-07-25T19:35:22Z</time>
      </trkpt>
      <trkpt lat="48.71564" lon="2.1101">
        <ele>154</ele>
        <time>2013-07-25T19:35:23Z</time>
      </trkpt>
      <trkpt lat="48.71564" lon="2.1101">
        <ele>154</ele>
        <time>2013-07-25T19:35:24Z</time>
      </trkpt>
      <trkpt lat="48.71564" lon="2.1101">
        <ele>154</ele>
        <time>2013-07-25T19:35:25Z</time>
      </trkpt>
      <trkpt lat="48.71564" lon="2.1101">
        <ele>154</ele>
        <time>2013-07-25T19:35:26Z</time>
      </trkpt>
      <trkpt lat="48.71564" lon="2.11011">
        <ele>154</ele>
        <time>2013-07-25T19:35:27Z</time>
      </trkpt>
      <trkpt lat="48.71564" lon="2.11011">
        <ele>154</ele>
        <time>2013-07-25T19:35:28Z</time>
      </trkpt>
      <trkpt lat="48.71564" lon="2.11011">
        <ele>155</ele>
        <time>2013-07-25T19:35:29Z</time>
      </trkpt>
      <trkpt lat="48.71564" lon="2.11011">
        <ele>155</ele>
        <time>2013-07-25T19:35:30Z</time>
      </trkpt>
      <trkpt lat="48.71564" lon="2.11011">
        <ele>155</ele>
        <time>2013-07-25T19:35:31Z</time>
      </trkpt>
      <trkpt lat="48.71565" lon="2.11011">
        <ele>155</ele>
        <time>2013-07-25T19:35:32Z</time>
      </trkpt>
      <trkpt lat="48.71565" lon="2.11011">
        <ele>155</ele>
        <time>2013-07-25T19:35:33Z</time>
      </trkpt>
      <trkpt lat="48.71565" lon="2.11011">
        <ele>155</ele>
        <time>2013-07-25T19:35:34Z</time>
      </trkpt>
      <trkpt lat="48.71565" lon="2.11011">
        <ele>155</ele>
        <time>2013-07-25T19:35:35Z</time>
      </trkpt>
      <trkpt lat="48.71565" lon="2.11011">
        <ele>155</ele>
        <time>2013-07-25T19:35:36Z</time>
      </trkpt>
      <trkpt lat="48.71565" lon="2.11011">
        <ele>155</ele>
        <time>2013-07-25T19:35:37Z</time>
      </trkpt>
      <trkpt lat="48.71566" lon="2.11011">
        <ele>155</ele>
        <time>2013-07-25T19:35:38Z</time>
      </trkpt>
      <trkpt lat="48.71566" lon="2.11011">
        <ele>155</ele>
        <time>2013-07-25T19:35:39Z</time>
      </trkpt>
      <trkpt lat="48.71566" lon="2.11012">
        <ele>155</ele>
        <time>2013-07-25T19:35:40Z</time>
      </trkpt>
      <trkpt lat="48.71566" lon="2.11012">
        <ele>155</ele>
        <time>2013-07-25T19:35:41Z</time>
      </trkpt>
      <trkpt lat="48.71566" lon="2.11012">
        <ele>155</ele>
        <time>2013-07-25T19:35:42Z</time>
      </trkpt>
      <trkpt lat="48.71567" lon="2.11012">
        <ele>155</ele>
        <time>2013-07-25T19:35:43Z</time>
      </trkpt>
      <trkpt lat="48.71567" lon="2.11012">
        <ele>155</ele>
        <time>2013-07-25T19:35:44Z</time>
      </trkpt>
      <trkpt lat="48.71567" lon="2.11012">
        <ele>155</ele>
        <time>2013-07-25T19:35:45Z</time>
      </trkpt>
      <trkpt lat="48.71567" lon="2.11013">
        <ele>155</ele>
        <time>2013-07-25T19:35:46Z</time>
      </trkpt>
      <trkpt lat="48.71568" lon="2.11013">
        <ele>155</ele>
        <time>2013-07-25T19:35:47Z</time>
      </trkpt>
      <trkpt lat="48.71568" lon="2.11013">
        <ele>155</ele>
        <time>2013-07-25T19:35:48Z</time>
      </trkpt>
      <trkpt lat="48.71568" lon="2.11013">
        <ele>155</ele>
        <time>2013-07-25T19:35:49Z</time>
      </trkpt>
      <trkpt lat="48.71568" lon="2.11013">
        <ele>155</ele>
        <time>2013-07-25T19:35:50Z</time>
      </trkpt>
      <trkpt lat="48.71568" lon="2.11013">
        <ele>155</ele>
        <time>2013-07-25T19:35:51Z</time>
      </trkpt>
      <trkpt lat="48.71568" lon="2.11014">
        <ele>155</ele>
        <time>2013-07-25T19:35:52Z</time>
      </trkpt>
      <trkpt lat="48.71569" lon="2.11014">
        <ele>155</ele>
        <time>2013-07-25T19:35:55Z</time>
      </trkpt>
      <trkpt lat="48.71569" lon="2.11014">
        <ele>155</ele>
        <time>2013-07-25T19:35:56Z</time>
      </trkpt>
      <trkpt lat="48.71569" lon="2.11014">
        <ele>155</ele>
        <time>2013-07-25T19:35:57Z</time>
      </trkpt>
      <trkpt lat="48.7157" lon="2.11015">
        <ele>155</ele>
        <time>2013-07-25T19:35:58Z</time>
      </trkpt>
      <trkpt lat="48.7157" lon="2.11015">
        <ele>155</ele>
        <time>2013-07-25T19:35:59Z</time>
      </trkpt>
      <trkpt lat="48.7157" lon="2.11015">
        <ele>155</ele>
        <time>2013-07-25T19:36:00Z</time>
      </trkpt>
      <trkpt lat="48.7157" lon="2.11015">
        <ele>155</ele>
        <time>2013-07-25T19:36:01Z</time>
      </trkpt>
      <trkpt lat="48.7157" lon="2.11015">
        <ele>155</ele>
        <time>2013-07-25T19:36:03Z</time>
      </trkpt>
      <trkpt lat="48.7157" lon="2.11016">
        <ele>155</ele>
        <time>2013-07-25T19:36:04Z</time>
      </trkpt>
      <trkpt lat="48.7157" lon="2.11016">
        <ele>155</ele>
        <time>2013-07-25T19:36:05Z</time>
      </trkpt>
      <trkpt lat="48.71571" lon="2.11016">
        <ele>155</ele>
        <time>2013-07-25T19:36:07Z</time>
      </trkpt>
      <trkpt lat="48.71571" lon="2.11016">
        <ele>155</ele>
        <time>2013-07-25T19:36:08Z</time>
      </trkpt>
      <trkpt lat="48.71571" lon="2.11016">
        <ele>155</ele>
        <time>2013-07-25T19:36:10Z</time>
      </trkpt>
      <trkpt lat="48.71571" lon="2.11016">
        <ele>155</ele>
        <time>2013-07-25T19:36:11Z</time>
      </trkpt>
      <trkpt lat="48.71571" lon="2.11016">
        <ele>155</ele>
        <time>2013-07-25T19:36:12Z</time>
      </trkpt>
      <trkpt lat="48.71571" lon="2.11016">
        <ele>155</ele>
        <time>2013-07-25T19:36:13Z</time>
      </trkpt>
      <trkpt lat="48.71571" lon="2.11017">
        <ele>155</ele>
        <time>2013-07-25T19:36:14Z</time>
      </trkpt>
      <trkpt lat="48.71571" lon="2.11017">
        <ele>155</ele>
        <time>2013-07-25T19:36:15Z</time>
      </trkpt>
      <trkpt lat="48.71571" lon="2.11017">
        <ele>155</ele>
        <time>2013-07-25T19:36:16Z</time>
      </trkpt>
      <trkpt lat="48.71571" lon="2.11017">
        <ele>155</ele>
        <time>2013-07-25T19:36:17Z</time>
      </trkpt>
      <trkpt lat="48.71571" lon="2.11017">
        <ele>155</ele>
        <time>2013-07-25T19:36:18Z</time>
      </trkpt>
      <trkpt lat="48.71571" lon="2.11017">
        <ele>155</ele>
        <time>2013-07-25T19:36:19Z</time>
      </trkpt>
      <trkpt lat="48.71571" lon="2.11017">
        <ele>155</ele>
        <time>2013-07-25T19:36:20Z</time>
      </trkpt>
      <trkpt lat="48.71571" lon="2.11017">
        <ele>155</ele>
        <time>2013-07-25T19:36:21Z</time>
      </trkpt>
      <trkpt lat="48.71571" lon="2.11018">
        <ele>155</ele>
        <time>2013-07-25T19:36:22Z</time>
      </trkpt>
      <trkpt lat="48.71571" lon="2.11018">
        <ele>155</ele>
        <time>2013-07-25T19:36:23Z</time>
      </trkpt>
      <trkpt lat="48.71571" lon="2.11018">
        <ele>155</ele>
        <time>2013-07-25T19:36:24Z</time>
      </trkpt>
      <trkpt lat="48.71571" lon="2.11018">
        <ele>155</ele>
        <time>2013-07-25T19:36:25Z</time>
      </trkpt>
      <trkpt lat="48.71571" lon="2.11018">
        <ele>155</ele>
        <time>2013-07-25T19:36:26Z</time>
      </trkpt>
      <trkpt lat="48.71571" lon="2.11018">
        <ele>155</ele>
        <time>2013-07-25T19:36:27Z</time>
      </trkpt>
      <trkpt lat="48.71571" lon="2.11018">
        <ele>155</ele>
        <time>2013-07-25T19:36:28Z</time>
      </trkpt>
      <trkpt lat="48.71571" lon="2.11018">
        <ele>155</ele>
        <time>2013-07-25T19:36:29Z</time>
      </trkpt>
      <trkpt lat="48.71571" lon="2.11018">
        <ele>155</ele>
        <time>2013-07-25T19:36:30Z</time>
      </trkpt>
      <trkpt lat="48.71571" lon="2.11018">
        <ele>155</ele>
        <time>2013-07-25T19:36:31Z</time>
      </trkpt>
      <trkpt lat="48.71571" lon="2.11018">
        <ele>155</ele>
        <time>2013-07-25T19:36:32Z</time>
      </trkpt>
      <trkpt lat="48.71571" lon="2.11019">
        <ele>155</ele>
        <time>2013-07-25T19:36:33Z</time>
      </trkpt>
      <trkpt lat="48.71571" lon="2.11019">
        <ele>155</ele>
        <time>2013-07-25T19:36:34Z</time>
      </trkpt>
      <trkpt lat="48.71571" lon="2.11019">
        <ele>155</ele>
        <time>2013-07-25T19:36:35Z</time>
      </trkpt>
      <trkpt lat="48.71571" lon="2.11019">
        <ele>155</ele>
        <time>2013-07-25T19:36:36Z</time>
      </trkpt>
      <trkpt lat="48.71571" lon="2.11019">
        <ele>155</ele>
        <time>2013-07-25T19:36:37Z</time>
      </trkpt>
      <trkpt lat="48.71571" lon="2.11019">
        <ele>155</ele>
        <time>2013-07-25T19:36:38Z</time>
      </trkpt>
      <trkpt lat="48.71571" lon="2.11019">
        <ele>155</ele>
        <time>2013-07-25T19:36:39Z</time>
      </trkpt>
      <trkpt lat="48.71571" lon="2.11019">
        <ele>155</ele>
        <time>2013-07-25T19:36:40Z</time>
      </trkpt>
      <trkpt lat="48.71571" lon="2.11019">
        <ele>155</ele>
        <time>2013-07-25T19:36:41Z</time>
      </trkpt>
      <trkpt lat="48.71571" lon="2.11018">
        <ele>155</ele>
        <time>2013-07-25T19:36:42Z</time>
      </trkpt>
      <trkpt lat="48.71571" lon="2.11018">
        <ele>155</ele>
        <time>2013-07-25T19:36:43Z</time>
      </trkpt>
      <trkpt lat="48.7157" lon="2.11018">
        <ele>155</ele>
        <time>2013-07-25T19:36:44Z</time>
      </trkpt>
      <trkpt lat="48.7157" lon="2.11018">
        <ele>155</ele>
        <time>2013-07-25T19:36:45Z</time>
      </trkpt>
      <trkpt lat="48.7157" lon="2.11018">
        <ele>155</ele>
        <time>2013-07-25T19:36:46Z</time>
      </trkpt>
      <trkpt lat="48.7157" lon="2.11018">
        <ele>155</ele>
        <time>2013-07-25T19:36:47Z</time>
      </trkpt>
      <trkpt lat="48.7157" lon="2.11018">
        <ele>155</ele>
        <time>2013-07-25T19:36:48Z</time>
      </trkpt>
      <trkpt lat="48.7157" lon="2.11018">
        <ele>155</ele>
        <time>2013-07-25T19:36:49Z</time>
      </trkpt>
      <trkpt lat="48.71569" lon="2.11018">
        <ele>155</ele>
        <time>2013-07-25T19:36:50Z</time>
      </trkpt>
      <trkpt lat="48.71569" lon="2.11018">
        <ele>155</ele>
        <time>2013-07-25T19:36:51Z</time>
      </trkpt>
      <trkpt lat="48.71569" lon="2.11018">
        <ele>155</ele>
        <time>2013-07-25T19:36:52Z</time>
      </trkpt>
      <trkpt lat="48.71569" lon="2.11018">
        <ele>155</ele>
        <time>2013-07-25T19:36:53Z</time>
      </trkpt>
      <trkpt lat="48.71569" lon="2.11018">
        <ele>155</ele>
        <time>2013-07-25T19:36:54Z</time>
      </trkpt>
      <trkpt lat="48.71569" lon="2.11018">
        <ele>155</ele>
        <time>2013-07-25T19:36:55Z</time>
      </trkpt>
      <trkpt lat="48.71568" lon="2.11018">
        <ele>155</ele>
        <time>2013-07-25T19:36:56Z</time>
      </trkpt>
      <trkpt lat="48.71568" lon="2.11018">
        <ele>155</ele>
        <time>2013-07-25T19:36:57Z</time>
      </trkpt>
      <trkpt lat="48.71568" lon="2.11018">
        <ele>155</ele>
        <time>2013-07-25T19:36:58Z</time>
      </trkpt>
      <trkpt lat="48.71568" lon="2.11018">
        <ele>155</ele>
        <time>2013-07-25T19:36:59Z</time>
      </trkpt>
      <trkpt lat="48.71568" lon="2.11018">
        <ele>155</ele>
        <time>2013-07-25T19:37:00Z</time>
      </trkpt>
      <trkpt lat="48.71568" lon="2.11018">
        <ele>155</ele>
        <time>2013-07-25T19:37:01Z</time>
      </trkpt>
      <trkpt lat="48.71568" lon="2.11018">
        <ele>155</ele>
        <time>2013-07-25T19:37:02Z</time>
      </trkpt>
      <trkpt lat="48.71567" lon="2.11018">
        <ele>155</ele>
        <time>2013-07-25T19:37:03Z</time>
      </trkpt>
      <trkpt lat="48.71567" lon="2.11018">
        <ele>155</ele>
        <time>2013-07-25T19:37:04Z</time>
      </trkpt>
      <trkpt lat="48.71567" lon="2.11018">
        <ele>155</ele>
        <time>2013-07-25T19:37:05Z</time>
      </trkpt>
      <trkpt lat="48.71567" lon="2.11018">
        <ele>155</ele>
        <time>2013-07-25T19:37:06Z</time>
      </trkpt>
      <trkpt lat="48.71567" lon="2.11018">
        <ele>155</ele>
        <time>2013-07-25T19:37:07Z</time>
      </trkpt>
      <trkpt lat="48.71567" lon="2.11018">
        <ele>154</ele>
        <time>2013-07-25T19:37:08Z</time>
      </trkpt>
      <trkpt lat="48.71567" lon="2.11018">
        <ele>154</ele>
        <time>2013-07-25T19:37:09Z</time>
      </trkpt>
      <trkpt lat="48.71567" lon="2.11018">
        <ele>154</ele>
        <time>2013-07-25T19:37:10Z</time>
      </trkpt>
      <trkpt lat="48.71567" lon="2.11018">
        <ele>154</ele>
        <time>2013-07-25T19:37:11Z</time>
      </trkpt>
      <trkpt lat="48.71567" lon="2.11018">
        <ele>154</ele>
        <time>2013-07-25T19:37:12Z</time>
      </trkpt>
      <trkpt lat="48.71567" lon="2.11018">
        <ele>154</ele>
        <time>2013-07-25T19:37:13Z</time>
      </trkpt>
      <trkpt lat="48.71567" lon="2.11018">
        <ele>154</ele>
        <time>2013-07-25T19:37:14Z</time>
      </trkpt>
      <trkpt lat="48.71566" lon="2.11018">
        <ele>154</ele>
        <time>2013-07-25T19:37:15Z</time>
      </trkpt>
      <trkpt lat="48.71566" lon="2.11018">
        <ele>154</ele>
        <time>2013-07-25T19:37:16Z</time>
      </trkpt>
      <trkpt lat="48.71566" lon="2.11018">
        <ele>154</ele>
        <time>2013-07-25T19:37:17Z</time>
      </trkpt>
      <trkpt lat="48.71566" lon="2.11018">
        <ele>154</ele>
        <time>2013-07-25T19:37:18Z</time>
      </trkpt>
      <trkpt lat="48.71566" lon="2.11018">
        <ele>154</ele>
        <time>2013-07-25T19:37:19Z</time>
      </trkpt>
      <trkpt lat="48.71566" lon="2.11018">
        <ele>154</ele>
        <time>2013-07-25T19:37:20Z</time>
      </trkpt>
      <trkpt lat="48.71566" lon="2.11018">
        <ele>154</ele>
        <time>2013-07-25T19:37:21Z</time>
      </trkpt>
      <trkpt lat="48.71566" lon="2.11018">
        <ele>154</ele>
        <time>2013-07-25T19:37:22Z</time>
      </trkpt>
      <trkpt lat="48.71566" lon="2.11018">
        <ele>154</ele>
        <time>2013-07-25T19:37:23Z</time>
      </trkpt>
      <trkpt lat="48.71565" lon="2.11018">
        <ele>154</ele>
        <time>2013-07-25T19:37:24Z</time>
      </trkpt>
      <trkpt lat="48.71565" lon="2.11018">
        <ele>154</ele>
        <time>2013-07-25T19:37:25Z</time>
      </trkpt>
      <trkpt lat="48.71565" lon="2.11018">
        <ele>154</ele>
        <time>2013-07-25T19:37:26Z</time>
      </trkpt>
      <trkpt lat="48.71565" lon="2.11018">
        <ele>154</ele>
        <time>2013-07-25T19:37:27Z</time>
      </trkpt>
      <trkpt lat="48.71565" lon="2.11018">
        <ele>154</ele>
        <time>2013-07-25T19:37:28Z</time>
      </trkpt>
      <trkpt lat="48.71565" lon="2.11018">
        <ele>154</ele>
        <time>2013-07-25T19:37:29Z</time>
      </trkpt>
      <trkpt lat="48.71564" lon="2.11018">
        <ele>154</ele>
        <time>2013-07-25T19:37:30Z</time>
      </trkpt>
      <trkpt lat="48.71564" lon="2.11017">
        <ele>154</ele>
        <time>2013-07-25T19:37:31Z</time>
      </trkpt>
      <trkpt lat="48.71564" lon="2.11017">
        <ele>154</ele>
        <time>2013-07-25T19:37:32Z</time>
      </trkpt>
      <trkpt lat="48.71564" lon="2.11017">
        <ele>154</ele>
        <time>2013-07-25T19:37:33Z</time>
      </trkpt>
      <trkpt lat="48.71564" lon="2.11017">
        <ele>154</ele>
        <time>2013-07-25T19:37:34Z</time>
      </trkpt>
      <trkpt lat="48.71564" lon="2.11017">
        <ele>154</ele>
        <time>2013-07-25T19:37:35Z</time>
      </trkpt>
      <trkpt lat="48.71563" lon="2.11017">
        <ele>154</ele>
        <time>2013-07-25T19:37:36Z</time>
      </trkpt>
      <trkpt lat="48.71563" lon="2.11017">
        <ele>154</ele>
        <time>2013-07-25T19:37:37Z</time>
      </trkpt>
      <trkpt lat="48.71563" lon="2.11017">
        <ele>154</ele>
        <time>2013-07-25T19:37:38Z</time>
      </trkpt>
      <trkpt lat="48.71563" lon="2.11017">
        <ele>154</ele>
        <time>2013-07-25T19:37:39Z</time>
      </trkpt>
      <trkpt lat="48.71563" lon="2.11017">
        <ele>154</ele>
        <time>2013-07-25T19:37:40Z</time>
      </trkpt>
      <trkpt lat="48.71562" lon="2.11016">
        <ele>154</ele>
        <time>2013-07-25T19:37:41Z</time>
      </trkpt>
      <trkpt lat="48.71562" lon="2.11016">
        <ele>154</ele>
        <time>2013-07-25T19:37:42Z</time>
      </trkpt>
      <trkpt lat="48.71562" lon="2.11016">
        <ele>154</ele>
        <time>2013-07-25T19:37:43Z</time>
      </trkpt>
      <trkpt lat="48.71562" lon="2.11016">
        <ele>154</ele>
        <time>2013-07-25T19:37:44Z</time>
      </trkpt>
      <trkpt lat="48.71562" lon="2.11016">
        <ele>154</ele>
        <time>2013-07-25T19:37:45Z</time>
      </trkpt>
      <trkpt lat="48.71561" lon="2.11016">
        <ele>154</ele>
        <time>2013-07-25T19:37:46Z</time>
      </trkpt>
      <trkpt lat="48.71561" lon="2.11016">
        <ele>154</ele>
        <time>2013-07-25T19:37:47Z</time>
      </trkpt>
      <trkpt lat="48.71561" lon="2.11016">
        <ele>154</ele>
        <time>2013-07-25T19:37:48Z</time>
      </trkpt>
      <trkpt lat="48.71561" lon="2.11015">
        <ele>154</ele>
        <time>2013-07-25T19:37:49Z</time>
      </trkpt>
      <trkpt lat="48.71561" lon="2.11015">
        <ele>154</ele>
        <time>2013-07-25T19:37:50Z</time>
      </trkpt>
      <trkpt lat="48.71561" lon="2.11015">
        <ele>154</ele>
        <time>2013-07-25T19:37:51Z</time>
      </trkpt>
      <trkpt lat="48.71561" lon="2.11015">
        <ele>154</ele>
        <time>2013-07-25T19:37:52Z</time>
      </trkpt>
      <trkpt lat="48.71561" lon="2.11015">
        <ele>154</ele>
        <time>2013-07-25T19:37:53Z</time>
      </trkpt>
      <trkpt lat="48.7156" lon="2.11015">
        <ele>154</ele>
        <time>2013-07-25T19:37:54Z</time>
      </trkpt>
      <trkpt lat="48.7156" lon="2.11015">
        <ele>154</ele>
        <time>2013-07-25T19:37:55Z</time>
      </trkpt>
      <trkpt lat="48.7156" lon="2.11015">
        <ele>154</ele>
        <time>2013-07-25T19:37:56Z</time>
      </trkpt>
      <trkpt lat="48.7156" lon="2.11015">
        <ele>154</ele>
        <time>2013-07-25T19:37:57Z</time>
      </trkpt>
      <trkpt lat="48.7156" lon="2.11015">
        <ele>154</ele>
        <time>2013-07-25T19:37:58Z</time>
      </trkpt>
      <trkpt lat="48.7156" lon="2.11015">
        <ele>154</ele>
        <time>2013-07-25T19:37:59Z</time>
      </trkpt>
      <trkpt lat="48.7156" lon="2.11015">
        <ele>154</ele>
        <time>2013-07-25T19:38:00Z</time>
      </trkpt>
      <trkpt lat="48.7156" lon="2.11015">
        <ele>154</ele>
        <time>2013-07-25T19:38:01Z</time>
      </trkpt>
      <trkpt lat="48.7156" lon="2.11014">
        <ele>154</ele>
        <time>2013-07-25T19:38:02Z</time>
      </trkpt>
      <trkpt lat="48.7156" lon="2.11014">
        <ele>154</ele>
        <time>2013-07-25T19:38:03Z</time>
      </trkpt>
      <trkpt lat="48.7156" lon="2.11014">
        <ele>154</ele>
        <time>2013-07-25T19:38:04Z</time>
      </trkpt>
      <trkpt lat="48.7156" lon="2.11014">
        <ele>154</ele>
        <time>2013-07-25T19:38:05Z</time>
      </trkpt>
      <trkpt lat="48.7156" lon="2.11014">
        <ele>154</ele>
        <time>2013-07-25T19:38:06Z</time>
      </trkpt>
      <trkpt lat="48.71559" lon="2.11014">
        <ele>154</ele>
        <time>2013-07-25T19:38:07Z</time>
      </trkpt>
      <trkpt lat="48.71559" lon="2.11014">
        <ele>154</ele>
        <time>2013-07-25T19:38:08Z</time>
      </trkpt>
      <trkpt lat="48.71559" lon="2.11014">
        <ele>154</ele>
        <time>2013-07-25T19:38:09Z</time>
      </trkpt>
      <trkpt lat="48.71559" lon="2.11014">
        <ele>154</ele>
        <time>2013-07-25T19:38:10Z</time>
      </trkpt>
      <trkpt lat="48.71559" lon="2.11014">
        <ele>154</ele>
        <time>2013-07-25T19:38:11Z</time>
      </trkpt>
      <trkpt lat="48.71559" lon="2.11014">
        <ele>154</ele>
        <time>2013-07-25T19:38:12Z</time>
      </trkpt>
      <trkpt lat="48.71559" lon="2.11014">
        <ele>154</ele>
        <time>2013-07-25T19:38:13Z</time>
      </trkpt>
      <trkpt lat="48.71559" lon="2.11014">
        <ele>154</ele>
        <time>2013-07-25T19:38:14Z</time>
      </trkpt>
      <trkpt lat="48.71559" lon="2.11014">
        <ele>154</ele>
        <time>2013-07-25T19:38:15Z</time>
      </trkpt>
      <trkpt lat="48.71559" lon="2.11014">
        <ele>154</ele>
        <time>2013-07-25T19:38:16Z</time>
      </trkpt>
      <trkpt lat="48.71559" lon="2.11014">
        <ele>154</ele>
        <time>2013-07-25T19:38:17Z</time>
      </trkpt>
      <trkpt lat="48.71559" lon="2.11014">
        <ele>154</ele>
        <time>2013-07-25T19:38:18Z</time>
      </trkpt>
      <trkpt lat="48.71559" lon="2.11014">
        <ele>154</ele>
        <time>2013-07-25T19:38:19Z</time>
      </trkpt>
      <trkpt lat="48.71559" lon="2.11013">
        <ele>154</ele>
        <time>2013-07-25T19:38:20Z</time>
      </trkpt>
      <trkpt lat="48.7156" lon="2.11012">
        <ele>154</ele>
        <time>2013-07-25T19:38:21Z</time>
      </trkpt>
      <trkpt lat="48.71563" lon="2.11001">
        <ele>155</ele>
        <time>2013-07-25T19:38:25Z</time>
      </trkpt>
      <trkpt lat="48.71564" lon="2.10997">
        <ele>154</ele>
        <time>2013-07-25T19:38:26Z</time>
      </trkpt>
      <trkpt lat="48.71565" lon="2.10989">
        <ele>154</ele>
        <time>2013-07-25T19:38:28Z</time>
      </trkpt>
      <trkpt lat="48.71566" lon="2.10985">
        <ele>154</ele>
        <time>2013-07-25T19:38:29Z</time>
      </trkpt>
      <trkpt lat="48.71566" lon="2.10975">
        <ele>153</ele>
        <time>2013-07-25T19:38:32Z</time>
      </trkpt>
      <trkpt lat="48.71563" lon="2.10965">
        <ele>152</ele>
        <time>2013-07-25T19:38:35Z</time>
      </trkpt>
      <trkpt lat="48.71562" lon="2.10962">
        <ele>152</ele>
        <time>2013-07-25T19:38:36Z</time>
      </trkpt>
      <trkpt lat="48.71562" lon="2.10957">
        <ele>152</ele>
        <time>2013-07-25T19:38:38Z</time>
      </trkpt>
      <trkpt lat="48.71563" lon="2.10955">
        <ele>152</ele>
        <time>2013-07-25T19:38:39Z</time>
      </trkpt>
      <trkpt lat="48.71563" lon="2.10952">
        <ele>152</ele>
        <time>2013-07-25T19:38:40Z</time>
      </trkpt>
      <trkpt lat="48.7156" lon="2.10943">
        <ele>152</ele>
        <time>2013-07-25T19:38:43Z</time>
      </trkpt>
      <trkpt lat="48.71559" lon="2.1094">
        <ele>152</ele>
        <time>2013-07-25T19:38:44Z</time>
      </trkpt>
      <trkpt lat="48.71559" lon="2.10937">
        <ele>152</ele>
        <time>2013-07-25T19:38:45Z</time>
      </trkpt>
      <trkpt lat="48.7156" lon="2.10929">
        <ele>152</ele>
        <time>2013-07-25T19:38:48Z</time>
      </trkpt>
      <trkpt lat="48.71561" lon="2.10926">
        <ele>152</ele>
        <time>2013-07-25T19:38:49Z</time>
      </trkpt>
      <trkpt lat="48.71563" lon="2.10922">
        <ele>153</ele>
        <time>2013-07-25T19:38:51Z</time>
      </trkpt>
      <trkpt lat="48.71564" lon="2.1092">
        <ele>153</ele>
        <time>2013-07-25T19:38:52Z</time>
      </trkpt>
      <trkpt lat="48.71564" lon="2.10917">
        <ele>153</ele>
        <time>2013-07-25T19:38:53Z</time>
      </trkpt>
      <trkpt lat="48.71566" lon="2.1091">
        <ele>153</ele>
        <time>2013-07-25T19:38:56Z</time>
      </trkpt>
      <trkpt lat="48.71566" lon="2.10905">
        <ele>153</ele>
        <time>2013-07-25T19:38:58Z</time>
      </trkpt>
      <trkpt lat="48.71566" lon="2.10903">
        <ele>153</ele>
        <time>2013-07-25T19:38:59Z</time>
      </trkpt>
      <trkpt lat="48.71566" lon="2.10892">
        <ele>153</ele>
        <time>2013-07-25T19:39:02Z</time>
      </trkpt>
      <trkpt lat="48.71566" lon="2.10889">
        <ele>153</ele>
        <time>2013-07-25T19:39:03Z</time>
      </trkpt>
      <trkpt lat="48.71566" lon="2.10867">
        <ele>154</ele>
        <time>2013-07-25T19:39:08Z</time>
      </trkpt>
      <trkpt lat="48.71566" lon="2.10859">
        <ele>154</ele>
        <time>2013-07-25T19:39:10Z</time>
      </trkpt>
      <trkpt lat="48.71564" lon="2.10829">
        <ele>158</ele>
        <time>2013-07-25T19:39:16Z</time>
      </trkpt>
      <trkpt lat="48.71542" lon="2.10705">
        <ele>160</ele>
        <time>2013-07-25T19:39:35Z</time>
      </trkpt>
      <trkpt lat="48.71541" lon="2.10698">
        <ele>160</ele>
        <time>2013-07-25T19:39:36Z</time>
      </trkpt>
      <trkpt lat="48.71548" lon="2.10608">
        <ele>159</ele>
        <time>2013-07-25T19:39:48Z</time>
      </trkpt>
      <trkpt lat="48.71555" lon="2.10544">
        <ele>157</ele>
        <time>2013-07-25T19:39:56Z</time>
      </trkpt>
      <trkpt lat="48.71555" lon="2.10526">
        <ele>157</ele>
        <time>2013-07-25T19:39:58Z</time>
      </trkpt>
      <trkpt lat="48.71557" lon="2.1051">
        <ele>157</ele>
        <time>2013-07-25T19:40:00Z</time>
      </trkpt>
      <trkpt lat="48.71559" lon="2.10461">
        <ele>155</ele>
        <time>2013-07-25T19:40:06Z</time>
      </trkpt>
      <trkpt lat="48.71558" lon="2.10455">
        <ele>155</ele>
        <time>2013-07-25T19:40:07Z</time>
      </trkpt>
      <trkpt lat="48.71556" lon="2.10449">
        <ele>155</ele>
        <time>2013-07-25T19:40:08Z</time>
      </trkpt>
      <trkpt lat="48.71551" lon="2.10435">
        <ele>155</ele>
        <time>2013-07-25T19:40:10Z</time>
      </trkpt>
      <trkpt lat="48.7155" lon="2.10428">
        <ele>155</ele>
        <time>2013-07-25T19:40:11Z</time>
      </trkpt>
      <trkpt lat="48.71544" lon="2.10415">
        <ele>153</ele>
        <time>2013-07-25T19:40:13Z</time>
      </trkpt>
      <trkpt lat="48.71542" lon="2.10408">
        <ele>153</ele>
        <time>2013-07-25T19:40:14Z</time>
      </trkpt>
      <trkpt lat="48.7154" lon="2.10405">
        <ele>153</ele>
        <time>2013-07-25T19:40:15Z</time>
      </trkpt>
      <trkpt lat="48.71537" lon="2.10404">
        <ele>153</ele>
        <time>2013-07-25T19:40:16Z</time>
      </trkpt>
      <trkpt lat="48.71531" lon="2.10403">
        <ele>153</ele>
        <time>2013-07-25T19:40:18Z</time>
      </trkpt>
      <trkpt lat="48.71514" lon="2.104">
        <ele>152</ele>
        <time>2013-07-25T19:40:23Z</time>
      </trkpt>
      <trkpt lat="48.71511" lon="2.10401">
        <ele>152</ele>
        <time>2013-07-25T19:40:24Z</time>
      </trkpt>
      <trkpt lat="48.71507" lon="2.10403">
        <ele>152</ele>
        <time>2013-07-25T19:40:25Z</time>
      </trkpt>
      <trkpt lat="48.71504" lon="2.10407">
        <ele>152</ele>
        <time>2013-07-25T19:40:26Z</time>
      </trkpt>
      <trkpt lat="48.71498" lon="2.10417">
        <ele>151</ele>
        <time>2013-07-25T19:40:28Z</time>
      </trkpt>
      <trkpt lat="48.71486" lon="2.10446">
        <ele>152</ele>
        <time>2013-07-25T19:40:33Z</time>
      </trkpt>
      <trkpt lat="48.71398" lon="2.10611">
        <ele>154</ele>
        <time>2013-07-25T19:41:00Z</time>
      </trkpt>
      <trkpt lat="48.7138" lon="2.10634">
        <ele>155</ele>
        <time>2013-07-25T19:41:05Z</time>
      </trkpt>
      <trkpt lat="48.71378" lon="2.10638">
        <ele>155</ele>
        <time>2013-07-25T19:41:06Z</time>
      </trkpt>
      <trkpt lat="48.71377" lon="2.10643">
        <ele>155</ele>
        <time>2013-07-25T19:41:07Z</time>
      </trkpt>
      <trkpt lat="48.71379" lon="2.10652">
        <ele>155</ele>
        <time>2013-07-25T19:41:09Z</time>
      </trkpt>
      <trkpt lat="48.71379" lon="2.10654">
        <ele>155</ele>
        <time>2013-07-25T19:41:10Z</time>
      </trkpt>
      <trkpt lat="48.71376" lon="2.1066">
        <ele>155</ele>
        <time>2013-07-25T19:41:12Z</time>
      </trkpt>
      <trkpt lat="48.71376" lon="2.10663">
        <ele>155</ele>
        <time>2013-07-25T19:41:13Z</time>
      </trkpt>
      <trkpt lat="48.71376" lon="2.10666">
        <ele>155</ele>
        <time>2013-07-25T19:41:14Z</time>
      </trkpt>
      <trkpt lat="48.71376" lon="2.10672">
        <ele>157</ele>
        <time>2013-07-25T19:41:16Z</time>
      </trkpt>
      <trkpt lat="48.71374" lon="2.10681">
        <ele>157</ele>
        <time>2013-07-25T19:41:19Z</time>
      </trkpt>
      <trkpt lat="48.71374" lon="2.10683">
        <ele>157</ele>
        <time>2013-07-25T19:41:20Z</time>
      </trkpt>
      <trkpt lat="48.71371" lon="2.10699">
        <ele>157</ele>
        <time>2013-07-25T19:41:25Z</time>
      </trkpt>
      <trkpt lat="48.71372" lon="2.10703">
        <ele>157</ele>
        <time>2013-07-25T19:41:26Z</time>
      </trkpt>
      <trkpt lat="48.71376" lon="2.10717">
        <ele>157</ele>
        <time>2013-07-25T19:41:29Z</time>
      </trkpt>
      <trkpt lat="48.7138" lon="2.10732">
        <ele>157</ele>
        <time>2013-07-25T19:41:32Z</time>
      </trkpt>
      <trkpt lat="48.71379" lon="2.10738">
        <ele>157</ele>
        <time>2013-07-25T19:41:33Z</time>
      </trkpt>
      <trkpt lat="48.71379" lon="2.10741">
        <ele>157</ele>
        <time>2013-07-25T19:41:34Z</time>
      </trkpt>
      <trkpt lat="48.71377" lon="2.10744">
        <ele>158</ele>
        <time>2013-07-25T19:41:35Z</time>
      </trkpt>
      <trkpt lat="48.71376" lon="2.10746">
        <ele>158</ele>
        <time>2013-07-25T19:41:36Z</time>
      </trkpt>
      <trkpt lat="48.71374" lon="2.10747">
        <ele>158</ele>
        <time>2013-07-25T19:41:37Z</time>
      </trkpt>
      <trkpt lat="48.71372" lon="2.10751">
        <ele>159</ele>
        <time>2013-07-25T19:41:38Z</time>
      </trkpt>
      <trkpt lat="48.71371" lon="2.10755">
        <ele>159</ele>
        <time>2013-07-25T19:41:39Z</time>
      </trkpt>
      <trkpt lat="48.71369" lon="2.10758">
        <ele>159</ele>
        <time>2013-07-25T19:41:40Z</time>
      </trkpt>
      <trkpt lat="48.71367" lon="2.1076">
        <ele>159</ele>
        <time>2013-07-25T19:41:41Z</time>
      </trkpt>
      <trkpt lat="48.71366" lon="2.10764">
        <ele>159</ele>
        <time>2013-07-25T19:41:42Z</time>
      </trkpt>
      <trkpt lat="48.71365" lon="2.10768">
        <ele>159</ele>
        <time>2013-07-25T19:41:43Z</time>
      </trkpt>
      <trkpt lat="48.71364" lon="2.10777">
        <ele>159</ele>
        <time>2013-07-25T19:41:45Z</time>
      </trkpt>
      <trkpt lat="48.71355" lon="2.10825">
        <ele>161</ele>
        <time>2013-07-25T19:41:54Z</time>
      </trkpt>
      <trkpt lat="48.71354" lon="2.10831">
        <ele>161</ele>
        <time>2013-07-25T19:41:55Z</time>
      </trkpt>
      <trkpt lat="48.71349" lon="2.10865">
        <ele>160</ele>
        <time>2013-07-25T19:42:00Z</time>
      </trkpt>
      <trkpt lat="48.71347" lon="2.10871">
        <ele>160</ele>
        <time>2013-07-25T19:42:01Z</time>
      </trkpt>
      <trkpt lat="48.71344" lon="2.10877">
        <ele>160</ele>
        <time>2013-07-25T19:42:02Z</time>
      </trkpt>
      <trkpt lat="48.7134" lon="2.10883">
        <ele>160</ele>
        <time>2013-07-25T19:42:03Z</time>
      </trkpt>
      <trkpt lat="48.71336" lon="2.10887">
        <ele>160</ele>
        <time>2013-07-25T19:42:04Z</time>
      </trkpt>
      <trkpt lat="48.7132" lon="2.109">
        <ele>163</ele>
        <time>2013-07-25T19:42:08Z</time>
      </trkpt>
      <trkpt lat="48.71311" lon="2.10905">
        <ele>163</ele>
        <time>2013-07-25T19:42:10Z</time>
      </trkpt>
      <trkpt lat="48.71299" lon="2.10914">
        <ele>163</ele>
        <time>2013-07-25T19:42:13Z</time>
      </trkpt>
      <trkpt lat="48.71281" lon="2.10922">
        <ele>162</ele>
        <time>2013-07-25T19:42:17Z</time>
      </trkpt>
      <trkpt lat="48.71277" lon="2.10925">
        <ele>162</ele>
        <time>2013-07-25T19:42:18Z</time>
      </trkpt>
      <trkpt lat="48.71213" lon="2.10956">
        <ele>162</ele>
        <time>2013-07-25T19:42:32Z</time>
      </trkpt>
      <trkpt lat="48.71208" lon="2.10958">
        <ele>162</ele>
        <time>2013-07-25T19:42:33Z</time>
      </trkpt>
      <trkpt lat="48.71199" lon="2.10962">
        <ele>162</ele>
        <time>2013-07-25T19:42:35Z</time>
      </trkpt>
      <trkpt lat="48.71194" lon="2.10965">
        <ele>162</ele>
        <time>2013-07-25T19:42:36Z</time>
      </trkpt>
      <trkpt lat="48.71162" lon="2.10979">
        <ele>162</ele>
        <time>2013-07-25T19:42:43Z</time>
      </trkpt>
      <trkpt lat="48.71157" lon="2.1098">
        <ele>162</ele>
        <time>2013-07-25T19:42:44Z</time>
      </trkpt>
      <trkpt lat="48.71084" lon="2.11007">
        <ele>162</ele>
        <time>2013-07-25T19:42:59Z</time>
      </trkpt>
      <trkpt lat="48.71019" lon="2.11028">
        <ele>162</ele>
        <time>2013-07-25T19:43:11Z</time>
      </trkpt>
      <trkpt lat="48.7101" lon="2.11032">
        <ele>162</ele>
        <time>2013-07-25T19:43:13Z</time>
      </trkpt>
      <trkpt lat="48.71" lon="2.11036">
        <ele>162</ele>
        <time>2013-07-25T19:43:15Z</time>
      </trkpt>
      <trkpt lat="48.7099" lon="2.11038">
        <ele>162</ele>
        <time>2013-07-25T19:43:17Z</time>
      </trkpt>
      <trkpt lat="48.70956" lon="2.1105">
        <ele>161</ele>
        <time>2013-07-25T19:43:24Z</time>
      </trkpt>
      <trkpt lat="48.70941" lon="2.11054">
        <ele>161</ele>
        <time>2013-07-25T19:43:27Z</time>
      </trkpt>
      <trkpt lat="48.70936" lon="2.11056">
        <ele>161</ele>
        <time>2013-07-25T19:43:28Z</time>
      </trkpt>
      <trkpt lat="48.70926" lon="2.11059">
        <ele>161</ele>
        <time>2013-07-25T19:43:30Z</time>
      </trkpt>
      <trkpt lat="48.70889" lon="2.11071">
        <ele>161</ele>
        <time>2013-07-25T19:43:37Z</time>
      </trkpt>
      <trkpt lat="48.70879" lon="2.11072">
        <ele>161</ele>
        <time>2013-07-25T19:43:39Z</time>
      </trkpt>
      <trkpt lat="48.70861" lon="2.11076">
        <ele>161</ele>
        <time>2013-07-25T19:43:43Z</time>
      </trkpt>
      <trkpt lat="48.70856" lon="2.11077">
        <ele>161</ele>
        <time>2013-07-25T19:43:44Z</time>
      </trkpt>
      <trkpt lat="48.70851" lon="2.11079">
        <ele>161</ele>
        <time>2013-07-25T19:43:45Z</time>
      </trkpt>
      <trkpt lat="48.70827" lon="2.11086">
        <ele>160</ele>
        <time>2013-07-25T19:43:50Z</time>
      </trkpt>
      <trkpt lat="48.70822" lon="2.11088">
        <ele>160</ele>
        <time>2013-07-25T19:43:51Z</time>
      </trkpt>
      <trkpt lat="48.70818" lon="2.11089">
        <ele>160</ele>
        <time>2013-07-25T19:43:52Z</time>
      </trkpt>
      <trkpt lat="48.70763" lon="2.11108">
        <ele>158</ele>
        <time>2013-07-25T19:44:04Z</time>
      </trkpt>
      <trkpt lat="48.70759" lon="2.1111">
        <ele>158</ele>
        <time>2013-07-25T19:44:05Z</time>
      </trkpt>
      <trkpt lat="48.70756" lon="2.11114">
        <ele>158</ele>
        <time>2013-07-25T19:44:06Z</time>
      </trkpt>
      <trkpt lat="48.70751" lon="2.11132">
        <ele>158</ele>
        <time>2013-07-25T19:44:10Z</time>
      </trkpt>
      <trkpt lat="48.70743" lon="2.11152">
        <ele>152</ele>
        <time>2013-07-25T19:44:14Z</time>
      </trkpt>
      <trkpt lat="48.7074" lon="2.11157">
        <ele>152</ele>
        <time>2013-07-25T19:44:15Z</time>
      </trkpt>
      <trkpt lat="48.70723" lon="2.11176">
        <ele>149</ele>
        <time>2013-07-25T19:44:19Z</time>
      </trkpt>
      <trkpt lat="48.70719" lon="2.11181">
        <ele>148</ele>
        <time>2013-07-25T19:44:20Z</time>
      </trkpt>
      <trkpt lat="48.70714" lon="2.11186">
        <ele>147</ele>
        <time>2013-07-25T19:44:21Z</time>
      </trkpt>
      <trkpt lat="48.70678" lon="2.11267">
        <ele>143</ele>
        <time>2013-07-25T19:44:33Z</time>
      </trkpt>
      <trkpt lat="48.7067" lon="2.11287">
        <ele>144</ele>
        <time>2013-07-25T19:44:36Z</time>
      </trkpt>
      <trkpt lat="48.70669" lon="2.11292">
        <ele>144</ele>
        <time>2013-07-25T19:44:37Z</time>
      </trkpt>
      <trkpt lat="48.70665" lon="2.11298">
        <ele>129</ele>
        <time>2013-07-25T19:44:39Z</time>
      </trkpt>
      <trkpt lat="48.70663" lon="2.113">
        <ele>129</ele>
        <time>2013-07-25T19:44:40Z</time>
      </trkpt>
      <trkpt lat="48.7066" lon="2.11301">
        <ele>129</ele>
        <time>2013-07-25T19:44:41Z</time>
      </trkpt>
      <trkpt lat="48.70655" lon="2.11303">
        <ele>129</ele>
        <time>2013-07-25T19:44:43Z</time>
      </trkpt>
      <trkpt lat="48.70653" lon="2.11304">
        <ele>128</ele>
        <time>2013-07-25T19:44:44Z</time>
      </trkpt>
      <trkpt lat="48.70649" lon="2.11305">
        <ele>128</ele>
        <time>2013-07-25T19:44:45Z</time>
      </trkpt>
      <trkpt lat="48.70646" lon="2.11306">
        <ele>128</ele>
        <time>2013-07-25T19:44:46Z</time>
      </trkpt>
      <trkpt lat="48.70639" lon="2.11309">
        <ele>127</ele>
        <time>2013-07-25T19:44:48Z</time>
      </trkpt>
      <trkpt lat="48.70633" lon="2.11311">
        <ele>126</ele>
        <time>2013-07-25T19:44:50Z</time>
      </trkpt>
      <trkpt lat="48.7063" lon="2.11312">
        <ele>125</ele>
        <time>2013-07-25T19:44:51Z</time>
      </trkpt>
      <trkpt lat="48.70627" lon="2.11313">
        <ele>124</ele>
        <time>2013-07-25T19:44:52Z</time>
      </trkpt>
      <trkpt lat="48.70622" lon="2.11315">
        <ele>123</ele>
        <time>2013-07-25T19:44:54Z</time>
      </trkpt>
      <trkpt lat="48.70608" lon="2.11323">
        <ele>120</ele>
        <time>2013-07-25T19:44:57Z</time>
      </trkpt>
      <trkpt lat="48.70602" lon="2.11327">
        <ele>118</ele>
        <time>2013-07-25T19:44:58Z</time>
      </trkpt>
      <trkpt lat="48.70598" lon="2.11331">
        <ele>117</ele>
        <time>2013-07-25T19:44:59Z</time>
      </trkpt>
      <trkpt lat="48.70592" lon="2.11335">
        <ele>115</ele>
        <time>2013-07-25T19:45:01Z</time>
      </trkpt>
      <trkpt lat="48.70589" lon="2.11337">
        <ele>114</ele>
        <time>2013-07-25T19:45:02Z</time>
      </trkpt>
      <trkpt lat="48.70572" lon="2.11342">
        <ele>107</ele>
        <time>2013-07-25T19:45:06Z</time>
      </trkpt>
      <trkpt lat="48.70566" lon="2.11343">
        <ele>106</ele>
        <time>2013-07-25T19:45:07Z</time>
      </trkpt>
      <trkpt lat="48.70561" lon="2.11345">
        <ele>106</ele>
        <time>2013-07-25T19:45:08Z</time>
      </trkpt>
      <trkpt lat="48.70557" lon="2.11347">
        <ele>105</ele>
        <time>2013-07-25T19:45:09Z</time>
      </trkpt>
      <trkpt lat="48.70553" lon="2.1135">
        <ele>104</ele>
        <time>2013-07-25T19:45:10Z</time>
      </trkpt>
      <trkpt lat="48.7055" lon="2.11352">
        <ele>104</ele>
        <time>2013-07-25T19:45:11Z</time>
      </trkpt>
      <trkpt lat="48.70542" lon="2.11355">
        <ele>103</ele>
        <time>2013-07-25T19:45:13Z</time>
      </trkpt>
      <trkpt lat="48.70538" lon="2.11355">
        <ele>102</ele>
        <time>2013-07-25T19:45:14Z</time>
      </trkpt>
      <trkpt lat="48.70522" lon="2.11356">
        <ele>101</ele>
        <time>2013-07-25T19:45:18Z</time>
      </trkpt>
      <trkpt lat="48.70518" lon="2.11357">
        <ele>100</ele>
        <time>2013-07-25T19:45:19Z</time>
      </trkpt>
      <trkpt lat="48.70515" lon="2.11358">
        <ele>100</ele>
        <time>2013-07-25T19:45:20Z</time>
      </trkpt>
      <trkpt lat="48.70512" lon="2.11358">
        <ele>100</ele>
        <time>2013-07-25T19:45:21Z</time>
      </trkpt>
      <trkpt lat="48.70504" lon="2.11359">
        <ele>99</ele>
        <time>2013-07-25T19:45:23Z</time>
      </trkpt>
      <trkpt lat="48.70489" lon="2.11361">
        <ele>92</ele>
        <time>2013-07-25T19:45:27Z</time>
      </trkpt>
      <trkpt lat="48.70486" lon="2.11361">
        <ele>91</ele>
        <time>2013-07-25T19:45:28Z</time>
      </trkpt>
      <trkpt lat="48.70483" lon="2.11361">
        <ele>91</ele>
        <time>2013-07-25T19:45:29Z</time>
      </trkpt>
      <trkpt lat="48.70475" lon="2.11361">
        <ele>91</ele>
        <time>2013-07-25T19:45:31Z</time>
      </trkpt>
      <trkpt lat="48.70457" lon="2.11364">
        <ele>90</ele>
        <time>2013-07-25T19:45:36Z</time>
      </trkpt>
      <trkpt lat="48.70445" lon="2.11364">
        <ele>89</ele>
        <time>2013-07-25T19:45:40Z</time>
      </trkpt>
      <trkpt lat="48.70443" lon="2.11365">
        <ele>89</ele>
        <time>2013-07-25T19:45:41Z</time>
      </trkpt>
      <trkpt lat="48.70441" lon="2.11366">
        <ele>89</ele>
        <time>2013-07-25T19:45:42Z</time>
      </trkpt>
      <trkpt lat="48.7044" lon="2.11369">
        <ele>89</ele>
        <time>2013-07-25T19:45:43Z</time>
      </trkpt>
      <trkpt lat="48.7044" lon="2.11372">
        <ele>89</ele>
        <time>2013-07-25T19:45:44Z</time>
      </trkpt>
      <trkpt lat="48.70439" lon="2.11403">
        <ele>89</ele>
        <time>2013-07-25T19:45:51Z</time>
      </trkpt>
      <trkpt lat="48.70439" lon="2.11408">
        <ele>89</ele>
        <time>2013-07-25T19:45:52Z</time>
      </trkpt>
      <trkpt lat="48.70439" lon="2.11422">
        <ele>89</ele>
        <time>2013-07-25T19:45:55Z</time>
      </trkpt>
      <trkpt lat="48.7044" lon="2.11427">
        <ele>89</ele>
        <time>2013-07-25T19:45:56Z</time>
      </trkpt>
      <trkpt lat="48.70442" lon="2.11436">
        <ele>90</ele>
        <time>2013-07-25T19:45:58Z</time>
      </trkpt>
      <trkpt lat="48.70444" lon="2.11441">
        <ele>90</ele>
        <time>2013-07-25T19:45:59Z</time>
      </trkpt>
      <trkpt lat="48.70445" lon="2.11449">
        <ele>90</ele>
        <time>2013-07-25T19:46:01Z</time>
      </trkpt>
      <trkpt lat="48.7045" lon="2.11472">
        <ele>90</ele>
        <time>2013-07-25T19:46:06Z</time>
      </trkpt>
      <trkpt lat="48.70451" lon="2.11477">
        <ele>90</ele>
        <time>2013-07-25T19:46:07Z</time>
      </trkpt>
      <trkpt lat="48.7046" lon="2.11522">
        <ele>90</ele>
        <time>2013-07-25T19:46:15Z</time>
      </trkpt>
      <trkpt lat="48.70461" lon="2.1154">
        <ele>90</ele>
        <time>2013-07-25T19:46:18Z</time>
      </trkpt>
      <trkpt lat="48.70468" lon="2.11588">
        <ele>90</ele>
        <time>2013-07-25T19:46:26Z</time>
      </trkpt>
      <trkpt lat="48.70471" lon="2.11598">
        <ele>90</ele>
        <time>2013-07-25T19:46:28Z</time>
      </trkpt>
      <trkpt lat="48.70472" lon="2.11604">
        <ele>90</ele>
        <time>2013-07-25T19:46:29Z</time>
      </trkpt>
      <trkpt lat="48.70484" lon="2.11674">
        <ele>90</ele>
        <time>2013-07-25T19:46:41Z</time>
      </trkpt>
      <trkpt lat="48.70485" lon="2.11684">
        <ele>90</ele>
        <time>2013-07-25T19:46:43Z</time>
      </trkpt>
      <trkpt lat="48.70485" lon="2.11688">
        <ele>89</ele>
        <time>2013-07-25T19:46:44Z</time>
      </trkpt>
      <trkpt lat="48.70484" lon="2.11691">
        <ele>89</ele>
        <time>2013-07-25T19:46:45Z</time>
      </trkpt>
      <trkpt lat="48.70481" lon="2.11693">
        <ele>89</ele>
        <time>2013-07-25T19:46:46Z</time>
      </trkpt>
      <trkpt lat="48.70473" lon="2.11696">
        <ele>89</ele>
        <time>2013-07-25T19:46:49Z</time>
      </trkpt>
      <trkpt lat="48.70468" lon="2.11696">
        <ele>89</ele>
        <time>2013-07-25T19:46:51Z</time>
      </trkpt>
      <trkpt lat="48.70466" lon="2.11698">
        <ele>89</ele>
        <time>2013-07-25T19:46:52Z</time>
      </trkpt>
      <trkpt lat="48.7046" lon="2.11702">
        <ele>89</ele>
        <time>2013-07-25T19:46:54Z</time>
      </trkpt>
      <trkpt lat="48.70452" lon="2.11705">
        <ele>88</ele>
        <time>2013-07-25T19:46:56Z</time>
      </trkpt>
      <trkpt lat="48.70401" lon="2.11711">
        <ele>84</ele>
        <time>2013-07-25T19:47:04Z</time>
      </trkpt>
      <trkpt lat="48.70394" lon="2.11711">
        <ele>84</ele>
        <time>2013-07-25T19:47:05Z</time>
      </trkpt>
      <trkpt lat="48.70387" lon="2.1171">
        <ele>84</ele>
        <time>2013-07-25T19:47:06Z</time>
      </trkpt>
      <trkpt lat="48.7038" lon="2.11708">
        <ele>83</ele>
        <time>2013-07-25T19:47:07Z</time>
      </trkpt>
      <trkpt lat="48.70373" lon="2.11704">
        <ele>83</ele>
        <time>2013-07-25T19:47:08Z</time>
      </trkpt>
      <trkpt lat="48.70366" lon="2.11698">
        <ele>83</ele>
        <time>2013-07-25T19:47:09Z</time>
      </trkpt>
      <trkpt lat="48.7034" lon="2.11667">
        <ele>80</ele>
        <time>2013-07-25T19:47:13Z</time>
      </trkpt>
      <trkpt lat="48.70326" lon="2.11655">
        <ele>77</ele>
        <time>2013-07-25T19:47:15Z</time>
      </trkpt>
      <trkpt lat="48.7031" lon="2.11645">
        <ele>75</ele>
        <time>2013-07-25T19:47:17Z</time>
      </trkpt>
      <trkpt lat="48.70301" lon="2.11641">
        <ele>75</ele>
        <time>2013-07-25T19:47:18Z</time>
      </trkpt>
      <trkpt lat="48.70292" lon="2.11638">
        <ele>74</ele>
        <time>2013-07-25T19:47:19Z</time>
      </trkpt>
      <trkpt lat="48.70283" lon="2.11636">
        <ele>74</ele>
        <time>2013-07-25T19:47:20Z</time>
      </trkpt>
      <trkpt lat="48.70274" lon="2.11637">
        <ele>73</ele>
        <time>2013-07-25T19:47:21Z</time>
      </trkpt>
      <trkpt lat="48.70255" lon="2.11643">
        <ele>72</ele>
        <time>2013-07-25T19:47:23Z</time>
      </trkpt>
      <trkpt lat="48.70228" lon="2.11658">
        <ele>69</ele>
        <time>2013-07-25T19:47:27Z</time>
      </trkpt>
      <trkpt lat="48.70185" lon="2.11673">
        <ele>68</ele>
        <time>2013-07-25T19:47:35Z</time>
      </trkpt>
      <trkpt lat="48.70181" lon="2.11674">
        <ele>68</ele>
        <time>2013-07-25T19:47:36Z</time>
      </trkpt>
      <trkpt lat="48.70179" lon="2.11675">
        <ele>68</ele>
        <time>2013-07-25T19:47:37Z</time>
      </trkpt>
      <trkpt lat="48.70178" lon="2.11677">
        <ele>68</ele>
        <time>2013-07-25T19:47:38Z</time>
      </trkpt>
      <trkpt lat="48.70177" lon="2.11685">
        <ele>68</ele>
        <time>2013-07-25T19:47:40Z</time>
      </trkpt>
      <trkpt lat="48.70184" lon="2.11724">
        <ele>68</ele>
        <time>2013-07-25T19:47:46Z</time>
      </trkpt>
      <trkpt lat="48.70184" lon="2.11739">
        <ele>67</ele>
        <time>2013-07-25T19:47:48Z</time>
      </trkpt>
      <trkpt lat="48.70182" lon="2.11745">
        <ele>67</ele>
        <time>2013-07-25T19:47:49Z</time>
      </trkpt>
      <trkpt lat="48.70179" lon="2.11749">
        <ele>67</ele>
        <time>2013-07-25T19:47:50Z</time>
      </trkpt>
      <trkpt lat="48.70176" lon="2.1175">
        <ele>67</ele>
        <time>2013-07-25T19:47:51Z</time>
      </trkpt>
      <trkpt lat="48.70172" lon="2.11748">
        <ele>66</ele>
        <time>2013-07-25T19:47:52Z</time>
      </trkpt>
      <trkpt lat="48.70168" lon="2.11746">
        <ele>66</ele>
        <time>2013-07-25T19:47:53Z</time>
      </trkpt>
      <trkpt lat="48.70164" lon="2.11744">
        <ele>66</ele>
        <time>2013-07-25T19:47:54Z</time>
      </trkpt>
      <trkpt lat="48.70159" lon="2.11743">
        <ele>66</ele>
        <time>2013-07-25T19:47:55Z</time>
      </trkpt>
      <trkpt lat="48.70154" lon="2.11743">
        <ele>66</ele>
        <time>2013-07-25T19:47:56Z</time>
      </trkpt>
      <trkpt lat="48.70086" lon="2.11755">
        <ele>64</ele>
        <time>2013-07-25T19:48:08Z</time>
      </trkpt>
      <trkpt lat="48.70075" lon="2.11759">
        <ele>66</ele>
        <time>2013-07-25T19:48:10Z</time>
      </trkpt>
      <trkpt lat="48.70071" lon="2.11763">
        <ele>66</ele>
        <time>2013-07-25T19:48:11Z</time>
      </trkpt>
      <trkpt lat="48.70068" lon="2.11769">
        <ele>67</ele>
        <time>2013-07-25T19:48:12Z</time>
      </trkpt>
      <trkpt lat="48.70065" lon="2.11776">
        <ele>67</ele>
        <time>2013-07-25T19:48:13Z</time>
      </trkpt>
      <trkpt lat="48.70064" lon="2.11783">
        <ele>67</ele>
        <time>2013-07-25T19:48:14Z</time>
      </trkpt>
      <trkpt lat="48.70062" lon="2.11792">
        <ele>68</ele>
        <time>2013-07-25T19:48:15Z</time>
      </trkpt>
      <trkpt lat="48.70063" lon="2.11809">
        <ele>67</ele>
        <time>2013-07-25T19:48:17Z</time>
      </trkpt>
      <trkpt lat="48.70065" lon="2.11827">
        <ele>66</ele>
        <time>2013-07-25T19:48:19Z</time>
      </trkpt>
      <trkpt lat="48.7008" lon="2.1189">
        <ele>66</ele>
        <time>2013-07-25T19:48:27Z</time>
      </trkpt>
      <trkpt lat="48.70089" lon="2.11932">
        <ele>64</ele>
        <time>2013-07-25T19:48:32Z</time>
      </trkpt>
      <trkpt lat="48.70101" lon="2.12041">
        <ele>65</ele>
        <time>2013-07-25T19:48:44Z</time>
      </trkpt>
      <trkpt lat="48.70112" lon="2.12091">
        <ele>65</ele>
        <time>2013-07-25T19:48:50Z</time>
      </trkpt>
      <trkpt lat="48.70113" lon="2.121">
        <ele>65</ele>
        <time>2013-07-25T19:48:51Z</time>
      </trkpt>
      <trkpt lat="48.70112" lon="2.12117">
        <ele>65</ele>
        <time>2013-07-25T19:48:53Z</time>
      </trkpt>
      <trkpt lat="48.70091" lon="2.12232">
        <ele>64</ele>
        <time>2013-07-25T19:49:06Z</time>
      </trkpt>
      <trkpt lat="48.70033" lon="2.12392">
        <ele>66</ele>
        <time>2013-07-25T19:49:26Z</time>
      </trkpt>
      <trkpt lat="48.70029" lon="2.12409">
        <ele>65</ele>
        <time>2013-07-25T19:49:28Z</time>
      </trkpt>
      <trkpt lat="48.7003" lon="2.12435">
        <ele>65</ele>
        <time>2013-07-25T19:49:31Z</time>
      </trkpt>
      <trkpt lat="48.70029" lon="2.12441">
        <ele>65</ele>
        <time>2013-07-25T19:49:32Z</time>
      </trkpt>
      <trkpt lat="48.70026" lon="2.12445">
        <ele>65</ele>
        <time>2013-07-25T19:49:33Z</time>
      </trkpt>
      <trkpt lat="48.70024" lon="2.12447">
        <ele>65</ele>
        <time>2013-07-25T19:49:34Z</time>
      </trkpt>
      <trkpt lat="48.7002" lon="2.12446">
        <ele>65</ele>
        <time>2013-07-25T19:49:35Z</time>
      </trkpt>
      <trkpt lat="48.70017" lon="2.12446">
        <ele>65</ele>
        <time>2013-07-25T19:49:36Z</time>
      </trkpt>
      <trkpt lat="48.69993" lon="2.1243">
        <ele>67</ele>
        <time>2013-07-25T19:49:42Z</time>
      </trkpt>
      <trkpt lat="48.69988" lon="2.12428">
        <ele>67</ele>
        <time>2013-07-25T19:49:43Z</time>
      </trkpt>
      <trkpt lat="48.69979" lon="2.12427">
        <ele>67</ele>
        <time>2013-07-25T19:49:45Z</time>
      </trkpt>
      <trkpt lat="48.69966" lon="2.12424">
        <ele>67</ele>
        <time>2013-07-25T19:49:48Z</time>
      </trkpt>
      <trkpt lat="48.69962" lon="2.12422">
        <ele>68</ele>
        <time>2013-07-25T19:49:49Z</time>
      </trkpt>
      <trkpt lat="48.6993" lon="2.12402">
        <ele>69</ele>
        <time>2013-07-25T19:49:57Z</time>
      </trkpt>
      <trkpt lat="48.69926" lon="2.12399">
        <ele>69</ele>
        <time>2013-07-25T19:49:58Z</time>
      </trkpt>
      <trkpt lat="48.69911" lon="2.12394">
        <ele>71</ele>
        <time>2013-07-25T19:50:01Z</time>
      </trkpt>
      <trkpt lat="48.69902" lon="2.12392">
        <ele>72</ele>
        <time>2013-07-25T19:50:03Z</time>
      </trkpt>
      <trkpt lat="48.69875" lon="2.12398">
        <ele>73</ele>
        <time>2013-07-25T19:50:09Z</time>
      </trkpt>
      <trkpt lat="48.69873" lon="2.12407">
        <ele>73</ele>
        <time>2013-07-25T19:50:12Z</time>
      </trkpt>
      <trkpt lat="48.69875" lon="2.1241">
        <ele>72</ele>
        <time>2013-07-25T19:50:13Z</time>
      </trkpt>
      <trkpt lat="48.69877" lon="2.12411">
        <ele>72</ele>
        <time>2013-07-25T19:50:14Z</time>
      </trkpt>
      <trkpt lat="48.69879" lon="2.1241">
        <ele>72</ele>
        <time>2013-07-25T19:50:15Z</time>
      </trkpt>
      <trkpt lat="48.69882" lon="2.12408">
        <ele>72</ele>
        <time>2013-07-25T19:50:16Z</time>
      </trkpt>
      <trkpt lat="48.69884" lon="2.12406">
        <ele>72</ele>
        <time>2013-07-25T19:50:17Z</time>
      </trkpt>
      <trkpt lat="48.69886" lon="2.12403">
        <ele>72</ele>
        <time>2013-07-25T19:50:18Z</time>
      </trkpt>
      <trkpt lat="48.69891" lon="2.12391">
        <ele>72</ele>
        <time>2013-07-25T19:50:21Z</time>
      </trkpt>
      <trkpt lat="48.69895" lon="2.12376">
        <ele>72</ele>
        <time>2013-07-25T19:50:24Z</time>
      </trkpt>
      <trkpt lat="48.69896" lon="2.1234">
        <ele>72</ele>
        <time>2013-07-25T19:50:33Z</time>
      </trkpt>
      <trkpt lat="48.69895" lon="2.12337">
        <ele>72</ele>
        <time>2013-07-25T19:50:34Z</time>
      </trkpt>
      <trkpt lat="48.69895" lon="2.12334">
        <ele>72</ele>
        <time>2013-07-25T19:50:35Z</time>
      </trkpt>
      <trkpt lat="48.69894" lon="2.12326">
        <ele>74</ele>
        <time>2013-07-25T19:50:38Z</time>
      </trkpt>
      <trkpt lat="48.69894" lon="2.12323">
        <ele>74</ele>
        <time>2013-07-25T19:50:39Z</time>
      </trkpt>
      <trkpt lat="48.69893" lon="2.1232">
        <ele>74</ele>
        <time>2013-07-25T19:50:40Z</time>
      </trkpt>
      <trkpt lat="48.69893" lon="2.12317">
        <ele>74</ele>
        <time>2013-07-25T19:50:41Z</time>
      </trkpt>
      <trkpt lat="48.69892" lon="2.1231">
        <ele>75</ele>
        <time>2013-07-25T19:50:43Z</time>
      </trkpt>
      <trkpt lat="48.69892" lon="2.12306">
        <ele>75</ele>
        <time>2013-07-25T19:50:44Z</time>
      </trkpt>
      <trkpt lat="48.69891" lon="2.12293">
        <ele>75</ele>
        <time>2013-07-25T19:50:48Z</time>
      </trkpt>
      <trkpt lat="48.69891" lon="2.12291">
        <ele>75</ele>
        <time>2013-07-25T19:50:49Z</time>
      </trkpt>
      <trkpt lat="48.69891" lon="2.12289">
        <ele>75</ele>
        <time>2013-07-25T19:50:50Z</time>
      </trkpt>
      <trkpt lat="48.6989" lon="2.12283">
        <ele>75</ele>
        <time>2013-07-25T19:50:52Z</time>
      </trkpt>
      <trkpt lat="48.69889" lon="2.1228">
        <ele>75</ele>
        <time>2013-07-25T19:50:53Z</time>
      </trkpt>
      <trkpt lat="48.69887" lon="2.12279">
        <ele>75</ele>
        <time>2013-07-25T19:50:54Z</time>
      </trkpt>
      <trkpt lat="48.69885" lon="2.12278">
        <ele>75</ele>
        <time>2013-07-25T19:50:55Z</time>
      </trkpt>
      <trkpt lat="48.6988" lon="2.12276">
        <ele>76</ele>
        <time>2013-07-25T19:50:57Z</time>
      </trkpt>
      <trkpt lat="48.69874" lon="2.12273">
        <ele>76</ele>
        <time>2013-07-25T19:51:00Z</time>
      </trkpt>
      <trkpt lat="48.69867" lon="2.12271">
        <ele>77</ele>
        <time>2013-07-25T19:51:03Z</time>
      </trkpt>
      <trkpt lat="48.69858" lon="2.1227">
        <ele>77</ele>
        <time>2013-07-25T19:51:07Z</time>
      </trkpt>
      <trkpt lat="48.69842" lon="2.12271">
        <ele>78</ele>
        <time>2013-07-25T19:51:14Z</time>
      </trkpt>
      <trkpt lat="48.6983" lon="2.12274">
        <ele>82</ele>
        <time>2013-07-25T19:51:19Z</time>
      </trkpt>
      <trkpt lat="48.69829" lon="2.12275">
        <ele>82</ele>
        <time>2013-07-25T19:51:20Z</time>
      </trkpt>
      <trkpt lat="48.69819" lon="2.12279">
        <ele>82</ele>
        <time>2013-07-25T19:51:24Z</time>
      </trkpt>
      <trkpt lat="48.69815" lon="2.12283">
        <ele>82</ele>
        <time>2013-07-25T19:51:26Z</time>
      </trkpt>
      <trkpt lat="48.69812" lon="2.12285">
        <ele>82</ele>
        <time>2013-07-25T19:51:27Z</time>
      </trkpt>
      <trkpt lat="48.6981" lon="2.12288">
        <ele>82</ele>
        <time>2013-07-25T19:51:28Z</time>
      </trkpt>
      <trkpt lat="48.69808" lon="2.12291">
        <ele>82</ele>
        <time>2013-07-25T19:51:29Z</time>
      </trkpt>
      <trkpt lat="48.69805" lon="2.12304">
        <ele>82</ele>
        <time>2013-07-25T19:51:32Z</time>
      </trkpt>
      <trkpt lat="48.69803" lon="2.12308">
        <ele>82</ele>
        <time>2013-07-25T19:51:33Z</time>
      </trkpt>
      <trkpt lat="48.69798" lon="2.12315">
        <ele>82</ele>
        <time>2013-07-25T19:51:35Z</time>
      </trkpt>
      <trkpt lat="48.69795" lon="2.12318">
        <ele>82</ele>
        <time>2013-07-25T19:51:36Z</time>
      </trkpt>
      <trkpt lat="48.69792" lon="2.12319">
        <ele>82</ele>
        <time>2013-07-25T19:51:37Z</time>
      </trkpt>
      <trkpt lat="48.69786" lon="2.12322">
        <ele>82</ele>
        <time>2013-07-25T19:51:39Z</time>
      </trkpt>
      <trkpt lat="48.6978" lon="2.12324">
        <ele>83</ele>
        <time>2013-07-25T19:51:41Z</time>
      </trkpt>
      <trkpt lat="48.69777" lon="2.12325">
        <ele>83</ele>
        <time>2013-07-25T19:51:42Z</time>
      </trkpt>
      <trkpt lat="48.69774" lon="2.12326">
        <ele>83</ele>
        <time>2013-07-25T19:51:43Z</time>
      </trkpt>
      <trkpt lat="48.69763" lon="2.12326">
        <ele>83</ele>
        <time>2013-07-25T19:51:47Z</time>
      </trkpt>
      <trkpt lat="48.6976" lon="2.12327">
        <ele>83</ele>
        <time>2013-07-25T19:51:48Z</time>
      </trkpt>
      <trkpt lat="48.69749" lon="2.12326">
        <ele>85</ele>
        <time>2013-07-25T19:51:52Z</time>
      </trkpt>
      <trkpt lat="48.69744" lon="2.12327">
        <ele>86</ele>
        <time>2013-07-25T19:51:54Z</time>
      </trkpt>
      <trkpt lat="48.6973" lon="2.12328">
        <ele>87</ele>
        <time>2013-07-25T19:51:59Z</time>
      </trkpt>
      <trkpt lat="48.69725" lon="2.12328">
        <ele>87</ele>
        <time>2013-07-25T19:52:01Z</time>
      </trkpt>
      <trkpt lat="48.69714" lon="2.12329">
        <ele>88</ele>
        <time>2013-07-25T19:52:05Z</time>
      </trkpt>
      <trkpt lat="48.69708" lon="2.12328">
        <ele>88</ele>
        <time>2013-07-25T19:52:07Z</time>
      </trkpt>
      <trkpt lat="48.69703" lon="2.1233">
        <ele>89</ele>
        <time>2013-07-25T19:52:09Z</time>
      </trkpt>
      <trkpt lat="48.697" lon="2.12331">
        <ele>89</ele>
        <time>2013-07-25T19:52:10Z</time>
      </trkpt>
      <trkpt lat="48.69687" lon="2.12331">
        <ele>89</ele>
        <time>2013-07-25T19:52:15Z</time>
      </trkpt>
      <trkpt lat="48.69684" lon="2.12331">
        <ele>89</ele>
        <time>2013-07-25T19:52:16Z</time>
      </trkpt>
      <trkpt lat="48.69679" lon="2.12332">
        <ele>90</ele>
        <time>2013-07-25T19:52:18Z</time>
      </trkpt>
      <trkpt lat="48.69674" lon="2.12333">
        <ele>90</ele>
        <time>2013-07-25T19:52:20Z</time>
      </trkpt>
      <trkpt lat="48.69666" lon="2.12333">
        <ele>90</ele>
        <time>2013-07-25T19:52:23Z</time>
      </trkpt>
      <trkpt lat="48.69657" lon="2.12334">
        <ele>91</ele>
        <time>2013-07-25T19:52:26Z</time>
      </trkpt>
      <trkpt lat="48.69652" lon="2.12336">
        <ele>92</ele>
        <time>2013-07-25T19:52:28Z</time>
      </trkpt>
      <trkpt lat="48.69641" lon="2.12344">
        <ele>93</ele>
        <time>2013-07-25T19:52:32Z</time>
      </trkpt>
      <trkpt lat="48.69636" lon="2.12349">
        <ele>93</ele>
        <time>2013-07-25T19:52:34Z</time>
      </trkpt>
      <trkpt lat="48.6962" lon="2.12372">
        <ele>94</ele>
        <time>2013-07-25T19:52:41Z</time>
      </trkpt>
      <trkpt lat="48.69618" lon="2.12376">
        <ele>94</ele>
        <time>2013-07-25T19:52:42Z</time>
      </trkpt>
      <trkpt lat="48.69606" lon="2.12392">
        <ele>94</ele>
        <time>2013-07-25T19:52:47Z</time>
      </trkpt>
      <trkpt lat="48.69591" lon="2.12411">
        <ele>95</ele>
        <time>2013-07-25T19:52:53Z</time>
      </trkpt>
      <trkpt lat="48.69588" lon="2.12413">
        <ele>96</ele>
        <time>2013-07-25T19:52:54Z</time>
      </trkpt>
      <trkpt lat="48.69585" lon="2.12415">
        <ele>96</ele>
        <time>2013-07-25T19:52:55Z</time>
      </trkpt>
      <trkpt lat="48.69582" lon="2.12416">
        <ele>97</ele>
        <time>2013-07-25T19:52:56Z</time>
      </trkpt>
      <trkpt lat="48.69578" lon="2.12416">
        <ele>98</ele>
        <time>2013-07-25T19:52:57Z</time>
      </trkpt>
      <trkpt lat="48.69576" lon="2.12418">
        <ele>98</ele>
        <time>2013-07-25T19:52:58Z</time>
      </trkpt>
      <trkpt lat="48.69575" lon="2.12421">
        <ele>98</ele>
        <time>2013-07-25T19:52:59Z</time>
      </trkpt>
      <trkpt lat="48.69573" lon="2.12425">
        <ele>99</ele>
        <time>2013-07-25T19:53:00Z</time>
      </trkpt>
      <trkpt lat="48.6957" lon="2.12428">
        <ele>99</ele>
        <time>2013-07-25T19:53:01Z</time>
      </trkpt>
      <trkpt lat="48.69564" lon="2.12431">
        <ele>100</ele>
        <time>2013-07-25T19:53:03Z</time>
      </trkpt>
      <trkpt lat="48.69561" lon="2.12432">
        <ele>100</ele>
        <time>2013-07-25T19:53:04Z</time>
      </trkpt>
      <trkpt lat="48.69544" lon="2.12441">
        <ele>102</ele>
        <time>2013-07-25T19:53:10Z</time>
      </trkpt>
      <trkpt lat="48.69541" lon="2.12444">
        <ele>102</ele>
        <time>2013-07-25T19:53:11Z</time>
      </trkpt>
      <trkpt lat="48.69535" lon="2.1245">
        <ele>103</ele>
        <time>2013-07-25T19:53:13Z</time>
      </trkpt>
      <trkpt lat="48.69533" lon="2.12453">
        <ele>103</ele>
        <time>2013-07-25T19:53:14Z</time>
      </trkpt>
      <trkpt lat="48.69527" lon="2.12465">
        <ele>103</ele>
        <time>2013-07-25T19:53:17Z</time>
      </trkpt>
      <trkpt lat="48.69525" lon="2.1247">
        <ele>103</ele>
        <time>2013-07-25T19:53:18Z</time>
      </trkpt>
      <trkpt lat="48.69483" lon="2.12612">
        <ele>105</ele>
        <time>2013-07-25T19:53:40Z</time>
      </trkpt>
      <trkpt lat="48.69482" lon="2.12618">
        <ele>105</ele>
        <time>2013-07-25T19:53:41Z</time>
      </trkpt>
      <trkpt lat="48.69476" lon="2.12633">
        <ele>105</ele>
        <time>2013-07-25T19:53:44Z</time>
      </trkpt>
      <trkpt lat="48.69474" lon="2.12637">
        <ele>105</ele>
        <time>2013-07-25T19:53:45Z</time>
      </trkpt>
      <trkpt lat="48.69471" lon="2.12638">
        <ele>105</ele>
        <time>2013-07-25T19:53:46Z</time>
      </trkpt>
      <trkpt lat="48.69469" lon="2.12638">
        <ele>105</ele>
        <time>2013-07-25T19:53:47Z</time>
      </trkpt>
      <trkpt lat="48.69468" lon="2.12638">
        <ele>106</ele>
        <time>2013-07-25T19:53:48Z</time>
      </trkpt>
      <trkpt lat="48.69467" lon="2.12638">
        <ele>106</ele>
        <time>2013-07-25T19:53:49Z</time>
      </trkpt>
      <trkpt lat="48.69466" lon="2.12638">
        <ele>106</ele>
        <time>2013-07-25T19:53:50Z</time>
      </trkpt>
      <trkpt lat="48.69465" lon="2.12638">
        <ele>106</ele>
        <time>2013-07-25T19:53:51Z</time>
      </trkpt>
      <trkpt lat="48.69463" lon="2.12639">
        <ele>106</ele>
        <time>2013-07-25T19:53:52Z</time>
      </trkpt>
      <trkpt lat="48.69461" lon="2.12645">
        <ele>106</ele>
        <time>2013-07-25T19:53:55Z</time>
      </trkpt>
      <trkpt lat="48.69459" lon="2.12649">
        <ele>106</ele>
        <time>2013-07-25T19:53:57Z</time>
      </trkpt>
      <trkpt lat="48.69459" lon="2.12651">
        <ele>106</ele>
        <time>2013-07-25T19:53:58Z</time>
      </trkpt>
      <trkpt lat="48.69458" lon="2.12653">
        <ele>107</ele>
        <time>2013-07-25T19:53:59Z</time>
      </trkpt>
      <trkpt lat="48.69457" lon="2.12655">
        <ele>107</ele>
        <time>2013-07-25T19:54:00Z</time>
      </trkpt>
      <trkpt lat="48.69457" lon="2.12659">
        <ele>107</ele>
        <time>2013-07-25T19:54:02Z</time>
      </trkpt>
      <trkpt lat="48.69456" lon="2.1266">
        <ele>107</ele>
        <time>2013-07-25T19:54:03Z</time>
      </trkpt>
      <trkpt lat="48.69454" lon="2.1267">
        <ele>105</ele>
        <time>2013-07-25T19:54:07Z</time>
      </trkpt>
      <trkpt lat="48.69453" lon="2.12674">
        <ele>105</ele>
        <time>2013-07-25T19:54:09Z</time>
      </trkpt>
      <trkpt lat="48.69453" lon="2.12676">
        <ele>105</ele>
        <time>2013-07-25T19:54:10Z</time>
      </trkpt>
      <trkpt lat="48.69451" lon="2.12679">
        <ele>105</ele>
        <time>2013-07-25T19:54:12Z</time>
      </trkpt>
      <trkpt lat="48.6945" lon="2.12681">
        <ele>106</ele>
        <time>2013-07-25T19:54:13Z</time>
      </trkpt>
      <trkpt lat="48.69447" lon="2.12686">
        <ele>106</ele>
        <time>2013-07-25T19:54:16Z</time>
      </trkpt>
      <trkpt lat="48.69443" lon="2.12693">
        <ele>106</ele>
        <time>2013-07-25T19:54:20Z</time>
      </trkpt>
      <trkpt lat="48.69441" lon="2.12694">
        <ele>106</ele>
        <time>2013-07-25T19:54:21Z</time>
      </trkpt>
      <trkpt lat="48.69439" lon="2.12697">
        <ele>107</ele>
        <time>2013-07-25T19:54:23Z</time>
      </trkpt>
      <trkpt lat="48.69438" lon="2.12699">
        <ele>107</ele>
        <time>2013-07-25T19:54:24Z</time>
      </trkpt>
      <trkpt lat="48.69437" lon="2.127">
        <ele>107</ele>
        <time>2013-07-25T19:54:25Z</time>
      </trkpt>
      <trkpt lat="48.69432" lon="2.12705">
        <ele>107</ele>
        <time>2013-07-25T19:54:29Z</time>
      </trkpt>
      <trkpt lat="48.6943" lon="2.12707">
        <ele>107</ele>
        <time>2013-07-25T19:54:30Z</time>
      </trkpt>
      <trkpt lat="48.69429" lon="2.12708">
        <ele>107</ele>
        <time>2013-07-25T19:54:31Z</time>
      </trkpt>
      <trkpt lat="48.69424" lon="2.12714">
        <ele>108</ele>
        <time>2013-07-25T19:54:35Z</time>
      </trkpt>
      <trkpt lat="48.69419" lon="2.1272">
        <ele>108</ele>
        <time>2013-07-25T19:54:39Z</time>
      </trkpt>
      <trkpt lat="48.69417" lon="2.12724">
        <ele>109</ele>
        <time>2013-07-25T19:54:41Z</time>
      </trkpt>
      <trkpt lat="48.69416" lon="2.12725">
        <ele>119</ele>
        <time>2013-07-25T19:54:42Z</time>
      </trkpt>
      <trkpt lat="48.69415" lon="2.12729">
        <ele>119</ele>
        <time>2013-07-25T19:54:44Z</time>
      </trkpt>
      <trkpt lat="48.69413" lon="2.12731">
        <ele>119</ele>
        <time>2013-07-25T19:54:45Z</time>
      </trkpt>
      <trkpt lat="48.69412" lon="2.12733">
        <ele>118</ele>
        <time>2013-07-25T19:54:46Z</time>
      </trkpt>
      <trkpt lat="48.69411" lon="2.12735">
        <ele>118</ele>
        <time>2013-07-25T19:54:47Z</time>
      </trkpt>
      <trkpt lat="48.6941" lon="2.12737">
        <ele>118</ele>
        <time>2013-07-25T19:54:48Z</time>
      </trkpt>
      <trkpt lat="48.69407" lon="2.12741">
        <ele>118</ele>
        <time>2013-07-25T19:54:51Z</time>
      </trkpt>
      <trkpt lat="48.69406" lon="2.12742">
        <ele>118</ele>
        <time>2013-07-25T19:54:52Z</time>
      </trkpt>
      <trkpt lat="48.69405" lon="2.12744">
        <ele>118</ele>
        <time>2013-07-25T19:54:53Z</time>
      </trkpt>
      <trkpt lat="48.69404" lon="2.12745">
        <ele>118</ele>
        <time>2013-07-25T19:54:54Z</time>
      </trkpt>
      <trkpt lat="48.69402" lon="2.12746">
        <ele>119</ele>
        <time>2013-07-25T19:54:56Z</time>
      </trkpt>
      <trkpt lat="48.694" lon="2.12746">
        <ele>119</ele>
        <time>2013-07-25T19:54:58Z</time>
      </trkpt>
      <trkpt lat="48.69399" lon="2.12747">
        <ele>119</ele>
        <time>2013-07-25T19:54:59Z</time>
      </trkpt>
      <trkpt lat="48.69397" lon="2.12747">
        <ele>119</ele>
        <time>2013-07-25T19:55:00Z</time>
      </trkpt>
      <trkpt lat="48.69396" lon="2.12747">
        <ele>120</ele>
        <time>2013-07-25T19:55:01Z</time>
      </trkpt>
      <trkpt lat="48.69395" lon="2.12747">
        <ele>120</ele>
        <time>2013-07-25T19:55:02Z</time>
      </trkpt>
      <trkpt lat="48.69394" lon="2.12747">
        <ele>120</ele>
        <time>2013-07-25T19:55:03Z</time>
      </trkpt>
      <trkpt lat="48.69394" lon="2.12748">
        <ele>120</ele>
        <time>2013-07-25T19:55:04Z</time>
      </trkpt>
      <trkpt lat="48.69392" lon="2.12749">
        <ele>120</ele>
        <time>2013-07-25T19:55:05Z</time>
      </trkpt>
      <trkpt lat="48.6939" lon="2.12751">
        <ele>121</ele>
        <time>2013-07-25T19:55:07Z</time>
      </trkpt>
      <trkpt lat="48.69388" lon="2.12754">
        <ele>121</ele>
        <time>2013-07-25T19:55:09Z</time>
      </trkpt>
      <trkpt lat="48.69387" lon="2.12755">
        <ele>121</ele>
        <time>2013-07-25T19:55:10Z</time>
      </trkpt>
      <trkpt lat="48.69386" lon="2.12756">
        <ele>121</ele>
        <time>2013-07-25T19:55:11Z</time>
      </trkpt>
      <trkpt lat="48.69381" lon="2.12762">
        <ele>122</ele>
        <time>2013-07-25T19:55:15Z</time>
      </trkpt>
      <trkpt lat="48.6938" lon="2.12763">
        <ele>122</ele>
        <time>2013-07-25T19:55:16Z</time>
      </trkpt>
      <trkpt lat="48.69377" lon="2.12768">
        <ele>123</ele>
        <time>2013-07-25T19:55:19Z</time>
      </trkpt>
      <trkpt lat="48.69376" lon="2.1277">
        <ele>123</ele>
        <time>2013-07-25T19:55:20Z</time>
      </trkpt>
      <trkpt lat="48.69373" lon="2.12773">
        <ele>123</ele>
        <time>2013-07-25T19:55:23Z</time>
      </trkpt>
      <trkpt lat="48.6937" lon="2.12776">
        <ele>124</ele>
        <time>2013-07-25T19:55:25Z</time>
      </trkpt>
      <trkpt lat="48.69369" lon="2.12777">
        <ele>124</ele>
        <time>2013-07-25T19:55:26Z</time>
      </trkpt>
      <trkpt lat="48.69365" lon="2.12783">
        <ele>124</ele>
        <time>2013-07-25T19:55:30Z</time>
      </trkpt>
      <trkpt lat="48.69364" lon="2.12785">
        <ele>124</ele>
        <time>2013-07-25T19:55:31Z</time>
      </trkpt>
      <trkpt lat="48.69362" lon="2.12788">
        <ele>125</ele>
        <time>2013-07-25T19:55:33Z</time>
      </trkpt>
      <trkpt lat="48.69359" lon="2.12792">
        <ele>125</ele>
        <time>2013-07-25T19:55:36Z</time>
      </trkpt>
      <trkpt lat="48.69358" lon="2.12793">
        <ele>125</ele>
        <time>2013-07-25T19:55:37Z</time>
      </trkpt>
      <trkpt lat="48.69357" lon="2.12795">
        <ele>125</ele>
        <time>2013-07-25T19:55:38Z</time>
      </trkpt>
      <trkpt lat="48.69356" lon="2.12797">
        <ele>125</ele>
        <time>2013-07-25T19:55:39Z</time>
      </trkpt>
      <trkpt lat="48.69355" lon="2.12798">
        <ele>125</ele>
        <time>2013-07-25T19:55:40Z</time>
      </trkpt>
      <trkpt lat="48.69352" lon="2.12802">
        <ele>126</ele>
        <time>2013-07-25T19:55:42Z</time>
      </trkpt>
      <trkpt lat="48.69352" lon="2.12804">
        <ele>126</ele>
        <time>2013-07-25T19:55:43Z</time>
      </trkpt>
      <trkpt lat="48.69351" lon="2.12805">
        <ele>126</ele>
        <time>2013-07-25T19:55:44Z</time>
      </trkpt>
      <trkpt lat="48.6935" lon="2.12807">
        <ele>126</ele>
        <time>2013-07-25T19:55:45Z</time>
      </trkpt>
      <trkpt lat="48.69348" lon="2.12811">
        <ele>127</ele>
        <time>2013-07-25T19:55:47Z</time>
      </trkpt>
      <trkpt lat="48.69345" lon="2.12814">
        <ele>128</ele>
        <time>2013-07-25T19:55:50Z</time>
      </trkpt>
      <trkpt lat="48.69344" lon="2.12816">
        <ele>128</ele>
        <time>2013-07-25T19:55:51Z</time>
      </trkpt>
      <trkpt lat="48.69341" lon="2.12821">
        <ele>129</ele>
        <time>2013-07-25T19:55:54Z</time>
      </trkpt>
      <trkpt lat="48.69339" lon="2.12824">
        <ele>130</ele>
        <time>2013-07-25T19:55:56Z</time>
      </trkpt>
      <trkpt lat="48.69336" lon="2.12829">
        <ele>132</ele>
        <time>2013-07-25T19:55:59Z</time>
      </trkpt>
      <trkpt lat="48.69334" lon="2.1283">
        <ele>133</ele>
        <time>2013-07-25T19:56:01Z</time>
      </trkpt>
      <trkpt lat="48.69332" lon="2.12831">
        <ele>135</ele>
        <time>2013-07-25T19:56:02Z</time>
      </trkpt>
      <trkpt lat="48.69332" lon="2.1283">
        <ele>136</ele>
        <time>2013-07-25T19:56:03Z</time>
      </trkpt>
      <trkpt lat="48.69332" lon="2.12829">
        <ele>136</ele>
        <time>2013-07-25T19:56:04Z</time>
      </trkpt>
      <trkpt lat="48.69332" lon="2.12828">
        <ele>136</ele>
        <time>2013-07-25T19:56:05Z</time>
      </trkpt>
      <trkpt lat="48.69332" lon="2.12828">
        <ele>137</ele>
        <time>2013-07-25T19:56:06Z</time>
      </trkpt>
      <trkpt lat="48.69332" lon="2.12827">
        <ele>137</ele>
        <time>2013-07-25T19:56:07Z</time>
      </trkpt>
      <trkpt lat="48.69332" lon="2.12826">
        <ele>137</ele>
        <time>2013-07-25T19:56:08Z</time>
      </trkpt>
      <trkpt lat="48.69332" lon="2.12825">
        <ele>138</ele>
        <time>2013-07-25T19:56:09Z</time>
      </trkpt>
      <trkpt lat="48.69332" lon="2.12824">
        <ele>138</ele>
        <time>2013-07-25T19:56:10Z</time>
      </trkpt>
      <trkpt lat="48.69332" lon="2.12822">
        <ele>138</ele>
        <time>2013-07-25T19:56:11Z</time>
      </trkpt>
      <trkpt lat="48.69332" lon="2.12821">
        <ele>139</ele>
        <time>2013-07-25T19:56:12Z</time>
      </trkpt>
      <trkpt lat="48.69332" lon="2.1282">
        <ele>139</ele>
        <time>2013-07-25T19:56:13Z</time>
      </trkpt>
      <trkpt lat="48.69332" lon="2.12818">
        <ele>139</ele>
        <time>2013-07-25T19:56:14Z</time>
      </trkpt>
      <trkpt lat="48.69332" lon="2.12816">
        <ele>140</ele>
        <time>2013-07-25T19:56:15Z</time>
      </trkpt>
      <trkpt lat="48.69332" lon="2.12815">
        <ele>140</ele>
        <time>2013-07-25T19:56:16Z</time>
      </trkpt>
      <trkpt lat="48.69332" lon="2.12811">
        <ele>141</ele>
        <time>2013-07-25T19:56:18Z</time>
      </trkpt>
      <trkpt lat="48.69332" lon="2.1281">
        <ele>141</ele>
        <time>2013-07-25T19:56:19Z</time>
      </trkpt>
      <trkpt lat="48.69332" lon="2.12806">
        <ele>141</ele>
        <time>2013-07-25T19:56:21Z</time>
      </trkpt>
      <trkpt lat="48.69332" lon="2.12805">
        <ele>141</ele>
        <time>2013-07-25T19:56:22Z</time>
      </trkpt>
      <trkpt lat="48.69332" lon="2.12804">
        <ele>141</ele>
        <time>2013-07-25T19:56:23Z</time>
      </trkpt>
      <trkpt lat="48.69332" lon="2.12802">
        <ele>141</ele>
        <time>2013-07-25T19:56:25Z</time>
      </trkpt>
      <trkpt lat="48.69331" lon="2.12801">
        <ele>142</ele>
        <time>2013-07-25T19:56:26Z</time>
      </trkpt>
      <trkpt lat="48.69331" lon="2.128">
        <ele>142</ele>
        <time>2013-07-25T19:56:27Z</time>
      </trkpt>
      <trkpt lat="48.6933" lon="2.12799">
        <ele>142</ele>
        <time>2013-07-25T19:56:28Z</time>
      </trkpt>
      <trkpt lat="48.6933" lon="2.12798">
        <ele>142</ele>
        <time>2013-07-25T19:56:29Z</time>
      </trkpt>
      <trkpt lat="48.69329" lon="2.12796">
        <ele>142</ele>
        <time>2013-07-25T19:56:30Z</time>
      </trkpt>
      <trkpt lat="48.69327" lon="2.12795">
        <ele>142</ele>
        <time>2013-07-25T19:56:31Z</time>
      </trkpt>
      <trkpt lat="48.69326" lon="2.12794">
        <ele>142</ele>
        <time>2013-07-25T19:56:32Z</time>
      </trkpt>
      <trkpt lat="48.69325" lon="2.12793">
        <ele>142</ele>
        <time>2013-07-25T19:56:33Z</time>
      </trkpt>
      <trkpt lat="48.69324" lon="2.12792">
        <ele>142</ele>
        <time>2013-07-25T19:56:34Z</time>
      </trkpt>
      <trkpt lat="48.69324" lon="2.12792">
        <ele>142</ele>
        <time>2013-07-25T19:56:35Z</time>
      </trkpt>
      <trkpt lat="48.69323" lon="2.12791">
        <ele>142</ele>
        <time>2013-07-25T19:56:36Z</time>
      </trkpt>
      <trkpt lat="48.69321" lon="2.1279">
        <ele>143</ele>
        <time>2013-07-25T19:56:37Z</time>
      </trkpt>
      <trkpt lat="48.6932" lon="2.1279">
        <ele>143</ele>
        <time>2013-07-25T19:56:38Z</time>
      </trkpt>
      <trkpt lat="48.69319" lon="2.12789">
        <ele>143</ele>
        <time>2013-07-25T19:56:39Z</time>
      </trkpt>
      <trkpt lat="48.69317" lon="2.12788">
        <ele>143</ele>
        <time>2013-07-25T19:56:41Z</time>
      </trkpt>
      <trkpt lat="48.69316" lon="2.12787">
        <ele>143</ele>
        <time>2013-07-25T19:56:42Z</time>
      </trkpt>
      <trkpt lat="48.69314" lon="2.12785">
        <ele>143</ele>
        <time>2013-07-25T19:56:44Z</time>
      </trkpt>
      <trkpt lat="48.69311" lon="2.12781">
        <ele>144</ele>
        <time>2013-07-25T19:56:47Z</time>
      </trkpt>
      <trkpt lat="48.6931" lon="2.1278">
        <ele>144</ele>
        <time>2013-07-25T19:56:48Z</time>
      </trkpt>
      <trkpt lat="48.69309" lon="2.12779">
        <ele>144</ele>
        <time>2013-07-25T19:56:49Z</time>
      </trkpt>
      <trkpt lat="48.69308" lon="2.12778">
        <ele>144</ele>
        <time>2013-07-25T19:56:50Z</time>
      </trkpt>
      <trkpt lat="48.69308" lon="2.12776">
        <ele>144</ele>
        <time>2013-07-25T19:56:51Z</time>
      </trkpt>
      <trkpt lat="48.69307" lon="2.12773">
        <ele>144</ele>
        <time>2013-07-25T19:56:53Z</time>
      </trkpt>
      <trkpt lat="48.69305" lon="2.12767">
        <ele>144</ele>
        <time>2013-07-25T19:56:56Z</time>
      </trkpt>
      <trkpt lat="48.69304" lon="2.12766">
        <ele>144</ele>
        <time>2013-07-25T19:56:57Z</time>
      </trkpt>
      <trkpt lat="48.69304" lon="2.12764">
        <ele>144</ele>
        <time>2013-07-25T19:56:58Z</time>
      </trkpt>
      <trkpt lat="48.69303" lon="2.12762">
        <ele>144</ele>
        <time>2013-07-25T19:56:59Z</time>
      </trkpt>
      <trkpt lat="48.69303" lon="2.12761">
        <ele>144</ele>
        <time>2013-07-25T19:57:00Z</time>
      </trkpt>
      <trkpt lat="48.69302" lon="2.12756">
        <ele>144</ele>
        <time>2013-07-25T19:57:03Z</time>
      </trkpt>
      <trkpt lat="48.69302" lon="2.12754">
        <ele>144</ele>
        <time>2013-07-25T19:57:04Z</time>
      </trkpt>
      <trkpt lat="48.69302" lon="2.12753">
        <ele>144</ele>
        <time>2013-07-25T19:57:05Z</time>
      </trkpt>
      <trkpt lat="48.69302" lon="2.12751">
        <ele>144</ele>
        <time>2013-07-25T19:57:06Z</time>
      </trkpt>
      <trkpt lat="48.69301" lon="2.1275">
        <ele>144</ele>
        <time>2013-07-25T19:57:07Z</time>
      </trkpt>
      <trkpt lat="48.69301" lon="2.12748">
        <ele>144</ele>
        <time>2013-07-25T19:57:08Z</time>
      </trkpt>
      <trkpt lat="48.693" lon="2.12745">
        <ele>144</ele>
        <time>2013-07-25T19:57:10Z</time>
      </trkpt>
      <trkpt lat="48.693" lon="2.12742">
        <ele>145</ele>
        <time>2013-07-25T19:57:12Z</time>
      </trkpt>
      <trkpt lat="48.693" lon="2.12741">
        <ele>145</ele>
        <time>2013-07-25T19:57:13Z</time>
      </trkpt>
      <trkpt lat="48.69299" lon="2.12739">
        <ele>145</ele>
        <time>2013-07-25T19:57:14Z</time>
      </trkpt>
      <trkpt lat="48.69299" lon="2.12736">
        <ele>145</ele>
        <time>2013-07-25T19:57:16Z</time>
      </trkpt>
      <trkpt lat="48.69298" lon="2.1273">
        <ele>145</ele>
        <time>2013-07-25T19:57:19Z</time>
      </trkpt>
      <trkpt lat="48.69297" lon="2.12727">
        <ele>145</ele>
        <time>2013-07-25T19:57:20Z</time>
      </trkpt>
      <trkpt lat="48.69297" lon="2.12725">
        <ele>145</ele>
        <time>2013-07-25T19:57:21Z</time>
      </trkpt>
      <trkpt lat="48.69297" lon="2.12723">
        <ele>146</ele>
        <time>2013-07-25T19:57:22Z</time>
      </trkpt>
      <trkpt lat="48.69297" lon="2.12721">
        <ele>146</ele>
        <time>2013-07-25T19:57:23Z</time>
      </trkpt>
      <trkpt lat="48.69297" lon="2.12719">
        <ele>146</ele>
        <time>2013-07-25T19:57:24Z</time>
      </trkpt>
      <trkpt lat="48.69297" lon="2.12713">
        <ele>146</ele>
        <time>2013-07-25T19:57:27Z</time>
      </trkpt>
      <trkpt lat="48.69298" lon="2.12708">
        <ele>146</ele>
        <time>2013-07-25T19:57:29Z</time>
      </trkpt>
      <trkpt lat="48.69298" lon="2.12699">
        <ele>145</ele>
        <time>2013-07-25T19:57:33Z</time>
      </trkpt>
      <trkpt lat="48.69298" lon="2.12697">
        <ele>145</ele>
        <time>2013-07-25T19:57:34Z</time>
      </trkpt>
      <trkpt lat="48.69299" lon="2.12695">
        <ele>145</ele>
        <time>2013-07-25T19:57:35Z</time>
      </trkpt>
      <trkpt lat="48.69299" lon="2.12693">
        <ele>145</ele>
        <time>2013-07-25T19:57:36Z</time>
      </trkpt>
      <trkpt lat="48.69299" lon="2.12692">
        <ele>145</ele>
        <time>2013-07-25T19:57:37Z</time>
      </trkpt>
      <trkpt lat="48.693" lon="2.1269">
        <ele>145</ele>
        <time>2013-07-25T19:57:38Z</time>
      </trkpt>
      <trkpt lat="48.693" lon="2.12688">
        <ele>145</ele>
        <time>2013-07-25T19:57:39Z</time>
      </trkpt>
      <trkpt lat="48.69301" lon="2.12686">
        <ele>145</ele>
        <time>2013-07-25T19:57:40Z</time>
      </trkpt>
      <trkpt lat="48.69302" lon="2.12683">
        <ele>144</ele>
        <time>2013-07-25T19:57:42Z</time>
      </trkpt>
      <trkpt lat="48.69303" lon="2.12679">
        <ele>144</ele>
        <time>2013-07-25T19:57:44Z</time>
      </trkpt>
      <trkpt lat="48.69304" lon="2.12675">
        <ele>144</ele>
        <time>2013-07-25T19:57:46Z</time>
      </trkpt>
      <trkpt lat="48.69304" lon="2.12671">
        <ele>143</ele>
        <time>2013-07-25T19:57:48Z</time>
      </trkpt>
      <trkpt lat="48.69305" lon="2.12666">
        <ele>146</ele>
        <time>2013-07-25T19:57:50Z</time>
      </trkpt>
      <trkpt lat="48.69305" lon="2.12664">
        <ele>146</ele>
        <time>2013-07-25T19:57:51Z</time>
      </trkpt>
      <trkpt lat="48.69305" lon="2.12662">
        <ele>146</ele>
        <time>2013-07-25T19:57:52Z</time>
      </trkpt>
      <trkpt lat="48.69305" lon="2.1266">
        <ele>146</ele>
        <time>2013-07-25T19:57:53Z</time>
      </trkpt>
      <trkpt lat="48.69305" lon="2.12658">
        <ele>146</ele>
        <time>2013-07-25T19:57:54Z</time>
      </trkpt>
      <trkpt lat="48.69305" lon="2.12656">
        <ele>146</ele>
        <time>2013-07-25T19:57:55Z</time>
      </trkpt>
      <trkpt lat="48.69305" lon="2.12654">
        <ele>146</ele>
        <time>2013-07-25T19:57:56Z</time>
      </trkpt>
      <trkpt lat="48.69305" lon="2.12652">
        <ele>146</ele>
        <time>2013-07-25T19:57:57Z</time>
      </trkpt>
      <trkpt lat="48.69306" lon="2.12645">
        <ele>147</ele>
        <time>2013-07-25T19:58:01Z</time>
      </trkpt>
      <trkpt lat="48.69305" lon="2.12637">
        <ele>148</ele>
        <time>2013-07-25T19:58:05Z</time>
      </trkpt>
      <trkpt lat="48.69304" lon="2.12634">
        <ele>148</ele>
        <time>2013-07-25T19:58:07Z</time>
      </trkpt>
      <trkpt lat="48.69304" lon="2.12633">
        <ele>148</ele>
        <time>2013-07-25T19:58:08Z</time>
      </trkpt>
      <trkpt lat="48.69304" lon="2.12631">
        <ele>148</ele>
        <time>2013-07-25T19:58:09Z</time>
      </trkpt>
      <trkpt lat="48.69304" lon="2.12627">
        <ele>149</ele>
        <time>2013-07-25T19:58:11Z</time>
      </trkpt>
      <trkpt lat="48.69303" lon="2.12624">
        <ele>149</ele>
        <time>2013-07-25T19:58:13Z</time>
      </trkpt>
      <trkpt lat="48.69302" lon="2.12623">
        <ele>149</ele>
        <time>2013-07-25T19:58:14Z</time>
      </trkpt>
      <trkpt lat="48.69302" lon="2.12621">
        <ele>149</ele>
        <time>2013-07-25T19:58:15Z</time>
      </trkpt>
      <trkpt lat="48.69301" lon="2.12619">
        <ele>149</ele>
        <time>2013-07-25T19:58:16Z</time>
      </trkpt>
      <trkpt lat="48.69301" lon="2.12617">
        <ele>150</ele>
        <time>2013-07-25T19:58:17Z</time>
      </trkpt>
      <trkpt lat="48.693" lon="2.12615">
        <ele>150</ele>
        <time>2013-07-25T19:58:18Z</time>
      </trkpt>
      <trkpt lat="48.69299" lon="2.12614">
        <ele>150</ele>
        <time>2013-07-25T19:58:19Z</time>
      </trkpt>
      <trkpt lat="48.69298" lon="2.12614">
        <ele>150</ele>
        <time>2013-07-25T19:58:20Z</time>
      </trkpt>
      <trkpt lat="48.69297" lon="2.12614">
        <ele>150</ele>
        <time>2013-07-25T19:58:21Z</time>
      </trkpt>
      <trkpt lat="48.69296" lon="2.12614">
        <ele>150</ele>
        <time>2013-07-25T19:58:22Z</time>
      </trkpt>
      <trkpt lat="48.69295" lon="2.12615">
        <ele>150</ele>
        <time>2013-07-25T19:58:24Z</time>
      </trkpt>
      <trkpt lat="48.69294" lon="2.12618">
        <ele>151</ele>
        <time>2013-07-25T19:58:26Z</time>
      </trkpt>
      <trkpt lat="48.69294" lon="2.12619">
        <ele>151</ele>
        <time>2013-07-25T19:58:27Z</time>
      </trkpt>
      <trkpt lat="48.69293" lon="2.12621">
        <ele>150</ele>
        <time>2013-07-25T19:58:28Z</time>
      </trkpt>
      <trkpt lat="48.69293" lon="2.12625">
        <ele>150</ele>
        <time>2013-07-25T19:58:30Z</time>
      </trkpt>
      <trkpt lat="48.69293" lon="2.12626">
        <ele>150</ele>
        <time>2013-07-25T19:58:31Z</time>
      </trkpt>
      <trkpt lat="48.69288" lon="2.12632">
        <ele>151</ele>
        <time>2013-07-25T19:58:36Z</time>
      </trkpt>
      <trkpt lat="48.6928" lon="2.12639">
        <ele>152</ele>
        <time>2013-07-25T19:58:41Z</time>
      </trkpt>
      <trkpt lat="48.69274" lon="2.12646">
        <ele>153</ele>
        <time>2013-07-25T19:58:46Z</time>
      </trkpt>
      <trkpt lat="48.6927" lon="2.12647">
        <ele>153</ele>
        <time>2013-07-25T19:58:48Z</time>
      </trkpt>
      <trkpt lat="48.69267" lon="2.12649">
        <ele>154</ele>
        <time>2013-07-25T19:58:49Z</time>
      </trkpt>
      <trkpt lat="48.69265" lon="2.1265">
        <ele>154</ele>
        <time>2013-07-25T19:58:50Z</time>
      </trkpt>
      <trkpt lat="48.69256" lon="2.12655">
        <ele>156</ele>
        <time>2013-07-25T19:58:55Z</time>
      </trkpt>
      <trkpt lat="48.69254" lon="2.12656">
        <ele>157</ele>
        <time>2013-07-25T19:58:56Z</time>
      </trkpt>
      <trkpt lat="48.69252" lon="2.12657">
        <ele>157</ele>
        <time>2013-07-25T19:58:57Z</time>
      </trkpt>
      <trkpt lat="48.6925" lon="2.12658">
        <ele>157</ele>
        <time>2013-07-25T19:58:58Z</time>
      </trkpt>
      <trkpt lat="48.69239" lon="2.1267">
        <ele>161</ele>
        <time>2013-07-25T19:59:04Z</time>
      </trkpt>
      <trkpt lat="48.69237" lon="2.12672">
        <ele>161</ele>
        <time>2013-07-25T19:59:05Z</time>
      </trkpt>
      <trkpt lat="48.69236" lon="2.12674">
        <ele>161</ele>
        <time>2013-07-25T19:59:06Z</time>
      </trkpt>
      <trkpt lat="48.69233" lon="2.12675">
        <ele>161</ele>
        <time>2013-07-25T19:59:07Z</time>
      </trkpt>
      <trkpt lat="48.69231" lon="2.12677">
        <ele>161</ele>
        <time>2013-07-25T19:59:08Z</time>
      </trkpt>
      <trkpt lat="48.69229" lon="2.1268">
        <ele>161</ele>
        <time>2013-07-25T19:59:09Z</time>
      </trkpt>
      <trkpt lat="48.69228" lon="2.12684">
        <ele>161</ele>
        <time>2013-07-25T19:59:10Z</time>
      </trkpt>
      <trkpt lat="48.69226" lon="2.12715">
        <ele>162</ele>
        <time>2013-07-25T19:59:17Z</time>
      </trkpt>
      <trkpt lat="48.69227" lon="2.12735">
        <ele>161</ele>
        <time>2013-07-25T19:59:20Z</time>
      </trkpt>
      <trkpt lat="48.69227" lon="2.12755">
        <ele>161</ele>
        <time>2013-07-25T19:59:23Z</time>
      </trkpt>
      <trkpt lat="48.69229" lon="2.12769">
        <ele>161</ele>
        <time>2013-07-25T19:59:25Z</time>
      </trkpt>
      <trkpt lat="48.69232" lon="2.12835">
        <ele>160</ele>
        <time>2013-07-25T19:59:34Z</time>
      </trkpt>
      <trkpt lat="48.69233" lon="2.12843">
        <ele>160</ele>
        <time>2013-07-25T19:59:35Z</time>
      </trkpt>
      <trkpt lat="48.69234" lon="2.12859">
        <ele>160</ele>
        <time>2013-07-25T19:59:37Z</time>
      </trkpt>
      <trkpt lat="48.69237" lon="2.12881">
        <ele>160</ele>
        <time>2013-07-25T19:59:40Z</time>
      </trkpt>
      <trkpt lat="48.69237" lon="2.129">
        <ele>160</ele>
        <time>2013-07-25T19:59:43Z</time>
      </trkpt>
      <trkpt lat="48.69257" lon="2.13091">
        <ele>160</ele>
        <time>2013-07-25T20:00:06Z</time>
      </trkpt>
      <trkpt lat="48.69259" lon="2.13107">
        <ele>158</ele>
        <time>2013-07-25T20:00:08Z</time>
      </trkpt>
      <trkpt lat="48.6926" lon="2.13115">
        <ele>158</ele>
        <time>2013-07-25T20:00:09Z</time>
      </trkpt>
      <trkpt lat="48.69263" lon="2.1314">
        <ele>158</ele>
        <time>2013-07-25T20:00:12Z</time>
      </trkpt>
      <trkpt lat="48.69268" lon="2.13193">
        <ele>160</ele>
        <time>2013-07-25T20:00:19Z</time>
      </trkpt>
      <trkpt lat="48.69263" lon="2.13274">
        <ele>163</ele>
        <time>2013-07-25T20:00:30Z</time>
      </trkpt>
      <trkpt lat="48.69255" lon="2.13352">
        <ele>166</ele>
        <time>2013-07-25T20:00:40Z</time>
      </trkpt>
      <trkpt lat="48.69247" lon="2.13401">
        <ele>169</ele>
        <time>2013-07-25T20:00:47Z</time>
      </trkpt>
      <trkpt lat="48.69244" lon="2.13406">
        <ele>169</ele>
        <time>2013-07-25T20:00:48Z</time>
      </trkpt>
      <trkpt lat="48.69238" lon="2.13413">
        <ele>169</ele>
        <time>2013-07-25T20:00:50Z</time>
      </trkpt>
      <trkpt lat="48.69232" lon="2.1342">
        <ele>170</ele>
        <time>2013-07-25T20:00:52Z</time>
      </trkpt>
      <trkpt lat="48.69229" lon="2.13423">
        <ele>170</ele>
        <time>2013-07-25T20:00:53Z</time>
      </trkpt>
      <trkpt lat="48.69218" lon="2.13432">
        <ele>170</ele>
        <time>2013-07-25T20:00:56Z</time>
      </trkpt>
      <trkpt lat="48.69209" lon="2.13439">
        <ele>170</ele>
        <time>2013-07-25T20:00:58Z</time>
      </trkpt>
      <trkpt lat="48.69201" lon="2.13446">
        <ele>170</ele>
        <time>2013-07-25T20:01:00Z</time>
      </trkpt>
      <trkpt lat="48.69118" lon="2.13504">
        <ele>171</ele>
        <time>2013-07-25T20:01:18Z</time>
      </trkpt>
      <trkpt lat="48.69113" lon="2.13506">
        <ele>171</ele>
        <time>2013-07-25T20:01:19Z</time>
      </trkpt>
      <trkpt lat="48.69109" lon="2.13508">
        <ele>171</ele>
        <time>2013-07-25T20:01:20Z</time>
      </trkpt>
      <trkpt lat="48.69105" lon="2.13509">
        <ele>170</ele>
        <time>2013-07-25T20:01:21Z</time>
      </trkpt>
      <trkpt lat="48.69102" lon="2.1351">
        <ele>170</ele>
        <time>2013-07-25T20:01:22Z</time>
      </trkpt>
      <trkpt lat="48.69097" lon="2.1351">
        <ele>170</ele>
        <time>2013-07-25T20:01:23Z</time>
      </trkpt>
      <trkpt lat="48.69027" lon="2.13495">
        <ele>166</ele>
        <time>2013-07-25T20:01:37Z</time>
      </trkpt>
      <trkpt lat="48.69023" lon="2.13495">
        <ele>166</ele>
        <time>2013-07-25T20:01:38Z</time>
      </trkpt>
      <trkpt lat="48.69013" lon="2.13493">
        <ele>166</ele>
        <time>2013-07-25T20:01:40Z</time>
      </trkpt>
      <trkpt lat="48.68861" lon="2.13452">
        <ele>169</ele>
        <time>2013-07-25T20:02:09Z</time>
      </trkpt>
      <trkpt lat="48.68858" lon="2.13449">
        <ele>169</ele>
        <time>2013-07-25T20:02:10Z</time>
      </trkpt>
      <trkpt lat="48.68856" lon="2.13445">
        <ele>169</ele>
        <time>2013-07-25T20:02:11Z</time>
      </trkpt>
      <trkpt lat="48.68838" lon="2.13337">
        <ele>166</ele>
        <time>2013-07-25T20:02:27Z</time>
      </trkpt>
      <trkpt lat="48.68834" lon="2.13313">
        <ele>165</ele>
        <time>2013-07-25T20:02:30Z</time>
      </trkpt>
      <trkpt lat="48.68834" lon="2.13305">
        <ele>165</ele>
        <time>2013-07-25T20:02:31Z</time>
      </trkpt>
      <trkpt lat="48.68819" lon="2.13205">
        <ele>164</ele>
        <time>2013-07-25T20:02:43Z</time>
      </trkpt>
      <trkpt lat="48.68816" lon="2.13193">
        <ele>164</ele>
        <time>2013-07-25T20:02:45Z</time>
      </trkpt>
      <trkpt lat="48.68815" lon="2.13189">
        <ele>164</ele>
        <time>2013-07-25T20:02:46Z</time>
      </trkpt>
      <trkpt lat="48.68816" lon="2.13187">
        <ele>164</ele>
        <time>2013-07-25T20:02:47Z</time>
      </trkpt>
      <trkpt lat="48.68816" lon="2.13187">
        <ele>164</ele>
        <time>2013-07-25T20:02:48Z</time>
      </trkpt>
      <trkpt lat="48.68813" lon="2.13185">
        <ele>164</ele>
        <time>2013-07-25T20:02:51Z</time>
      </trkpt>
      <trkpt lat="48.68811" lon="2.13185">
        <ele>164</ele>
        <time>2013-07-25T20:02:52Z</time>
      </trkpt>
      <trkpt lat="48.68806" lon="2.13182">
        <ele>164</ele>
        <time>2013-07-25T20:02:54Z</time>
      </trkpt>
      <trkpt lat="48.68804" lon="2.13181">
        <ele>164</ele>
        <time>2013-07-25T20:02:55Z</time>
      </trkpt>
      <trkpt lat="48.68801" lon="2.13181">
        <ele>163</ele>
        <time>2013-07-25T20:02:56Z</time>
      </trkpt>
      <trkpt lat="48.68798" lon="2.13181">
        <ele>163</ele>
        <time>2013-07-25T20:02:57Z</time>
      </trkpt>
      <trkpt lat="48.68792" lon="2.13181">
        <ele>163</ele>
        <time>2013-07-25T20:02:59Z</time>
      </trkpt>
      <trkpt lat="48.68776" lon="2.13181">
        <ele>163</ele>
        <time>2013-07-25T20:03:03Z</time>
      </trkpt>
      <trkpt lat="48.68763" lon="2.13182">
        <ele>163</ele>
        <time>2013-07-25T20:03:06Z</time>
      </trkpt>
      <trkpt lat="48.68758" lon="2.13182">
        <ele>163</ele>
        <time>2013-07-25T20:03:07Z</time>
      </trkpt>
      <trkpt lat="48.68753" lon="2.1318">
        <ele>163</ele>
        <time>2013-07-25T20:03:08Z</time>
      </trkpt>
      <trkpt lat="48.68748" lon="2.13177">
        <ele>160</ele>
        <time>2013-07-25T20:03:09Z</time>
      </trkpt>
      <trkpt lat="48.6874" lon="2.13171">
        <ele>160</ele>
        <time>2013-07-25T20:03:11Z</time>
      </trkpt>
      <trkpt lat="48.68737" lon="2.13167">
        <ele>159</ele>
        <time>2013-07-25T20:03:12Z</time>
      </trkpt>
      <trkpt lat="48.68735" lon="2.13161">
        <ele>159</ele>
        <time>2013-07-25T20:03:13Z</time>
      </trkpt>
      <trkpt lat="48.68722" lon="2.13052">
        <ele>157</ele>
        <time>2013-07-25T20:03:27Z</time>
      </trkpt>
      <trkpt lat="48.68713" lon="2.13001">
        <ele>157</ele>
        <time>2013-07-25T20:03:33Z</time>
      </trkpt>
      <trkpt lat="48.68709" lon="2.12985">
        <ele>158</ele>
        <time>2013-07-25T20:03:35Z</time>
      </trkpt>
      <trkpt lat="48.68645" lon="2.12831">
        <ele>157</ele>
        <time>2013-07-25T20:03:54Z</time>
      </trkpt>
      <trkpt lat="48.68644" lon="2.12824">
        <ele>157</ele>
        <time>2013-07-25T20:03:55Z</time>
      </trkpt>
      <trkpt lat="48.68642" lon="2.1281">
        <ele>157</ele>
        <time>2013-07-25T20:03:57Z</time>
      </trkpt>
      <trkpt lat="48.68641" lon="2.12805">
        <ele>157</ele>
        <time>2013-07-25T20:03:58Z</time>
      </trkpt>
      <trkpt lat="48.68638" lon="2.12802">
        <ele>157</ele>
        <time>2013-07-25T20:03:59Z</time>
      </trkpt>
      <trkpt lat="48.68634" lon="2.12801">
        <ele>157</ele>
        <time>2013-07-25T20:04:00Z</time>
      </trkpt>
      <trkpt lat="48.68597" lon="2.12794">
        <ele>156</ele>
        <time>2013-07-25T20:04:06Z</time>
      </trkpt>
      <trkpt lat="48.68547" lon="2.12776">
        <ele>154</ele>
        <time>2013-07-25T20:04:14Z</time>
      </trkpt>
      <trkpt lat="48.68415" lon="2.12739">
        <ele>157</ele>
        <time>2013-07-25T20:04:43Z</time>
      </trkpt>
      <trkpt lat="48.68395" lon="2.12733">
        <ele>158</ele>
        <time>2013-07-25T20:04:49Z</time>
      </trkpt>
      <trkpt lat="48.68382" lon="2.12727">
        <ele>158</ele>
        <time>2013-07-25T20:04:53Z</time>
      </trkpt>
      <trkpt lat="48.68365" lon="2.12716">
        <ele>158</ele>
        <time>2013-07-25T20:04:58Z</time>
      </trkpt>
      <trkpt lat="48.68359" lon="2.12711">
        <ele>158</ele>
        <time>2013-07-25T20:05:00Z</time>
      </trkpt>
      <trkpt lat="48.68353" lon="2.12706">
        <ele>158</ele>
        <time>2013-07-25T20:05:02Z</time>
      </trkpt>
      <trkpt lat="48.68338" lon="2.12691">
        <ele>158</ele>
        <time>2013-07-25T20:05:07Z</time>
      </trkpt>
      <trkpt lat="48.68335" lon="2.12687">
        <ele>158</ele>
        <time>2013-07-25T20:05:08Z</time>
      </trkpt>
      <trkpt lat="48.68333" lon="2.12683">
        <ele>158</ele>
        <time>2013-07-25T20:05:09Z</time>
      </trkpt>
      <trkpt lat="48.6833" lon="2.12674">
        <ele>158</ele>
        <time>2013-07-25T20:05:11Z</time>
      </trkpt>
      <trkpt lat="48.68328" lon="2.1267">
        <ele>158</ele>
        <time>2013-07-25T20:05:12Z</time>
      </trkpt>
      <trkpt lat="48.68315" lon="2.12658">
        <ele>159</ele>
        <time>2013-07-25T20:05:16Z</time>
      </trkpt>
      <trkpt lat="48.68311" lon="2.12655">
        <ele>159</ele>
        <time>2013-07-25T20:05:17Z</time>
      </trkpt>
      <trkpt lat="48.68307" lon="2.12653">
        <ele>159</ele>
        <time>2013-07-25T20:05:18Z</time>
      </trkpt>
      <trkpt lat="48.68303" lon="2.12653">
        <ele>159</ele>
        <time>2013-07-25T20:05:19Z</time>
      </trkpt>
      <trkpt lat="48.683" lon="2.12655">
        <ele>159</ele>
        <time>2013-07-25T20:05:20Z</time>
      </trkpt>
      <trkpt lat="48.68296" lon="2.12658">
        <ele>159</ele>
        <time>2013-07-25T20:05:21Z</time>
      </trkpt>
      <trkpt lat="48.68094" lon="2.12858">
        <ele>159</ele>
        <time>2013-07-25T20:06:08Z</time>
      </trkpt>
      <trkpt lat="48.6805" lon="2.1289">
        <ele>159</ele>
        <time>2013-07-25T20:06:16Z</time>
      </trkpt>
      <trkpt lat="48.68009" lon="2.12915">
        <ele>159</ele>
        <time>2013-07-25T20:06:23Z</time>
      </trkpt>
      <trkpt lat="48.67893" lon="2.12955">
        <ele>160</ele>
        <time>2013-07-25T20:06:42Z</time>
      </trkpt>
      <trkpt lat="48.67852" lon="2.12978">
        <ele>161</ele>
        <time>2013-07-25T20:06:49Z</time>
      </trkpt>
      <trkpt lat="48.67804" lon="2.13016">
        <ele>161</ele>
        <time>2013-07-25T20:06:58Z</time>
      </trkpt>
      <trkpt lat="48.67781" lon="2.13046">
        <ele>161</ele>
        <time>2013-07-25T20:07:04Z</time>
      </trkpt>
      <trkpt lat="48.67778" lon="2.13052">
        <ele>161</ele>
        <time>2013-07-25T20:07:05Z</time>
      </trkpt>
      <trkpt lat="48.67776" lon="2.13058">
        <ele>161</ele>
        <time>2013-07-25T20:07:06Z</time>
      </trkpt>
      <trkpt lat="48.67773" lon="2.13079">
        <ele>161</ele>
        <time>2013-07-25T20:07:09Z</time>
      </trkpt>
      <trkpt lat="48.6777" lon="2.13085">
        <ele>160</ele>
        <time>2013-07-25T20:07:10Z</time>
      </trkpt>
      <trkpt lat="48.67767" lon="2.1309">
        <ele>160</ele>
        <time>2013-07-25T20:07:11Z</time>
      </trkpt>
      <trkpt lat="48.67762" lon="2.13094">
        <ele>160</ele>
        <time>2013-07-25T20:07:12Z</time>
      </trkpt>
      <trkpt lat="48.67758" lon="2.13097">
        <ele>160</ele>
        <time>2013-07-25T20:07:13Z</time>
      </trkpt>
      <trkpt lat="48.67742" lon="2.13102">
        <ele>161</ele>
        <time>2013-07-25T20:07:16Z</time>
      </trkpt>
      <trkpt lat="48.67722" lon="2.13113">
        <ele>161</ele>
        <time>2013-07-25T20:07:20Z</time>
      </trkpt>
      <trkpt lat="48.67717" lon="2.13117">
        <ele>161</ele>
        <time>2013-07-25T20:07:21Z</time>
      </trkpt>
      <trkpt lat="48.67712" lon="2.13122">
        <ele>161</ele>
        <time>2013-07-25T20:07:22Z</time>
      </trkpt>
      <trkpt lat="48.67708" lon="2.13127">
        <ele>161</ele>
        <time>2013-07-25T20:07:23Z</time>
      </trkpt>
      <trkpt lat="48.67704" lon="2.13134">
        <ele>161</ele>
        <time>2013-07-25T20:07:24Z</time>
      </trkpt>
      <trkpt lat="48.67698" lon="2.13147">
        <ele>161</ele>
        <time>2013-07-25T20:07:26Z</time>
      </trkpt>
      <trkpt lat="48.67681" lon="2.13199">
        <ele>161</ele>
        <time>2013-07-25T20:07:33Z</time>
      </trkpt>
      <trkpt lat="48.67676" lon="2.1323">
        <ele>162</ele>
        <time>2013-07-25T20:07:37Z</time>
      </trkpt>
      <trkpt lat="48.67675" lon="2.13264">
        <ele>162</ele>
        <time>2013-07-25T20:07:42Z</time>
      </trkpt>
      <trkpt lat="48.67673" lon="2.13269">
        <ele>162</ele>
        <time>2013-07-25T20:07:43Z</time>
      </trkpt>
      <trkpt lat="48.67671" lon="2.13274">
        <ele>161</ele>
        <time>2013-07-25T20:07:44Z</time>
      </trkpt>
      <trkpt lat="48.67666" lon="2.13282">
        <ele>162</ele>
        <time>2013-07-25T20:07:46Z</time>
      </trkpt>
      <trkpt lat="48.67665" lon="2.13286">
        <ele>162</ele>
        <time>2013-07-25T20:07:47Z</time>
      </trkpt>
      <trkpt lat="48.67664" lon="2.1329">
        <ele>162</ele>
        <time>2013-07-25T20:07:48Z</time>
      </trkpt>
      <trkpt lat="48.67662" lon="2.13295">
        <ele>162</ele>
        <time>2013-07-25T20:07:49Z</time>
      </trkpt>
      <trkpt lat="48.67659" lon="2.13298">
        <ele>162</ele>
        <time>2013-07-25T20:07:50Z</time>
      </trkpt>
      <trkpt lat="48.67655" lon="2.13298">
        <ele>162</ele>
        <time>2013-07-25T20:07:51Z</time>
      </trkpt>
      <trkpt lat="48.67647" lon="2.13295">
        <ele>162</ele>
        <time>2013-07-25T20:07:53Z</time>
      </trkpt>
      <trkpt lat="48.67619" lon="2.13286">
        <ele>162</ele>
        <time>2013-07-25T20:07:59Z</time>
      </trkpt>
      <trkpt lat="48.67599" lon="2.13279">
        <ele>162</ele>
        <time>2013-07-25T20:08:03Z</time>
      </trkpt>
      <trkpt lat="48.67595" lon="2.13278">
        <ele>162</ele>
        <time>2013-07-25T20:08:04Z</time>
      </trkpt>
      <trkpt lat="48.6759" lon="2.13278">
        <ele>162</ele>
        <time>2013-07-25T20:08:05Z</time>
      </trkpt>
      <trkpt lat="48.67584" lon="2.13278">
        <ele>162</ele>
        <time>2013-07-25T20:08:06Z</time>
      </trkpt>
      <trkpt lat="48.6758" lon="2.1328">
        <ele>163</ele>
        <time>2013-07-25T20:08:07Z</time>
      </trkpt>
      <trkpt lat="48.67571" lon="2.13287">
        <ele>163</ele>
        <time>2013-07-25T20:08:09Z</time>
      </trkpt>
      <trkpt lat="48.67567" lon="2.13292">
        <ele>163</ele>
        <time>2013-07-25T20:08:10Z</time>
      </trkpt>
      <trkpt lat="48.67563" lon="2.13297">
        <ele>163</ele>
        <time>2013-07-25T20:08:11Z</time>
      </trkpt>
      <trkpt lat="48.67444" lon="2.1352">
        <ele>163</ele>
        <time>2013-07-25T20:08:46Z</time>
      </trkpt>
      <trkpt lat="48.67378" lon="2.13721">
        <ele>162</ele>
        <time>2013-07-25T20:09:11Z</time>
      </trkpt>
      <trkpt lat="48.67361" lon="2.13758">
        <ele>161</ele>
        <time>2013-07-25T20:09:16Z</time>
      </trkpt>
      <trkpt lat="48.67347" lon="2.13777">
        <ele>161</ele>
        <time>2013-07-25T20:09:19Z</time>
      </trkpt>
      <trkpt lat="48.67326" lon="2.13796">
        <ele>163</ele>
        <time>2013-07-25T20:09:23Z</time>
      </trkpt>
      <trkpt lat="48.67306" lon="2.1381">
        <ele>163</ele>
        <time>2013-07-25T20:09:27Z</time>
      </trkpt>
      <trkpt lat="48.6727" lon="2.13838">
        <ele>162</ele>
        <time>2013-07-25T20:09:34Z</time>
      </trkpt>
      <trkpt lat="48.67265" lon="2.13843">
        <ele>162</ele>
        <time>2013-07-25T20:09:35Z</time>
      </trkpt>
      <trkpt lat="48.67261" lon="2.13849">
        <ele>162</ele>
        <time>2013-07-25T20:09:36Z</time>
      </trkpt>
      <trkpt lat="48.67258" lon="2.13857">
        <ele>162</ele>
        <time>2013-07-25T20:09:37Z</time>
      </trkpt>
      <trkpt lat="48.67256" lon="2.13866">
        <ele>162</ele>
        <time>2013-07-25T20:09:38Z</time>
      </trkpt>
      <trkpt lat="48.67255" lon="2.13876">
        <ele>162</ele>
        <time>2013-07-25T20:09:39Z</time>
      </trkpt>
      <trkpt lat="48.67256" lon="2.13885">
        <ele>162</ele>
        <time>2013-07-25T20:09:40Z</time>
      </trkpt>
      <trkpt lat="48.67262" lon="2.13912">
        <ele>161</ele>
        <time>2013-07-25T20:09:43Z</time>
      </trkpt>
      <trkpt lat="48.67333" lon="2.14059">
        <ele>161</ele>
        <time>2013-07-25T20:10:02Z</time>
      </trkpt>
      <trkpt lat="48.67335" lon="2.14067">
        <ele>160</ele>
        <time>2013-07-25T20:10:03Z</time>
      </trkpt>
      <trkpt lat="48.67341" lon="2.14094">
        <ele>161</ele>
        <time>2013-07-25T20:10:06Z</time>
      </trkpt>
      <trkpt lat="48.67343" lon="2.14112">
        <ele>161</ele>
        <time>2013-07-25T20:10:08Z</time>
      </trkpt>
      <trkpt lat="48.67339" lon="2.14655">
        <ele>157</ele>
        <time>2013-07-25T20:11:06Z</time>
      </trkpt>
      <trkpt lat="48.67326" lon="2.14723">
        <ele>157</ele>
        <time>2013-07-25T20:11:14Z</time>
      </trkpt>
      <trkpt lat="48.67327" lon="2.14731">
        <ele>157</ele>
        <time>2013-07-25T20:11:15Z</time>
      </trkpt>
      <trkpt lat="48.67329" lon="2.14738">
        <ele>157</ele>
        <time>2013-07-25T20:11:16Z</time>
      </trkpt>
      <trkpt lat="48.67333" lon="2.14744">
        <ele>156</ele>
        <time>2013-07-25T20:11:17Z</time>
      </trkpt>
      <trkpt lat="48.67338" lon="2.14749">
        <ele>156</ele>
        <time>2013-07-25T20:11:18Z</time>
      </trkpt>
      <trkpt lat="48.67355" lon="2.14762">
        <ele>155</ele>
        <time>2013-07-25T20:11:21Z</time>
      </trkpt>
      <trkpt lat="48.67439" lon="2.1482">
        <ele>153</ele>
        <time>2013-07-25T20:11:35Z</time>
      </trkpt>
      <trkpt lat="48.67443" lon="2.14824">
        <ele>153</ele>
        <time>2013-07-25T20:11:36Z</time>
      </trkpt>
      <trkpt lat="48.67446" lon="2.14829">
        <ele>153</ele>
        <time>2013-07-25T20:11:37Z</time>
      </trkpt>
      <trkpt lat="48.67448" lon="2.14836">
        <ele>153</ele>
        <time>2013-07-25T20:11:38Z</time>
      </trkpt>
      <trkpt lat="48.67448" lon="2.14842">
        <ele>153</ele>
        <time>2013-07-25T20:11:39Z</time>
      </trkpt>
      <trkpt lat="48.67432" lon="2.14905">
        <ele>153</ele>
        <time>2013-07-25T20:11:47Z</time>
      </trkpt>
      <trkpt lat="48.6741" lon="2.1503">
        <ele>152</ele>
        <time>2013-07-25T20:12:00Z</time>
      </trkpt>
      <trkpt lat="48.67405" lon="2.1511">
        <ele>151</ele>
        <time>2013-07-25T20:12:09Z</time>
      </trkpt>
      <trkpt lat="48.67412" lon="2.15283">
        <ele>154</ele>
        <time>2013-07-25T20:12:28Z</time>
      </trkpt>
      <trkpt lat="48.67418" lon="2.15308">
        <ele>151</ele>
        <time>2013-07-25T20:12:31Z</time>
      </trkpt>
      <trkpt lat="48.67424" lon="2.15323">
        <ele>152</ele>
        <time>2013-07-25T20:12:33Z</time>
      </trkpt>
      <trkpt lat="48.67495" lon="2.15427">
        <ele>150</ele>
        <time>2013-07-25T20:12:47Z</time>
      </trkpt>
      <trkpt lat="48.67559" lon="2.15557">
        <ele>148</ele>
        <time>2013-07-25T20:13:05Z</time>
      </trkpt>
      <trkpt lat="48.67603" lon="2.15623">
        <ele>149</ele>
        <time>2013-07-25T20:13:16Z</time>
      </trkpt>
      <trkpt lat="48.6761" lon="2.15635">
        <ele>149</ele>
        <time>2013-07-25T20:13:18Z</time>
      </trkpt>
      <trkpt lat="48.67623" lon="2.15674">
        <ele>151</ele>
        <time>2013-07-25T20:13:24Z</time>
      </trkpt>
      <trkpt lat="48.67624" lon="2.1568">
        <ele>151</ele>
        <time>2013-07-25T20:13:25Z</time>
      </trkpt>
      <trkpt lat="48.67624" lon="2.15685">
        <ele>151</ele>
        <time>2013-07-25T20:13:26Z</time>
      </trkpt>
      <trkpt lat="48.67623" lon="2.15691">
        <ele>151</ele>
        <time>2013-07-25T20:13:27Z</time>
      </trkpt>
      <trkpt lat="48.67623" lon="2.15697">
        <ele>151</ele>
        <time>2013-07-25T20:13:29Z</time>
      </trkpt>
      <trkpt lat="48.67623" lon="2.15698">
        <ele>151</ele>
        <time>2013-07-25T20:13:30Z</time>
      </trkpt>
      <trkpt lat="48.67623" lon="2.15699">
        <ele>151</ele>
        <time>2013-07-25T20:13:32Z</time>
      </trkpt>
      <trkpt lat="48.67623" lon="2.15704">
        <ele>151</ele>
        <time>2013-07-25T20:13:35Z</time>
      </trkpt>
      <trkpt lat="48.67623" lon="2.15706">
        <ele>151</ele>
        <time>2013-07-25T20:13:36Z</time>
      </trkpt>
      <trkpt lat="48.67623" lon="2.15708">
        <ele>151</ele>
        <time>2013-07-25T20:13:37Z</time>
      </trkpt>
      <trkpt lat="48.67623" lon="2.1571">
        <ele>151</ele>
        <time>2013-07-25T20:13:38Z</time>
      </trkpt>
      <trkpt lat="48.67621" lon="2.15717">
        <ele>151</ele>
        <time>2013-07-25T20:13:42Z</time>
      </trkpt>
      <trkpt lat="48.6762" lon="2.15719">
        <ele>151</ele>
        <time>2013-07-25T20:13:43Z</time>
      </trkpt>
      <trkpt lat="48.6762" lon="2.15721">
        <ele>151</ele>
        <time>2013-07-25T20:13:44Z</time>
      </trkpt>
      <trkpt lat="48.6762" lon="2.15723">
        <ele>151</ele>
        <time>2013-07-25T20:13:46Z</time>
      </trkpt>
      <trkpt lat="48.67619" lon="2.15724">
        <ele>151</ele>
        <time>2013-07-25T20:13:47Z</time>
      </trkpt>
      <trkpt lat="48.67619" lon="2.15726">
        <ele>151</ele>
        <time>2013-07-25T20:13:49Z</time>
      </trkpt>
      <trkpt lat="48.67619" lon="2.15728">
        <ele>151</ele>
        <time>2013-07-25T20:13:51Z</time>
      </trkpt>
      <trkpt lat="48.67618" lon="2.15731">
        <ele>151</ele>
        <time>2013-07-25T20:13:53Z</time>
      </trkpt>
      <trkpt lat="48.67617" lon="2.15733">
        <ele>151</ele>
        <time>2013-07-25T20:13:54Z</time>
      </trkpt>
      <trkpt lat="48.67615" lon="2.1574">
        <ele>151</ele>
        <time>2013-07-25T20:13:56Z</time>
      </trkpt>
      <trkpt lat="48.67578" lon="2.15885">
        <ele>152</ele>
        <time>2013-07-25T20:14:20Z</time>
      </trkpt>
      <trkpt lat="48.67574" lon="2.15917">
        <ele>154</ele>
        <time>2013-07-25T20:14:25Z</time>
      </trkpt>
      <trkpt lat="48.67572" lon="2.1593">
        <ele>154</ele>
        <time>2013-07-25T20:14:27Z</time>
      </trkpt>
      <trkpt lat="48.67563" lon="2.16125">
        <ele>155</ele>
        <time>2013-07-25T20:14:56Z</time>
      </trkpt>
      <trkpt lat="48.67563" lon="2.16131">
        <ele>155</ele>
        <time>2013-07-25T20:14:57Z</time>
      </trkpt>
      <trkpt lat="48.67565" lon="2.16137">
        <ele>155</ele>
        <time>2013-07-25T20:14:58Z</time>
      </trkpt>
      <trkpt lat="48.67586" lon="2.16189">
        <ele>156</ele>
        <time>2013-07-25T20:15:07Z</time>
      </trkpt>
      <trkpt lat="48.67598" lon="2.16214">
        <ele>156</ele>
        <time>2013-07-25T20:15:11Z</time>
      </trkpt>
      <trkpt lat="48.67607" lon="2.16233">
        <ele>156</ele>
        <time>2013-07-25T20:15:14Z</time>
      </trkpt>
      <trkpt lat="48.67611" lon="2.16238">
        <ele>156</ele>
        <time>2013-07-25T20:15:15Z</time>
      </trkpt>
      <trkpt lat="48.67646" lon="2.16308">
        <ele>156</ele>
        <time>2013-07-25T20:15:27Z</time>
      </trkpt>
      <trkpt lat="48.67655" lon="2.16332">
        <ele>157</ele>
        <time>2013-07-25T20:15:31Z</time>
      </trkpt>
      <trkpt lat="48.67664" lon="2.1637">
        <ele>156</ele>
        <time>2013-07-25T20:15:37Z</time>
      </trkpt>
      <trkpt lat="48.67666" lon="2.16375">
        <ele>156</ele>
        <time>2013-07-25T20:15:38Z</time>
      </trkpt>
      <trkpt lat="48.67669" lon="2.16379">
        <ele>158</ele>
        <time>2013-07-25T20:15:39Z</time>
      </trkpt>
      <trkpt lat="48.67676" lon="2.16384">
        <ele>158</ele>
        <time>2013-07-25T20:15:41Z</time>
      </trkpt>
      <trkpt lat="48.67682" lon="2.16386">
        <ele>158</ele>
        <time>2013-07-25T20:15:43Z</time>
      </trkpt>
      <trkpt lat="48.67685" lon="2.16387">
        <ele>158</ele>
        <time>2013-07-25T20:15:44Z</time>
      </trkpt>
      <trkpt lat="48.67687" lon="2.16389">
        <ele>158</ele>
        <time>2013-07-25T20:15:45Z</time>
      </trkpt>
      <trkpt lat="48.6769" lon="2.16392">
        <ele>158</ele>
        <time>2013-07-25T20:15:47Z</time>
      </trkpt>
      <trkpt lat="48.67691" lon="2.16394">
        <ele>158</ele>
        <time>2013-07-25T20:15:48Z</time>
      </trkpt>
      <trkpt lat="48.67691" lon="2.16395">
        <ele>158</ele>
        <time>2013-07-25T20:15:49Z</time>
      </trkpt>
      <trkpt lat="48.67692" lon="2.16396">
        <ele>158</ele>
        <time>2013-07-25T20:15:50Z</time>
      </trkpt>
      <trkpt lat="48.67692" lon="2.16399">
        <ele>158</ele>
        <time>2013-07-25T20:15:51Z</time>
      </trkpt>
      <trkpt lat="48.67689" lon="2.16404">
        <ele>158</ele>
        <time>2013-07-25T20:15:53Z</time>
      </trkpt>
      <trkpt lat="48.67688" lon="2.16408">
        <ele>158</ele>
        <time>2013-07-25T20:15:54Z</time>
      </trkpt>
      <trkpt lat="48.67686" lon="2.16413">
        <ele>157</ele>
        <time>2013-07-25T20:15:55Z</time>
      </trkpt>
      <trkpt lat="48.67685" lon="2.16424">
        <ele>157</ele>
        <time>2013-07-25T20:15:57Z</time>
      </trkpt>
      <trkpt lat="48.67684" lon="2.16566">
        <ele>157</ele>
        <time>2013-07-25T20:16:21Z</time>
      </trkpt>
      <trkpt lat="48.67685" lon="2.16582">
        <ele>157</ele>
        <time>2013-07-25T20:16:24Z</time>
      </trkpt>
      <trkpt lat="48.67688" lon="2.16594">
        <ele>157</ele>
        <time>2013-07-25T20:16:26Z</time>
      </trkpt>
      <trkpt lat="48.6769" lon="2.16599">
        <ele>158</ele>
        <time>2013-07-25T20:16:27Z</time>
      </trkpt>
      <trkpt lat="48.67697" lon="2.16608">
        <ele>158</ele>
        <time>2013-07-25T20:16:30Z</time>
      </trkpt>
      <trkpt lat="48.67699" lon="2.1661">
        <ele>158</ele>
        <time>2013-07-25T20:16:31Z</time>
      </trkpt>
      <trkpt lat="48.67701" lon="2.16613">
        <ele>158</ele>
        <time>2013-07-25T20:16:32Z</time>
      </trkpt>
      <trkpt lat="48.67712" lon="2.16627">
        <ele>158</ele>
        <time>2013-07-25T20:16:36Z</time>
      </trkpt>
      <trkpt lat="48.67714" lon="2.16631">
        <ele>158</ele>
        <time>2013-07-25T20:16:37Z</time>
      </trkpt>
      <trkpt lat="48.67718" lon="2.16642">
        <ele>159</ele>
        <time>2013-07-25T20:16:40Z</time>
      </trkpt>
      <trkpt lat="48.67722" lon="2.16659">
        <ele>159</ele>
        <time>2013-07-25T20:16:44Z</time>
      </trkpt>
      <trkpt lat="48.67723" lon="2.16662">
        <ele>159</ele>
        <time>2013-07-25T20:16:45Z</time>
      </trkpt>
      <trkpt lat="48.67726" lon="2.16667">
        <ele>159</ele>
        <time>2013-07-25T20:16:47Z</time>
      </trkpt>
      <trkpt lat="48.6773" lon="2.1667">
        <ele>160</ele>
        <time>2013-07-25T20:16:49Z</time>
      </trkpt>
      <trkpt lat="48.67734" lon="2.16672">
        <ele>160</ele>
        <time>2013-07-25T20:16:51Z</time>
      </trkpt>
      <trkpt lat="48.67736" lon="2.16673">
        <ele>160</ele>
        <time>2013-07-25T20:16:52Z</time>
      </trkpt>
      <trkpt lat="48.67738" lon="2.16673">
        <ele>160</ele>
        <time>2013-07-25T20:16:53Z</time>
      </trkpt>
      <trkpt lat="48.67742" lon="2.16671">
        <ele>160</ele>
        <time>2013-07-25T20:16:56Z</time>
      </trkpt>
      <trkpt lat="48.67743" lon="2.16671">
        <ele>160</ele>
        <time>2013-07-25T20:16:57Z</time>
      </trkpt>
      <trkpt lat="48.67744" lon="2.1667">
        <ele>160</ele>
        <time>2013-07-25T20:16:58Z</time>
      </trkpt>
      <trkpt lat="48.67745" lon="2.1667">
        <ele>160</ele>
        <time>2013-07-25T20:16:59Z</time>
      </trkpt>
      <trkpt lat="48.67746" lon="2.1667">
        <ele>161</ele>
        <time>2013-07-25T20:17:00Z</time>
      </trkpt>
      <trkpt lat="48.67747" lon="2.16668">
        <ele>161</ele>
        <time>2013-07-25T20:17:02Z</time>
      </trkpt>
      <trkpt lat="48.67747" lon="2.16668">
        <ele>161</ele>
        <time>2013-07-25T20:17:03Z</time>
      </trkpt>
      <trkpt lat="48.67747" lon="2.16667">
        <ele>161</ele>
        <time>2013-07-25T20:17:04Z</time>
      </trkpt>
      <trkpt lat="48.67747" lon="2.16667">
        <ele>161</ele>
        <time>2013-07-25T20:17:05Z</time>
      </trkpt>
      <trkpt lat="48.67747" lon="2.16667">
        <ele>161</ele>
        <time>2013-07-25T20:17:06Z</time>
      </trkpt>
      <trkpt lat="48.67747" lon="2.16666">
        <ele>161</ele>
        <time>2013-07-25T20:17:07Z</time>
      </trkpt>
      <trkpt lat="48.67747" lon="2.16667">
        <ele>161</ele>
        <time>2013-07-25T20:17:08Z</time>
      </trkpt>
      <trkpt lat="48.67747" lon="2.16667">
        <ele>161</ele>
        <time>2013-07-25T20:17:09Z</time>
      </trkpt>
      <trkpt lat="48.67748" lon="2.16668">
        <ele>161</ele>
        <time>2013-07-25T20:17:10Z</time>
      </trkpt>
      <trkpt lat="48.67748" lon="2.16668">
        <ele>161</ele>
        <time>2013-07-25T20:17:10Z</time>
      </trkpt>
    </trkseg>
  </trk>
</gpx>